<?xml version="1.0" encoding="UTF-8"?><gpx xmlns="http://www.topografix.com/GPX/1/1" version="1.1" creator="iOrient"><trk><name>GreatWalk. Два Кабана</name><trkseg><trkpt lat="55.7611778" lon="49.1375724"><time>2022-10-29T07:54:41.167</time></trkpt><trkpt lat="55.7611868" lon="49.1374549"><time>2022-10-29T07:54:43.187</time></trkpt><trkpt lat="55.7612010" lon="49.1373756"><time>2022-10-29T07:54:44.190</time></trkpt><trkpt lat="55.7612282" lon="49.1372984"><time>2022-10-29T07:54:45.217</time></trkpt><trkpt lat="55.7612707" lon="49.1372291"><time>2022-10-29T07:54:46.187</time></trkpt><trkpt lat="55.7613201" lon="49.1371857"><time>2022-10-29T07:54:47.193</time></trkpt><trkpt lat="55.7613717" lon="49.1371868"><time>2022-10-29T07:54:48.167</time></trkpt><trkpt lat="55.7614231" lon="49.1372264"><time>2022-10-29T07:54:49.200</time></trkpt><trkpt lat="55.7614690" lon="49.1372986"><time>2022-10-29T07:54:50.210</time></trkpt><trkpt lat="55.7615114" lon="49.1373897"><time>2022-10-29T07:54:51.207</time></trkpt><trkpt lat="55.7615538" lon="49.1374740"><time>2022-10-29T07:54:52.213</time></trkpt><trkpt lat="55.7615976" lon="49.1375244"><time>2022-10-29T07:54:53.210</time></trkpt><trkpt lat="55.7616405" lon="49.1375521"><time>2022-10-29T07:54:54.203</time></trkpt><trkpt lat="55.7617223" lon="49.1375555"><time>2022-10-29T07:54:56.247</time></trkpt><trkpt lat="55.7617722" lon="49.1375327"><time>2022-10-29T07:54:57.223</time></trkpt><trkpt lat="55.7618279" lon="49.1375037"><time>2022-10-29T07:54:58.207</time></trkpt><trkpt lat="55.7618853" lon="49.1374697"><time>2022-10-29T07:54:59.213</time></trkpt><trkpt lat="55.7619422" lon="49.1374254"><time>2022-10-29T07:55:00.217</time></trkpt><trkpt lat="55.7620001" lon="49.1373759"><time>2022-10-29T07:55:01.200</time></trkpt><trkpt lat="55.7620587" lon="49.1373265"><time>2022-10-29T07:55:02.200</time></trkpt><trkpt lat="55.7621182" lon="49.1372760"><time>2022-10-29T07:55:03.227</time></trkpt><trkpt lat="55.7621762" lon="49.1372280"><time>2022-10-29T07:55:04.193</time></trkpt><trkpt lat="55.7622338" lon="49.1371756"><time>2022-10-29T07:55:05.197</time></trkpt><trkpt lat="55.7622911" lon="49.1371232"><time>2022-10-29T07:55:06.213</time></trkpt><trkpt lat="55.7623479" lon="49.1370693"><time>2022-10-29T07:55:07.193</time></trkpt><trkpt lat="55.7624072" lon="49.1370144"><time>2022-10-29T07:55:08.200</time></trkpt><trkpt lat="55.7624672" lon="49.1369570"><time>2022-10-29T07:55:09.193</time></trkpt><trkpt lat="55.7625273" lon="49.1368978"><time>2022-10-29T07:55:10.190</time></trkpt><trkpt lat="55.7625866" lon="49.1368376"><time>2022-10-29T07:55:11.190</time></trkpt><trkpt lat="55.7626461" lon="49.1367776"><time>2022-10-29T07:55:12.223</time></trkpt><trkpt lat="55.7627082" lon="49.1367191"><time>2022-10-29T07:55:13.197</time></trkpt><trkpt lat="55.7627720" lon="49.1366645"><time>2022-10-29T07:55:14.193</time></trkpt><trkpt lat="55.7628364" lon="49.1366105"><time>2022-10-29T07:55:15.193</time></trkpt><trkpt lat="55.7629006" lon="49.1365631"><time>2022-10-29T07:55:16.183</time></trkpt><trkpt lat="55.7629681" lon="49.1365370"><time>2022-10-29T07:55:17.247</time></trkpt><trkpt lat="55.7630311" lon="49.1365555"><time>2022-10-29T07:55:18.200</time></trkpt><trkpt lat="55.7630858" lon="49.1366184"><time>2022-10-29T07:55:19.200</time></trkpt><trkpt lat="55.7631340" lon="49.1367114"><time>2022-10-29T07:55:20.190</time></trkpt><trkpt lat="55.7631757" lon="49.1368101"><time>2022-10-29T07:55:21.190</time></trkpt><trkpt lat="55.7632137" lon="49.1369155"><time>2022-10-29T07:55:22.200</time></trkpt><trkpt lat="55.7632477" lon="49.1370218"><time>2022-10-29T07:55:23.200</time></trkpt><trkpt lat="55.7632765" lon="49.1371314"><time>2022-10-29T07:55:24.193</time></trkpt><trkpt lat="55.7633059" lon="49.1372391"><time>2022-10-29T07:55:25.200</time></trkpt><trkpt lat="55.7633359" lon="49.1373504"><time>2022-10-29T07:55:26.197</time></trkpt><trkpt lat="55.7633626" lon="49.1374633"><time>2022-10-29T07:55:27.193</time></trkpt><trkpt lat="55.7633879" lon="49.1375832"><time>2022-10-29T07:55:28.190</time></trkpt><trkpt lat="55.7634128" lon="49.1377059"><time>2022-10-29T07:55:29.197</time></trkpt><trkpt lat="55.7634433" lon="49.1378258"><time>2022-10-29T07:55:30.193</time></trkpt><trkpt lat="55.7634735" lon="49.1379458"><time>2022-10-29T07:55:31.190</time></trkpt><trkpt lat="55.7635011" lon="49.1380661"><time>2022-10-29T07:55:32.193</time></trkpt><trkpt lat="55.7635307" lon="49.1381817"><time>2022-10-29T07:55:33.190</time></trkpt><trkpt lat="55.7635578" lon="49.1382990"><time>2022-10-29T07:55:34.190</time></trkpt><trkpt lat="55.7635781" lon="49.1384167"><time>2022-10-29T07:55:35.213</time></trkpt><trkpt lat="55.7635944" lon="49.1385366"><time>2022-10-29T07:55:36.203</time></trkpt><trkpt lat="55.7636087" lon="49.1386568"><time>2022-10-29T07:55:37.180</time></trkpt><trkpt lat="55.7636238" lon="49.1387778"><time>2022-10-29T07:55:38.193</time></trkpt><trkpt lat="55.7636395" lon="49.1389026"><time>2022-10-29T07:55:39.190</time></trkpt><trkpt lat="55.7636591" lon="49.1390312"><time>2022-10-29T07:55:40.187</time></trkpt><trkpt lat="55.7636764" lon="49.1391639"><time>2022-10-29T07:55:41.190</time></trkpt><trkpt lat="55.7636922" lon="49.1392989"><time>2022-10-29T07:55:42.197</time></trkpt><trkpt lat="55.7637074" lon="49.1394364"><time>2022-10-29T07:55:43.193</time></trkpt><trkpt lat="55.7637227" lon="49.1395758"><time>2022-10-29T07:55:44.197</time></trkpt><trkpt lat="55.7637366" lon="49.1397156"><time>2022-10-29T07:55:45.197</time></trkpt><trkpt lat="55.7637523" lon="49.1398532"><time>2022-10-29T07:55:46.200</time></trkpt><trkpt lat="55.7637666" lon="49.1399920"><time>2022-10-29T07:55:47.193</time></trkpt><trkpt lat="55.7637780" lon="49.1401314"><time>2022-10-29T07:55:48.190</time></trkpt><trkpt lat="55.7637865" lon="49.1402738"><time>2022-10-29T07:55:49.193</time></trkpt><trkpt lat="55.7637951" lon="49.1404153"><time>2022-10-29T07:55:50.197</time></trkpt><trkpt lat="55.7638065" lon="49.1405511"><time>2022-10-29T07:55:51.200</time></trkpt><trkpt lat="55.7638222" lon="49.1406840"><time>2022-10-29T07:55:52.200</time></trkpt><trkpt lat="55.7638388" lon="49.1408174"><time>2022-10-29T07:55:53.200</time></trkpt><trkpt lat="55.7638483" lon="49.1409568"><time>2022-10-29T07:55:54.197</time></trkpt><trkpt lat="55.7638550" lon="49.1410985"><time>2022-10-29T07:55:55.193</time></trkpt><trkpt lat="55.7638606" lon="49.1412411"><time>2022-10-29T07:55:56.193</time></trkpt><trkpt lat="55.7638699" lon="49.1413862"><time>2022-10-29T07:55:57.197</time></trkpt><trkpt lat="55.7638832" lon="49.1415315"><time>2022-10-29T07:55:58.197</time></trkpt><trkpt lat="55.7638986" lon="49.1416753"><time>2022-10-29T07:55:59.187</time></trkpt><trkpt lat="55.7639129" lon="49.1418154"><time>2022-10-29T07:56:00.200</time></trkpt><trkpt lat="55.7639242" lon="49.1419552"><time>2022-10-29T07:56:01.197</time></trkpt><trkpt lat="55.7639323" lon="49.1420922"><time>2022-10-29T07:56:02.200</time></trkpt><trkpt lat="55.7639384" lon="49.1422294"><time>2022-10-29T07:56:03.197</time></trkpt><trkpt lat="55.7639481" lon="49.1423635"><time>2022-10-29T07:56:04.190</time></trkpt><trkpt lat="55.7639570" lon="49.1424971"><time>2022-10-29T07:56:05.200</time></trkpt><trkpt lat="55.7639647" lon="49.1426328"><time>2022-10-29T07:56:06.190</time></trkpt><trkpt lat="55.7639716" lon="49.1427677"><time>2022-10-29T07:56:07.193</time></trkpt><trkpt lat="55.7639776" lon="49.1429000"><time>2022-10-29T07:56:08.190</time></trkpt><trkpt lat="55.7639785" lon="49.1430320"><time>2022-10-29T07:56:09.193</time></trkpt><trkpt lat="55.7639768" lon="49.1431622"><time>2022-10-29T07:56:10.187</time></trkpt><trkpt lat="55.7639755" lon="49.1432904"><time>2022-10-29T07:56:11.213</time></trkpt><trkpt lat="55.7639738" lon="49.1434165"><time>2022-10-29T07:56:12.193</time></trkpt><trkpt lat="55.7639696" lon="49.1435421"><time>2022-10-29T07:56:13.197</time></trkpt><trkpt lat="55.7639642" lon="49.1436693"><time>2022-10-29T07:56:14.197</time></trkpt><trkpt lat="55.7639609" lon="49.1438012"><time>2022-10-29T07:56:15.190</time></trkpt><trkpt lat="55.7639568" lon="49.1439281"><time>2022-10-29T07:56:16.197</time></trkpt><trkpt lat="55.7639525" lon="49.1440563"><time>2022-10-29T07:56:17.200</time></trkpt><trkpt lat="55.7639443" lon="49.1441852"><time>2022-10-29T07:56:18.190</time></trkpt><trkpt lat="55.7639357" lon="49.1443169"><time>2022-10-29T07:56:19.197</time></trkpt><trkpt lat="55.7639275" lon="49.1444490"><time>2022-10-29T07:56:20.190</time></trkpt><trkpt lat="55.7639195" lon="49.1445818"><time>2022-10-29T07:56:21.190</time></trkpt><trkpt lat="55.7639130" lon="49.1447160"><time>2022-10-29T07:56:22.193</time></trkpt><trkpt lat="55.7639064" lon="49.1448491"><time>2022-10-29T07:56:23.187</time></trkpt><trkpt lat="55.7639001" lon="49.1449847"><time>2022-10-29T07:56:24.190</time></trkpt><trkpt lat="55.7638916" lon="49.1451175"><time>2022-10-29T07:56:25.187</time></trkpt><trkpt lat="55.7638858" lon="49.1452474"><time>2022-10-29T07:56:26.187</time></trkpt><trkpt lat="55.7638786" lon="49.1453773"><time>2022-10-29T07:56:27.190</time></trkpt><trkpt lat="55.7638737" lon="49.1455025"><time>2022-10-29T07:56:28.197</time></trkpt><trkpt lat="55.7638669" lon="49.1456252"><time>2022-10-29T07:56:29.190</time></trkpt><trkpt lat="55.7638589" lon="49.1457452"><time>2022-10-29T07:56:30.190</time></trkpt><trkpt lat="55.7638503" lon="49.1458657"><time>2022-10-29T07:56:31.190</time></trkpt><trkpt lat="55.7638442" lon="49.1459876"><time>2022-10-29T07:56:32.200</time></trkpt><trkpt lat="55.7638406" lon="49.1461106"><time>2022-10-29T07:56:33.217</time></trkpt><trkpt lat="55.7638352" lon="49.1462335"><time>2022-10-29T07:56:34.197</time></trkpt><trkpt lat="55.7638291" lon="49.1463537"><time>2022-10-29T07:56:35.187</time></trkpt><trkpt lat="55.7638242" lon="49.1464756"><time>2022-10-29T07:56:36.190</time></trkpt><trkpt lat="55.7638215" lon="49.1465953"><time>2022-10-29T07:56:37.233</time></trkpt><trkpt lat="55.7638163" lon="49.1467136"><time>2022-10-29T07:56:38.220</time></trkpt><trkpt lat="55.7638113" lon="49.1468295"><time>2022-10-29T07:56:39.190</time></trkpt><trkpt lat="55.7638058" lon="49.1469423"><time>2022-10-29T07:56:40.197</time></trkpt><trkpt lat="55.7638040" lon="49.1470577"><time>2022-10-29T07:56:41.173</time></trkpt><trkpt lat="55.7638034" lon="49.1471752"><time>2022-10-29T07:56:42.200</time></trkpt><trkpt lat="55.7637994" lon="49.1472895"><time>2022-10-29T07:56:43.200</time></trkpt><trkpt lat="55.7637905" lon="49.1474001"><time>2022-10-29T07:56:44.197</time></trkpt><trkpt lat="55.7637820" lon="49.1475094"><time>2022-10-29T07:56:45.187</time></trkpt><trkpt lat="55.7637738" lon="49.1476212"><time>2022-10-29T07:56:46.200</time></trkpt><trkpt lat="55.7637670" lon="49.1477365"><time>2022-10-29T07:56:47.197</time></trkpt><trkpt lat="55.7637607" lon="49.1478525"><time>2022-10-29T07:56:48.200</time></trkpt><trkpt lat="55.7637533" lon="49.1479649"><time>2022-10-29T07:56:49.200</time></trkpt><trkpt lat="55.7637468" lon="49.1480655"><time>2022-10-29T07:56:50.197</time></trkpt><trkpt lat="55.7637354" lon="49.1481474"><time>2022-10-29T07:56:51.237</time></trkpt><trkpt lat="55.7637174" lon="49.1482195"><time>2022-10-29T07:56:52.210</time></trkpt><trkpt lat="55.7636848" lon="49.1483710"><time>2022-10-29T07:56:54.197</time></trkpt><trkpt lat="55.7636718" lon="49.1484515"><time>2022-10-29T07:56:55.197</time></trkpt><trkpt lat="55.7636604" lon="49.1485307"><time>2022-10-29T07:56:56.197</time></trkpt><trkpt lat="55.7636474" lon="49.1486142"><time>2022-10-29T07:56:57.197</time></trkpt><trkpt lat="55.7636385" lon="49.1487001"><time>2022-10-29T07:56:58.197</time></trkpt><trkpt lat="55.7636306" lon="49.1487880"><time>2022-10-29T07:56:59.197</time></trkpt><trkpt lat="55.7636205" lon="49.1488791"><time>2022-10-29T07:57:00.200</time></trkpt><trkpt lat="55.7636111" lon="49.1489714"><time>2022-10-29T07:57:01.230</time></trkpt><trkpt lat="55.7635973" lon="49.1490642"><time>2022-10-29T07:57:02.230</time></trkpt><trkpt lat="55.7635789" lon="49.1491578"><time>2022-10-29T07:57:03.200</time></trkpt><trkpt lat="55.7635610" lon="49.1492520"><time>2022-10-29T07:57:04.197</time></trkpt><trkpt lat="55.7635461" lon="49.1493466"><time>2022-10-29T07:57:05.200</time></trkpt><trkpt lat="55.7635288" lon="49.1494355"><time>2022-10-29T07:57:06.220</time></trkpt><trkpt lat="55.7635288" lon="49.1494355"><time>2022-10-29T07:57:06.250</time></trkpt><trkpt lat="55.7635041" lon="49.1495103"><time>2022-10-29T07:57:07.243</time></trkpt><trkpt lat="55.7634845" lon="49.1495790"><time>2022-10-29T07:57:08.207</time></trkpt><trkpt lat="55.7634732" lon="49.1497153"><time>2022-10-29T07:57:10.197</time></trkpt><trkpt lat="55.7634633" lon="49.1498270"><time>2022-10-29T07:57:12.207</time></trkpt><trkpt lat="55.7634398" lon="49.1499492"><time>2022-10-29T07:57:14.200</time></trkpt><trkpt lat="55.7633738" lon="49.1500413"><time>2022-10-29T07:57:16.197</time></trkpt><trkpt lat="55.7633005" lon="49.1501140"><time>2022-10-29T07:57:18.227</time></trkpt><trkpt lat="55.7632613" lon="49.1501561"><time>2022-10-29T07:57:19.197</time></trkpt><trkpt lat="55.7632215" lon="49.1501996"><time>2022-10-29T07:57:20.197</time></trkpt><trkpt lat="55.7631820" lon="49.1502387"><time>2022-10-29T07:57:21.200</time></trkpt><trkpt lat="55.7631009" lon="49.1503057"><time>2022-10-29T07:57:23.200</time></trkpt><trkpt lat="55.7630575" lon="49.1503367"><time>2022-10-29T07:57:24.197</time></trkpt><trkpt lat="55.7630115" lon="49.1503745"><time>2022-10-29T07:57:25.200</time></trkpt><trkpt lat="55.7629653" lon="49.1504154"><time>2022-10-29T07:57:26.200</time></trkpt><trkpt lat="55.7629151" lon="49.1504569"><time>2022-10-29T07:57:27.200</time></trkpt><trkpt lat="55.7628645" lon="49.1504994"><time>2022-10-29T07:57:28.193</time></trkpt><trkpt lat="55.7628137" lon="49.1505427"><time>2022-10-29T07:57:29.220</time></trkpt><trkpt lat="55.7627619" lon="49.1505909"><time>2022-10-29T07:57:30.200</time></trkpt><trkpt lat="55.7627102" lon="49.1506391"><time>2022-10-29T07:57:31.197</time></trkpt><trkpt lat="55.7626589" lon="49.1506894"><time>2022-10-29T07:57:32.203</time></trkpt><trkpt lat="55.7626095" lon="49.1507400"><time>2022-10-29T07:57:33.203</time></trkpt><trkpt lat="55.7625580" lon="49.1507917"><time>2022-10-29T07:57:34.197</time></trkpt><trkpt lat="55.7625077" lon="49.1508398"><time>2022-10-29T07:57:35.197</time></trkpt><trkpt lat="55.7624591" lon="49.1508828"><time>2022-10-29T07:57:36.200</time></trkpt><trkpt lat="55.7624112" lon="49.1509252"><time>2022-10-29T07:57:37.197</time></trkpt><trkpt lat="55.7623620" lon="49.1509712"><time>2022-10-29T07:57:38.200</time></trkpt><trkpt lat="55.7623142" lon="49.1510142"><time>2022-10-29T07:57:39.197</time></trkpt><trkpt lat="55.7622617" lon="49.1510643"><time>2022-10-29T07:57:40.197</time></trkpt><trkpt lat="55.7622065" lon="49.1511132"><time>2022-10-29T07:57:41.197</time></trkpt><trkpt lat="55.7621485" lon="49.1511621"><time>2022-10-29T07:57:42.207</time></trkpt><trkpt lat="55.7620902" lon="49.1512127"><time>2022-10-29T07:57:43.200</time></trkpt><trkpt lat="55.7620300" lon="49.1512587"><time>2022-10-29T07:57:44.203</time></trkpt><trkpt lat="55.7619693" lon="49.1513040"><time>2022-10-29T07:57:45.200</time></trkpt><trkpt lat="55.7619091" lon="49.1513536"><time>2022-10-29T07:57:46.197</time></trkpt><trkpt lat="55.7618501" lon="49.1514046"><time>2022-10-29T07:57:47.197</time></trkpt><trkpt lat="55.7617888" lon="49.1514648"><time>2022-10-29T07:57:48.200</time></trkpt><trkpt lat="55.7617274" lon="49.1515330"><time>2022-10-29T07:57:49.200</time></trkpt><trkpt lat="55.7616696" lon="49.1515966"><time>2022-10-29T07:57:50.200</time></trkpt><trkpt lat="55.7616197" lon="49.1516637"><time>2022-10-29T07:57:51.197</time></trkpt><trkpt lat="55.7615695" lon="49.1517415"><time>2022-10-29T07:57:52.200</time></trkpt><trkpt lat="55.7615169" lon="49.1518238"><time>2022-10-29T07:57:53.223</time></trkpt><trkpt lat="55.7614646" lon="49.1519002"><time>2022-10-29T07:57:54.200</time></trkpt><trkpt lat="55.7614109" lon="49.1519607"><time>2022-10-29T07:57:55.200</time></trkpt><trkpt lat="55.7613463" lon="49.1520124"><time>2022-10-29T07:57:56.197</time></trkpt><trkpt lat="55.7612836" lon="49.1520645"><time>2022-10-29T07:57:57.197</time></trkpt><trkpt lat="55.7612235" lon="49.1521201"><time>2022-10-29T07:57:58.200</time></trkpt><trkpt lat="55.7611631" lon="49.1521737"><time>2022-10-29T07:57:59.203</time></trkpt><trkpt lat="55.7611034" lon="49.1522238"><time>2022-10-29T07:58:00.197</time></trkpt><trkpt lat="55.7610417" lon="49.1522787"><time>2022-10-29T07:58:01.197</time></trkpt><trkpt lat="55.7609798" lon="49.1523382"><time>2022-10-29T07:58:02.200</time></trkpt><trkpt lat="55.7609186" lon="49.1523932"><time>2022-10-29T07:58:03.203</time></trkpt><trkpt lat="55.7608584" lon="49.1524548"><time>2022-10-29T07:58:04.210</time></trkpt><trkpt lat="55.7607951" lon="49.1525166"><time>2022-10-29T07:58:05.220</time></trkpt><trkpt lat="55.7607288" lon="49.1525746"><time>2022-10-29T07:58:06.203</time></trkpt><trkpt lat="55.7606636" lon="49.1526274"><time>2022-10-29T07:58:07.200</time></trkpt><trkpt lat="55.7605949" lon="49.1526848"><time>2022-10-29T07:58:08.203</time></trkpt><trkpt lat="55.7605246" lon="49.1527496"><time>2022-10-29T07:58:09.197</time></trkpt><trkpt lat="55.7604562" lon="49.1528189"><time>2022-10-29T07:58:10.197</time></trkpt><trkpt lat="55.7603897" lon="49.1528850"><time>2022-10-29T07:58:11.197</time></trkpt><trkpt lat="55.7603208" lon="49.1529489"><time>2022-10-29T07:58:12.203</time></trkpt><trkpt lat="55.7602499" lon="49.1530139"><time>2022-10-29T07:58:13.197</time></trkpt><trkpt lat="55.7601788" lon="49.1530817"><time>2022-10-29T07:58:14.200</time></trkpt><trkpt lat="55.7601109" lon="49.1531536"><time>2022-10-29T07:58:15.200</time></trkpt><trkpt lat="55.7600437" lon="49.1532236"><time>2022-10-29T07:58:16.197</time></trkpt><trkpt lat="55.7599763" lon="49.1532959"><time>2022-10-29T07:58:17.197</time></trkpt><trkpt lat="55.7599102" lon="49.1533702"><time>2022-10-29T07:58:18.197</time></trkpt><trkpt lat="55.7598465" lon="49.1534417"><time>2022-10-29T07:58:19.197</time></trkpt><trkpt lat="55.7597810" lon="49.1535122"><time>2022-10-29T07:58:20.200</time></trkpt><trkpt lat="55.7597141" lon="49.1535771"><time>2022-10-29T07:58:21.197</time></trkpt><trkpt lat="55.7596486" lon="49.1536448"><time>2022-10-29T07:58:22.200</time></trkpt><trkpt lat="55.7595824" lon="49.1537150"><time>2022-10-29T07:58:23.207</time></trkpt><trkpt lat="55.7595157" lon="49.1537860"><time>2022-10-29T07:58:24.200</time></trkpt><trkpt lat="55.7594500" lon="49.1538564"><time>2022-10-29T07:58:25.197</time></trkpt><trkpt lat="55.7593801" lon="49.1539288"><time>2022-10-29T07:58:26.200</time></trkpt><trkpt lat="55.7593088" lon="49.1540037"><time>2022-10-29T07:58:27.197</time></trkpt><trkpt lat="55.7592384" lon="49.1540752"><time>2022-10-29T07:58:28.200</time></trkpt><trkpt lat="55.7591690" lon="49.1541426"><time>2022-10-29T07:58:29.267</time></trkpt><trkpt lat="55.7591032" lon="49.1542161"><time>2022-10-29T07:58:30.210</time></trkpt><trkpt lat="55.7590444" lon="49.1542994"><time>2022-10-29T07:58:31.203</time></trkpt><trkpt lat="55.7589842" lon="49.1543569"><time>2022-10-29T07:58:32.203</time></trkpt><trkpt lat="55.7589237" lon="49.1543679"><time>2022-10-29T07:58:33.200</time></trkpt><trkpt lat="55.7588694" lon="49.1543555"><time>2022-10-29T07:58:34.197</time></trkpt><trkpt lat="55.7588155" lon="49.1543272"><time>2022-10-29T07:58:35.200</time></trkpt><trkpt lat="55.7587656" lon="49.1542894"><time>2022-10-29T07:58:36.200</time></trkpt><trkpt lat="55.7587214" lon="49.1542396"><time>2022-10-29T07:58:37.210</time></trkpt><trkpt lat="55.7586910" lon="49.1541712"><time>2022-10-29T07:58:38.200</time></trkpt><trkpt lat="55.7586479" lon="49.1540982"><time>2022-10-29T07:58:40.230</time></trkpt><trkpt lat="55.7586034" lon="49.1541600"><time>2022-10-29T07:58:42.200</time></trkpt><trkpt lat="55.7585579" lon="49.1542110"><time>2022-10-29T07:58:44.200</time></trkpt><trkpt lat="55.7585090" lon="49.1542593"><time>2022-10-29T07:58:46.203</time></trkpt><trkpt lat="55.7585065" lon="49.1543693"><time>2022-10-29T07:58:49.200</time></trkpt><trkpt lat="55.7585170" lon="49.1544585"><time>2022-10-29T07:58:51.197</time></trkpt><trkpt lat="55.7585290" lon="49.1545972"><time>2022-10-29T07:58:53.203</time></trkpt><trkpt lat="55.7585250" lon="49.1546791"><time>2022-10-29T07:58:54.203</time></trkpt><trkpt lat="55.7585121" lon="49.1547666"><time>2022-10-29T07:58:55.203</time></trkpt><trkpt lat="55.7584920" lon="49.1548497"><time>2022-10-29T07:58:56.197</time></trkpt><trkpt lat="55.7584646" lon="49.1549166"><time>2022-10-29T07:58:57.200</time></trkpt><trkpt lat="55.7584278" lon="49.1549697"><time>2022-10-29T07:58:58.240</time></trkpt><trkpt lat="55.7583795" lon="49.1550201"><time>2022-10-29T07:58:59.207</time></trkpt><trkpt lat="55.7583290" lon="49.1550717"><time>2022-10-29T07:59:00.200</time></trkpt><trkpt lat="55.7582765" lon="49.1551222"><time>2022-10-29T07:59:01.197</time></trkpt><trkpt lat="55.7582259" lon="49.1551776"><time>2022-10-29T07:59:02.200</time></trkpt><trkpt lat="55.7581741" lon="49.1552421"><time>2022-10-29T07:59:03.200</time></trkpt><trkpt lat="55.7581206" lon="49.1553114"><time>2022-10-29T07:59:04.203</time></trkpt><trkpt lat="55.7580669" lon="49.1553778"><time>2022-10-29T07:59:05.203</time></trkpt><trkpt lat="55.7580146" lon="49.1554487"><time>2022-10-29T07:59:06.240</time></trkpt><trkpt lat="55.7579616" lon="49.1555238"><time>2022-10-29T07:59:07.210</time></trkpt><trkpt lat="55.7579065" lon="49.1556000"><time>2022-10-29T07:59:08.207</time></trkpt><trkpt lat="55.7578539" lon="49.1556780"><time>2022-10-29T07:59:09.207</time></trkpt><trkpt lat="55.7578087" lon="49.1557420"><time>2022-10-29T07:59:10.197</time></trkpt><trkpt lat="55.7577714" lon="49.1557947"><time>2022-10-29T07:59:11.213</time></trkpt><trkpt lat="55.7577714" lon="49.1557947"><time>2022-10-29T07:59:11.233</time></trkpt><trkpt lat="55.7577310" lon="49.1558507"><time>2022-10-29T07:59:13.227</time></trkpt><trkpt lat="55.7577078" lon="49.1558885"><time>2022-10-29T07:59:14.213</time></trkpt><trkpt lat="55.7576397" lon="49.1559783"><time>2022-10-29T07:59:16.197</time></trkpt><trkpt lat="55.7575976" lon="49.1560170"><time>2022-10-29T07:59:17.200</time></trkpt><trkpt lat="55.7575547" lon="49.1560606"><time>2022-10-29T07:59:18.197</time></trkpt><trkpt lat="55.7575094" lon="49.1561150"><time>2022-10-29T07:59:19.200</time></trkpt><trkpt lat="55.7574685" lon="49.1561786"><time>2022-10-29T07:59:20.203</time></trkpt><trkpt lat="55.7574240" lon="49.1562463"><time>2022-10-29T07:59:21.200</time></trkpt><trkpt lat="55.7573819" lon="49.1563084"><time>2022-10-29T07:59:22.207</time></trkpt><trkpt lat="55.7573372" lon="49.1563630"><time>2022-10-29T07:59:23.203</time></trkpt><trkpt lat="55.7572841" lon="49.1564171"><time>2022-10-29T07:59:24.210</time></trkpt><trkpt lat="55.7572328" lon="49.1564786"><time>2022-10-29T07:59:25.203</time></trkpt><trkpt lat="55.7571843" lon="49.1565425"><time>2022-10-29T07:59:26.227</time></trkpt><trkpt lat="55.7571336" lon="49.1566057"><time>2022-10-29T07:59:27.203</time></trkpt><trkpt lat="55.7570784" lon="49.1566677"><time>2022-10-29T07:59:28.203</time></trkpt><trkpt lat="55.7570199" lon="49.1567325"><time>2022-10-29T07:59:29.203</time></trkpt><trkpt lat="55.7569620" lon="49.1567969"><time>2022-10-29T07:59:30.207</time></trkpt><trkpt lat="55.7569044" lon="49.1568623"><time>2022-10-29T07:59:31.207</time></trkpt><trkpt lat="55.7568476" lon="49.1569274"><time>2022-10-29T07:59:32.207</time></trkpt><trkpt lat="55.7567898" lon="49.1569920"><time>2022-10-29T07:59:33.203</time></trkpt><trkpt lat="55.7567343" lon="49.1570603"><time>2022-10-29T07:59:34.207</time></trkpt><trkpt lat="55.7566799" lon="49.1571288"><time>2022-10-29T07:59:35.213</time></trkpt><trkpt lat="55.7566230" lon="49.1571959"><time>2022-10-29T07:59:36.203</time></trkpt><trkpt lat="55.7565638" lon="49.1572618"><time>2022-10-29T07:59:37.207</time></trkpt><trkpt lat="55.7565052" lon="49.1573270"><time>2022-10-29T07:59:38.227</time></trkpt><trkpt lat="55.7564468" lon="49.1573950"><time>2022-10-29T07:59:39.203</time></trkpt><trkpt lat="55.7563891" lon="49.1574641"><time>2022-10-29T07:59:40.203</time></trkpt><trkpt lat="55.7563313" lon="49.1575327"><time>2022-10-29T07:59:41.200</time></trkpt><trkpt lat="55.7562744" lon="49.1575997"><time>2022-10-29T07:59:42.200</time></trkpt><trkpt lat="55.7562155" lon="49.1576671"><time>2022-10-29T07:59:43.203</time></trkpt><trkpt lat="55.7561551" lon="49.1577342"><time>2022-10-29T07:59:44.203</time></trkpt><trkpt lat="55.7560964" lon="49.1578028"><time>2022-10-29T07:59:45.203</time></trkpt><trkpt lat="55.7560372" lon="49.1578724"><time>2022-10-29T07:59:46.203</time></trkpt><trkpt lat="55.7559763" lon="49.1579403"><time>2022-10-29T07:59:47.200</time></trkpt><trkpt lat="55.7559157" lon="49.1580073"><time>2022-10-29T07:59:48.200</time></trkpt><trkpt lat="55.7558565" lon="49.1580798"><time>2022-10-29T07:59:49.233</time></trkpt><trkpt lat="55.7557983" lon="49.1581546"><time>2022-10-29T07:59:50.200</time></trkpt><trkpt lat="55.7557397" lon="49.1582265"><time>2022-10-29T07:59:51.183</time></trkpt><trkpt lat="55.7556787" lon="49.1582967"><time>2022-10-29T07:59:52.207</time></trkpt><trkpt lat="55.7556200" lon="49.1583710"><time>2022-10-29T07:59:53.200</time></trkpt><trkpt lat="55.7555621" lon="49.1584470"><time>2022-10-29T07:59:54.200</time></trkpt><trkpt lat="55.7555027" lon="49.1585149"><time>2022-10-29T07:59:55.207</time></trkpt><trkpt lat="55.7554434" lon="49.1585796"><time>2022-10-29T07:59:56.200</time></trkpt><trkpt lat="55.7553874" lon="49.1586457"><time>2022-10-29T07:59:57.200</time></trkpt><trkpt lat="55.7553338" lon="49.1587072"><time>2022-10-29T07:59:58.203</time></trkpt><trkpt lat="55.7552809" lon="49.1587640"><time>2022-10-29T07:59:59.203</time></trkpt><trkpt lat="55.7552291" lon="49.1588186"><time>2022-10-29T08:00:00.203</time></trkpt><trkpt lat="55.7551795" lon="49.1588800"><time>2022-10-29T08:00:01.230</time></trkpt><trkpt lat="55.7551306" lon="49.1589465"><time>2022-10-29T08:00:02.207</time></trkpt><trkpt lat="55.7550788" lon="49.1590097"><time>2022-10-29T08:00:03.203</time></trkpt><trkpt lat="55.7550237" lon="49.1590740"><time>2022-10-29T08:00:04.203</time></trkpt><trkpt lat="55.7549707" lon="49.1591404"><time>2022-10-29T08:00:05.203</time></trkpt><trkpt lat="55.7549176" lon="49.1592055"><time>2022-10-29T08:00:06.200</time></trkpt><trkpt lat="55.7548614" lon="49.1592724"><time>2022-10-29T08:00:07.203</time></trkpt><trkpt lat="55.7548026" lon="49.1593410"><time>2022-10-29T08:00:08.207</time></trkpt><trkpt lat="55.7547548" lon="49.1594085"><time>2022-10-29T08:00:09.200</time></trkpt><trkpt lat="55.7547091" lon="49.1594795"><time>2022-10-29T08:00:10.200</time></trkpt><trkpt lat="55.7546642" lon="49.1595542"><time>2022-10-29T08:00:11.200</time></trkpt><trkpt lat="55.7546199" lon="49.1596283"><time>2022-10-29T08:00:12.207</time></trkpt><trkpt lat="55.7545699" lon="49.1596988"><time>2022-10-29T08:00:13.230</time></trkpt><trkpt lat="55.7545172" lon="49.1597678"><time>2022-10-29T08:00:14.207</time></trkpt><trkpt lat="55.7544640" lon="49.1598410"><time>2022-10-29T08:00:15.207</time></trkpt><trkpt lat="55.7544107" lon="49.1599143"><time>2022-10-29T08:00:16.207</time></trkpt><trkpt lat="55.7543598" lon="49.1599758"><time>2022-10-29T08:00:17.203</time></trkpt><trkpt lat="55.7543094" lon="49.1600308"><time>2022-10-29T08:00:18.203</time></trkpt><trkpt lat="55.7542610" lon="49.1600869"><time>2022-10-29T08:00:19.210</time></trkpt><trkpt lat="55.7542122" lon="49.1601429"><time>2022-10-29T08:00:20.203</time></trkpt><trkpt lat="55.7541670" lon="49.1601933"><time>2022-10-29T08:00:21.203</time></trkpt><trkpt lat="55.7541246" lon="49.1602426"><time>2022-10-29T08:00:22.210</time></trkpt><trkpt lat="55.7540813" lon="49.1602981"><time>2022-10-29T08:00:23.207</time></trkpt><trkpt lat="55.7540364" lon="49.1603580"><time>2022-10-29T08:00:24.203</time></trkpt><trkpt lat="55.7539923" lon="49.1604238"><time>2022-10-29T08:00:25.227</time></trkpt><trkpt lat="55.7539488" lon="49.1604934"><time>2022-10-29T08:00:26.203</time></trkpt><trkpt lat="55.7539034" lon="49.1605637"><time>2022-10-29T08:00:27.200</time></trkpt><trkpt lat="55.7538586" lon="49.1606367"><time>2022-10-29T08:00:28.203</time></trkpt><trkpt lat="55.7538136" lon="49.1607115"><time>2022-10-29T08:00:29.203</time></trkpt><trkpt lat="55.7537671" lon="49.1607852"><time>2022-10-29T08:00:30.207</time></trkpt><trkpt lat="55.7537227" lon="49.1608565"><time>2022-10-29T08:00:31.207</time></trkpt><trkpt lat="55.7536775" lon="49.1609243"><time>2022-10-29T08:00:32.210</time></trkpt><trkpt lat="55.7536301" lon="49.1609884"><time>2022-10-29T08:00:33.203</time></trkpt><trkpt lat="55.7535843" lon="49.1610505"><time>2022-10-29T08:00:34.207</time></trkpt><trkpt lat="55.7535385" lon="49.1611101"><time>2022-10-29T08:00:35.203</time></trkpt><trkpt lat="55.7534949" lon="49.1611679"><time>2022-10-29T08:00:36.203</time></trkpt><trkpt lat="55.7534546" lon="49.1612237"><time>2022-10-29T08:00:37.210</time></trkpt><trkpt lat="55.7534178" lon="49.1612786"><time>2022-10-29T08:00:38.207</time></trkpt><trkpt lat="55.7533846" lon="49.1613340"><time>2022-10-29T08:00:39.207</time></trkpt><trkpt lat="55.7533525" lon="49.1613912"><time>2022-10-29T08:00:40.203</time></trkpt><trkpt lat="55.7532951" lon="49.1614905"><time>2022-10-29T08:00:42.210</time></trkpt><trkpt lat="55.7532448" lon="49.1615513"><time>2022-10-29T08:00:44.203</time></trkpt><trkpt lat="55.7532060" lon="49.1616467"><time>2022-10-29T08:01:06.207</time></trkpt><trkpt lat="55.7531533" lon="49.1617414"><time>2022-10-29T08:01:08.207</time></trkpt><trkpt lat="55.7530890" lon="49.1618434"><time>2022-10-29T08:01:10.200</time></trkpt><trkpt lat="55.7530528" lon="49.1618982"><time>2022-10-29T08:01:11.207</time></trkpt><trkpt lat="55.7530127" lon="49.1619527"><time>2022-10-29T08:01:12.213</time></trkpt><trkpt lat="55.7529676" lon="49.1620080"><time>2022-10-29T08:01:13.203</time></trkpt><trkpt lat="55.7529167" lon="49.1620629"><time>2022-10-29T08:01:14.210</time></trkpt><trkpt lat="55.7528574" lon="49.1621215"><time>2022-10-29T08:01:15.203</time></trkpt><trkpt lat="55.7527992" lon="49.1621788"><time>2022-10-29T08:01:16.207</time></trkpt><trkpt lat="55.7527434" lon="49.1622327"><time>2022-10-29T08:01:17.203</time></trkpt><trkpt lat="55.7526870" lon="49.1622914"><time>2022-10-29T08:01:18.203</time></trkpt><trkpt lat="55.7526251" lon="49.1623421"><time>2022-10-29T08:01:19.207</time></trkpt><trkpt lat="55.7525628" lon="49.1623954"><time>2022-10-29T08:01:20.207</time></trkpt><trkpt lat="55.7524987" lon="49.1624455"><time>2022-10-29T08:01:21.207</time></trkpt><trkpt lat="55.7524382" lon="49.1624924"><time>2022-10-29T08:01:22.210</time></trkpt><trkpt lat="55.7523823" lon="49.1625393"><time>2022-10-29T08:01:23.207</time></trkpt><trkpt lat="55.7523262" lon="49.1625803"><time>2022-10-29T08:01:24.203</time></trkpt><trkpt lat="55.7522737" lon="49.1626156"><time>2022-10-29T08:01:25.230</time></trkpt><trkpt lat="55.7522232" lon="49.1626465"><time>2022-10-29T08:01:26.207</time></trkpt><trkpt lat="55.7521740" lon="49.1626821"><time>2022-10-29T08:01:27.207</time></trkpt><trkpt lat="55.7521269" lon="49.1627204"><time>2022-10-29T08:01:28.203</time></trkpt><trkpt lat="55.7520815" lon="49.1627548"><time>2022-10-29T08:01:29.203</time></trkpt><trkpt lat="55.7520191" lon="49.1627811"><time>2022-10-29T08:01:31.210</time></trkpt><trkpt lat="55.7519678" lon="49.1628347"><time>2022-10-29T08:01:33.207</time></trkpt><trkpt lat="55.7519047" lon="49.1628777"><time>2022-10-29T08:01:35.207</time></trkpt><trkpt lat="55.7518477" lon="49.1629349"><time>2022-10-29T08:01:37.207</time></trkpt><trkpt lat="55.7517923" lon="49.1629820"><time>2022-10-29T08:01:39.207</time></trkpt><trkpt lat="55.7517338" lon="49.1630173"><time>2022-10-29T08:01:41.203</time></trkpt><trkpt lat="55.7516784" lon="49.1630567"><time>2022-10-29T08:01:44.207</time></trkpt><trkpt lat="55.7516285" lon="49.1630940"><time>2022-10-29T08:01:48.227</time></trkpt><trkpt lat="55.7516032" lon="49.1631894"><time>2022-10-29T08:01:51.207</time></trkpt><trkpt lat="55.7515869" lon="49.1633078"><time>2022-10-29T08:01:53.203</time></trkpt><trkpt lat="55.7515441" lon="49.1634299"><time>2022-10-29T08:01:55.207</time></trkpt><trkpt lat="55.7515248" lon="49.1635050"><time>2022-10-29T08:01:56.203</time></trkpt><trkpt lat="55.7515113" lon="49.1635845"><time>2022-10-29T08:01:57.203</time></trkpt><trkpt lat="55.7515007" lon="49.1636634"><time>2022-10-29T08:01:58.207</time></trkpt><trkpt lat="55.7514669" lon="49.1637777"><time>2022-10-29T08:02:00.213</time></trkpt><trkpt lat="55.7514669" lon="49.1638771"><time>2022-10-29T08:02:04.203</time></trkpt><trkpt lat="55.7515074" lon="49.1639529"><time>2022-10-29T08:02:22.203</time></trkpt><trkpt lat="55.7515018" lon="49.1640433"><time>2022-10-29T08:02:46.227</time></trkpt><trkpt lat="55.7515078" lon="49.1641576"><time>2022-10-29T08:02:49.207</time></trkpt><trkpt lat="55.7515328" lon="49.1642945"><time>2022-10-29T08:02:51.207</time></trkpt><trkpt lat="55.7515314" lon="49.1643765"><time>2022-10-29T08:02:52.213</time></trkpt><trkpt lat="55.7515105" lon="49.1644610"><time>2022-10-29T08:02:53.207</time></trkpt><trkpt lat="55.7514726" lon="49.1645286"><time>2022-10-29T08:02:54.237</time></trkpt><trkpt lat="55.7514231" lon="49.1645665"><time>2022-10-29T08:02:55.217</time></trkpt><trkpt lat="55.7513666" lon="49.1645858"><time>2022-10-29T08:02:56.207</time></trkpt><trkpt lat="55.7513081" lon="49.1646088"><time>2022-10-29T08:02:57.187</time></trkpt><trkpt lat="55.7512518" lon="49.1646330"><time>2022-10-29T08:02:58.233</time></trkpt><trkpt lat="55.7511967" lon="49.1646624"><time>2022-10-29T08:02:59.203</time></trkpt><trkpt lat="55.7511420" lon="49.1647013"><time>2022-10-29T08:03:00.203</time></trkpt><trkpt lat="55.7510872" lon="49.1647459"><time>2022-10-29T08:03:01.207</time></trkpt><trkpt lat="55.7510368" lon="49.1647868"><time>2022-10-29T08:03:02.203</time></trkpt><trkpt lat="55.7509893" lon="49.1648224"><time>2022-10-29T08:03:03.200</time></trkpt><trkpt lat="55.7509166" lon="49.1648651"><time>2022-10-29T08:03:05.203</time></trkpt><trkpt lat="55.7508615" lon="49.1648722"><time>2022-10-29T08:03:08.213</time></trkpt><trkpt lat="55.7508192" lon="49.1648359"><time>2022-10-29T08:03:11.200</time></trkpt><trkpt lat="55.7507530" lon="49.1648562"><time>2022-10-29T08:03:14.197</time></trkpt><trkpt lat="55.7506922" lon="49.1648990"><time>2022-10-29T08:03:15.197</time></trkpt><trkpt lat="55.7506275" lon="49.1649297"><time>2022-10-29T08:03:17.197</time></trkpt><trkpt lat="55.7505538" lon="49.1649223"><time>2022-10-29T08:03:19.197</time></trkpt><trkpt lat="55.7504713" lon="49.1649285"><time>2022-10-29T08:03:21.193</time></trkpt><trkpt lat="55.7503886" lon="49.1649592"><time>2022-10-29T08:03:23.200</time></trkpt><trkpt lat="55.7503098" lon="49.1649773"><time>2022-10-29T08:03:25.197</time></trkpt><trkpt lat="55.7502560" lon="49.1649824"><time>2022-10-29T08:03:27.200</time></trkpt><trkpt lat="55.7502024" lon="49.1649912"><time>2022-10-29T08:03:29.207</time></trkpt><trkpt lat="55.7500941" lon="49.1650037"><time>2022-10-29T08:03:30.203</time></trkpt><trkpt lat="55.7500432" lon="49.1650178"><time>2022-10-29T08:03:31.203</time></trkpt><trkpt lat="55.7499905" lon="49.1650403"><time>2022-10-29T08:03:32.207</time></trkpt><trkpt lat="55.7499337" lon="49.1650747"><time>2022-10-29T08:03:33.207</time></trkpt><trkpt lat="55.7498848" lon="49.1651115"><time>2022-10-29T08:03:34.237</time></trkpt><trkpt lat="55.7498408" lon="49.1651530"><time>2022-10-29T08:03:35.207</time></trkpt><trkpt lat="55.7497713" lon="49.1652498"><time>2022-10-29T08:03:37.203</time></trkpt><trkpt lat="55.7497142" lon="49.1653637"><time>2022-10-29T08:03:39.207</time></trkpt><trkpt lat="55.7496809" lon="49.1654703"><time>2022-10-29T08:03:41.203</time></trkpt><trkpt lat="55.7496592" lon="49.1655606"><time>2022-10-29T08:03:54.207</time></trkpt><trkpt lat="55.7496525" lon="49.1656851"><time>2022-10-29T08:03:57.207</time></trkpt><trkpt lat="55.7496525" lon="49.1658198"><time>2022-10-29T08:03:59.213</time></trkpt><trkpt lat="55.7496618" lon="49.1659766"><time>2022-10-29T08:04:01.207</time></trkpt><trkpt lat="55.7496680" lon="49.1660568"><time>2022-10-29T08:04:02.207</time></trkpt><trkpt lat="55.7496775" lon="49.1662127"><time>2022-10-29T08:04:04.207</time></trkpt><trkpt lat="55.7496824" lon="49.1662941"><time>2022-10-29T08:04:05.203</time></trkpt><trkpt lat="55.7497019" lon="49.1664323"><time>2022-10-29T08:04:07.207</time></trkpt><trkpt lat="55.7497284" lon="49.1665792"><time>2022-10-29T08:04:09.207</time></trkpt><trkpt lat="55.7497413" lon="49.1666639"><time>2022-10-29T08:04:10.230</time></trkpt><trkpt lat="55.7497478" lon="49.1667570"><time>2022-10-29T08:04:11.237</time></trkpt><trkpt lat="55.7497531" lon="49.1668505"><time>2022-10-29T08:04:12.220</time></trkpt><trkpt lat="55.7497579" lon="49.1669469"><time>2022-10-29T08:04:13.210</time></trkpt><trkpt lat="55.7497642" lon="49.1670416"><time>2022-10-29T08:04:14.207</time></trkpt><trkpt lat="55.7497753" lon="49.1671364"><time>2022-10-29T08:04:15.207</time></trkpt><trkpt lat="55.7497886" lon="49.1672315"><time>2022-10-29T08:04:16.207</time></trkpt><trkpt lat="55.7498032" lon="49.1673236"><time>2022-10-29T08:04:17.207</time></trkpt><trkpt lat="55.7498234" lon="49.1673996"><time>2022-10-29T08:04:18.207</time></trkpt><trkpt lat="55.7498850" lon="49.1674607"><time>2022-10-29T08:04:20.207</time></trkpt><trkpt lat="55.7499553" lon="49.1674586"><time>2022-10-29T08:04:22.237</time></trkpt><trkpt lat="55.7500391" lon="49.1674440"><time>2022-10-29T08:04:24.203</time></trkpt><trkpt lat="55.7500870" lon="49.1674238"><time>2022-10-29T08:04:25.207</time></trkpt><trkpt lat="55.7501343" lon="49.1673954"><time>2022-10-29T08:04:26.207</time></trkpt><trkpt lat="55.7501838" lon="49.1673622"><time>2022-10-29T08:04:27.243</time></trkpt><trkpt lat="55.7502326" lon="49.1673378"><time>2022-10-29T08:04:28.213</time></trkpt><trkpt lat="55.7502828" lon="49.1673205"><time>2022-10-29T08:04:29.207</time></trkpt><trkpt lat="55.7503292" lon="49.1673113"><time>2022-10-29T08:04:30.207</time></trkpt><trkpt lat="55.7503756" lon="49.1673013"><time>2022-10-29T08:04:31.207</time></trkpt><trkpt lat="55.7504244" lon="49.1672923"><time>2022-10-29T08:04:32.223</time></trkpt><trkpt lat="55.7504244" lon="49.1672923"><time>2022-10-29T08:04:32.250</time></trkpt><trkpt lat="55.7504697" lon="49.1672822"><time>2022-10-29T08:04:33.233</time></trkpt><trkpt lat="55.7505150" lon="49.1672677"><time>2022-10-29T08:04:34.233</time></trkpt><trkpt lat="55.7505520" lon="49.1672198"><time>2022-10-29T08:04:37.207</time></trkpt><trkpt lat="55.7506018" lon="49.1671992"><time>2022-10-29T08:05:03.207</time></trkpt><trkpt lat="55.7506878" lon="49.1671891"><time>2022-10-29T08:05:05.203</time></trkpt><trkpt lat="55.7507377" lon="49.1671867"><time>2022-10-29T08:05:06.210</time></trkpt><trkpt lat="55.7507942" lon="49.1671869"><time>2022-10-29T08:05:07.207</time></trkpt><trkpt lat="55.7508574" lon="49.1671848"><time>2022-10-29T08:05:08.203</time></trkpt><trkpt lat="55.7509169" lon="49.1671799"><time>2022-10-29T08:05:09.207</time></trkpt><trkpt lat="55.7509745" lon="49.1671715"><time>2022-10-29T08:05:10.203</time></trkpt><trkpt lat="55.7510338" lon="49.1671518"><time>2022-10-29T08:05:12.210</time></trkpt><trkpt lat="55.7510934" lon="49.1671030"><time>2022-10-29T08:05:17.207</time></trkpt><trkpt lat="55.7511678" lon="49.1670918"><time>2022-10-29T08:05:19.207</time></trkpt><trkpt lat="55.7512060" lon="49.1670373"><time>2022-10-29T08:05:33.217</time></trkpt><trkpt lat="55.7512324" lon="49.1669688"><time>2022-10-29T08:05:36.220</time></trkpt><trkpt lat="55.7512786" lon="49.1669096"><time>2022-10-29T08:05:40.210</time></trkpt><trkpt lat="55.7513223" lon="49.1668637"><time>2022-10-29T08:05:44.213</time></trkpt><trkpt lat="55.7513684" lon="49.1668210"><time>2022-10-29T08:05:49.213</time></trkpt><trkpt lat="55.7514091" lon="49.1667823"><time>2022-10-29T08:05:52.210</time></trkpt><trkpt lat="55.7514478" lon="49.1667237"><time>2022-10-29T08:05:55.213</time></trkpt><trkpt lat="55.7514912" lon="49.1666853"><time>2022-10-29T08:05:58.210</time></trkpt><trkpt lat="55.7515369" lon="49.1666444"><time>2022-10-29T08:06:01.207</time></trkpt><trkpt lat="55.7515976" lon="49.1665930"><time>2022-10-29T08:06:04.203</time></trkpt><trkpt lat="55.7516414" lon="49.1665360"><time>2022-10-29T08:06:06.230</time></trkpt><trkpt lat="55.7516562" lon="49.1664396"><time>2022-10-29T08:06:08.203</time></trkpt><trkpt lat="55.7516860" lon="49.1663472"><time>2022-10-29T08:06:11.200</time></trkpt><trkpt lat="55.7517304" lon="49.1662784"><time>2022-10-29T08:06:14.200</time></trkpt><trkpt lat="55.7517628" lon="49.1662126"><time>2022-10-29T08:06:16.200</time></trkpt><trkpt lat="55.7518035" lon="49.1661502"><time>2022-10-29T08:06:18.223</time></trkpt><trkpt lat="55.7518500" lon="49.1661019"><time>2022-10-29T08:06:20.203</time></trkpt><trkpt lat="55.7518962" lon="49.1660529"><time>2022-10-29T08:06:22.207</time></trkpt><trkpt lat="55.7520023" lon="49.1659435"><time>2022-10-29T08:06:23.200</time></trkpt><trkpt lat="55.7520506" lon="49.1659093"><time>2022-10-29T08:06:24.207</time></trkpt><trkpt lat="55.7521002" lon="49.1658910"><time>2022-10-29T08:06:25.203</time></trkpt><trkpt lat="55.7521515" lon="49.1658859"><time>2022-10-29T08:06:26.203</time></trkpt><trkpt lat="55.7521997" lon="49.1658872"><time>2022-10-29T08:06:27.203</time></trkpt><trkpt lat="55.7522819" lon="49.1658873"><time>2022-10-29T08:06:29.203</time></trkpt><trkpt lat="55.7522851" lon="49.1657625"><time>2022-10-29T08:06:32.193</time></trkpt><trkpt lat="55.7522328" lon="49.1656402"><time>2022-10-29T08:06:34.207</time></trkpt><trkpt lat="55.7521951" lon="49.1655682"><time>2022-10-29T08:06:35.207</time></trkpt><trkpt lat="55.7521550" lon="49.1654885"><time>2022-10-29T08:06:36.213</time></trkpt><trkpt lat="55.7521103" lon="49.1654191"><time>2022-10-29T08:06:37.210</time></trkpt><trkpt lat="55.7520642" lon="49.1653541"><time>2022-10-29T08:06:38.207</time></trkpt><trkpt lat="55.7520247" lon="49.1652792"><time>2022-10-29T08:06:39.207</time></trkpt><trkpt lat="55.7519889" lon="49.1651963"><time>2022-10-29T08:06:40.207</time></trkpt><trkpt lat="55.7519542" lon="49.1651239"><time>2022-10-29T08:06:41.203</time></trkpt><trkpt lat="55.7519256" lon="49.1650566"><time>2022-10-29T08:06:42.230</time></trkpt><trkpt lat="55.7519178" lon="49.1649723"><time>2022-10-29T08:06:45.207</time></trkpt><trkpt lat="55.7519660" lon="49.1649666"><time>2022-10-29T08:06:47.207</time></trkpt><trkpt lat="55.7520413" lon="49.1649770"><time>2022-10-29T08:06:49.207</time></trkpt><trkpt lat="55.7521087" lon="49.1649793"><time>2022-10-29T08:06:51.207</time></trkpt><trkpt lat="55.7521710" lon="49.1649651"><time>2022-10-29T08:06:53.207</time></trkpt><trkpt lat="55.7522294" lon="49.1649370"><time>2022-10-29T08:06:55.207</time></trkpt><trkpt lat="55.7522872" lon="49.1648993"><time>2022-10-29T08:06:57.207</time></trkpt><trkpt lat="55.7523403" lon="49.1648550"><time>2022-10-29T08:06:59.207</time></trkpt><trkpt lat="55.7523847" lon="49.1648246"><time>2022-10-29T08:07:01.210</time></trkpt><trkpt lat="55.7524390" lon="49.1648431"><time>2022-10-29T08:07:04.217</time></trkpt><trkpt lat="55.7524887" lon="49.1648618"><time>2022-10-29T08:07:06.237</time></trkpt><trkpt lat="55.7525336" lon="49.1649027"><time>2022-10-29T08:07:09.210</time></trkpt><trkpt lat="55.7525488" lon="49.1649854"><time>2022-10-29T08:07:13.207</time></trkpt><trkpt lat="55.7525689" lon="49.1650785"><time>2022-10-29T08:07:17.207</time></trkpt><trkpt lat="55.7526116" lon="49.1651477"><time>2022-10-29T08:07:19.210</time></trkpt><trkpt lat="55.7526599" lon="49.1652711"><time>2022-10-29T08:07:21.207</time></trkpt><trkpt lat="55.7526887" lon="49.1653376"><time>2022-10-29T08:07:22.210</time></trkpt><trkpt lat="55.7527164" lon="49.1654075"><time>2022-10-29T08:07:23.207</time></trkpt><trkpt lat="55.7527668" lon="49.1655343"><time>2022-10-29T08:07:25.207</time></trkpt><trkpt lat="55.7528064" lon="49.1656465"><time>2022-10-29T08:07:27.207</time></trkpt><trkpt lat="55.7528541" lon="49.1657256"><time>2022-10-29T08:07:29.207</time></trkpt><trkpt lat="55.7529006" lon="49.1658221"><time>2022-10-29T08:07:31.207</time></trkpt><trkpt lat="55.7529452" lon="49.1659056"><time>2022-10-29T08:07:33.207</time></trkpt><trkpt lat="55.7529796" lon="49.1659890"><time>2022-10-29T08:07:35.207</time></trkpt><trkpt lat="55.7530177" lon="49.1660806"><time>2022-10-29T08:07:37.207</time></trkpt><trkpt lat="55.7530684" lon="49.1662004"><time>2022-10-29T08:07:39.207</time></trkpt><trkpt lat="55.7531229" lon="49.1663294"><time>2022-10-29T08:07:41.203</time></trkpt><trkpt lat="55.7531675" lon="49.1664442"><time>2022-10-29T08:07:43.207</time></trkpt><trkpt lat="55.7532147" lon="49.1665538"><time>2022-10-29T08:07:45.207</time></trkpt><trkpt lat="55.7532709" lon="49.1666585"><time>2022-10-29T08:07:47.207</time></trkpt><trkpt lat="55.7533229" lon="49.1667646"><time>2022-10-29T08:07:49.207</time></trkpt><trkpt lat="55.7533648" lon="49.1668727"><time>2022-10-29T08:07:51.207</time></trkpt><trkpt lat="55.7533823" lon="49.1670058"><time>2022-10-29T08:07:53.207</time></trkpt><trkpt lat="55.7533985" lon="49.1671512"><time>2022-10-29T08:07:55.207</time></trkpt><trkpt lat="55.7534036" lon="49.1672322"><time>2022-10-29T08:07:56.207</time></trkpt><trkpt lat="55.7534199" lon="49.1673786"><time>2022-10-29T08:07:58.207</time></trkpt><trkpt lat="55.7534347" lon="49.1675248"><time>2022-10-29T08:08:00.207</time></trkpt><trkpt lat="55.7534459" lon="49.1676030"><time>2022-10-29T08:08:01.213</time></trkpt><trkpt lat="55.7534545" lon="49.1676842"><time>2022-10-29T08:08:02.207</time></trkpt><trkpt lat="55.7534721" lon="49.1678348"><time>2022-10-29T08:08:04.207</time></trkpt><trkpt lat="55.7534940" lon="49.1679941"><time>2022-10-29T08:08:06.207</time></trkpt><trkpt lat="55.7535066" lon="49.1680800"><time>2022-10-29T08:08:07.233</time></trkpt><trkpt lat="55.7535227" lon="49.1681680"><time>2022-10-29T08:08:08.210</time></trkpt><trkpt lat="55.7535449" lon="49.1682488"><time>2022-10-29T08:08:09.187</time></trkpt><trkpt lat="55.7535717" lon="49.1683289"><time>2022-10-29T08:08:10.180</time></trkpt><trkpt lat="55.7536072" lon="49.1684062"><time>2022-10-29T08:08:11.210</time></trkpt><trkpt lat="55.7536451" lon="49.1684814"><time>2022-10-29T08:08:12.213</time></trkpt><trkpt lat="55.7536827" lon="49.1685527"><time>2022-10-29T08:08:13.210</time></trkpt><trkpt lat="55.7537208" lon="49.1686183"><time>2022-10-29T08:08:14.210</time></trkpt><trkpt lat="55.7537594" lon="49.1686797"><time>2022-10-29T08:08:15.187</time></trkpt><trkpt lat="55.7537969" lon="49.1687413"><time>2022-10-29T08:08:16.203</time></trkpt><trkpt lat="55.7538316" lon="49.1688055"><time>2022-10-29T08:08:17.203</time></trkpt><trkpt lat="55.7538677" lon="49.1688655"><time>2022-10-29T08:08:18.193</time></trkpt><trkpt lat="55.7539078" lon="49.1689182"><time>2022-10-29T08:08:19.210</time></trkpt><trkpt lat="55.7539554" lon="49.1689655"><time>2022-10-29T08:08:20.207</time></trkpt><trkpt lat="55.7540065" lon="49.1690174"><time>2022-10-29T08:08:21.207</time></trkpt><trkpt lat="55.7540596" lon="49.1690709"><time>2022-10-29T08:08:22.213</time></trkpt><trkpt lat="55.7541148" lon="49.1691253"><time>2022-10-29T08:08:23.210</time></trkpt><trkpt lat="55.7541716" lon="49.1691832"><time>2022-10-29T08:08:24.213</time></trkpt><trkpt lat="55.7542278" lon="49.1692452"><time>2022-10-29T08:08:25.210</time></trkpt><trkpt lat="55.7542814" lon="49.1693056"><time>2022-10-29T08:08:26.203</time></trkpt><trkpt lat="55.7543368" lon="49.1693663"><time>2022-10-29T08:08:27.210</time></trkpt><trkpt lat="55.7543940" lon="49.1694269"><time>2022-10-29T08:08:28.207</time></trkpt><trkpt lat="55.7544516" lon="49.1694864"><time>2022-10-29T08:08:29.213</time></trkpt><trkpt lat="55.7545096" lon="49.1695468"><time>2022-10-29T08:08:30.207</time></trkpt><trkpt lat="55.7545669" lon="49.1696054"><time>2022-10-29T08:08:31.213</time></trkpt><trkpt lat="55.7546246" lon="49.1696597"><time>2022-10-29T08:08:32.210</time></trkpt><trkpt lat="55.7546845" lon="49.1697126"><time>2022-10-29T08:08:33.220</time></trkpt><trkpt lat="55.7547441" lon="49.1697660"><time>2022-10-29T08:08:34.213</time></trkpt><trkpt lat="55.7548050" lon="49.1698221"><time>2022-10-29T08:08:35.197</time></trkpt><trkpt lat="55.7548620" lon="49.1698875"><time>2022-10-29T08:08:36.217</time></trkpt><trkpt lat="55.7549176" lon="49.1699525"><time>2022-10-29T08:08:37.210</time></trkpt><trkpt lat="55.7549775" lon="49.1700116"><time>2022-10-29T08:08:38.210</time></trkpt><trkpt lat="55.7550397" lon="49.1700671"><time>2022-10-29T08:08:39.190</time></trkpt><trkpt lat="55.7551006" lon="49.1701224"><time>2022-10-29T08:08:40.210</time></trkpt><trkpt lat="55.7551627" lon="49.1701778"><time>2022-10-29T08:08:41.210</time></trkpt><trkpt lat="55.7552297" lon="49.1702296"><time>2022-10-29T08:08:42.217</time></trkpt><trkpt lat="55.7552976" lon="49.1702861"><time>2022-10-29T08:08:43.207</time></trkpt><trkpt lat="55.7553571" lon="49.1703546"><time>2022-10-29T08:08:44.210</time></trkpt><trkpt lat="55.7554126" lon="49.1704209"><time>2022-10-29T08:08:45.207</time></trkpt><trkpt lat="55.7554709" lon="49.1704859"><time>2022-10-29T08:08:46.210</time></trkpt><trkpt lat="55.7555287" lon="49.1705469"><time>2022-10-29T08:08:47.207</time></trkpt><trkpt lat="55.7555898" lon="49.1706054"><time>2022-10-29T08:08:48.207</time></trkpt><trkpt lat="55.7556522" lon="49.1706592"><time>2022-10-29T08:08:49.207</time></trkpt><trkpt lat="55.7557126" lon="49.1707108"><time>2022-10-29T08:08:50.213</time></trkpt><trkpt lat="55.7557752" lon="49.1707589"><time>2022-10-29T08:08:51.210</time></trkpt><trkpt lat="55.7558344" lon="49.1708137"><time>2022-10-29T08:08:52.213</time></trkpt><trkpt lat="55.7558954" lon="49.1708692"><time>2022-10-29T08:08:53.213</time></trkpt><trkpt lat="55.7559566" lon="49.1709258"><time>2022-10-29T08:08:54.210</time></trkpt><trkpt lat="55.7560150" lon="49.1709846"><time>2022-10-29T08:08:55.213</time></trkpt><trkpt lat="55.7560741" lon="49.1710461"><time>2022-10-29T08:08:56.210</time></trkpt><trkpt lat="55.7561346" lon="49.1711084"><time>2022-10-29T08:08:57.213</time></trkpt><trkpt lat="55.7561956" lon="49.1711722"><time>2022-10-29T08:08:58.210</time></trkpt><trkpt lat="55.7562582" lon="49.1712353"><time>2022-10-29T08:08:59.210</time></trkpt><trkpt lat="55.7563198" lon="49.1713027"><time>2022-10-29T08:09:00.207</time></trkpt><trkpt lat="55.7563824" lon="49.1713680"><time>2022-10-29T08:09:01.210</time></trkpt><trkpt lat="55.7564432" lon="49.1714315"><time>2022-10-29T08:09:02.210</time></trkpt><trkpt lat="55.7565030" lon="49.1714924"><time>2022-10-29T08:09:03.217</time></trkpt><trkpt lat="55.7565634" lon="49.1715512"><time>2022-10-29T08:09:04.210</time></trkpt><trkpt lat="55.7566219" lon="49.1716108"><time>2022-10-29T08:09:05.213</time></trkpt><trkpt lat="55.7566762" lon="49.1716695"><time>2022-10-29T08:09:06.213</time></trkpt><trkpt lat="55.7567273" lon="49.1717286"><time>2022-10-29T08:09:07.210</time></trkpt><trkpt lat="55.7567773" lon="49.1717854"><time>2022-10-29T08:09:08.207</time></trkpt><trkpt lat="55.7568277" lon="49.1718413"><time>2022-10-29T08:09:09.207</time></trkpt><trkpt lat="55.7568794" lon="49.1718971"><time>2022-10-29T08:09:10.187</time></trkpt><trkpt lat="55.7569335" lon="49.1719545"><time>2022-10-29T08:09:11.207</time></trkpt><trkpt lat="55.7569902" lon="49.1720122"><time>2022-10-29T08:09:12.210</time></trkpt><trkpt lat="55.7570502" lon="49.1720668"><time>2022-10-29T08:09:13.207</time></trkpt><trkpt lat="55.7571126" lon="49.1721185"><time>2022-10-29T08:09:14.210</time></trkpt><trkpt lat="55.7571756" lon="49.1721695"><time>2022-10-29T08:09:15.210</time></trkpt><trkpt lat="55.7572400" lon="49.1722220"><time>2022-10-29T08:09:16.210</time></trkpt><trkpt lat="55.7573028" lon="49.1722776"><time>2022-10-29T08:09:17.213</time></trkpt><trkpt lat="55.7573647" lon="49.1723347"><time>2022-10-29T08:09:18.207</time></trkpt><trkpt lat="55.7574279" lon="49.1723931"><time>2022-10-29T08:09:19.207</time></trkpt><trkpt lat="55.7574878" lon="49.1724552"><time>2022-10-29T08:09:20.210</time></trkpt><trkpt lat="55.7575468" lon="49.1725142"><time>2022-10-29T08:09:21.207</time></trkpt><trkpt lat="55.7576081" lon="49.1725711"><time>2022-10-29T08:09:22.207</time></trkpt><trkpt lat="55.7576693" lon="49.1726290"><time>2022-10-29T08:09:23.207</time></trkpt><trkpt lat="55.7577335" lon="49.1726873"><time>2022-10-29T08:09:24.253</time></trkpt><trkpt lat="55.7577981" lon="49.1727448"><time>2022-10-29T08:09:25.217</time></trkpt><trkpt lat="55.7578619" lon="49.1728031"><time>2022-10-29T08:09:26.213</time></trkpt><trkpt lat="55.7579261" lon="49.1728625"><time>2022-10-29T08:09:27.210</time></trkpt><trkpt lat="55.7579891" lon="49.1729229"><time>2022-10-29T08:09:28.210</time></trkpt><trkpt lat="55.7580510" lon="49.1729872"><time>2022-10-29T08:09:29.210</time></trkpt><trkpt lat="55.7581095" lon="49.1730530"><time>2022-10-29T08:09:30.213</time></trkpt><trkpt lat="55.7581658" lon="49.1731216"><time>2022-10-29T08:09:31.210</time></trkpt><trkpt lat="55.7582226" lon="49.1731885"><time>2022-10-29T08:09:32.207</time></trkpt><trkpt lat="55.7582777" lon="49.1732481"><time>2022-10-29T08:09:33.203</time></trkpt><trkpt lat="55.7583309" lon="49.1733067"><time>2022-10-29T08:09:34.207</time></trkpt><trkpt lat="55.7583852" lon="49.1733684"><time>2022-10-29T08:09:35.207</time></trkpt><trkpt lat="55.7584419" lon="49.1734308"><time>2022-10-29T08:09:36.210</time></trkpt><trkpt lat="55.7585003" lon="49.1734953"><time>2022-10-29T08:09:37.257</time></trkpt><trkpt lat="55.7585582" lon="49.1735587"><time>2022-10-29T08:09:38.210</time></trkpt><trkpt lat="55.7586164" lon="49.1736220"><time>2022-10-29T08:09:39.207</time></trkpt><trkpt lat="55.7586768" lon="49.1736854"><time>2022-10-29T08:09:40.217</time></trkpt><trkpt lat="55.7587398" lon="49.1737465"><time>2022-10-29T08:09:41.187</time></trkpt><trkpt lat="55.7588015" lon="49.1738038"><time>2022-10-29T08:09:42.207</time></trkpt><trkpt lat="55.7588603" lon="49.1738603"><time>2022-10-29T08:09:43.207</time></trkpt><trkpt lat="55.7589145" lon="49.1739153"><time>2022-10-29T08:09:44.247</time></trkpt><trkpt lat="55.7589658" lon="49.1739664"><time>2022-10-29T08:09:45.223</time></trkpt><trkpt lat="55.7590074" lon="49.1740082"><time>2022-10-29T08:09:46.193</time></trkpt><trkpt lat="55.7590685" lon="49.1740531"><time>2022-10-29T08:09:48.187</time></trkpt><trkpt lat="55.7591174" lon="49.1740921"><time>2022-10-29T08:09:50.207</time></trkpt><trkpt lat="55.7591195" lon="49.1739742"><time>2022-10-29T08:09:56.207</time></trkpt><trkpt lat="55.7591272" lon="49.1738883"><time>2022-10-29T08:10:00.173</time></trkpt><trkpt lat="55.7591734" lon="49.1738669"><time>2022-10-29T08:10:03.197</time></trkpt><trkpt lat="55.7591734" lon="49.1738669"><time>2022-10-29T08:10:03.220</time></trkpt><trkpt lat="55.7592201" lon="49.1738328"><time>2022-10-29T08:10:07.237</time></trkpt><trkpt lat="55.7592420" lon="49.1738345"><time>2022-10-29T08:10:08.200</time></trkpt><trkpt lat="55.7593026" lon="49.1738857"><time>2022-10-29T08:10:10.187</time></trkpt><trkpt lat="55.7593567" lon="49.1739534"><time>2022-10-29T08:10:12.203</time></trkpt><trkpt lat="55.7594119" lon="49.1739887"><time>2022-10-29T08:10:14.210</time></trkpt><trkpt lat="55.7594706" lon="49.1739790"><time>2022-10-29T08:10:16.210</time></trkpt><trkpt lat="55.7594836" lon="49.1738852"><time>2022-10-29T08:10:18.207</time></trkpt><trkpt lat="55.7594763" lon="49.1738064"><time>2022-10-29T08:10:19.210</time></trkpt><trkpt lat="55.7594700" lon="49.1737154"><time>2022-10-29T08:10:20.207</time></trkpt><trkpt lat="55.7594620" lon="49.1736205"><time>2022-10-29T08:10:21.207</time></trkpt><trkpt lat="55.7594578" lon="49.1735274"><time>2022-10-29T08:10:22.200</time></trkpt><trkpt lat="55.7594540" lon="49.1734272"><time>2022-10-29T08:10:23.197</time></trkpt><trkpt lat="55.7594522" lon="49.1733168"><time>2022-10-29T08:10:24.217</time></trkpt><trkpt lat="55.7594561" lon="49.1731979"><time>2022-10-29T08:10:25.207</time></trkpt><trkpt lat="55.7594592" lon="49.1730765"><time>2022-10-29T08:10:26.203</time></trkpt><trkpt lat="55.7594657" lon="49.1729506"><time>2022-10-29T08:10:27.207</time></trkpt><trkpt lat="55.7594727" lon="49.1728299"><time>2022-10-29T08:10:28.207</time></trkpt><trkpt lat="55.7594899" lon="49.1727093"><time>2022-10-29T08:10:29.207</time></trkpt><trkpt lat="55.7595081" lon="49.1725900"><time>2022-10-29T08:10:30.207</time></trkpt><trkpt lat="55.7595316" lon="49.1724939"><time>2022-10-29T08:10:31.207</time></trkpt><trkpt lat="55.7595710" lon="49.1724243"><time>2022-10-29T08:10:32.207</time></trkpt><trkpt lat="55.7596167" lon="49.1723934"><time>2022-10-29T08:10:33.207</time></trkpt><trkpt lat="55.7596660" lon="49.1723882"><time>2022-10-29T08:10:34.210</time></trkpt><trkpt lat="55.7597198" lon="49.1723912"><time>2022-10-29T08:10:35.213</time></trkpt><trkpt lat="55.7597770" lon="49.1723980"><time>2022-10-29T08:10:36.210</time></trkpt><trkpt lat="55.7598464" lon="49.1724125"><time>2022-10-29T08:10:37.193</time></trkpt><trkpt lat="55.7599193" lon="49.1724071"><time>2022-10-29T08:10:38.210</time></trkpt><trkpt lat="55.7599925" lon="49.1724058"><time>2022-10-29T08:10:39.207</time></trkpt><trkpt lat="55.7600587" lon="49.1724125"><time>2022-10-29T08:10:40.200</time></trkpt><trkpt lat="55.7601251" lon="49.1724060"><time>2022-10-29T08:10:41.193</time></trkpt><trkpt lat="55.7601982" lon="49.1723987"><time>2022-10-29T08:10:42.210</time></trkpt><trkpt lat="55.7602756" lon="49.1723901"><time>2022-10-29T08:10:43.203</time></trkpt><trkpt lat="55.7603549" lon="49.1723818"><time>2022-10-29T08:10:44.210</time></trkpt><trkpt lat="55.7604389" lon="49.1723713"><time>2022-10-29T08:10:45.207</time></trkpt><trkpt lat="55.7605173" lon="49.1723658"><time>2022-10-29T08:10:46.210</time></trkpt><trkpt lat="55.7605913" lon="49.1723607"><time>2022-10-29T08:10:47.193</time></trkpt><trkpt lat="55.7606583" lon="49.1723614"><time>2022-10-29T08:10:48.193</time></trkpt><trkpt lat="55.7607262" lon="49.1723623"><time>2022-10-29T08:10:49.197</time></trkpt><trkpt lat="55.7607942" lon="49.1723595"><time>2022-10-29T08:10:50.210</time></trkpt><trkpt lat="55.7608640" lon="49.1723649"><time>2022-10-29T08:10:51.207</time></trkpt><trkpt lat="55.7609254" lon="49.1723810"><time>2022-10-29T08:10:52.207</time></trkpt><trkpt lat="55.7609889" lon="49.1724093"><time>2022-10-29T08:10:54.207</time></trkpt><trkpt lat="55.7609752" lon="49.1725278"><time>2022-10-29T08:10:57.207</time></trkpt><trkpt lat="55.7609604" lon="49.1726283"><time>2022-10-29T08:10:59.207</time></trkpt><trkpt lat="55.7609494" lon="49.1727516"><time>2022-10-29T08:11:01.210</time></trkpt><trkpt lat="55.7609556" lon="49.1729175"><time>2022-10-29T08:11:03.210</time></trkpt><trkpt lat="55.7609625" lon="49.1730138"><time>2022-10-29T08:11:04.210</time></trkpt><trkpt lat="55.7609651" lon="49.1731072"><time>2022-10-29T08:11:05.210</time></trkpt><trkpt lat="55.7609666" lon="49.1732020"><time>2022-10-29T08:11:06.210</time></trkpt><trkpt lat="55.7609689" lon="49.1732969"><time>2022-10-29T08:11:07.210</time></trkpt><trkpt lat="55.7609778" lon="49.1733907"><time>2022-10-29T08:11:08.207</time></trkpt><trkpt lat="55.7609949" lon="49.1734879"><time>2022-10-29T08:11:09.210</time></trkpt><trkpt lat="55.7610104" lon="49.1735866"><time>2022-10-29T08:11:10.197</time></trkpt><trkpt lat="55.7610213" lon="49.1736858"><time>2022-10-29T08:11:11.217</time></trkpt><trkpt lat="55.7610333" lon="49.1737705"><time>2022-10-29T08:11:12.213</time></trkpt><trkpt lat="55.7611049" lon="49.1738691"><time>2022-10-29T08:11:14.207</time></trkpt><trkpt lat="55.7611522" lon="49.1739123"><time>2022-10-29T08:11:15.217</time></trkpt><trkpt lat="55.7611971" lon="49.1739548"><time>2022-10-29T08:11:16.207</time></trkpt><trkpt lat="55.7612435" lon="49.1739972"><time>2022-10-29T08:11:17.210</time></trkpt><trkpt lat="55.7612891" lon="49.1740377"><time>2022-10-29T08:11:18.207</time></trkpt><trkpt lat="55.7613296" lon="49.1740765"><time>2022-10-29T08:11:19.210</time></trkpt><trkpt lat="55.7614083" lon="49.1741210"><time>2022-10-29T08:11:21.213</time></trkpt><trkpt lat="55.7614614" lon="49.1741243"><time>2022-10-29T08:11:22.210</time></trkpt><trkpt lat="55.7615205" lon="49.1741298"><time>2022-10-29T08:11:23.210</time></trkpt><trkpt lat="55.7615871" lon="49.1741236"><time>2022-10-29T08:11:24.207</time></trkpt><trkpt lat="55.7616482" lon="49.1741159"><time>2022-10-29T08:11:25.210</time></trkpt><trkpt lat="55.7617159" lon="49.1741079"><time>2022-10-29T08:11:26.190</time></trkpt><trkpt lat="55.7617864" lon="49.1740964"><time>2022-10-29T08:11:27.220</time></trkpt><trkpt lat="55.7618573" lon="49.1740858"><time>2022-10-29T08:11:28.210</time></trkpt><trkpt lat="55.7619248" lon="49.1740799"><time>2022-10-29T08:11:29.207</time></trkpt><trkpt lat="55.7619905" lon="49.1740801"><time>2022-10-29T08:11:30.207</time></trkpt><trkpt lat="55.7620473" lon="49.1740840"><time>2022-10-29T08:11:31.207</time></trkpt><trkpt lat="55.7621098" lon="49.1740854"><time>2022-10-29T08:11:32.207</time></trkpt><trkpt lat="55.7621759" lon="49.1740782"><time>2022-10-29T08:11:33.200</time></trkpt><trkpt lat="55.7622455" lon="49.1740707"><time>2022-10-29T08:11:34.203</time></trkpt><trkpt lat="55.7623209" lon="49.1740659"><time>2022-10-29T08:11:35.207</time></trkpt><trkpt lat="55.7623911" lon="49.1740639"><time>2022-10-29T08:11:36.203</time></trkpt><trkpt lat="55.7624579" lon="49.1740594"><time>2022-10-29T08:11:37.203</time></trkpt><trkpt lat="55.7625248" lon="49.1740555"><time>2022-10-29T08:11:38.207</time></trkpt><trkpt lat="55.7625952" lon="49.1740560"><time>2022-10-29T08:11:39.193</time></trkpt><trkpt lat="55.7626648" lon="49.1740574"><time>2022-10-29T08:11:40.207</time></trkpt><trkpt lat="55.7627373" lon="49.1740585"><time>2022-10-29T08:11:41.207</time></trkpt><trkpt lat="55.7628083" lon="49.1740497"><time>2022-10-29T08:11:42.207</time></trkpt><trkpt lat="55.7628770" lon="49.1740427"><time>2022-10-29T08:11:43.210</time></trkpt><trkpt lat="55.7629485" lon="49.1740451"><time>2022-10-29T08:11:44.207</time></trkpt><trkpt lat="55.7630152" lon="49.1740652"><time>2022-10-29T08:11:45.197</time></trkpt><trkpt lat="55.7630732" lon="49.1741020"><time>2022-10-29T08:11:46.210</time></trkpt><trkpt lat="55.7631240" lon="49.1741546"><time>2022-10-29T08:11:47.207</time></trkpt><trkpt lat="55.7631675" lon="49.1742235"><time>2022-10-29T08:11:48.210</time></trkpt><trkpt lat="55.7632087" lon="49.1742977"><time>2022-10-29T08:11:49.213</time></trkpt><trkpt lat="55.7632516" lon="49.1743698"><time>2022-10-29T08:11:50.203</time></trkpt><trkpt lat="55.7632947" lon="49.1744424"><time>2022-10-29T08:11:51.207</time></trkpt><trkpt lat="55.7633355" lon="49.1745242"><time>2022-10-29T08:11:52.207</time></trkpt><trkpt lat="55.7633760" lon="49.1746036"><time>2022-10-29T08:11:53.203</time></trkpt><trkpt lat="55.7634151" lon="49.1746879"><time>2022-10-29T08:11:54.203</time></trkpt><trkpt lat="55.7634520" lon="49.1747754"><time>2022-10-29T08:11:55.213</time></trkpt><trkpt lat="55.7634909" lon="49.1748607"><time>2022-10-29T08:11:56.207</time></trkpt><trkpt lat="55.7635284" lon="49.1749505"><time>2022-10-29T08:11:57.207</time></trkpt><trkpt lat="55.7635646" lon="49.1750372"><time>2022-10-29T08:11:58.197</time></trkpt><trkpt lat="55.7635974" lon="49.1751063"><time>2022-10-29T08:11:59.207</time></trkpt><trkpt lat="55.7636312" lon="49.1752345"><time>2022-10-29T08:12:01.207</time></trkpt><trkpt lat="55.7636966" lon="49.1752961"><time>2022-10-29T08:12:03.213</time></trkpt><trkpt lat="55.7637515" lon="49.1752836"><time>2022-10-29T08:12:04.210</time></trkpt><trkpt lat="55.7638135" lon="49.1752691"><time>2022-10-29T08:12:05.207</time></trkpt><trkpt lat="55.7638797" lon="49.1752586"><time>2022-10-29T08:12:06.203</time></trkpt><trkpt lat="55.7639452" lon="49.1752552"><time>2022-10-29T08:12:07.207</time></trkpt><trkpt lat="55.7640096" lon="49.1752445"><time>2022-10-29T08:12:08.203</time></trkpt><trkpt lat="55.7640768" lon="49.1752186"><time>2022-10-29T08:12:09.207</time></trkpt><trkpt lat="55.7641472" lon="49.1752159"><time>2022-10-29T08:12:10.207</time></trkpt><trkpt lat="55.7642129" lon="49.1752286"><time>2022-10-29T08:12:11.207</time></trkpt><trkpt lat="55.7642715" lon="49.1752550"><time>2022-10-29T08:12:12.210</time></trkpt><trkpt lat="55.7643183" lon="49.1752973"><time>2022-10-29T08:12:13.213</time></trkpt><trkpt lat="55.7643503" lon="49.1754126"><time>2022-10-29T08:12:15.207</time></trkpt><trkpt lat="55.7643535" lon="49.1754972"><time>2022-10-29T08:12:17.213</time></trkpt><trkpt lat="55.7643613" lon="49.1755984"><time>2022-10-29T08:12:19.190</time></trkpt><trkpt lat="55.7643642" lon="49.1757409"><time>2022-10-29T08:12:21.207</time></trkpt><trkpt lat="55.7643798" lon="49.1758945"><time>2022-10-29T08:12:23.210</time></trkpt><trkpt lat="55.7643743" lon="49.1759767"><time>2022-10-29T08:12:24.210</time></trkpt><trkpt lat="55.7643674" lon="49.1760572"><time>2022-10-29T08:12:25.193</time></trkpt><trkpt lat="55.7643559" lon="49.1761448"><time>2022-10-29T08:12:26.203</time></trkpt><trkpt lat="55.7643432" lon="49.1762355"><time>2022-10-29T08:12:27.207</time></trkpt><trkpt lat="55.7643351" lon="49.1763288"><time>2022-10-29T08:12:28.203</time></trkpt><trkpt lat="55.7643228" lon="49.1764220"><time>2022-10-29T08:12:29.203</time></trkpt><trkpt lat="55.7643158" lon="49.1765117"><time>2022-10-29T08:12:30.200</time></trkpt><trkpt lat="55.7643047" lon="49.1765975"><time>2022-10-29T08:12:31.207</time></trkpt><trkpt lat="55.7643064" lon="49.1767199"><time>2022-10-29T08:12:33.207</time></trkpt><trkpt lat="55.7643051" lon="49.1768271"><time>2022-10-29T08:12:39.213</time></trkpt><trkpt lat="55.7643026" lon="49.1769177"><time>2022-10-29T08:12:42.213</time></trkpt><trkpt lat="55.7642912" lon="49.1770068"><time>2022-10-29T08:12:45.207</time></trkpt><trkpt lat="55.7642779" lon="49.1771162"><time>2022-10-29T08:12:47.203</time></trkpt><trkpt lat="55.7642502" lon="49.1772324"><time>2022-10-29T08:12:49.187</time></trkpt><trkpt lat="55.7642256" lon="49.1773570"><time>2022-10-29T08:12:51.207</time></trkpt><trkpt lat="55.7642148" lon="49.1774733"><time>2022-10-29T08:12:53.213</time></trkpt><trkpt lat="55.7642523" lon="49.1775616"><time>2022-10-29T08:12:55.197</time></trkpt><trkpt lat="55.7643358" lon="49.1775973"><time>2022-10-29T08:12:57.210</time></trkpt><trkpt lat="55.7643846" lon="49.1776028"><time>2022-10-29T08:12:58.210</time></trkpt><trkpt lat="55.7644322" lon="49.1776070"><time>2022-10-29T08:12:59.203</time></trkpt><trkpt lat="55.7645118" lon="49.1776028"><time>2022-10-29T08:13:01.217</time></trkpt><trkpt lat="55.7645461" lon="49.1774997"><time>2022-10-29T08:13:03.210</time></trkpt><trkpt lat="55.7645522" lon="49.1773957"><time>2022-10-29T08:13:04.210</time></trkpt><trkpt lat="55.7645582" lon="49.1772732"><time>2022-10-29T08:13:05.207</time></trkpt><trkpt lat="55.7645682" lon="49.1771475"><time>2022-10-29T08:13:06.207</time></trkpt><trkpt lat="55.7645775" lon="49.1770269"><time>2022-10-29T08:13:07.207</time></trkpt><trkpt lat="55.7645863" lon="49.1769050"><time>2022-10-29T08:13:08.210</time></trkpt><trkpt lat="55.7645930" lon="49.1767874"><time>2022-10-29T08:13:09.213</time></trkpt><trkpt lat="55.7645990" lon="49.1766703"><time>2022-10-29T08:13:10.207</time></trkpt><trkpt lat="55.7646036" lon="49.1765524"><time>2022-10-29T08:13:11.203</time></trkpt><trkpt lat="55.7646075" lon="49.1764368"><time>2022-10-29T08:13:12.197</time></trkpt><trkpt lat="55.7646079" lon="49.1763274"><time>2022-10-29T08:13:13.207</time></trkpt><trkpt lat="55.7646092" lon="49.1762211"><time>2022-10-29T08:13:14.207</time></trkpt><trkpt lat="55.7646108" lon="49.1761147"><time>2022-10-29T08:13:15.210</time></trkpt><trkpt lat="55.7646118" lon="49.1760043"><time>2022-10-29T08:13:16.210</time></trkpt><trkpt lat="55.7646108" lon="49.1758941"><time>2022-10-29T08:13:17.213</time></trkpt><trkpt lat="55.7646142" lon="49.1757775"><time>2022-10-29T08:13:18.203</time></trkpt><trkpt lat="55.7646153" lon="49.1756606"><time>2022-10-29T08:13:19.207</time></trkpt><trkpt lat="55.7646154" lon="49.1755425"><time>2022-10-29T08:13:20.200</time></trkpt><trkpt lat="55.7646185" lon="49.1754258"><time>2022-10-29T08:13:21.210</time></trkpt><trkpt lat="55.7646216" lon="49.1753092"><time>2022-10-29T08:13:22.207</time></trkpt><trkpt lat="55.7646233" lon="49.1751939"><time>2022-10-29T08:13:23.197</time></trkpt><trkpt lat="55.7646237" lon="49.1750771"><time>2022-10-29T08:13:24.207</time></trkpt><trkpt lat="55.7646202" lon="49.1749623"><time>2022-10-29T08:13:25.210</time></trkpt><trkpt lat="55.7646134" lon="49.1748572"><time>2022-10-29T08:13:26.200</time></trkpt><trkpt lat="55.7646080" lon="49.1747520"><time>2022-10-29T08:13:27.203</time></trkpt><trkpt lat="55.7646105" lon="49.1746450"><time>2022-10-29T08:13:28.200</time></trkpt><trkpt lat="55.7646147" lon="49.1745398"><time>2022-10-29T08:13:29.200</time></trkpt><trkpt lat="55.7646193" lon="49.1744435"><time>2022-10-29T08:13:30.183</time></trkpt><trkpt lat="55.7646193" lon="49.1743533"><time>2022-10-29T08:13:31.207</time></trkpt><trkpt lat="55.7646224" lon="49.1742663"><time>2022-10-29T08:13:32.207</time></trkpt><trkpt lat="55.7646281" lon="49.1741129"><time>2022-10-29T08:13:34.203</time></trkpt><trkpt lat="55.7646450" lon="49.1739582"><time>2022-10-29T08:13:36.203</time></trkpt><trkpt lat="55.7646506" lon="49.1738076"><time>2022-10-29T08:13:38.207</time></trkpt><trkpt lat="55.7646515" lon="49.1736833"><time>2022-10-29T08:13:40.213</time></trkpt><trkpt lat="55.7646509" lon="49.1735514"><time>2022-10-29T08:13:42.207</time></trkpt><trkpt lat="55.7646496" lon="49.1734031"><time>2022-10-29T08:13:44.220</time></trkpt><trkpt lat="55.7646511" lon="49.1733197"><time>2022-10-29T08:13:45.213</time></trkpt><trkpt lat="55.7646499" lon="49.1732298"><time>2022-10-29T08:13:46.207</time></trkpt><trkpt lat="55.7646527" lon="49.1731408"><time>2022-10-29T08:13:47.217</time></trkpt><trkpt lat="55.7646617" lon="49.1730528"><time>2022-10-29T08:13:48.210</time></trkpt><trkpt lat="55.7646715" lon="49.1729710"><time>2022-10-29T08:13:49.213</time></trkpt><trkpt lat="55.7646790" lon="49.1728871"><time>2022-10-29T08:13:50.207</time></trkpt><trkpt lat="55.7646809" lon="49.1727935"><time>2022-10-29T08:13:51.207</time></trkpt><trkpt lat="55.7646814" lon="49.1726873"><time>2022-10-29T08:13:52.197</time></trkpt><trkpt lat="55.7646816" lon="49.1725771"><time>2022-10-29T08:13:53.207</time></trkpt><trkpt lat="55.7646865" lon="49.1724645"><time>2022-10-29T08:13:54.210</time></trkpt><trkpt lat="55.7646927" lon="49.1723547"><time>2022-10-29T08:13:55.210</time></trkpt><trkpt lat="55.7646970" lon="49.1722434"><time>2022-10-29T08:13:56.207</time></trkpt><trkpt lat="55.7647006" lon="49.1721290"><time>2022-10-29T08:13:57.207</time></trkpt><trkpt lat="55.7647049" lon="49.1720130"><time>2022-10-29T08:13:58.207</time></trkpt><trkpt lat="55.7647083" lon="49.1718965"><time>2022-10-29T08:13:59.207</time></trkpt><trkpt lat="55.7647133" lon="49.1717810"><time>2022-10-29T08:14:00.213</time></trkpt><trkpt lat="55.7647156" lon="49.1716713"><time>2022-10-29T08:14:01.210</time></trkpt><trkpt lat="55.7647170" lon="49.1715700"><time>2022-10-29T08:14:02.207</time></trkpt><trkpt lat="55.7647225" lon="49.1714794"><time>2022-10-29T08:14:03.210</time></trkpt><trkpt lat="55.7647245" lon="49.1713897"><time>2022-10-29T08:14:04.207</time></trkpt><trkpt lat="55.7647219" lon="49.1712983"><time>2022-10-29T08:14:05.207</time></trkpt><trkpt lat="55.7647214" lon="49.1712093"><time>2022-10-29T08:14:06.210</time></trkpt><trkpt lat="55.7647207" lon="49.1711231"><time>2022-10-29T08:14:07.210</time></trkpt><trkpt lat="55.7647216" lon="49.1710395"><time>2022-10-29T08:14:08.210</time></trkpt><trkpt lat="55.7647235" lon="49.1709511"><time>2022-10-29T08:14:09.213</time></trkpt><trkpt lat="55.7647307" lon="49.1708549"><time>2022-10-29T08:14:10.200</time></trkpt><trkpt lat="55.7647392" lon="49.1707504"><time>2022-10-29T08:14:11.210</time></trkpt><trkpt lat="55.7647440" lon="49.1706437"><time>2022-10-29T08:14:12.210</time></trkpt><trkpt lat="55.7647453" lon="49.1705444"><time>2022-10-29T08:14:13.210</time></trkpt><trkpt lat="55.7647409" lon="49.1704235"><time>2022-10-29T08:14:15.207</time></trkpt><trkpt lat="55.7647283" lon="49.1703277"><time>2022-10-29T08:14:17.210</time></trkpt><trkpt lat="55.7647339" lon="49.1701796"><time>2022-10-29T08:14:19.200</time></trkpt><trkpt lat="55.7647350" lon="49.1700976"><time>2022-10-29T08:14:20.210</time></trkpt><trkpt lat="55.7647367" lon="49.1700057"><time>2022-10-29T08:14:21.213</time></trkpt><trkpt lat="55.7647355" lon="49.1699071"><time>2022-10-29T08:14:22.207</time></trkpt><trkpt lat="55.7647362" lon="49.1698022"><time>2022-10-29T08:14:23.210</time></trkpt><trkpt lat="55.7647407" lon="49.1696932"><time>2022-10-29T08:14:24.207</time></trkpt><trkpt lat="55.7647473" lon="49.1695855"><time>2022-10-29T08:14:25.217</time></trkpt><trkpt lat="55.7647515" lon="49.1694765"><time>2022-10-29T08:14:26.213</time></trkpt><trkpt lat="55.7647501" lon="49.1693714"><time>2022-10-29T08:14:27.217</time></trkpt><trkpt lat="55.7647408" lon="49.1692688"><time>2022-10-29T08:14:28.210</time></trkpt><trkpt lat="55.7647309" lon="49.1691646"><time>2022-10-29T08:14:29.217</time></trkpt><trkpt lat="55.7647267" lon="49.1690734"><time>2022-10-29T08:14:30.213</time></trkpt><trkpt lat="55.7647111" lon="49.1689580"><time>2022-10-29T08:14:32.220</time></trkpt><trkpt lat="55.7646867" lon="49.1687874"><time>2022-10-29T08:14:34.213</time></trkpt><trkpt lat="55.7646650" lon="49.1686930"><time>2022-10-29T08:14:35.217</time></trkpt><trkpt lat="55.7646416" lon="49.1686160"><time>2022-10-29T08:14:36.217</time></trkpt><trkpt lat="55.7646117" lon="49.1685466"><time>2022-10-29T08:14:38.210</time></trkpt><trkpt lat="55.7645921" lon="49.1684651"><time>2022-10-29T08:14:43.217</time></trkpt><trkpt lat="55.7645861" lon="49.1683824"><time>2022-10-29T08:14:48.213</time></trkpt><trkpt lat="55.7646991" lon="49.1681752"><time>2022-10-29T08:14:58.217</time></trkpt><trkpt lat="55.7647089" lon="49.1681669"><time>2022-10-29T08:14:59.187</time></trkpt><trkpt lat="55.7647628" lon="49.1681609"><time>2022-10-29T08:15:03.197</time></trkpt><trkpt lat="55.7648184" lon="49.1681542"><time>2022-10-29T08:15:04.200</time></trkpt><trkpt lat="55.7649056" lon="49.1681747"><time>2022-10-29T08:15:06.200</time></trkpt><trkpt lat="55.7649185" lon="49.1682652"><time>2022-10-29T08:15:10.217</time></trkpt><trkpt lat="55.7649453" lon="49.1683382"><time>2022-10-29T08:15:14.213</time></trkpt><trkpt lat="55.7649693" lon="49.1682458"><time>2022-10-29T08:15:18.217</time></trkpt><trkpt lat="55.7649856" lon="49.1681503"><time>2022-10-29T08:15:20.207</time></trkpt><trkpt lat="55.7649965" lon="49.1680350"><time>2022-10-29T08:15:22.223</time></trkpt><trkpt lat="55.7650010" lon="49.1679529"><time>2022-10-29T08:15:24.223</time></trkpt><trkpt lat="55.7650046" lon="49.1678653"><time>2022-10-29T08:15:32.217</time></trkpt><trkpt lat="55.7650322" lon="49.1677944"><time>2022-10-29T08:15:36.213</time></trkpt><trkpt lat="55.7650210" lon="49.1676833"><time>2022-10-29T08:15:46.190</time></trkpt><trkpt lat="55.7650015" lon="49.1675516"><time>2022-10-29T08:15:48.213</time></trkpt><trkpt lat="55.7649818" lon="49.1674698"><time>2022-10-29T08:15:49.207</time></trkpt><trkpt lat="55.7649900" lon="49.1672743"><time>2022-10-29T08:15:51.207</time></trkpt><trkpt lat="55.7650140" lon="49.1671665"><time>2022-10-29T08:15:53.213</time></trkpt><trkpt lat="55.7650355" lon="49.1670399"><time>2022-10-29T08:15:55.210</time></trkpt><trkpt lat="55.7650551" lon="49.1668996"><time>2022-10-29T08:15:57.200</time></trkpt><trkpt lat="55.7650619" lon="49.1668206"><time>2022-10-29T08:15:58.257</time></trkpt><trkpt lat="55.7650689" lon="49.1667355"><time>2022-10-29T08:15:59.210</time></trkpt><trkpt lat="55.7650877" lon="49.1666032"><time>2022-10-29T08:16:01.213</time></trkpt><trkpt lat="55.7651148" lon="49.1664529"><time>2022-10-29T08:16:03.207</time></trkpt><trkpt lat="55.7651280" lon="49.1663729"><time>2022-10-29T08:16:04.197</time></trkpt><trkpt lat="55.7651390" lon="49.1662826"><time>2022-10-29T08:16:05.203</time></trkpt><trkpt lat="55.7651477" lon="49.1661794"><time>2022-10-29T08:16:06.207</time></trkpt><trkpt lat="55.7651522" lon="49.1660801"><time>2022-10-29T08:16:07.220</time></trkpt><trkpt lat="55.7651549" lon="49.1659874"><time>2022-10-29T08:16:08.243</time></trkpt><trkpt lat="55.7651573" lon="49.1659032"><time>2022-10-29T08:16:09.210</time></trkpt><trkpt lat="55.7651695" lon="49.1657703"><time>2022-10-29T08:16:11.207</time></trkpt><trkpt lat="55.7652050" lon="49.1656668"><time>2022-10-29T08:16:13.207</time></trkpt><trkpt lat="55.7651960" lon="49.1655866"><time>2022-10-29T08:16:16.207</time></trkpt><trkpt lat="55.7651900" lon="49.1656935"><time>2022-10-29T08:16:27.210</time></trkpt><trkpt lat="55.7652398" lon="49.1656670"><time>2022-10-29T08:16:31.207</time></trkpt><trkpt lat="55.7652739" lon="49.1656118"><time>2022-10-29T08:16:34.233</time></trkpt><trkpt lat="55.7652739" lon="49.1656118"><time>2022-10-29T08:16:34.257</time></trkpt><trkpt lat="55.7652674" lon="49.1655000"><time>2022-10-29T08:16:38.237</time></trkpt><trkpt lat="55.7652675" lon="49.1654946"><time>2022-10-29T08:16:39.210</time></trkpt><trkpt lat="55.7653140" lon="49.1654582"><time>2022-10-29T08:16:42.210</time></trkpt><trkpt lat="55.7653733" lon="49.1654193"><time>2022-10-29T08:16:44.220</time></trkpt><trkpt lat="55.7654118" lon="49.1653449"><time>2022-10-29T08:16:46.210</time></trkpt><trkpt lat="55.7654179" lon="49.1652572"><time>2022-10-29T08:16:48.217</time></trkpt><trkpt lat="55.7654609" lon="49.1652227"><time>2022-10-29T08:16:52.217</time></trkpt><trkpt lat="55.7655048" lon="49.1652947"><time>2022-10-29T08:16:55.207</time></trkpt><trkpt lat="55.7655168" lon="49.1653814"><time>2022-10-29T08:16:59.197</time></trkpt><trkpt lat="55.7655868" lon="49.1653031"><time>2022-10-29T08:17:14.193</time></trkpt><trkpt lat="55.7656191" lon="49.1652234"><time>2022-10-29T08:17:15.190</time></trkpt><trkpt lat="55.7656744" lon="49.1650978"><time>2022-10-29T08:17:17.200</time></trkpt><trkpt lat="55.7656978" lon="49.1650194"><time>2022-10-29T08:17:19.200</time></trkpt><trkpt lat="55.7657161" lon="49.1649447"><time>2022-10-29T08:17:21.203</time></trkpt><trkpt lat="55.7657674" lon="49.1648303"><time>2022-10-29T08:17:23.207</time></trkpt><trkpt lat="55.7657993" lon="49.1647503"><time>2022-10-29T08:17:26.213</time></trkpt><trkpt lat="55.7658455" lon="49.1646818"><time>2022-10-29T08:17:29.213</time></trkpt><trkpt lat="55.7658970" lon="49.1646087"><time>2022-10-29T08:17:32.220</time></trkpt><trkpt lat="55.7659323" lon="49.1645498"><time>2022-10-29T08:17:34.203</time></trkpt><trkpt lat="55.7659635" lon="49.1644893"><time>2022-10-29T08:17:36.217</time></trkpt><trkpt lat="55.7659967" lon="49.1644237"><time>2022-10-29T08:17:40.210</time></trkpt><trkpt lat="55.7660012" lon="49.1643279"><time>2022-10-29T08:17:44.190</time></trkpt><trkpt lat="55.7660422" lon="49.1642389"><time>2022-10-29T08:17:47.197</time></trkpt><trkpt lat="55.7660824" lon="49.1641588"><time>2022-10-29T08:17:49.213</time></trkpt><trkpt lat="55.7661375" lon="49.1640540"><time>2022-10-29T08:17:51.223</time></trkpt><trkpt lat="55.7662020" lon="49.1639565"><time>2022-10-29T08:17:53.207</time></trkpt><trkpt lat="55.7662765" lon="49.1638699"><time>2022-10-29T08:17:55.210</time></trkpt><trkpt lat="55.7663198" lon="49.1638330"><time>2022-10-29T08:17:56.213</time></trkpt><trkpt lat="55.7663634" lon="49.1637948"><time>2022-10-29T08:17:57.207</time></trkpt><trkpt lat="55.7664084" lon="49.1637557"><time>2022-10-29T08:17:58.213</time></trkpt><trkpt lat="55.7664560" lon="49.1637174"><time>2022-10-29T08:17:59.210</time></trkpt><trkpt lat="55.7665030" lon="49.1636845"><time>2022-10-29T08:18:00.207</time></trkpt><trkpt lat="55.7665472" lon="49.1636492"><time>2022-10-29T08:18:01.210</time></trkpt><trkpt lat="55.7665869" lon="49.1636073"><time>2022-10-29T08:18:02.227</time></trkpt><trkpt lat="55.7666261" lon="49.1635595"><time>2022-10-29T08:18:03.210</time></trkpt><trkpt lat="55.7666675" lon="49.1635064"><time>2022-10-29T08:18:04.217</time></trkpt><trkpt lat="55.7667071" lon="49.1634537"><time>2022-10-29T08:18:05.197</time></trkpt><trkpt lat="55.7667457" lon="49.1633967"><time>2022-10-29T08:18:06.213</time></trkpt><trkpt lat="55.7667845" lon="49.1633423"><time>2022-10-29T08:18:07.213</time></trkpt><trkpt lat="55.7668247" lon="49.1632925"><time>2022-10-29T08:18:08.220</time></trkpt><trkpt lat="55.7668689" lon="49.1632566"><time>2022-10-29T08:18:09.227</time></trkpt><trkpt lat="55.7669169" lon="49.1632424"><time>2022-10-29T08:18:10.197</time></trkpt><trkpt lat="55.7669652" lon="49.1632312"><time>2022-10-29T08:18:11.227</time></trkpt><trkpt lat="55.7670184" lon="49.1632165"><time>2022-10-29T08:18:12.217</time></trkpt><trkpt lat="55.7670729" lon="49.1631932"><time>2022-10-29T08:18:13.217</time></trkpt><trkpt lat="55.7671292" lon="49.1631545"><time>2022-10-29T08:18:14.210</time></trkpt><trkpt lat="55.7671784" lon="49.1631101"><time>2022-10-29T08:18:15.207</time></trkpt><trkpt lat="55.7672247" lon="49.1630582"><time>2022-10-29T08:18:16.213</time></trkpt><trkpt lat="55.7672678" lon="49.1630069"><time>2022-10-29T08:18:17.220</time></trkpt><trkpt lat="55.7673105" lon="49.1629677"><time>2022-10-29T08:18:18.217</time></trkpt><trkpt lat="55.7673875" lon="49.1629378"><time>2022-10-29T08:18:20.197</time></trkpt><trkpt lat="55.7674440" lon="49.1628802"><time>2022-10-29T08:18:56.213</time></trkpt><trkpt lat="55.7674951" lon="49.1628295"><time>2022-10-29T08:18:58.197</time></trkpt><trkpt lat="55.7675680" lon="49.1627971"><time>2022-10-29T08:19:00.210</time></trkpt><trkpt lat="55.7676131" lon="49.1628065"><time>2022-10-29T08:19:01.213</time></trkpt><trkpt lat="55.7676563" lon="49.1628458"><time>2022-10-29T08:19:02.213</time></trkpt><trkpt lat="55.7676950" lon="49.1629041"><time>2022-10-29T08:19:03.227</time></trkpt><trkpt lat="55.7677281" lon="49.1629776"><time>2022-10-29T08:19:04.207</time></trkpt><trkpt lat="55.7677580" lon="49.1630620"><time>2022-10-29T08:19:05.213</time></trkpt><trkpt lat="55.7677851" lon="49.1631547"><time>2022-10-29T08:19:06.227</time></trkpt><trkpt lat="55.7678083" lon="49.1632521"><time>2022-10-29T08:19:07.213</time></trkpt><trkpt lat="55.7678333" lon="49.1633482"><time>2022-10-29T08:19:08.220</time></trkpt><trkpt lat="55.7678634" lon="49.1634375"><time>2022-10-29T08:19:09.200</time></trkpt><trkpt lat="55.7678957" lon="49.1635200"><time>2022-10-29T08:19:10.217</time></trkpt><trkpt lat="55.7679301" lon="49.1635989"><time>2022-10-29T08:19:11.207</time></trkpt><trkpt lat="55.7679698" lon="49.1636694"><time>2022-10-29T08:19:12.210</time></trkpt><trkpt lat="55.7680180" lon="49.1637222"><time>2022-10-29T08:19:13.213</time></trkpt><trkpt lat="55.7680703" lon="49.1637589"><time>2022-10-29T08:19:14.217</time></trkpt><trkpt lat="55.7681195" lon="49.1637912"><time>2022-10-29T08:19:15.197</time></trkpt><trkpt lat="55.7681618" lon="49.1638275"><time>2022-10-29T08:19:16.213</time></trkpt><trkpt lat="55.7682460" lon="49.1638940"><time>2022-10-29T08:19:18.207</time></trkpt><trkpt lat="55.7682857" lon="49.1639351"><time>2022-10-29T08:19:19.207</time></trkpt><trkpt lat="55.7683279" lon="49.1639826"><time>2022-10-29T08:19:20.197</time></trkpt><trkpt lat="55.7683690" lon="49.1640357"><time>2022-10-29T08:19:21.213</time></trkpt><trkpt lat="55.7684121" lon="49.1640868"><time>2022-10-29T08:19:22.193</time></trkpt><trkpt lat="55.7684580" lon="49.1641366"><time>2022-10-29T08:19:23.210</time></trkpt><trkpt lat="55.7685076" lon="49.1641831"><time>2022-10-29T08:19:24.210</time></trkpt><trkpt lat="55.7685654" lon="49.1642219"><time>2022-10-29T08:19:25.207</time></trkpt><trkpt lat="55.7686241" lon="49.1642603"><time>2022-10-29T08:19:26.213</time></trkpt><trkpt lat="55.7686833" lon="49.1643039"><time>2022-10-29T08:19:27.207</time></trkpt><trkpt lat="55.7687497" lon="49.1643509"><time>2022-10-29T08:19:28.200</time></trkpt><trkpt lat="55.7688154" lon="49.1644103"><time>2022-10-29T08:19:29.213</time></trkpt><trkpt lat="55.7688783" lon="49.1644682"><time>2022-10-29T08:19:30.210</time></trkpt><trkpt lat="55.7689346" lon="49.1645153"><time>2022-10-29T08:19:31.203</time></trkpt><trkpt lat="55.7689891" lon="49.1645617"><time>2022-10-29T08:19:32.213</time></trkpt><trkpt lat="55.7690425" lon="49.1646090"><time>2022-10-29T08:19:33.190</time></trkpt><trkpt lat="55.7690965" lon="49.1646552"><time>2022-10-29T08:19:34.213</time></trkpt><trkpt lat="55.7691507" lon="49.1647079"><time>2022-10-29T08:19:35.203</time></trkpt><trkpt lat="55.7692065" lon="49.1647565"><time>2022-10-29T08:19:36.197</time></trkpt><trkpt lat="55.7692614" lon="49.1648125"><time>2022-10-29T08:19:37.220</time></trkpt><trkpt lat="55.7693189" lon="49.1648640"><time>2022-10-29T08:19:38.210</time></trkpt><trkpt lat="55.7693762" lon="49.1649144"><time>2022-10-29T08:19:39.200</time></trkpt><trkpt lat="55.7694313" lon="49.1649673"><time>2022-10-29T08:19:40.227</time></trkpt><trkpt lat="55.7694877" lon="49.1650167"><time>2022-10-29T08:19:41.220</time></trkpt><trkpt lat="55.7695432" lon="49.1650699"><time>2022-10-29T08:19:42.227</time></trkpt><trkpt lat="55.7695987" lon="49.1651291"><time>2022-10-29T08:19:43.210</time></trkpt><trkpt lat="55.7696569" lon="49.1651860"><time>2022-10-29T08:19:44.223</time></trkpt><trkpt lat="55.7697154" lon="49.1652424"><time>2022-10-29T08:19:45.213</time></trkpt><trkpt lat="55.7697734" lon="49.1652985"><time>2022-10-29T08:19:46.213</time></trkpt><trkpt lat="55.7698310" lon="49.1653509"><time>2022-10-29T08:19:47.210</time></trkpt><trkpt lat="55.7698864" lon="49.1654046"><time>2022-10-29T08:19:48.220</time></trkpt><trkpt lat="55.7699445" lon="49.1654507"><time>2022-10-29T08:19:49.220</time></trkpt><trkpt lat="55.7700022" lon="49.1654967"><time>2022-10-29T08:19:50.207</time></trkpt><trkpt lat="55.7700615" lon="49.1655429"><time>2022-10-29T08:19:51.203</time></trkpt><trkpt lat="55.7701183" lon="49.1655950"><time>2022-10-29T08:19:52.200</time></trkpt><trkpt lat="55.7701759" lon="49.1656416"><time>2022-10-29T08:19:53.210</time></trkpt><trkpt lat="55.7702303" lon="49.1656912"><time>2022-10-29T08:19:54.213</time></trkpt><trkpt lat="55.7702863" lon="49.1657412"><time>2022-10-29T08:19:55.217</time></trkpt><trkpt lat="55.7703426" lon="49.1657863"><time>2022-10-29T08:19:56.223</time></trkpt><trkpt lat="55.7704018" lon="49.1658180"><time>2022-10-29T08:19:57.210</time></trkpt><trkpt lat="55.7704598" lon="49.1658339"><time>2022-10-29T08:19:58.217</time></trkpt><trkpt lat="55.7705175" lon="49.1658317"><time>2022-10-29T08:19:59.207</time></trkpt><trkpt lat="55.7705766" lon="49.1658085"><time>2022-10-29T08:20:00.213</time></trkpt><trkpt lat="55.7706326" lon="49.1657752"><time>2022-10-29T08:20:01.207</time></trkpt><trkpt lat="55.7706917" lon="49.1657297"><time>2022-10-29T08:20:02.223</time></trkpt><trkpt lat="55.7707515" lon="49.1656815"><time>2022-10-29T08:20:03.227</time></trkpt><trkpt lat="55.7708111" lon="49.1656317"><time>2022-10-29T08:20:04.233</time></trkpt><trkpt lat="55.7708694" lon="49.1655787"><time>2022-10-29T08:20:05.197</time></trkpt><trkpt lat="55.7709240" lon="49.1655190"><time>2022-10-29T08:20:06.190</time></trkpt><trkpt lat="55.7709764" lon="49.1654554"><time>2022-10-29T08:20:07.220</time></trkpt><trkpt lat="55.7710283" lon="49.1653960"><time>2022-10-29T08:20:08.210</time></trkpt><trkpt lat="55.7710800" lon="49.1653371"><time>2022-10-29T08:20:09.217</time></trkpt><trkpt lat="55.7711320" lon="49.1652807"><time>2022-10-29T08:20:10.220</time></trkpt><trkpt lat="55.7711861" lon="49.1652243"><time>2022-10-29T08:20:11.200</time></trkpt><trkpt lat="55.7712445" lon="49.1651684"><time>2022-10-29T08:20:12.217</time></trkpt><trkpt lat="55.7713027" lon="49.1651148"><time>2022-10-29T08:20:13.257</time></trkpt><trkpt lat="55.7713619" lon="49.1650577"><time>2022-10-29T08:20:14.227</time></trkpt><trkpt lat="55.7714224" lon="49.1650027"><time>2022-10-29T08:20:15.217</time></trkpt><trkpt lat="55.7714817" lon="49.1649474"><time>2022-10-29T08:20:16.227</time></trkpt><trkpt lat="55.7715402" lon="49.1649018"><time>2022-10-29T08:20:17.210</time></trkpt><trkpt lat="55.7716002" lon="49.1648607"><time>2022-10-29T08:20:18.217</time></trkpt><trkpt lat="55.7716571" lon="49.1648170"><time>2022-10-29T08:20:19.223</time></trkpt><trkpt lat="55.7717131" lon="49.1647690"><time>2022-10-29T08:20:20.210</time></trkpt><trkpt lat="55.7717697" lon="49.1647161"><time>2022-10-29T08:20:21.207</time></trkpt><trkpt lat="55.7718261" lon="49.1646559"><time>2022-10-29T08:20:22.213</time></trkpt><trkpt lat="55.7718818" lon="49.1645870"><time>2022-10-29T08:20:23.213</time></trkpt><trkpt lat="55.7719397" lon="49.1645150"><time>2022-10-29T08:20:24.210</time></trkpt><trkpt lat="55.7720003" lon="49.1644500"><time>2022-10-29T08:20:25.207</time></trkpt><trkpt lat="55.7720648" lon="49.1643893"><time>2022-10-29T08:20:26.223</time></trkpt><trkpt lat="55.7721291" lon="49.1643309"><time>2022-10-29T08:20:27.227</time></trkpt><trkpt lat="55.7721906" lon="49.1642742"><time>2022-10-29T08:20:28.217</time></trkpt><trkpt lat="55.7722494" lon="49.1642193"><time>2022-10-29T08:20:29.200</time></trkpt><trkpt lat="55.7723068" lon="49.1641684"><time>2022-10-29T08:20:30.203</time></trkpt><trkpt lat="55.7723682" lon="49.1641336"><time>2022-10-29T08:20:31.243</time></trkpt><trkpt lat="55.7724279" lon="49.1641171"><time>2022-10-29T08:20:32.220</time></trkpt><trkpt lat="55.7724854" lon="49.1641141"><time>2022-10-29T08:20:33.223</time></trkpt><trkpt lat="55.7725444" lon="49.1641151"><time>2022-10-29T08:20:34.227</time></trkpt><trkpt lat="55.7726027" lon="49.1641290"><time>2022-10-29T08:20:35.223</time></trkpt><trkpt lat="55.7726506" lon="49.1641658"><time>2022-10-29T08:20:36.227</time></trkpt><trkpt lat="55.7726854" lon="49.1642198"><time>2022-10-29T08:20:37.220</time></trkpt><trkpt lat="55.7727169" lon="49.1642832"><time>2022-10-29T08:20:38.217</time></trkpt><trkpt lat="55.7727501" lon="49.1643524"><time>2022-10-29T08:20:39.227</time></trkpt><trkpt lat="55.7727867" lon="49.1644162"><time>2022-10-29T08:20:40.200</time></trkpt><trkpt lat="55.7728301" lon="49.1644753"><time>2022-10-29T08:20:41.243</time></trkpt><trkpt lat="55.7728717" lon="49.1645406"><time>2022-10-29T08:20:42.220</time></trkpt><trkpt lat="55.7729030" lon="49.1646141"><time>2022-10-29T08:20:43.210</time></trkpt><trkpt lat="55.7729223" lon="49.1646923"><time>2022-10-29T08:20:44.227</time></trkpt><trkpt lat="55.7729640" lon="49.1648317"><time>2022-10-29T08:20:46.243</time></trkpt><trkpt lat="55.7729640" lon="49.1648317"><time>2022-10-29T08:20:46.270</time></trkpt><trkpt lat="55.7729847" lon="49.1649032"><time>2022-10-29T08:20:47.233</time></trkpt><trkpt lat="55.7730044" lon="49.1649746"><time>2022-10-29T08:20:48.217</time></trkpt><trkpt lat="55.7730278" lon="49.1650434"><time>2022-10-29T08:20:49.230</time></trkpt><trkpt lat="55.7730532" lon="49.1651172"><time>2022-10-29T08:20:50.223</time></trkpt><trkpt lat="55.7730798" lon="49.1651955"><time>2022-10-29T08:20:51.210</time></trkpt><trkpt lat="55.7731067" lon="49.1652753"><time>2022-10-29T08:20:52.213</time></trkpt><trkpt lat="55.7731409" lon="49.1653473"><time>2022-10-29T08:20:53.213</time></trkpt><trkpt lat="55.7731877" lon="49.1653968"><time>2022-10-29T08:20:54.217</time></trkpt><trkpt lat="55.7732384" lon="49.1654066"><time>2022-10-29T08:20:55.213</time></trkpt><trkpt lat="55.7732894" lon="49.1653686"><time>2022-10-29T08:20:56.210</time></trkpt><trkpt lat="55.7733336" lon="49.1652935"><time>2022-10-29T08:20:57.230</time></trkpt><trkpt lat="55.7733682" lon="49.1651978"><time>2022-10-29T08:20:58.207</time></trkpt><trkpt lat="55.7733838" lon="49.1650949"><time>2022-10-29T08:20:59.210</time></trkpt><trkpt lat="55.7733850" lon="49.1649811"><time>2022-10-29T08:21:00.207</time></trkpt><trkpt lat="55.7733676" lon="49.1648751"><time>2022-10-29T08:21:01.220</time></trkpt><trkpt lat="55.7733393" lon="49.1647718"><time>2022-10-29T08:21:02.213</time></trkpt><trkpt lat="55.7733086" lon="49.1646758"><time>2022-10-29T08:21:03.193</time></trkpt><trkpt lat="55.7732782" lon="49.1645809"><time>2022-10-29T08:21:04.223</time></trkpt><trkpt lat="55.7732510" lon="49.1644840"><time>2022-10-29T08:21:05.200</time></trkpt><trkpt lat="55.7732266" lon="49.1643903"><time>2022-10-29T08:21:06.220</time></trkpt><trkpt lat="55.7732062" lon="49.1642962"><time>2022-10-29T08:21:07.210</time></trkpt><trkpt lat="55.7731932" lon="49.1641929"><time>2022-10-29T08:21:08.227</time></trkpt><trkpt lat="55.7731907" lon="49.1640826"><time>2022-10-29T08:21:09.197</time></trkpt><trkpt lat="55.7731937" lon="49.1639756"><time>2022-10-29T08:21:10.223</time></trkpt><trkpt lat="55.7731953" lon="49.1638718"><time>2022-10-29T08:21:11.217</time></trkpt><trkpt lat="55.7731956" lon="49.1637723"><time>2022-10-29T08:21:12.210</time></trkpt><trkpt lat="55.7731947" lon="49.1636761"><time>2022-10-29T08:21:13.227</time></trkpt><trkpt lat="55.7731868" lon="49.1635782"><time>2022-10-29T08:21:14.210</time></trkpt><trkpt lat="55.7731728" lon="49.1634843"><time>2022-10-29T08:21:15.203</time></trkpt><trkpt lat="55.7731622" lon="49.1634065"><time>2022-10-29T08:21:16.217</time></trkpt><trkpt lat="55.7731688" lon="49.1633080"><time>2022-10-29T08:21:18.217</time></trkpt><trkpt lat="55.7731919" lon="49.1632102"><time>2022-10-29T08:21:20.217</time></trkpt><trkpt lat="55.7732514" lon="49.1631128"><time>2022-10-29T08:21:22.220</time></trkpt><trkpt lat="55.7733173" lon="49.1630358"><time>2022-10-29T08:21:24.200</time></trkpt><trkpt lat="55.7733600" lon="49.1630022"><time>2022-10-29T08:21:25.207</time></trkpt><trkpt lat="55.7734103" lon="49.1629651"><time>2022-10-29T08:21:26.227</time></trkpt><trkpt lat="55.7734564" lon="49.1629235"><time>2022-10-29T08:21:27.223</time></trkpt><trkpt lat="55.7735039" lon="49.1628848"><time>2022-10-29T08:21:28.213</time></trkpt><trkpt lat="55.7735537" lon="49.1628482"><time>2022-10-29T08:21:29.220</time></trkpt><trkpt lat="55.7736072" lon="49.1628127"><time>2022-10-29T08:21:30.210</time></trkpt><trkpt lat="55.7736641" lon="49.1627800"><time>2022-10-29T08:21:31.223</time></trkpt><trkpt lat="55.7737221" lon="49.1627475"><time>2022-10-29T08:21:32.223</time></trkpt><trkpt lat="55.7737824" lon="49.1627118"><time>2022-10-29T08:21:33.227</time></trkpt><trkpt lat="55.7738409" lon="49.1626767"><time>2022-10-29T08:21:34.223</time></trkpt><trkpt lat="55.7738998" lon="49.1626460"><time>2022-10-29T08:21:35.207</time></trkpt><trkpt lat="55.7739611" lon="49.1626113"><time>2022-10-29T08:21:36.220</time></trkpt><trkpt lat="55.7740238" lon="49.1625762"><time>2022-10-29T08:21:37.220</time></trkpt><trkpt lat="55.7740863" lon="49.1625439"><time>2022-10-29T08:21:38.227</time></trkpt><trkpt lat="55.7741473" lon="49.1625039"><time>2022-10-29T08:21:39.213</time></trkpt><trkpt lat="55.7742097" lon="49.1624551"><time>2022-10-29T08:21:40.217</time></trkpt><trkpt lat="55.7742694" lon="49.1624011"><time>2022-10-29T08:21:41.213</time></trkpt><trkpt lat="55.7743285" lon="49.1623436"><time>2022-10-29T08:21:42.233</time></trkpt><trkpt lat="55.7743848" lon="49.1622879"><time>2022-10-29T08:21:43.237</time></trkpt><trkpt lat="55.7744399" lon="49.1622310"><time>2022-10-29T08:21:44.217</time></trkpt><trkpt lat="55.7744929" lon="49.1621752"><time>2022-10-29T08:21:45.213</time></trkpt><trkpt lat="55.7745479" lon="49.1621167"><time>2022-10-29T08:21:46.220</time></trkpt><trkpt lat="55.7746077" lon="49.1620624"><time>2022-10-29T08:21:47.203</time></trkpt><trkpt lat="55.7746674" lon="49.1620071"><time>2022-10-29T08:21:48.220</time></trkpt><trkpt lat="55.7747137" lon="49.1619433"><time>2022-10-29T08:21:49.223</time></trkpt><trkpt lat="55.7747455" lon="49.1618615"><time>2022-10-29T08:21:50.210</time></trkpt><trkpt lat="55.7747572" lon="49.1617601"><time>2022-10-29T08:21:51.220</time></trkpt><trkpt lat="55.7747468" lon="49.1616531"><time>2022-10-29T08:21:52.237</time></trkpt><trkpt lat="55.7747229" lon="49.1615534"><time>2022-10-29T08:21:53.227</time></trkpt><trkpt lat="55.7747004" lon="49.1614550"><time>2022-10-29T08:21:54.220</time></trkpt><trkpt lat="55.7746824" lon="49.1613509"><time>2022-10-29T08:21:55.227</time></trkpt><trkpt lat="55.7746618" lon="49.1612493"><time>2022-10-29T08:21:56.223</time></trkpt><trkpt lat="55.7746392" lon="49.1611429"><time>2022-10-29T08:21:57.213</time></trkpt><trkpt lat="55.7746188" lon="49.1610365"><time>2022-10-29T08:21:58.220</time></trkpt><trkpt lat="55.7746009" lon="49.1609318"><time>2022-10-29T08:21:59.217</time></trkpt><trkpt lat="55.7745826" lon="49.1608311"><time>2022-10-29T08:22:00.197</time></trkpt><trkpt lat="55.7745659" lon="49.1607273"><time>2022-10-29T08:22:01.217</time></trkpt><trkpt lat="55.7745479" lon="49.1606229"><time>2022-10-29T08:22:02.217</time></trkpt><trkpt lat="55.7745308" lon="49.1605146"><time>2022-10-29T08:22:03.223</time></trkpt><trkpt lat="55.7745158" lon="49.1604036"><time>2022-10-29T08:22:04.227</time></trkpt><trkpt lat="55.7745039" lon="49.1602893"><time>2022-10-29T08:22:05.203</time></trkpt><trkpt lat="55.7744952" lon="49.1601760"><time>2022-10-29T08:22:06.220</time></trkpt><trkpt lat="55.7744900" lon="49.1600615"><time>2022-10-29T08:22:07.220</time></trkpt><trkpt lat="55.7744874" lon="49.1599461"><time>2022-10-29T08:22:08.227</time></trkpt><trkpt lat="55.7744798" lon="49.1598307"><time>2022-10-29T08:22:09.223</time></trkpt><trkpt lat="55.7744714" lon="49.1597151"><time>2022-10-29T08:22:10.207</time></trkpt><trkpt lat="55.7744664" lon="49.1596008"><time>2022-10-29T08:22:11.217</time></trkpt><trkpt lat="55.7744603" lon="49.1594851"><time>2022-10-29T08:22:12.237</time></trkpt><trkpt lat="55.7744553" lon="49.1593663"><time>2022-10-29T08:22:13.197</time></trkpt><trkpt lat="55.7744508" lon="49.1592457"><time>2022-10-29T08:22:14.223</time></trkpt><trkpt lat="55.7744459" lon="49.1591263"><time>2022-10-29T08:22:15.213</time></trkpt><trkpt lat="55.7744400" lon="49.1590047"><time>2022-10-29T08:22:16.220</time></trkpt><trkpt lat="55.7744365" lon="49.1588819"><time>2022-10-29T08:22:17.220</time></trkpt><trkpt lat="55.7744315" lon="49.1587575"><time>2022-10-29T08:22:18.217</time></trkpt><trkpt lat="55.7744254" lon="49.1586321"><time>2022-10-29T08:22:19.220</time></trkpt><trkpt lat="55.7744214" lon="49.1585059"><time>2022-10-29T08:22:20.213</time></trkpt><trkpt lat="55.7744197" lon="49.1583797"><time>2022-10-29T08:22:21.223</time></trkpt><trkpt lat="55.7744153" lon="49.1582535"><time>2022-10-29T08:22:22.227</time></trkpt><trkpt lat="55.7744106" lon="49.1581295"><time>2022-10-29T08:22:23.227</time></trkpt><trkpt lat="55.7744029" lon="49.1580102"><time>2022-10-29T08:22:24.227</time></trkpt><trkpt lat="55.7743944" lon="49.1578903"><time>2022-10-29T08:22:25.213</time></trkpt><trkpt lat="55.7743862" lon="49.1577666"><time>2022-10-29T08:22:26.220</time></trkpt><trkpt lat="55.7743793" lon="49.1576402"><time>2022-10-29T08:22:27.217</time></trkpt><trkpt lat="55.7743737" lon="49.1575111"><time>2022-10-29T08:22:28.203</time></trkpt><trkpt lat="55.7743691" lon="49.1573830"><time>2022-10-29T08:22:29.197</time></trkpt><trkpt lat="55.7743668" lon="49.1572508"><time>2022-10-29T08:22:30.233</time></trkpt><trkpt lat="55.7743651" lon="49.1571222"><time>2022-10-29T08:22:31.223</time></trkpt><trkpt lat="55.7743650" lon="49.1569905"><time>2022-10-29T08:22:32.227</time></trkpt><trkpt lat="55.7743630" lon="49.1568601"><time>2022-10-29T08:22:33.223</time></trkpt><trkpt lat="55.7743595" lon="49.1567299"><time>2022-10-29T08:22:34.220</time></trkpt><trkpt lat="55.7743529" lon="49.1566033"><time>2022-10-29T08:22:35.230</time></trkpt><trkpt lat="55.7743423" lon="49.1564819"><time>2022-10-29T08:22:36.223</time></trkpt><trkpt lat="55.7743293" lon="49.1563631"><time>2022-10-29T08:22:37.213</time></trkpt><trkpt lat="55.7743160" lon="49.1562430"><time>2022-10-29T08:22:38.227</time></trkpt><trkpt lat="55.7743022" lon="49.1561282"><time>2022-10-29T08:22:39.253</time></trkpt><trkpt lat="55.7742848" lon="49.1560195"><time>2022-10-29T08:22:40.207</time></trkpt><trkpt lat="55.7742633" lon="49.1559120"><time>2022-10-29T08:22:41.207</time></trkpt><trkpt lat="55.7742440" lon="49.1558039"><time>2022-10-29T08:22:42.240</time></trkpt><trkpt lat="55.7742264" lon="49.1557001"><time>2022-10-29T08:22:43.223</time></trkpt><trkpt lat="55.7742090" lon="49.1555951"><time>2022-10-29T08:22:44.213</time></trkpt><trkpt lat="55.7741905" lon="49.1554909"><time>2022-10-29T08:22:45.203</time></trkpt><trkpt lat="55.7741704" lon="49.1553846"><time>2022-10-29T08:22:46.220</time></trkpt><trkpt lat="55.7741511" lon="49.1552740"><time>2022-10-29T08:22:47.223</time></trkpt><trkpt lat="55.7741303" lon="49.1551637"><time>2022-10-29T08:22:48.233</time></trkpt><trkpt lat="55.7741124" lon="49.1550515"><time>2022-10-29T08:22:49.220</time></trkpt><trkpt lat="55.7740961" lon="49.1549381"><time>2022-10-29T08:22:50.230</time></trkpt><trkpt lat="55.7740794" lon="49.1548263"><time>2022-10-29T08:22:51.217</time></trkpt><trkpt lat="55.7740630" lon="49.1547164"><time>2022-10-29T08:22:52.207</time></trkpt><trkpt lat="55.7740456" lon="49.1546076"><time>2022-10-29T08:22:53.260</time></trkpt><trkpt lat="55.7740272" lon="49.1545001"><time>2022-10-29T08:22:54.223</time></trkpt><trkpt lat="55.7740075" lon="49.1543918"><time>2022-10-29T08:22:55.220</time></trkpt><trkpt lat="55.7739882" lon="49.1542843"><time>2022-10-29T08:22:56.217</time></trkpt><trkpt lat="55.7739692" lon="49.1541784"><time>2022-10-29T08:22:57.227</time></trkpt><trkpt lat="55.7739511" lon="49.1540731"><time>2022-10-29T08:22:58.217</time></trkpt><trkpt lat="55.7739323" lon="49.1539718"><time>2022-10-29T08:22:59.223</time></trkpt><trkpt lat="55.7739150" lon="49.1538670"><time>2022-10-29T08:23:00.257</time></trkpt><trkpt lat="55.7739041" lon="49.1537621"><time>2022-10-29T08:23:01.223</time></trkpt><trkpt lat="55.7738968" lon="49.1536528"><time>2022-10-29T08:23:02.230</time></trkpt><trkpt lat="55.7738825" lon="49.1535484"><time>2022-10-29T08:23:03.220</time></trkpt><trkpt lat="55.7738570" lon="49.1534609"><time>2022-10-29T08:23:04.223</time></trkpt><trkpt lat="55.7738190" lon="49.1533990"><time>2022-10-29T08:23:05.240</time></trkpt><trkpt lat="55.7738190" lon="49.1533990"><time>2022-10-29T08:23:05.260</time></trkpt><trkpt lat="55.7737701" lon="49.1533665"><time>2022-10-29T08:23:06.257</time></trkpt><trkpt lat="55.7737204" lon="49.1533563"><time>2022-10-29T08:23:07.223</time></trkpt><trkpt lat="55.7736725" lon="49.1533537"><time>2022-10-29T08:23:08.217</time></trkpt><trkpt lat="55.7736225" lon="49.1533649"><time>2022-10-29T08:23:09.227</time></trkpt><trkpt lat="55.7735749" lon="49.1533837"><time>2022-10-29T08:23:10.223</time></trkpt><trkpt lat="55.7735265" lon="49.1534183"><time>2022-10-29T08:23:11.230</time></trkpt><trkpt lat="55.7734771" lon="49.1534708"><time>2022-10-29T08:23:12.227</time></trkpt><trkpt lat="55.7734293" lon="49.1535302"><time>2022-10-29T08:23:13.227</time></trkpt><trkpt lat="55.7733828" lon="49.1535995"><time>2022-10-29T08:23:14.223</time></trkpt><trkpt lat="55.7733387" lon="49.1536687"><time>2022-10-29T08:23:15.207</time></trkpt><trkpt lat="55.7732958" lon="49.1537385"><time>2022-10-29T08:23:16.220</time></trkpt><trkpt lat="55.7732517" lon="49.1538111"><time>2022-10-29T08:23:17.210</time></trkpt><trkpt lat="55.7732051" lon="49.1538832"><time>2022-10-29T08:23:18.220</time></trkpt><trkpt lat="55.7731587" lon="49.1539567"><time>2022-10-29T08:23:19.227</time></trkpt><trkpt lat="55.7731114" lon="49.1540283"><time>2022-10-29T08:23:20.213</time></trkpt><trkpt lat="55.7730638" lon="49.1541037"><time>2022-10-29T08:23:21.227</time></trkpt><trkpt lat="55.7730145" lon="49.1541771"><time>2022-10-29T08:23:22.223</time></trkpt><trkpt lat="55.7729639" lon="49.1542473"><time>2022-10-29T08:23:23.213</time></trkpt><trkpt lat="55.7729146" lon="49.1543155"><time>2022-10-29T08:23:24.217</time></trkpt><trkpt lat="55.7728664" lon="49.1543797"><time>2022-10-29T08:23:25.207</time></trkpt><trkpt lat="55.7728171" lon="49.1544392"><time>2022-10-29T08:23:26.227</time></trkpt><trkpt lat="55.7727678" lon="49.1544919"><time>2022-10-29T08:23:27.220</time></trkpt><trkpt lat="55.7727194" lon="49.1545175"><time>2022-10-29T08:23:28.217</time></trkpt><trkpt lat="55.7726595" lon="49.1544187"><time>2022-10-29T08:23:30.233</time></trkpt><trkpt lat="55.7726697" lon="49.1543245"><time>2022-10-29T08:23:31.227</time></trkpt><trkpt lat="55.7726991" lon="49.1542269"><time>2022-10-29T08:23:32.233</time></trkpt><trkpt lat="55.7727347" lon="49.1541208"><time>2022-10-29T08:23:33.227</time></trkpt><trkpt lat="55.7727694" lon="49.1540175"><time>2022-10-29T08:23:34.213</time></trkpt><trkpt lat="55.7728035" lon="49.1539137"><time>2022-10-29T08:23:35.207</time></trkpt><trkpt lat="55.7728366" lon="49.1538025"><time>2022-10-29T08:23:36.223</time></trkpt><trkpt lat="55.7728681" lon="49.1536825"><time>2022-10-29T08:23:37.223</time></trkpt><trkpt lat="55.7729003" lon="49.1535527"><time>2022-10-29T08:23:38.227</time></trkpt><trkpt lat="55.7729338" lon="49.1534211"><time>2022-10-29T08:23:39.213</time></trkpt><trkpt lat="55.7729683" lon="49.1532850"><time>2022-10-29T08:23:40.220</time></trkpt><trkpt lat="55.7730035" lon="49.1531416"><time>2022-10-29T08:23:41.210</time></trkpt><trkpt lat="55.7730436" lon="49.1529976"><time>2022-10-29T08:23:42.227</time></trkpt><trkpt lat="55.7730880" lon="49.1528544"><time>2022-10-29T08:23:43.227</time></trkpt><trkpt lat="55.7731345" lon="49.1527096"><time>2022-10-29T08:23:44.217</time></trkpt><trkpt lat="55.7731820" lon="49.1525615"><time>2022-10-29T08:23:45.220</time></trkpt><trkpt lat="55.7732360" lon="49.1524170"><time>2022-10-29T08:23:46.217</time></trkpt><trkpt lat="55.7732965" lon="49.1522771"><time>2022-10-29T08:23:47.223</time></trkpt><trkpt lat="55.7733602" lon="49.1521385"><time>2022-10-29T08:23:48.220</time></trkpt><trkpt lat="55.7734251" lon="49.1520061"><time>2022-10-29T08:23:49.213</time></trkpt><trkpt lat="55.7734872" lon="49.1518762"><time>2022-10-29T08:23:50.213</time></trkpt><trkpt lat="55.7735507" lon="49.1517477"><time>2022-10-29T08:23:51.213</time></trkpt><trkpt lat="55.7736156" lon="49.1516168"><time>2022-10-29T08:23:52.223</time></trkpt><trkpt lat="55.7736798" lon="49.1514897"><time>2022-10-29T08:23:53.217</time></trkpt><trkpt lat="55.7737418" lon="49.1513672"><time>2022-10-29T08:23:54.220</time></trkpt><trkpt lat="55.7738000" lon="49.1512494"><time>2022-10-29T08:23:55.207</time></trkpt><trkpt lat="55.7738552" lon="49.1511389"><time>2022-10-29T08:23:56.220</time></trkpt><trkpt lat="55.7739097" lon="49.1510331"><time>2022-10-29T08:23:57.207</time></trkpt><trkpt lat="55.7739610" lon="49.1509227"><time>2022-10-29T08:23:58.197</time></trkpt><trkpt lat="55.7740136" lon="49.1508089"><time>2022-10-29T08:23:59.183</time></trkpt><trkpt lat="55.7740704" lon="49.1506986"><time>2022-10-29T08:24:00.207</time></trkpt><trkpt lat="55.7741239" lon="49.1505919"><time>2022-10-29T08:24:01.207</time></trkpt><trkpt lat="55.7741772" lon="49.1504881"><time>2022-10-29T08:24:02.213</time></trkpt><trkpt lat="55.7742311" lon="49.1503835"><time>2022-10-29T08:24:03.203</time></trkpt><trkpt lat="55.7742838" lon="49.1502785"><time>2022-10-29T08:24:04.200</time></trkpt><trkpt lat="55.7743356" lon="49.1501743"><time>2022-10-29T08:24:05.213</time></trkpt><trkpt lat="55.7743851" lon="49.1500712"><time>2022-10-29T08:24:06.213</time></trkpt><trkpt lat="55.7744298" lon="49.1499681"><time>2022-10-29T08:24:07.213</time></trkpt><trkpt lat="55.7744685" lon="49.1498618"><time>2022-10-29T08:24:08.213</time></trkpt><trkpt lat="55.7744995" lon="49.1497477"><time>2022-10-29T08:24:09.217</time></trkpt><trkpt lat="55.7745213" lon="49.1496243"><time>2022-10-29T08:24:10.210</time></trkpt><trkpt lat="55.7745378" lon="49.1494900"><time>2022-10-29T08:24:11.200</time></trkpt><trkpt lat="55.7745514" lon="49.1493513"><time>2022-10-29T08:24:12.213</time></trkpt><trkpt lat="55.7745669" lon="49.1492077"><time>2022-10-29T08:24:13.210</time></trkpt><trkpt lat="55.7745828" lon="49.1490680"><time>2022-10-29T08:24:14.217</time></trkpt><trkpt lat="55.7745987" lon="49.1489302"><time>2022-10-29T08:24:15.217</time></trkpt><trkpt lat="55.7746138" lon="49.1487957"><time>2022-10-29T08:24:16.213</time></trkpt><trkpt lat="55.7746270" lon="49.1486699"><time>2022-10-29T08:24:17.213</time></trkpt><trkpt lat="55.7746442" lon="49.1485413"><time>2022-10-29T08:24:18.213</time></trkpt><trkpt lat="55.7746749" lon="49.1484187"><time>2022-10-29T08:24:19.217</time></trkpt><trkpt lat="55.7747193" lon="49.1483103"><time>2022-10-29T08:24:20.210</time></trkpt><trkpt lat="55.7747721" lon="49.1481999"><time>2022-10-29T08:24:21.210</time></trkpt><trkpt lat="55.7748284" lon="49.1480870"><time>2022-10-29T08:24:22.213</time></trkpt><trkpt lat="55.7748877" lon="49.1479655"><time>2022-10-29T08:24:23.220</time></trkpt><trkpt lat="55.7749477" lon="49.1478400"><time>2022-10-29T08:24:24.220</time></trkpt><trkpt lat="55.7750072" lon="49.1477112"><time>2022-10-29T08:24:25.213</time></trkpt><trkpt lat="55.7750575" lon="49.1475866"><time>2022-10-29T08:24:26.210</time></trkpt><trkpt lat="55.7751032" lon="49.1474600"><time>2022-10-29T08:24:27.217</time></trkpt><trkpt lat="55.7751400" lon="49.1473331"><time>2022-10-29T08:24:28.213</time></trkpt><trkpt lat="55.7751628" lon="49.1472025"><time>2022-10-29T08:24:29.220</time></trkpt><trkpt lat="55.7751766" lon="49.1470749"><time>2022-10-29T08:24:30.220</time></trkpt><trkpt lat="55.7752024" lon="49.1469571"><time>2022-10-29T08:24:31.217</time></trkpt><trkpt lat="55.7752441" lon="49.1468536"><time>2022-10-29T08:24:32.213</time></trkpt><trkpt lat="55.7752935" lon="49.1467463"><time>2022-10-29T08:24:33.233</time></trkpt><trkpt lat="55.7753449" lon="49.1466430"><time>2022-10-29T08:24:34.247</time></trkpt><trkpt lat="55.7753960" lon="49.1465394"><time>2022-10-29T08:24:35.213</time></trkpt><trkpt lat="55.7754456" lon="49.1464383"><time>2022-10-29T08:24:36.220</time></trkpt><trkpt lat="55.7754927" lon="49.1463325"><time>2022-10-29T08:24:37.217</time></trkpt><trkpt lat="55.7755395" lon="49.1462204"><time>2022-10-29T08:24:38.213</time></trkpt><trkpt lat="55.7755896" lon="49.1461113"><time>2022-10-29T08:24:39.210</time></trkpt><trkpt lat="55.7756375" lon="49.1460025"><time>2022-10-29T08:24:40.210</time></trkpt><trkpt lat="55.7756814" lon="49.1458868"><time>2022-10-29T08:24:41.213</time></trkpt><trkpt lat="55.7757195" lon="49.1457656"><time>2022-10-29T08:24:42.220</time></trkpt><trkpt lat="55.7757577" lon="49.1456438"><time>2022-10-29T08:24:43.210</time></trkpt><trkpt lat="55.7757978" lon="49.1455223"><time>2022-10-29T08:24:44.210</time></trkpt><trkpt lat="55.7758422" lon="49.1454047"><time>2022-10-29T08:24:45.210</time></trkpt><trkpt lat="55.7758901" lon="49.1452894"><time>2022-10-29T08:24:46.210</time></trkpt><trkpt lat="55.7759372" lon="49.1451758"><time>2022-10-29T08:24:47.210</time></trkpt><trkpt lat="55.7759724" lon="49.1450597"><time>2022-10-29T08:24:48.213</time></trkpt><trkpt lat="55.7759938" lon="49.1449377"><time>2022-10-29T08:24:49.213</time></trkpt><trkpt lat="55.7760210" lon="49.1448150"><time>2022-10-29T08:24:50.223</time></trkpt><trkpt lat="55.7760580" lon="49.1447055"><time>2022-10-29T08:24:51.207</time></trkpt><trkpt lat="55.7761033" lon="49.1446143"><time>2022-10-29T08:24:52.213</time></trkpt><trkpt lat="55.7761523" lon="49.1445333"><time>2022-10-29T08:24:53.210</time></trkpt><trkpt lat="55.7761966" lon="49.1444509"><time>2022-10-29T08:24:54.217</time></trkpt><trkpt lat="55.7762400" lon="49.1443685"><time>2022-10-29T08:24:55.207</time></trkpt><trkpt lat="55.7762744" lon="49.1442897"><time>2022-10-29T08:24:56.233</time></trkpt><trkpt lat="55.7762990" lon="49.1441704"><time>2022-10-29T08:24:58.220</time></trkpt><trkpt lat="55.7762583" lon="49.1440457"><time>2022-10-29T08:25:00.217</time></trkpt><trkpt lat="55.7762204" lon="49.1439904"><time>2022-10-29T08:25:01.210</time></trkpt><trkpt lat="55.7761815" lon="49.1439356"><time>2022-10-29T08:25:02.210</time></trkpt><trkpt lat="55.7761426" lon="49.1438785"><time>2022-10-29T08:25:03.210</time></trkpt><trkpt lat="55.7761083" lon="49.1438252"><time>2022-10-29T08:25:04.237</time></trkpt><trkpt lat="55.7760752" lon="49.1437784"><time>2022-10-29T08:25:05.220</time></trkpt><trkpt lat="55.7760378" lon="49.1437319"><time>2022-10-29T08:25:06.210</time></trkpt><trkpt lat="55.7759985" lon="49.1436786"><time>2022-10-29T08:25:07.240</time></trkpt><trkpt lat="55.7759584" lon="49.1436205"><time>2022-10-29T08:25:08.237</time></trkpt><trkpt lat="55.7759146" lon="49.1435641"><time>2022-10-29T08:25:09.207</time></trkpt><trkpt lat="55.7758670" lon="49.1435026"><time>2022-10-29T08:25:10.210</time></trkpt><trkpt lat="55.7758177" lon="49.1434392"><time>2022-10-29T08:25:11.210</time></trkpt><trkpt lat="55.7757699" lon="49.1433846"><time>2022-10-29T08:25:12.220</time></trkpt><trkpt lat="55.7757227" lon="49.1433325"><time>2022-10-29T08:25:13.210</time></trkpt><trkpt lat="55.7756831" lon="49.1432805"><time>2022-10-29T08:25:14.210</time></trkpt><trkpt lat="55.7756456" lon="49.1432257"><time>2022-10-29T08:25:15.210</time></trkpt><trkpt lat="55.7756042" lon="49.1431714"><time>2022-10-29T08:25:16.237</time></trkpt><trkpt lat="55.7755613" lon="49.1431211"><time>2022-10-29T08:25:17.220</time></trkpt><trkpt lat="55.7755251" lon="49.1430654"><time>2022-10-29T08:25:18.213</time></trkpt><trkpt lat="55.7754750" lon="49.1429891"><time>2022-10-29T08:25:20.210</time></trkpt><trkpt lat="55.7754342" lon="49.1429357"><time>2022-10-29T08:25:26.210</time></trkpt><trkpt lat="55.7753814" lon="49.1429395"><time>2022-10-29T08:25:29.213</time></trkpt><trkpt lat="55.7757213" lon="49.1425049"><time>2022-10-29T08:25:47.240</time></trkpt><trkpt lat="55.7757528" lon="49.1424710"><time>2022-10-29T08:25:48.197</time></trkpt><trkpt lat="55.7757580" lon="49.1425632"><time>2022-10-29T08:25:55.217</time></trkpt><trkpt lat="55.7757180" lon="49.1424936"><time>2022-10-29T08:26:21.203</time></trkpt><trkpt lat="55.7756635" lon="49.1424079"><time>2022-10-29T08:26:24.200</time></trkpt><trkpt lat="55.7756007" lon="49.1422987"><time>2022-10-29T08:26:26.207</time></trkpt><trkpt lat="55.7755687" lon="49.1422396"><time>2022-10-29T08:26:27.223</time></trkpt><trkpt lat="55.7755049" lon="49.1421296"><time>2022-10-29T08:26:29.230</time></trkpt><trkpt lat="55.7754656" lon="49.1420906"><time>2022-10-29T08:26:30.230</time></trkpt><trkpt lat="55.7753886" lon="49.1420341"><time>2022-10-29T08:26:32.223</time></trkpt><trkpt lat="55.7753347" lon="49.1419634"><time>2022-10-29T08:26:34.243</time></trkpt><trkpt lat="55.7753093" lon="49.1419277"><time>2022-10-29T08:26:35.233</time></trkpt><trkpt lat="55.7752445" lon="49.1418271"><time>2022-10-29T08:26:37.223</time></trkpt><trkpt lat="55.7752064" lon="49.1417689"><time>2022-10-29T08:26:38.230</time></trkpt><trkpt lat="55.7751663" lon="49.1417084"><time>2022-10-29T08:26:39.247</time></trkpt><trkpt lat="55.7751242" lon="49.1416453"><time>2022-10-29T08:26:40.223</time></trkpt><trkpt lat="55.7750820" lon="49.1415788"><time>2022-10-29T08:26:41.240</time></trkpt><trkpt lat="55.7750384" lon="49.1415112"><time>2022-10-29T08:26:42.227</time></trkpt><trkpt lat="55.7749953" lon="49.1414445"><time>2022-10-29T08:26:43.233</time></trkpt><trkpt lat="55.7749500" lon="49.1413808"><time>2022-10-29T08:26:44.233</time></trkpt><trkpt lat="55.7749066" lon="49.1413202"><time>2022-10-29T08:26:45.220</time></trkpt><trkpt lat="55.7748655" lon="49.1412625"><time>2022-10-29T08:26:46.220</time></trkpt><trkpt lat="55.7748238" lon="49.1412041"><time>2022-10-29T08:26:47.237</time></trkpt><trkpt lat="55.7747816" lon="49.1411433"><time>2022-10-29T08:26:48.230</time></trkpt><trkpt lat="55.7747405" lon="49.1410811"><time>2022-10-29T08:26:49.230</time></trkpt><trkpt lat="55.7747005" lon="49.1410138"><time>2022-10-29T08:26:50.223</time></trkpt><trkpt lat="55.7746565" lon="49.1409464"><time>2022-10-29T08:26:51.227</time></trkpt><trkpt lat="55.7746122" lon="49.1408813"><time>2022-10-29T08:26:52.243</time></trkpt><trkpt lat="55.7745654" lon="49.1408153"><time>2022-10-29T08:26:53.227</time></trkpt><trkpt lat="55.7745239" lon="49.1407407"><time>2022-10-29T08:26:54.227</time></trkpt><trkpt lat="55.7744844" lon="49.1406672"><time>2022-10-29T08:26:55.240</time></trkpt><trkpt lat="55.7744402" lon="49.1406088"><time>2022-10-29T08:26:56.263</time></trkpt><trkpt lat="55.7743945" lon="49.1405716"><time>2022-10-29T08:26:57.217</time></trkpt><trkpt lat="55.7743259" lon="49.1404802"><time>2022-10-29T08:26:59.220</time></trkpt><trkpt lat="55.7742875" lon="49.1404291"><time>2022-10-29T08:27:00.227</time></trkpt><trkpt lat="55.7742523" lon="49.1403719"><time>2022-10-29T08:27:01.223</time></trkpt><trkpt lat="55.7742135" lon="49.1403098"><time>2022-10-29T08:27:02.230</time></trkpt><trkpt lat="55.7741722" lon="49.1402468"><time>2022-10-29T08:27:03.223</time></trkpt><trkpt lat="55.7741277" lon="49.1401851"><time>2022-10-29T08:27:04.223</time></trkpt><trkpt lat="55.7740842" lon="49.1401192"><time>2022-10-29T08:27:05.227</time></trkpt><trkpt lat="55.7740414" lon="49.1400513"><time>2022-10-29T08:27:06.227</time></trkpt><trkpt lat="55.7740002" lon="49.1399860"><time>2022-10-29T08:27:07.233</time></trkpt><trkpt lat="55.7739574" lon="49.1399194"><time>2022-10-29T08:27:08.223</time></trkpt><trkpt lat="55.7739163" lon="49.1398558"><time>2022-10-29T08:27:09.227</time></trkpt><trkpt lat="55.7738807" lon="49.1397986"><time>2022-10-29T08:27:10.227</time></trkpt><trkpt lat="55.7738210" lon="49.1396817"><time>2022-10-29T08:27:12.223</time></trkpt><trkpt lat="55.7737916" lon="49.1396110"><time>2022-10-29T08:27:13.260</time></trkpt><trkpt lat="55.7737605" lon="49.1395373"><time>2022-10-29T08:27:14.223</time></trkpt><trkpt lat="55.7737269" lon="49.1394705"><time>2022-10-29T08:27:15.220</time></trkpt><trkpt lat="55.7736945" lon="49.1394102"><time>2022-10-29T08:27:16.220</time></trkpt><trkpt lat="55.7736580" lon="49.1393617"><time>2022-10-29T08:27:17.223</time></trkpt><trkpt lat="55.7736177" lon="49.1393134"><time>2022-10-29T08:27:18.230</time></trkpt><trkpt lat="55.7735751" lon="49.1392585"><time>2022-10-29T08:27:19.213</time></trkpt><trkpt lat="55.7735390" lon="49.1391953"><time>2022-10-29T08:27:20.217</time></trkpt><trkpt lat="55.7735025" lon="49.1391317"><time>2022-10-29T08:27:21.223</time></trkpt><trkpt lat="55.7734620" lon="49.1390752"><time>2022-10-29T08:27:22.227</time></trkpt><trkpt lat="55.7734212" lon="49.1390246"><time>2022-10-29T08:27:23.227</time></trkpt><trkpt lat="55.7733809" lon="49.1389751"><time>2022-10-29T08:27:24.227</time></trkpt><trkpt lat="55.7733436" lon="49.1389098"><time>2022-10-29T08:27:25.217</time></trkpt><trkpt lat="55.7733127" lon="49.1388417"><time>2022-10-29T08:27:26.220</time></trkpt><trkpt lat="55.7732872" lon="49.1387704"><time>2022-10-29T08:27:27.223</time></trkpt><trkpt lat="55.7732773" lon="49.1386889"><time>2022-10-29T08:27:28.230</time></trkpt><trkpt lat="55.7732915" lon="49.1386031"><time>2022-10-29T08:27:29.223</time></trkpt><trkpt lat="55.7733237" lon="49.1385221"><time>2022-10-29T08:27:30.207</time></trkpt><trkpt lat="55.7733569" lon="49.1384499"><time>2022-10-29T08:27:31.210</time></trkpt><trkpt lat="55.7733928" lon="49.1383782"><time>2022-10-29T08:27:32.217</time></trkpt><trkpt lat="55.7734348" lon="49.1383082"><time>2022-10-29T08:27:33.230</time></trkpt><trkpt lat="55.7734799" lon="49.1382334"><time>2022-10-29T08:27:34.227</time></trkpt><trkpt lat="55.7735217" lon="49.1381577"><time>2022-10-29T08:27:35.220</time></trkpt><trkpt lat="55.7735565" lon="49.1380783"><time>2022-10-29T08:27:36.217</time></trkpt><trkpt lat="55.7735867" lon="49.1379976"><time>2022-10-29T08:27:37.223</time></trkpt><trkpt lat="55.7736156" lon="49.1379179"><time>2022-10-29T08:27:38.217</time></trkpt><trkpt lat="55.7736430" lon="49.1378492"><time>2022-10-29T08:27:39.230</time></trkpt><trkpt lat="55.7736762" lon="49.1377826"><time>2022-10-29T08:27:41.220</time></trkpt><trkpt lat="55.7736985" lon="49.1376805"><time>2022-10-29T08:27:52.197</time></trkpt><trkpt lat="55.7737334" lon="49.1376045"><time>2022-10-29T08:27:54.217</time></trkpt><trkpt lat="55.7737595" lon="49.1375287"><time>2022-10-29T08:27:56.227</time></trkpt><trkpt lat="55.7737857" lon="49.1374628"><time>2022-10-29T08:27:58.223</time></trkpt><trkpt lat="55.7738205" lon="49.1373661"><time>2022-10-29T08:28:01.210</time></trkpt><trkpt lat="55.7738592" lon="49.1372814"><time>2022-10-29T08:28:03.223</time></trkpt><trkpt lat="55.7739144" lon="49.1371615"><time>2022-10-29T08:28:05.210</time></trkpt><trkpt lat="55.7739426" lon="49.1370972"><time>2022-10-29T08:28:06.213</time></trkpt><trkpt lat="55.7739706" lon="49.1370272"><time>2022-10-29T08:28:07.220</time></trkpt><trkpt lat="55.7740006" lon="49.1369537"><time>2022-10-29T08:28:08.217</time></trkpt><trkpt lat="55.7740345" lon="49.1368755"><time>2022-10-29T08:28:09.220</time></trkpt><trkpt lat="55.7740705" lon="49.1367963"><time>2022-10-29T08:28:10.220</time></trkpt><trkpt lat="55.7741072" lon="49.1367172"><time>2022-10-29T08:28:11.207</time></trkpt><trkpt lat="55.7741398" lon="49.1366415"><time>2022-10-29T08:28:12.227</time></trkpt><trkpt lat="55.7741656" lon="49.1365703"><time>2022-10-29T08:28:13.223</time></trkpt><trkpt lat="55.7742006" lon="49.1364652"><time>2022-10-29T08:28:15.200</time></trkpt><trkpt lat="55.7742066" lon="49.1363811"><time>2022-10-29T08:28:19.197</time></trkpt><trkpt lat="55.7741835" lon="49.1363024"><time>2022-10-29T08:28:37.227</time></trkpt><trkpt lat="55.7741554" lon="49.1362267"><time>2022-10-29T08:28:39.220</time></trkpt><trkpt lat="55.7741232" lon="49.1361290"><time>2022-10-29T08:28:41.203</time></trkpt><trkpt lat="55.7741104" lon="49.1360134"><time>2022-10-29T08:28:43.220</time></trkpt><trkpt lat="55.7741568" lon="49.1359023"><time>2022-10-29T08:28:45.223</time></trkpt><trkpt lat="55.7742042" lon="49.1358150"><time>2022-10-29T08:28:47.223</time></trkpt><trkpt lat="55.7742568" lon="49.1356813"><time>2022-10-29T08:28:49.200</time></trkpt><trkpt lat="55.7743083" lon="49.1355652"><time>2022-10-29T08:28:51.210</time></trkpt><trkpt lat="55.7743311" lon="49.1354839"><time>2022-10-29T08:28:53.213</time></trkpt><trkpt lat="55.7742977" lon="49.1356117"><time>2022-10-29T08:29:37.203</time></trkpt><trkpt lat="55.7742733" lon="49.1356808"><time>2022-10-29T08:29:38.207</time></trkpt><trkpt lat="55.7742420" lon="49.1357660"><time>2022-10-29T08:29:39.210</time></trkpt><trkpt lat="55.7742085" lon="49.1358320"><time>2022-10-29T08:29:40.193</time></trkpt><trkpt lat="55.7741741" lon="49.1358984"><time>2022-10-29T08:29:41.220</time></trkpt><trkpt lat="55.7741420" lon="49.1359718"><time>2022-10-29T08:29:42.207</time></trkpt><trkpt lat="55.7741146" lon="49.1360573"><time>2022-10-29T08:29:43.223</time></trkpt><trkpt lat="55.7740973" lon="49.1361407"><time>2022-10-29T08:29:44.217</time></trkpt><trkpt lat="55.7741024" lon="49.1362208"><time>2022-10-29T08:29:45.223</time></trkpt><trkpt lat="55.7741366" lon="49.1363119"><time>2022-10-29T08:29:46.213</time></trkpt><trkpt lat="55.7741786" lon="49.1363919"><time>2022-10-29T08:29:47.217</time></trkpt><trkpt lat="55.7742084" lon="49.1364717"><time>2022-10-29T08:29:48.223</time></trkpt><trkpt lat="55.7742102" lon="49.1365607"><time>2022-10-29T08:29:49.213</time></trkpt><trkpt lat="55.7741852" lon="49.1366567"><time>2022-10-29T08:29:50.203</time></trkpt><trkpt lat="55.7741489" lon="49.1367440"><time>2022-10-29T08:29:51.227</time></trkpt><trkpt lat="55.7741071" lon="49.1368395"><time>2022-10-29T08:29:52.227</time></trkpt><trkpt lat="55.7740646" lon="49.1369319"><time>2022-10-29T08:29:53.227</time></trkpt><trkpt lat="55.7740230" lon="49.1370203"><time>2022-10-29T08:29:54.213</time></trkpt><trkpt lat="55.7739791" lon="49.1371076"><time>2022-10-29T08:29:55.217</time></trkpt><trkpt lat="55.7739341" lon="49.1371914"><time>2022-10-29T08:29:56.217</time></trkpt><trkpt lat="55.7738904" lon="49.1372742"><time>2022-10-29T08:29:57.223</time></trkpt><trkpt lat="55.7738501" lon="49.1373617"><time>2022-10-29T08:29:58.220</time></trkpt><trkpt lat="55.7738116" lon="49.1374548"><time>2022-10-29T08:29:59.203</time></trkpt><trkpt lat="55.7737734" lon="49.1375526"><time>2022-10-29T08:30:00.223</time></trkpt><trkpt lat="55.7737386" lon="49.1376510"><time>2022-10-29T08:30:01.223</time></trkpt><trkpt lat="55.7737049" lon="49.1377477"><time>2022-10-29T08:30:02.220</time></trkpt><trkpt lat="55.7736731" lon="49.1378392"><time>2022-10-29T08:30:03.217</time></trkpt><trkpt lat="55.7736373" lon="49.1379305"><time>2022-10-29T08:30:04.223</time></trkpt><trkpt lat="55.7736005" lon="49.1380167"><time>2022-10-29T08:30:05.230</time></trkpt><trkpt lat="55.7735630" lon="49.1380978"><time>2022-10-29T08:30:06.217</time></trkpt><trkpt lat="55.7735258" lon="49.1381801"><time>2022-10-29T08:30:07.267</time></trkpt><trkpt lat="55.7734896" lon="49.1382589"><time>2022-10-29T08:30:08.247</time></trkpt><trkpt lat="55.7734553" lon="49.1383463"><time>2022-10-29T08:30:09.240</time></trkpt><trkpt lat="55.7734211" lon="49.1384352"><time>2022-10-29T08:30:10.247</time></trkpt><trkpt lat="55.7733871" lon="49.1385179"><time>2022-10-29T08:30:11.233</time></trkpt><trkpt lat="55.7733533" lon="49.1385999"><time>2022-10-29T08:30:12.233</time></trkpt><trkpt lat="55.7733186" lon="49.1386790"><time>2022-10-29T08:30:13.233</time></trkpt><trkpt lat="55.7732825" lon="49.1387553"><time>2022-10-29T08:30:14.230</time></trkpt><trkpt lat="55.7732530" lon="49.1388159"><time>2022-10-29T08:30:15.237</time></trkpt><trkpt lat="55.7732209" lon="49.1388987"><time>2022-10-29T08:30:18.240</time></trkpt><trkpt lat="55.7731909" lon="49.1389714"><time>2022-10-29T08:30:54.247</time></trkpt><trkpt lat="55.7731599" lon="49.1390998"><time>2022-10-29T08:30:56.227</time></trkpt><trkpt lat="55.7731028" lon="49.1392204"><time>2022-10-29T08:30:58.227</time></trkpt><trkpt lat="55.7730651" lon="49.1392741"><time>2022-10-29T08:30:59.237</time></trkpt><trkpt lat="55.7730356" lon="49.1393342"><time>2022-10-29T08:31:00.230</time></trkpt><trkpt lat="55.7730124" lon="49.1394826"><time>2022-10-29T08:31:02.230</time></trkpt><trkpt lat="55.7730105" lon="49.1396441"><time>2022-10-29T08:31:04.220</time></trkpt><trkpt lat="55.7729806" lon="49.1397735"><time>2022-10-29T08:31:06.230</time></trkpt><trkpt lat="55.7729469" lon="49.1398380"><time>2022-10-29T08:31:07.230</time></trkpt><trkpt lat="55.7729093" lon="49.1399045"><time>2022-10-29T08:31:08.277</time></trkpt><trkpt lat="55.7728742" lon="49.1399739"><time>2022-10-29T08:31:09.237</time></trkpt><trkpt lat="55.7728425" lon="49.1400494"><time>2022-10-29T08:31:10.227</time></trkpt><trkpt lat="55.7728098" lon="49.1401274"><time>2022-10-29T08:31:11.240</time></trkpt><trkpt lat="55.7727761" lon="49.1402057"><time>2022-10-29T08:31:12.237</time></trkpt><trkpt lat="55.7727402" lon="49.1402869"><time>2022-10-29T08:31:13.237</time></trkpt><trkpt lat="55.7727034" lon="49.1403641"><time>2022-10-29T08:31:14.233</time></trkpt><trkpt lat="55.7726669" lon="49.1404370"><time>2022-10-29T08:31:15.237</time></trkpt><trkpt lat="55.7726336" lon="49.1404986"><time>2022-10-29T08:31:16.230</time></trkpt><trkpt lat="55.7725818" lon="49.1405816"><time>2022-10-29T08:31:18.230</time></trkpt><trkpt lat="55.7725315" lon="49.1406696"><time>2022-10-29T08:31:20.233</time></trkpt><trkpt lat="55.7724763" lon="49.1407901"><time>2022-10-29T08:31:22.230</time></trkpt><trkpt lat="55.7724458" lon="49.1408569"><time>2022-10-29T08:31:23.243</time></trkpt><trkpt lat="55.7723878" lon="49.1409359"><time>2022-10-29T08:31:25.237</time></trkpt><trkpt lat="55.7723355" lon="49.1409023"><time>2022-10-29T08:31:30.210</time></trkpt><trkpt lat="55.7722746" lon="49.1408042"><time>2022-10-29T08:31:32.223</time></trkpt><trkpt lat="55.7722351" lon="49.1407377"><time>2022-10-29T08:31:33.233</time></trkpt><trkpt lat="55.7721914" lon="49.1406677"><time>2022-10-29T08:31:34.240</time></trkpt><trkpt lat="55.7721469" lon="49.1405884"><time>2022-10-29T08:31:35.237</time></trkpt><trkpt lat="55.7721063" lon="49.1405121"><time>2022-10-29T08:31:36.263</time></trkpt><trkpt lat="55.7720700" lon="49.1404358"><time>2022-10-29T08:31:37.230</time></trkpt><trkpt lat="55.7720522" lon="49.1403590"><time>2022-10-29T08:31:38.213</time></trkpt><trkpt lat="55.7720977" lon="49.1402138"><time>2022-10-29T08:31:40.200</time></trkpt><trkpt lat="55.7721449" lon="49.1401475"><time>2022-10-29T08:31:41.220</time></trkpt><trkpt lat="55.7721935" lon="49.1400873"><time>2022-10-29T08:31:42.233</time></trkpt><trkpt lat="55.7722456" lon="49.1399959"><time>2022-10-29T08:31:44.203</time></trkpt><trkpt lat="55.7722075" lon="49.1399328"><time>2022-10-29T08:31:47.230</time></trkpt><trkpt lat="55.7721670" lon="49.1398860"><time>2022-10-29T08:31:49.230</time></trkpt><trkpt lat="55.7721670" lon="49.1398860"><time>2022-10-29T08:31:49.257</time></trkpt><trkpt lat="55.7721152" lon="49.1398102"><time>2022-10-29T08:31:51.253</time></trkpt><trkpt lat="55.7720969" lon="49.1397679"><time>2022-10-29T08:31:52.210</time></trkpt><trkpt lat="55.7721485" lon="49.1397252"><time>2022-10-29T08:31:54.217</time></trkpt><trkpt lat="55.7721970" lon="49.1397061"><time>2022-10-29T08:31:55.217</time></trkpt><trkpt lat="55.7722861" lon="49.1396791"><time>2022-10-29T08:31:57.237</time></trkpt><trkpt lat="55.7723333" lon="49.1396726"><time>2022-10-29T08:31:58.227</time></trkpt><trkpt lat="55.7724008" lon="49.1396985"><time>2022-10-29T08:32:00.230</time></trkpt><trkpt lat="55.7724636" lon="49.1396933"><time>2022-10-29T08:32:02.227</time></trkpt><trkpt lat="55.7724999" lon="49.1396444"><time>2022-10-29T08:32:03.223</time></trkpt><trkpt lat="55.7725348" lon="49.1395850"><time>2022-10-29T08:32:04.227</time></trkpt><trkpt lat="55.7725813" lon="49.1395503"><time>2022-10-29T08:32:05.233</time></trkpt><trkpt lat="55.7726218" lon="49.1394978"><time>2022-10-29T08:32:06.230</time></trkpt><trkpt lat="55.7726444" lon="49.1393932"><time>2022-10-29T08:32:07.187</time></trkpt><trkpt lat="55.7726640" lon="49.1392787"><time>2022-10-29T08:32:08.190</time></trkpt><trkpt lat="55.7726907" lon="49.1391839"><time>2022-10-29T08:32:09.210</time></trkpt><trkpt lat="55.7727217" lon="49.1390867"><time>2022-10-29T08:32:10.220</time></trkpt><trkpt lat="55.7727380" lon="49.1390009"><time>2022-10-29T08:32:11.213</time></trkpt><trkpt lat="55.7727025" lon="49.1388752"><time>2022-10-29T08:32:13.213</time></trkpt><trkpt lat="55.7726490" lon="49.1387617"><time>2022-10-29T08:32:15.220</time></trkpt><trkpt lat="55.7726347" lon="49.1386856"><time>2022-10-29T08:32:16.227</time></trkpt><trkpt lat="55.7726206" lon="49.1385241"><time>2022-10-29T08:32:18.223</time></trkpt><trkpt lat="55.7725989" lon="49.1384428"><time>2022-10-29T08:32:19.233</time></trkpt><trkpt lat="55.7725694" lon="49.1383688"><time>2022-10-29T08:32:20.217</time></trkpt><trkpt lat="55.7725337" lon="49.1383024"><time>2022-10-29T08:32:21.217</time></trkpt><trkpt lat="55.7724955" lon="49.1382332"><time>2022-10-29T08:32:22.220</time></trkpt><trkpt lat="55.7724600" lon="49.1381609"><time>2022-10-29T08:32:23.217</time></trkpt><trkpt lat="55.7724303" lon="49.1380701"><time>2022-10-29T08:32:24.213</time></trkpt><trkpt lat="55.7724087" lon="49.1379726"><time>2022-10-29T08:32:25.213</time></trkpt><trkpt lat="55.7723825" lon="49.1378714"><time>2022-10-29T08:32:26.213</time></trkpt><trkpt lat="55.7723491" lon="49.1377802"><time>2022-10-29T08:32:27.220</time></trkpt><trkpt lat="55.7723070" lon="49.1376883"><time>2022-10-29T08:32:28.217</time></trkpt><trkpt lat="55.7722629" lon="49.1376079"><time>2022-10-29T08:32:29.240</time></trkpt><trkpt lat="55.7722169" lon="49.1375403"><time>2022-10-29T08:32:30.217</time></trkpt><trkpt lat="55.7721676" lon="49.1374730"><time>2022-10-29T08:32:31.220</time></trkpt><trkpt lat="55.7721177" lon="49.1374105"><time>2022-10-29T08:32:32.223</time></trkpt><trkpt lat="55.7720673" lon="49.1373452"><time>2022-10-29T08:32:33.223</time></trkpt><trkpt lat="55.7720141" lon="49.1372683"><time>2022-10-29T08:32:34.217</time></trkpt><trkpt lat="55.7719599" lon="49.1371945"><time>2022-10-29T08:32:35.213</time></trkpt><trkpt lat="55.7719106" lon="49.1371161"><time>2022-10-29T08:32:36.217</time></trkpt><trkpt lat="55.7718615" lon="49.1370393"><time>2022-10-29T08:32:37.220</time></trkpt><trkpt lat="55.7718110" lon="49.1369603"><time>2022-10-29T08:32:38.220</time></trkpt><trkpt lat="55.7717590" lon="49.1368833"><time>2022-10-29T08:32:39.220</time></trkpt><trkpt lat="55.7717061" lon="49.1368084"><time>2022-10-29T08:32:40.223</time></trkpt><trkpt lat="55.7716546" lon="49.1367351"><time>2022-10-29T08:32:41.243</time></trkpt><trkpt lat="55.7716068" lon="49.1366592"><time>2022-10-29T08:32:42.227</time></trkpt><trkpt lat="55.7715569" lon="49.1365800"><time>2022-10-29T08:32:43.223</time></trkpt><trkpt lat="55.7715043" lon="49.1365009"><time>2022-10-29T08:32:44.220</time></trkpt><trkpt lat="55.7714524" lon="49.1364222"><time>2022-10-29T08:32:45.227</time></trkpt><trkpt lat="55.7714008" lon="49.1363391"><time>2022-10-29T08:32:46.227</time></trkpt><trkpt lat="55.7713499" lon="49.1362511"><time>2022-10-29T08:32:47.227</time></trkpt><trkpt lat="55.7713017" lon="49.1361610"><time>2022-10-29T08:32:48.227</time></trkpt><trkpt lat="55.7712573" lon="49.1360723"><time>2022-10-29T08:32:49.227</time></trkpt><trkpt lat="55.7712161" lon="49.1359808"><time>2022-10-29T08:32:50.227</time></trkpt><trkpt lat="55.7711786" lon="49.1358873"><time>2022-10-29T08:32:51.223</time></trkpt><trkpt lat="55.7711404" lon="49.1357913"><time>2022-10-29T08:32:52.227</time></trkpt><trkpt lat="55.7711026" lon="49.1356955"><time>2022-10-29T08:32:53.227</time></trkpt><trkpt lat="55.7710644" lon="49.1355976"><time>2022-10-29T08:32:54.230</time></trkpt><trkpt lat="55.7710267" lon="49.1355023"><time>2022-10-29T08:32:55.227</time></trkpt><trkpt lat="55.7709898" lon="49.1354068"><time>2022-10-29T08:32:56.227</time></trkpt><trkpt lat="55.7709517" lon="49.1353139"><time>2022-10-29T08:32:57.227</time></trkpt><trkpt lat="55.7709109" lon="49.1352258"><time>2022-10-29T08:32:58.230</time></trkpt><trkpt lat="55.7708715" lon="49.1351341"><time>2022-10-29T08:32:59.227</time></trkpt><trkpt lat="55.7708355" lon="49.1350391"><time>2022-10-29T08:33:00.223</time></trkpt><trkpt lat="55.7708018" lon="49.1349406"><time>2022-10-29T08:33:01.230</time></trkpt><trkpt lat="55.7707680" lon="49.1348417"><time>2022-10-29T08:33:02.227</time></trkpt><trkpt lat="55.7707341" lon="49.1347395"><time>2022-10-29T08:33:03.223</time></trkpt><trkpt lat="55.7707016" lon="49.1346351"><time>2022-10-29T08:33:04.223</time></trkpt><trkpt lat="55.7706797" lon="49.1345291"><time>2022-10-29T08:33:05.223</time></trkpt><trkpt lat="55.7706893" lon="49.1344308"><time>2022-10-29T08:33:06.223</time></trkpt><trkpt lat="55.7707296" lon="49.1343467"><time>2022-10-29T08:33:07.200</time></trkpt><trkpt lat="55.7707886" lon="49.1342942"><time>2022-10-29T08:33:08.227</time></trkpt><trkpt lat="55.7708515" lon="49.1342400"><time>2022-10-29T08:33:09.223</time></trkpt><trkpt lat="55.7709151" lon="49.1341793"><time>2022-10-29T08:33:10.227</time></trkpt><trkpt lat="55.7709786" lon="49.1341243"><time>2022-10-29T08:33:11.223</time></trkpt><trkpt lat="55.7710392" lon="49.1340635"><time>2022-10-29T08:33:12.227</time></trkpt><trkpt lat="55.7711008" lon="49.1340001"><time>2022-10-29T08:33:13.230</time></trkpt><trkpt lat="55.7711603" lon="49.1339384"><time>2022-10-29T08:33:14.227</time></trkpt><trkpt lat="55.7712220" lon="49.1338767"><time>2022-10-29T08:33:15.220</time></trkpt><trkpt lat="55.7712899" lon="49.1338134"><time>2022-10-29T08:33:16.247</time></trkpt><trkpt lat="55.7713568" lon="49.1337443"><time>2022-10-29T08:33:17.217</time></trkpt><trkpt lat="55.7714222" lon="49.1336688"><time>2022-10-29T08:33:18.213</time></trkpt><trkpt lat="55.7714909" lon="49.1335936"><time>2022-10-29T08:33:19.217</time></trkpt><trkpt lat="55.7715635" lon="49.1335195"><time>2022-10-29T08:33:20.220</time></trkpt><trkpt lat="55.7716326" lon="49.1334458"><time>2022-10-29T08:33:21.203</time></trkpt><trkpt lat="55.7716966" lon="49.1333706"><time>2022-10-29T08:33:22.227</time></trkpt><trkpt lat="55.7717612" lon="49.1332958"><time>2022-10-29T08:33:23.223</time></trkpt><trkpt lat="55.7718255" lon="49.1332220"><time>2022-10-29T08:33:24.213</time></trkpt><trkpt lat="55.7718872" lon="49.1331423"><time>2022-10-29T08:33:25.217</time></trkpt><trkpt lat="55.7719435" lon="49.1330624"><time>2022-10-29T08:33:26.217</time></trkpt><trkpt lat="55.7719932" lon="49.1329786"><time>2022-10-29T08:33:27.220</time></trkpt><trkpt lat="55.7720435" lon="49.1329008"><time>2022-10-29T08:33:28.213</time></trkpt><trkpt lat="55.7720981" lon="49.1328285"><time>2022-10-29T08:33:29.213</time></trkpt><trkpt lat="55.7721562" lon="49.1327550"><time>2022-10-29T08:33:30.217</time></trkpt><trkpt lat="55.7722186" lon="49.1326871"><time>2022-10-29T08:33:31.223</time></trkpt><trkpt lat="55.7722814" lon="49.1326214"><time>2022-10-29T08:33:32.223</time></trkpt><trkpt lat="55.7723430" lon="49.1325597"><time>2022-10-29T08:33:33.220</time></trkpt><trkpt lat="55.7724037" lon="49.1324996"><time>2022-10-29T08:33:34.223</time></trkpt><trkpt lat="55.7724639" lon="49.1324420"><time>2022-10-29T08:33:35.227</time></trkpt><trkpt lat="55.7725201" lon="49.1323855"><time>2022-10-29T08:33:36.223</time></trkpt><trkpt lat="55.7725745" lon="49.1323322"><time>2022-10-29T08:33:37.233</time></trkpt><trkpt lat="55.7726166" lon="49.1322690"><time>2022-10-29T08:33:38.223</time></trkpt><trkpt lat="55.7726306" lon="49.1321903"><time>2022-10-29T08:33:39.247</time></trkpt><trkpt lat="55.7726145" lon="49.1321089"><time>2022-10-29T08:33:40.227</time></trkpt><trkpt lat="55.7725817" lon="49.1320105"><time>2022-10-29T08:33:41.223</time></trkpt><trkpt lat="55.7725400" lon="49.1319058"><time>2022-10-29T08:33:42.227</time></trkpt><trkpt lat="55.7724985" lon="49.1317976"><time>2022-10-29T08:33:43.227</time></trkpt><trkpt lat="55.7724613" lon="49.1316929"><time>2022-10-29T08:33:44.223</time></trkpt><trkpt lat="55.7724307" lon="49.1315894"><time>2022-10-29T08:33:45.230</time></trkpt><trkpt lat="55.7724068" lon="49.1314806"><time>2022-10-29T08:33:46.217</time></trkpt><trkpt lat="55.7723865" lon="49.1313709"><time>2022-10-29T08:33:47.227</time></trkpt><trkpt lat="55.7723687" lon="49.1312611"><time>2022-10-29T08:33:48.227</time></trkpt><trkpt lat="55.7723494" lon="49.1311474"><time>2022-10-29T08:33:49.223</time></trkpt><trkpt lat="55.7723319" lon="49.1310271"><time>2022-10-29T08:33:50.223</time></trkpt><trkpt lat="55.7723121" lon="49.1309049"><time>2022-10-29T08:33:51.247</time></trkpt><trkpt lat="55.7722928" lon="49.1307830"><time>2022-10-29T08:33:52.227</time></trkpt><trkpt lat="55.7722765" lon="49.1306649"><time>2022-10-29T08:33:53.223</time></trkpt><trkpt lat="55.7722630" lon="49.1305491"><time>2022-10-29T08:33:54.223</time></trkpt><trkpt lat="55.7722564" lon="49.1304346"><time>2022-10-29T08:33:55.227</time></trkpt><trkpt lat="55.7722553" lon="49.1303279"><time>2022-10-29T08:33:56.223</time></trkpt><trkpt lat="55.7722502" lon="49.1302409"><time>2022-10-29T08:33:57.230</time></trkpt><trkpt lat="55.7722004" lon="49.1301213"><time>2022-10-29T08:33:59.233</time></trkpt><trkpt lat="55.7721599" lon="49.1300005"><time>2022-10-29T08:34:01.223</time></trkpt><trkpt lat="55.7721290" lon="49.1298563"><time>2022-10-29T08:34:03.220</time></trkpt><trkpt lat="55.7721122" lon="49.1297701"><time>2022-10-29T08:34:04.213</time></trkpt><trkpt lat="55.7720973" lon="49.1296755"><time>2022-10-29T08:34:05.213</time></trkpt><trkpt lat="55.7720809" lon="49.1295825"><time>2022-10-29T08:34:06.220</time></trkpt><trkpt lat="55.7720569" lon="49.1295016"><time>2022-10-29T08:34:07.217</time></trkpt><trkpt lat="55.7720271" lon="49.1294326"><time>2022-10-29T08:34:08.220</time></trkpt><trkpt lat="55.7719840" lon="49.1293941"><time>2022-10-29T08:34:09.223</time></trkpt><trkpt lat="55.7719262" lon="49.1293623"><time>2022-10-29T08:34:11.220</time></trkpt><trkpt lat="55.7719659" lon="49.1292811"><time>2022-10-29T08:34:39.223</time></trkpt><trkpt lat="55.7720468" lon="49.1292941"><time>2022-10-29T08:34:41.223</time></trkpt><trkpt lat="55.7720967" lon="49.1292707"><time>2022-10-29T08:34:42.227</time></trkpt><trkpt lat="55.7721452" lon="49.1292276"><time>2022-10-29T08:34:43.220</time></trkpt><trkpt lat="55.7721975" lon="49.1291802"><time>2022-10-29T08:34:44.220</time></trkpt><trkpt lat="55.7722538" lon="49.1291296"><time>2022-10-29T08:34:45.223</time></trkpt><trkpt lat="55.7723114" lon="49.1290747"><time>2022-10-29T08:34:46.230</time></trkpt><trkpt lat="55.7723723" lon="49.1290234"><time>2022-10-29T08:34:47.227</time></trkpt><trkpt lat="55.7724352" lon="49.1289788"><time>2022-10-29T08:34:48.227</time></trkpt><trkpt lat="55.7724966" lon="49.1289244"><time>2022-10-29T08:34:49.257</time></trkpt><trkpt lat="55.7725574" lon="49.1288657"><time>2022-10-29T08:34:50.233</time></trkpt><trkpt lat="55.7726179" lon="49.1288032"><time>2022-10-29T08:34:51.227</time></trkpt><trkpt lat="55.7726784" lon="49.1287404"><time>2022-10-29T08:34:52.223</time></trkpt><trkpt lat="55.7727380" lon="49.1286773"><time>2022-10-29T08:34:53.223</time></trkpt><trkpt lat="55.7727965" lon="49.1286142"><time>2022-10-29T08:34:54.227</time></trkpt><trkpt lat="55.7728553" lon="49.1285480"><time>2022-10-29T08:34:55.227</time></trkpt><trkpt lat="55.7729130" lon="49.1284798"><time>2022-10-29T08:34:56.220</time></trkpt><trkpt lat="55.7729736" lon="49.1284186"><time>2022-10-29T08:34:57.223</time></trkpt><trkpt lat="55.7730329" lon="49.1283743"><time>2022-10-29T08:34:58.230</time></trkpt><trkpt lat="55.7730796" lon="49.1283470"><time>2022-10-29T08:34:59.223</time></trkpt><trkpt lat="55.7731256" lon="49.1283587"><time>2022-10-29T08:35:02.227</time></trkpt><trkpt lat="55.7731712" lon="49.1283070"><time>2022-10-29T08:35:05.227</time></trkpt><trkpt lat="55.7732352" lon="49.1282205"><time>2022-10-29T08:35:07.223</time></trkpt><trkpt lat="55.7732772" lon="49.1281799"><time>2022-10-29T08:35:08.227</time></trkpt><trkpt lat="55.7733253" lon="49.1281459"><time>2022-10-29T08:35:09.223</time></trkpt><trkpt lat="55.7733738" lon="49.1281132"><time>2022-10-29T08:35:10.260</time></trkpt><trkpt lat="55.7734237" lon="49.1280854"><time>2022-10-29T08:35:11.230</time></trkpt><trkpt lat="55.7734750" lon="49.1280642"><time>2022-10-29T08:35:12.227</time></trkpt><trkpt lat="55.7735271" lon="49.1280474"><time>2022-10-29T08:35:13.223</time></trkpt><trkpt lat="55.7735776" lon="49.1280353"><time>2022-10-29T08:35:14.227</time></trkpt><trkpt lat="55.7736306" lon="49.1280204"><time>2022-10-29T08:35:15.223</time></trkpt><trkpt lat="55.7736831" lon="49.1280019"><time>2022-10-29T08:35:16.223</time></trkpt><trkpt lat="55.7737352" lon="49.1279811"><time>2022-10-29T08:35:17.223</time></trkpt><trkpt lat="55.7737849" lon="49.1279597"><time>2022-10-29T08:35:18.223</time></trkpt><trkpt lat="55.7738381" lon="49.1279412"><time>2022-10-29T08:35:19.220</time></trkpt><trkpt lat="55.7738976" lon="49.1279252"><time>2022-10-29T08:35:20.220</time></trkpt><trkpt lat="55.7739572" lon="49.1279121"><time>2022-10-29T08:35:21.227</time></trkpt><trkpt lat="55.7740131" lon="49.1278951"><time>2022-10-29T08:35:22.223</time></trkpt><trkpt lat="55.7740666" lon="49.1278814"><time>2022-10-29T08:35:23.223</time></trkpt><trkpt lat="55.7741131" lon="49.1278687"><time>2022-10-29T08:35:24.230</time></trkpt><trkpt lat="55.7741770" lon="49.1278361"><time>2022-10-29T08:35:26.220</time></trkpt><trkpt lat="55.7742146" lon="49.1277778"><time>2022-10-29T08:35:28.220</time></trkpt><trkpt lat="55.7741819" lon="49.1277129"><time>2022-10-29T08:35:30.220</time></trkpt><trkpt lat="55.7741035" lon="49.1276990"><time>2022-10-29T08:35:32.220</time></trkpt><trkpt lat="55.7740566" lon="49.1276959"><time>2022-10-29T08:35:33.227</time></trkpt><trkpt lat="55.7740077" lon="49.1276926"><time>2022-10-29T08:35:34.227</time></trkpt><trkpt lat="55.7739597" lon="49.1276810"><time>2022-10-29T08:35:35.227</time></trkpt><trkpt lat="55.7739174" lon="49.1276471"><time>2022-10-29T08:35:36.227</time></trkpt><trkpt lat="55.7738874" lon="49.1275860"><time>2022-10-29T08:35:37.213</time></trkpt><trkpt lat="55.7738675" lon="49.1274434"><time>2022-10-29T08:35:39.247</time></trkpt><trkpt lat="55.7738655" lon="49.1273599"><time>2022-10-29T08:35:40.270</time></trkpt><trkpt lat="55.7738642" lon="49.1272835"><time>2022-10-29T08:35:41.230</time></trkpt><trkpt lat="55.7738625" lon="49.1272038"><time>2022-10-29T08:35:42.223</time></trkpt><trkpt lat="55.7738565" lon="49.1270510"><time>2022-10-29T08:35:44.227</time></trkpt><trkpt lat="55.7738583" lon="49.1269225"><time>2022-10-29T08:35:46.223</time></trkpt><trkpt lat="55.7738489" lon="49.1267897"><time>2022-10-29T08:35:48.260</time></trkpt><trkpt lat="55.7738489" lon="49.1267897"><time>2022-10-29T08:35:48.287</time></trkpt><trkpt lat="55.7738362" lon="49.1267038"><time>2022-10-29T08:35:49.263</time></trkpt><trkpt lat="55.7738322" lon="49.1266111"><time>2022-10-29T08:35:50.233</time></trkpt><trkpt lat="55.7738418" lon="49.1265310"><time>2022-10-29T08:35:51.247</time></trkpt><trkpt lat="55.7738311" lon="49.1264532"><time>2022-10-29T08:35:56.223</time></trkpt><trkpt lat="55.7738059" lon="49.1265559"><time>2022-10-29T08:37:01.217</time></trkpt><trkpt lat="55.7738168" lon="49.1266862"><time>2022-10-29T08:37:03.193</time></trkpt><trkpt lat="55.7738256" lon="49.1268132"><time>2022-10-29T08:37:05.217</time></trkpt><trkpt lat="55.7738330" lon="49.1269260"><time>2022-10-29T08:37:07.210</time></trkpt><trkpt lat="55.7738406" lon="49.1270392"><time>2022-10-29T08:37:09.210</time></trkpt><trkpt lat="55.7738549" lon="49.1271905"><time>2022-10-29T08:37:11.220</time></trkpt><trkpt lat="55.7738637" lon="49.1272772"><time>2022-10-29T08:37:12.220</time></trkpt><trkpt lat="55.7738727" lon="49.1273733"><time>2022-10-29T08:37:13.223</time></trkpt><trkpt lat="55.7738836" lon="49.1274756"><time>2022-10-29T08:37:14.230</time></trkpt><trkpt lat="55.7738959" lon="49.1275847"><time>2022-10-29T08:37:15.210</time></trkpt><trkpt lat="55.7739090" lon="49.1276948"><time>2022-10-29T08:37:16.230</time></trkpt><trkpt lat="55.7739210" lon="49.1278031"><time>2022-10-29T08:37:17.217</time></trkpt><trkpt lat="55.7739355" lon="49.1279007"><time>2022-10-29T08:37:18.230</time></trkpt><trkpt lat="55.7739766" lon="49.1279975"><time>2022-10-29T08:37:20.227</time></trkpt><trkpt lat="55.7740221" lon="49.1279471"><time>2022-10-29T08:37:22.230</time></trkpt><trkpt lat="55.7740770" lon="49.1279168"><time>2022-10-29T08:37:24.227</time></trkpt><trkpt lat="55.7741483" lon="49.1278801"><time>2022-10-29T08:37:26.237</time></trkpt><trkpt lat="55.7742341" lon="49.1278639"><time>2022-10-29T08:37:28.227</time></trkpt><trkpt lat="55.7743154" lon="49.1278807"><time>2022-10-29T08:37:30.230</time></trkpt><trkpt lat="55.7743573" lon="49.1279224"><time>2022-10-29T08:37:31.220</time></trkpt><trkpt lat="55.7744014" lon="49.1279872"><time>2022-10-29T08:37:32.230</time></trkpt><trkpt lat="55.7744495" lon="49.1280339"><time>2022-10-29T08:37:33.210</time></trkpt><trkpt lat="55.7745017" lon="49.1280510"><time>2022-10-29T08:37:34.217</time></trkpt><trkpt lat="55.7745607" lon="49.1280494"><time>2022-10-29T08:37:35.207</time></trkpt><trkpt lat="55.7746215" lon="49.1280480"><time>2022-10-29T08:37:36.220</time></trkpt><trkpt lat="55.7746839" lon="49.1280510"><time>2022-10-29T08:37:37.227</time></trkpt><trkpt lat="55.7747451" lon="49.1280546"><time>2022-10-29T08:37:38.230</time></trkpt><trkpt lat="55.7748061" lon="49.1280578"><time>2022-10-29T08:37:39.223</time></trkpt><trkpt lat="55.7748653" lon="49.1280661"><time>2022-10-29T08:37:40.233</time></trkpt><trkpt lat="55.7749222" lon="49.1280762"><time>2022-10-29T08:37:41.230</time></trkpt><trkpt lat="55.7749767" lon="49.1280856"><time>2022-10-29T08:37:42.227</time></trkpt><trkpt lat="55.7750316" lon="49.1280982"><time>2022-10-29T08:37:43.210</time></trkpt><trkpt lat="55.7750867" lon="49.1281097"><time>2022-10-29T08:37:44.210</time></trkpt><trkpt lat="55.7751458" lon="49.1281233"><time>2022-10-29T08:37:45.217</time></trkpt><trkpt lat="55.7752076" lon="49.1281365"><time>2022-10-29T08:37:46.210</time></trkpt><trkpt lat="55.7752712" lon="49.1281510"><time>2022-10-29T08:37:47.227</time></trkpt><trkpt lat="55.7753325" lon="49.1281642"><time>2022-10-29T08:37:48.207</time></trkpt><trkpt lat="55.7753937" lon="49.1281753"><time>2022-10-29T08:37:49.227</time></trkpt><trkpt lat="55.7754565" lon="49.1281862"><time>2022-10-29T08:37:50.227</time></trkpt><trkpt lat="55.7755216" lon="49.1281928"><time>2022-10-29T08:37:51.223</time></trkpt><trkpt lat="55.7755890" lon="49.1282012"><time>2022-10-29T08:37:52.223</time></trkpt><trkpt lat="55.7756573" lon="49.1282105"><time>2022-10-29T08:37:53.210</time></trkpt><trkpt lat="55.7757252" lon="49.1282197"><time>2022-10-29T08:37:54.223</time></trkpt><trkpt lat="55.7757910" lon="49.1282252"><time>2022-10-29T08:37:55.220</time></trkpt><trkpt lat="55.7758604" lon="49.1282308"><time>2022-10-29T08:37:56.223</time></trkpt><trkpt lat="55.7759289" lon="49.1282387"><time>2022-10-29T08:37:57.217</time></trkpt><trkpt lat="55.7759955" lon="49.1282458"><time>2022-10-29T08:37:58.223</time></trkpt><trkpt lat="55.7760641" lon="49.1282546"><time>2022-10-29T08:37:59.210</time></trkpt><trkpt lat="55.7761290" lon="49.1282622"><time>2022-10-29T08:38:00.217</time></trkpt><trkpt lat="55.7761930" lon="49.1282723"><time>2022-10-29T08:38:01.230</time></trkpt><trkpt lat="55.7762587" lon="49.1282804"><time>2022-10-29T08:38:02.223</time></trkpt><trkpt lat="55.7763265" lon="49.1282866"><time>2022-10-29T08:38:03.223</time></trkpt><trkpt lat="55.7763965" lon="49.1282878"><time>2022-10-29T08:38:04.220</time></trkpt><trkpt lat="55.7764670" lon="49.1282969"><time>2022-10-29T08:38:05.223</time></trkpt><trkpt lat="55.7765343" lon="49.1283108"><time>2022-10-29T08:38:06.223</time></trkpt><trkpt lat="55.7765991" lon="49.1283186"><time>2022-10-29T08:38:07.220</time></trkpt><trkpt lat="55.7766648" lon="49.1283230"><time>2022-10-29T08:38:08.217</time></trkpt><trkpt lat="55.7767307" lon="49.1283352"><time>2022-10-29T08:38:09.223</time></trkpt><trkpt lat="55.7767942" lon="49.1283522"><time>2022-10-29T08:38:10.220</time></trkpt><trkpt lat="55.7768586" lon="49.1283748"><time>2022-10-29T08:38:11.217</time></trkpt><trkpt lat="55.7769215" lon="49.1283956"><time>2022-10-29T08:38:12.233</time></trkpt><trkpt lat="55.7769852" lon="49.1284088"><time>2022-10-29T08:38:13.223</time></trkpt><trkpt lat="55.7770499" lon="49.1284201"><time>2022-10-29T08:38:14.227</time></trkpt><trkpt lat="55.7771145" lon="49.1284298"><time>2022-10-29T08:38:15.227</time></trkpt><trkpt lat="55.7771771" lon="49.1284510"><time>2022-10-29T08:38:16.227</time></trkpt><trkpt lat="55.7772388" lon="49.1284840"><time>2022-10-29T08:38:17.230</time></trkpt><trkpt lat="55.7773005" lon="49.1285093"><time>2022-10-29T08:38:18.227</time></trkpt><trkpt lat="55.7773599" lon="49.1285280"><time>2022-10-29T08:38:19.223</time></trkpt><trkpt lat="55.7774208" lon="49.1285448"><time>2022-10-29T08:38:20.217</time></trkpt><trkpt lat="55.7774819" lon="49.1285606"><time>2022-10-29T08:38:21.227</time></trkpt><trkpt lat="55.7775408" lon="49.1285696"><time>2022-10-29T08:38:22.217</time></trkpt><trkpt lat="55.7775965" lon="49.1285679"><time>2022-10-29T08:38:23.230</time></trkpt><trkpt lat="55.7776517" lon="49.1285695"><time>2022-10-29T08:38:24.227</time></trkpt><trkpt lat="55.7777002" lon="49.1285635"><time>2022-10-29T08:38:25.230</time></trkpt><trkpt lat="55.7777443" lon="49.1285375"><time>2022-10-29T08:38:26.230</time></trkpt><trkpt lat="55.7777820" lon="49.1284775"><time>2022-10-29T08:38:27.217</time></trkpt><trkpt lat="55.7778086" lon="49.1283979"><time>2022-10-29T08:38:28.227</time></trkpt><trkpt lat="55.7778355" lon="49.1283261"><time>2022-10-29T08:38:29.220</time></trkpt><trkpt lat="55.7778660" lon="49.1282634"><time>2022-10-29T08:38:30.287</time></trkpt><trkpt lat="55.7778927" lon="49.1281954"><time>2022-10-29T08:38:31.237</time></trkpt><trkpt lat="55.7779234" lon="49.1281269"><time>2022-10-29T08:38:32.227</time></trkpt><trkpt lat="55.7779588" lon="49.1280680"><time>2022-10-29T08:38:33.213</time></trkpt><trkpt lat="55.7779933" lon="49.1280132"><time>2022-10-29T08:38:34.227</time></trkpt><trkpt lat="55.7780734" lon="49.1279602"><time>2022-10-29T08:38:36.233</time></trkpt><trkpt lat="55.7781236" lon="49.1279511"><time>2022-10-29T08:38:37.213</time></trkpt><trkpt lat="55.7781711" lon="49.1279166"><time>2022-10-29T08:38:38.237</time></trkpt><trkpt lat="55.7782141" lon="49.1278473"><time>2022-10-29T08:38:39.237</time></trkpt><trkpt lat="55.7782537" lon="49.1277682"><time>2022-10-29T08:38:40.230</time></trkpt><trkpt lat="55.7782915" lon="49.1276830"><time>2022-10-29T08:38:41.223</time></trkpt><trkpt lat="55.7783267" lon="49.1275944"><time>2022-10-29T08:38:42.233</time></trkpt><trkpt lat="55.7783564" lon="49.1275074"><time>2022-10-29T08:38:43.227</time></trkpt><trkpt lat="55.7783755" lon="49.1274178"><time>2022-10-29T08:38:44.213</time></trkpt><trkpt lat="55.7783854" lon="49.1273255"><time>2022-10-29T08:38:45.230</time></trkpt><trkpt lat="55.7783850" lon="49.1272316"><time>2022-10-29T08:38:46.233</time></trkpt><trkpt lat="55.7783862" lon="49.1271385"><time>2022-10-29T08:38:47.233</time></trkpt><trkpt lat="55.7784026" lon="49.1270548"><time>2022-10-29T08:38:48.227</time></trkpt><trkpt lat="55.7784342" lon="49.1269787"><time>2022-10-29T08:38:49.233</time></trkpt><trkpt lat="55.7784727" lon="49.1269131"><time>2022-10-29T08:38:50.237</time></trkpt><trkpt lat="55.7785146" lon="49.1268691"><time>2022-10-29T08:38:51.227</time></trkpt><trkpt lat="55.7785643" lon="49.1268501"><time>2022-10-29T08:38:58.230</time></trkpt><trkpt lat="55.7786079" lon="49.1268927"><time>2022-10-29T08:39:00.227</time></trkpt><trkpt lat="55.7786737" lon="49.1269523"><time>2022-10-29T08:39:02.227</time></trkpt><trkpt lat="55.7787529" lon="49.1269918"><time>2022-10-29T08:39:04.227</time></trkpt><trkpt lat="55.7787966" lon="49.1270193"><time>2022-10-29T08:39:05.237</time></trkpt><trkpt lat="55.7788481" lon="49.1270402"><time>2022-10-29T08:39:06.237</time></trkpt><trkpt lat="55.7789013" lon="49.1270383"><time>2022-10-29T08:39:07.227</time></trkpt><trkpt lat="55.7789493" lon="49.1269953"><time>2022-10-29T08:39:08.240</time></trkpt><trkpt lat="55.7789928" lon="49.1269410"><time>2022-10-29T08:39:09.233</time></trkpt><trkpt lat="55.7790325" lon="49.1268876"><time>2022-10-29T08:39:10.237</time></trkpt><trkpt lat="55.7790671" lon="49.1268276"><time>2022-10-29T08:39:11.233</time></trkpt><trkpt lat="55.7791018" lon="49.1267677"><time>2022-10-29T08:39:12.230</time></trkpt><trkpt lat="55.7791439" lon="49.1267113"><time>2022-10-29T08:39:13.243</time></trkpt><trkpt lat="55.7791891" lon="49.1266531"><time>2022-10-29T08:39:14.237</time></trkpt><trkpt lat="55.7792351" lon="49.1265929"><time>2022-10-29T08:39:15.230</time></trkpt><trkpt lat="55.7792813" lon="49.1265327"><time>2022-10-29T08:39:16.230</time></trkpt><trkpt lat="55.7793300" lon="49.1264740"><time>2022-10-29T08:39:17.227</time></trkpt><trkpt lat="55.7793788" lon="49.1264130"><time>2022-10-29T08:39:18.230</time></trkpt><trkpt lat="55.7794308" lon="49.1263530"><time>2022-10-29T08:39:19.233</time></trkpt><trkpt lat="55.7794845" lon="49.1262950"><time>2022-10-29T08:39:20.230</time></trkpt><trkpt lat="55.7795393" lon="49.1262394"><time>2022-10-29T08:39:21.233</time></trkpt><trkpt lat="55.7795947" lon="49.1261848"><time>2022-10-29T08:39:22.237</time></trkpt><trkpt lat="55.7796532" lon="49.1261322"><time>2022-10-29T08:39:23.227</time></trkpt><trkpt lat="55.7797128" lon="49.1260798"><time>2022-10-29T08:39:24.230</time></trkpt><trkpt lat="55.7797717" lon="49.1260246"><time>2022-10-29T08:39:25.223</time></trkpt><trkpt lat="55.7798291" lon="49.1259681"><time>2022-10-29T08:39:26.233</time></trkpt><trkpt lat="55.7798862" lon="49.1259112"><time>2022-10-29T08:39:27.227</time></trkpt><trkpt lat="55.7799422" lon="49.1258527"><time>2022-10-29T08:39:28.237</time></trkpt><trkpt lat="55.7799998" lon="49.1257965"><time>2022-10-29T08:39:29.233</time></trkpt><trkpt lat="55.7800579" lon="49.1257387"><time>2022-10-29T08:39:30.210</time></trkpt><trkpt lat="55.7801164" lon="49.1256771"><time>2022-10-29T08:39:31.267</time></trkpt><trkpt lat="55.7801758" lon="49.1256155"><time>2022-10-29T08:39:32.247</time></trkpt><trkpt lat="55.7802360" lon="49.1255526"><time>2022-10-29T08:39:33.220</time></trkpt><trkpt lat="55.7802971" lon="49.1254905"><time>2022-10-29T08:39:34.227</time></trkpt><trkpt lat="55.7803576" lon="49.1254259"><time>2022-10-29T08:39:35.230</time></trkpt><trkpt lat="55.7804180" lon="49.1253639"><time>2022-10-29T08:39:36.237</time></trkpt><trkpt lat="55.7804789" lon="49.1253082"><time>2022-10-29T08:39:37.227</time></trkpt><trkpt lat="55.7805368" lon="49.1252532"><time>2022-10-29T08:39:38.227</time></trkpt><trkpt lat="55.7805943" lon="49.1251919"><time>2022-10-29T08:39:39.233</time></trkpt><trkpt lat="55.7806522" lon="49.1251332"><time>2022-10-29T08:39:40.207</time></trkpt><trkpt lat="55.7807123" lon="49.1250919"><time>2022-10-29T08:39:41.227</time></trkpt><trkpt lat="55.7807703" lon="49.1250718"><time>2022-10-29T08:39:42.237</time></trkpt><trkpt lat="55.7808189" lon="49.1250542"><time>2022-10-29T08:39:43.230</time></trkpt><trkpt lat="55.7808780" lon="49.1249908"><time>2022-10-29T08:39:45.230</time></trkpt><trkpt lat="55.7809191" lon="49.1249344"><time>2022-10-29T08:39:48.247</time></trkpt><trkpt lat="55.7809477" lon="49.1248680"><time>2022-10-29T08:39:50.237</time></trkpt><trkpt lat="55.7810111" lon="49.1247852"><time>2022-10-29T08:39:52.243</time></trkpt><trkpt lat="55.7810553" lon="49.1247457"><time>2022-10-29T08:39:53.223</time></trkpt><trkpt lat="55.7811024" lon="49.1247051"><time>2022-10-29T08:39:54.227</time></trkpt><trkpt lat="55.7811497" lon="49.1246559"><time>2022-10-29T08:39:55.227</time></trkpt><trkpt lat="55.7811958" lon="49.1246050"><time>2022-10-29T08:39:56.237</time></trkpt><trkpt lat="55.7812429" lon="49.1245573"><time>2022-10-29T08:39:57.230</time></trkpt><trkpt lat="55.7812943" lon="49.1245081"><time>2022-10-29T08:39:58.227</time></trkpt><trkpt lat="55.7813472" lon="49.1244599"><time>2022-10-29T08:39:59.223</time></trkpt><trkpt lat="55.7813999" lon="49.1244107"><time>2022-10-29T08:40:00.227</time></trkpt><trkpt lat="55.7814497" lon="49.1243577"><time>2022-10-29T08:40:01.227</time></trkpt><trkpt lat="55.7814975" lon="49.1243064"><time>2022-10-29T08:40:02.233</time></trkpt><trkpt lat="55.7815416" lon="49.1242536"><time>2022-10-29T08:40:03.223</time></trkpt><trkpt lat="55.7815881" lon="49.1242091"><time>2022-10-29T08:40:04.210</time></trkpt><trkpt lat="55.7816325" lon="49.1241730"><time>2022-10-29T08:40:05.227</time></trkpt><trkpt lat="55.7817135" lon="49.1241733"><time>2022-10-29T08:40:07.227</time></trkpt><trkpt lat="55.7817634" lon="49.1242790"><time>2022-10-29T08:40:09.237</time></trkpt><trkpt lat="55.7817890" lon="49.1243503"><time>2022-10-29T08:40:10.220</time></trkpt><trkpt lat="55.7818171" lon="49.1244208"><time>2022-10-29T08:40:11.227</time></trkpt><trkpt lat="55.7818429" lon="49.1244871"><time>2022-10-29T08:40:12.233</time></trkpt><trkpt lat="55.7818680" lon="49.1245551"><time>2022-10-29T08:40:13.230</time></trkpt><trkpt lat="55.7818972" lon="49.1246242"><time>2022-10-29T08:40:14.233</time></trkpt><trkpt lat="55.7819274" lon="49.1246981"><time>2022-10-29T08:40:15.233</time></trkpt><trkpt lat="55.7819573" lon="49.1247691"><time>2022-10-29T08:40:16.230</time></trkpt><trkpt lat="55.7819935" lon="49.1248405"><time>2022-10-29T08:40:17.217</time></trkpt><trkpt lat="55.7820235" lon="49.1249116"><time>2022-10-29T08:40:18.230</time></trkpt><trkpt lat="55.7820516" lon="49.1249878"><time>2022-10-29T08:40:19.233</time></trkpt><trkpt lat="55.7820768" lon="49.1250703"><time>2022-10-29T08:40:20.207</time></trkpt><trkpt lat="55.7821025" lon="49.1251609"><time>2022-10-29T08:40:21.227</time></trkpt><trkpt lat="55.7821373" lon="49.1252483"><time>2022-10-29T08:40:22.223</time></trkpt><trkpt lat="55.7821803" lon="49.1253258"><time>2022-10-29T08:40:23.230</time></trkpt><trkpt lat="55.7822255" lon="49.1254064"><time>2022-10-29T08:40:24.217</time></trkpt><trkpt lat="55.7822726" lon="49.1254865"><time>2022-10-29T08:40:25.220</time></trkpt><trkpt lat="55.7823170" lon="49.1255625"><time>2022-10-29T08:40:26.227</time></trkpt><trkpt lat="55.7823605" lon="49.1256433"><time>2022-10-29T08:40:27.227</time></trkpt><trkpt lat="55.7824027" lon="49.1257229"><time>2022-10-29T08:40:28.230</time></trkpt><trkpt lat="55.7824463" lon="49.1258026"><time>2022-10-29T08:40:29.233</time></trkpt><trkpt lat="55.7824851" lon="49.1258806"><time>2022-10-29T08:40:30.233</time></trkpt><trkpt lat="55.7825264" lon="49.1259637"><time>2022-10-29T08:40:31.233</time></trkpt><trkpt lat="55.7825670" lon="49.1260475"><time>2022-10-29T08:40:32.233</time></trkpt><trkpt lat="55.7826090" lon="49.1261341"><time>2022-10-29T08:40:33.207</time></trkpt><trkpt lat="55.7826542" lon="49.1262218"><time>2022-10-29T08:40:34.243</time></trkpt><trkpt lat="55.7826988" lon="49.1263080"><time>2022-10-29T08:40:35.237</time></trkpt><trkpt lat="55.7827421" lon="49.1263934"><time>2022-10-29T08:40:36.237</time></trkpt><trkpt lat="55.7827834" lon="49.1264801"><time>2022-10-29T08:40:37.213</time></trkpt><trkpt lat="55.7828222" lon="49.1265639"><time>2022-10-29T08:40:38.207</time></trkpt><trkpt lat="55.7828626" lon="49.1266506"><time>2022-10-29T08:40:39.230</time></trkpt><trkpt lat="55.7829017" lon="49.1267353"><time>2022-10-29T08:40:40.230</time></trkpt><trkpt lat="55.7829337" lon="49.1268191"><time>2022-10-29T08:40:41.233</time></trkpt><trkpt lat="55.7829670" lon="49.1268900"><time>2022-10-29T08:40:42.240</time></trkpt><trkpt lat="55.7830048" lon="49.1269545"><time>2022-10-29T08:40:43.230</time></trkpt><trkpt lat="55.7830434" lon="49.1270182"><time>2022-10-29T08:40:44.233</time></trkpt><trkpt lat="55.7830749" lon="49.1270850"><time>2022-10-29T08:40:45.230</time></trkpt><trkpt lat="55.7831017" lon="49.1271533"><time>2022-10-29T08:40:46.230</time></trkpt><trkpt lat="55.7831286" lon="49.1272182"><time>2022-10-29T08:40:47.230</time></trkpt><trkpt lat="55.7831593" lon="49.1272807"><time>2022-10-29T08:40:48.230</time></trkpt><trkpt lat="55.7831912" lon="49.1273404"><time>2022-10-29T08:40:49.230</time></trkpt><trkpt lat="55.7832266" lon="49.1274020"><time>2022-10-29T08:40:50.223</time></trkpt><trkpt lat="55.7832654" lon="49.1274628"><time>2022-10-29T08:40:51.223</time></trkpt><trkpt lat="55.7833061" lon="49.1275267"><time>2022-10-29T08:40:52.240</time></trkpt><trkpt lat="55.7833447" lon="49.1276007"><time>2022-10-29T08:40:53.233</time></trkpt><trkpt lat="55.7833791" lon="49.1276827"><time>2022-10-29T08:40:54.230</time></trkpt><trkpt lat="55.7834111" lon="49.1277666"><time>2022-10-29T08:40:55.227</time></trkpt><trkpt lat="55.7834423" lon="49.1278485"><time>2022-10-29T08:40:56.227</time></trkpt><trkpt lat="55.7834762" lon="49.1279287"><time>2022-10-29T08:40:57.240</time></trkpt><trkpt lat="55.7835106" lon="49.1280046"><time>2022-10-29T08:40:58.227</time></trkpt><trkpt lat="55.7835444" lon="49.1280825"><time>2022-10-29T08:40:59.233</time></trkpt><trkpt lat="55.7835748" lon="49.1281625"><time>2022-10-29T08:41:00.263</time></trkpt><trkpt lat="55.7835976" lon="49.1282471"><time>2022-10-29T08:41:01.223</time></trkpt><trkpt lat="55.7836067" lon="49.1283413"><time>2022-10-29T08:41:02.237</time></trkpt><trkpt lat="55.7836066" lon="49.1284402"><time>2022-10-29T08:41:03.233</time></trkpt><trkpt lat="55.7836050" lon="49.1285307"><time>2022-10-29T08:41:04.237</time></trkpt><trkpt lat="55.7835786" lon="49.1286092"><time>2022-10-29T08:41:05.227</time></trkpt><trkpt lat="55.7835369" lon="49.1286755"><time>2022-10-29T08:41:06.233</time></trkpt><trkpt lat="55.7834970" lon="49.1287311"><time>2022-10-29T08:41:07.233</time></trkpt><trkpt lat="55.7834613" lon="49.1287864"><time>2022-10-29T08:41:08.243</time></trkpt><trkpt lat="55.7834261" lon="49.1288467"><time>2022-10-29T08:41:09.240</time></trkpt><trkpt lat="55.7833951" lon="49.1289104"><time>2022-10-29T08:41:10.233</time></trkpt><trkpt lat="55.7833661" lon="49.1289790"><time>2022-10-29T08:41:11.227</time></trkpt><trkpt lat="55.7833365" lon="49.1290504"><time>2022-10-29T08:41:12.230</time></trkpt><trkpt lat="55.7833070" lon="49.1291208"><time>2022-10-29T08:41:13.220</time></trkpt><trkpt lat="55.7832758" lon="49.1291937"><time>2022-10-29T08:41:14.230</time></trkpt><trkpt lat="55.7832400" lon="49.1292742"><time>2022-10-29T08:41:15.227</time></trkpt><trkpt lat="55.7832033" lon="49.1293544"><time>2022-10-29T08:41:16.227</time></trkpt><trkpt lat="55.7831671" lon="49.1294334"><time>2022-10-29T08:41:17.230</time></trkpt><trkpt lat="55.7831286" lon="49.1295117"><time>2022-10-29T08:41:18.273</time></trkpt><trkpt lat="55.7830892" lon="49.1295878"><time>2022-10-29T08:41:19.233</time></trkpt><trkpt lat="55.7830518" lon="49.1296630"><time>2022-10-29T08:41:20.243</time></trkpt><trkpt lat="55.7830199" lon="49.1297373"><time>2022-10-29T08:41:21.237</time></trkpt><trkpt lat="55.7829886" lon="49.1298102"><time>2022-10-29T08:41:22.243</time></trkpt><trkpt lat="55.7829548" lon="49.1298875"><time>2022-10-29T08:41:23.243</time></trkpt><trkpt lat="55.7829150" lon="49.1299550"><time>2022-10-29T08:41:24.237</time></trkpt><trkpt lat="55.7828694" lon="49.1300160"><time>2022-10-29T08:41:25.237</time></trkpt><trkpt lat="55.7828263" lon="49.1300861"><time>2022-10-29T08:41:26.230</time></trkpt><trkpt lat="55.7827838" lon="49.1301632"><time>2022-10-29T08:41:27.230</time></trkpt><trkpt lat="55.7827397" lon="49.1302390"><time>2022-10-29T08:41:28.263</time></trkpt><trkpt lat="55.7826988" lon="49.1303175"><time>2022-10-29T08:41:29.233</time></trkpt><trkpt lat="55.7826614" lon="49.1303966"><time>2022-10-29T08:41:30.237</time></trkpt><trkpt lat="55.7826277" lon="49.1304768"><time>2022-10-29T08:41:31.237</time></trkpt><trkpt lat="55.7825987" lon="49.1305655"><time>2022-10-29T08:41:32.230</time></trkpt><trkpt lat="55.7825735" lon="49.1306561"><time>2022-10-29T08:41:33.233</time></trkpt><trkpt lat="55.7825536" lon="49.1307302"><time>2022-10-29T08:41:34.220</time></trkpt><trkpt lat="55.7825371" lon="49.1308677"><time>2022-10-29T08:41:36.233</time></trkpt><trkpt lat="55.7825471" lon="49.1309860"><time>2022-10-29T08:41:38.237</time></trkpt><trkpt lat="55.7826058" lon="49.1310156"><time>2022-10-29T08:41:40.233</time></trkpt><trkpt lat="55.7826912" lon="49.1310121"><time>2022-10-29T08:41:42.253</time></trkpt><trkpt lat="55.7826912" lon="49.1310121"><time>2022-10-29T08:41:42.277</time></trkpt><trkpt lat="55.7827395" lon="49.1310104"><time>2022-10-29T08:41:43.263</time></trkpt><trkpt lat="55.7827786" lon="49.1310015"><time>2022-10-29T08:41:44.237</time></trkpt><trkpt lat="55.7828364" lon="49.1309035"><time>2022-10-29T08:41:46.233</time></trkpt><trkpt lat="55.7828541" lon="49.1308296"><time>2022-10-29T08:41:47.237</time></trkpt><trkpt lat="55.7828574" lon="49.1307408"><time>2022-10-29T08:41:48.227</time></trkpt><trkpt lat="55.7828540" lon="49.1306365"><time>2022-10-29T08:41:49.227</time></trkpt><trkpt lat="55.7828511" lon="49.1305210"><time>2022-10-29T08:41:50.237</time></trkpt><trkpt lat="55.7828580" lon="49.1304093"><time>2022-10-29T08:41:51.233</time></trkpt><trkpt lat="55.7828790" lon="49.1303066"><time>2022-10-29T08:41:52.253</time></trkpt><trkpt lat="55.7829115" lon="49.1302146"><time>2022-10-29T08:41:53.220</time></trkpt><trkpt lat="55.7829415" lon="49.1301121"><time>2022-10-29T08:41:54.233</time></trkpt><trkpt lat="55.7829646" lon="49.1300029"><time>2022-10-29T08:41:55.247</time></trkpt><trkpt lat="55.7829901" lon="49.1298970"><time>2022-10-29T08:41:56.237</time></trkpt><trkpt lat="55.7830211" lon="49.1297915"><time>2022-10-29T08:41:57.223</time></trkpt><trkpt lat="55.7830580" lon="49.1296929"><time>2022-10-29T08:41:58.213</time></trkpt><trkpt lat="55.7830981" lon="49.1295996"><time>2022-10-29T08:41:59.247</time></trkpt><trkpt lat="55.7831397" lon="49.1295089"><time>2022-10-29T08:42:00.197</time></trkpt><trkpt lat="55.7831870" lon="49.1294170"><time>2022-10-29T08:42:01.227</time></trkpt><trkpt lat="55.7832371" lon="49.1293240"><time>2022-10-29T08:42:02.230</time></trkpt><trkpt lat="55.7832860" lon="49.1292257"><time>2022-10-29T08:42:03.217</time></trkpt><trkpt lat="55.7833319" lon="49.1291300"><time>2022-10-29T08:42:04.227</time></trkpt><trkpt lat="55.7833773" lon="49.1290363"><time>2022-10-29T08:42:05.223</time></trkpt><trkpt lat="55.7834257" lon="49.1289377"><time>2022-10-29T08:42:06.227</time></trkpt><trkpt lat="55.7834771" lon="49.1288410"><time>2022-10-29T08:42:07.220</time></trkpt><trkpt lat="55.7835286" lon="49.1287488"><time>2022-10-29T08:42:08.227</time></trkpt><trkpt lat="55.7835796" lon="49.1286609"><time>2022-10-29T08:42:09.227</time></trkpt><trkpt lat="55.7836283" lon="49.1285833"><time>2022-10-29T08:42:10.250</time></trkpt><trkpt lat="55.7836640" lon="49.1285069"><time>2022-10-29T08:42:11.220</time></trkpt><trkpt lat="55.7836877" lon="49.1284317"><time>2022-10-29T08:42:12.227</time></trkpt><trkpt lat="55.7837002" lon="49.1283462"><time>2022-10-29T08:42:13.227</time></trkpt><trkpt lat="55.7837012" lon="49.1282519"><time>2022-10-29T08:42:14.227</time></trkpt><trkpt lat="55.7836902" lon="49.1281476"><time>2022-10-29T08:42:15.227</time></trkpt><trkpt lat="55.7836667" lon="49.1280321"><time>2022-10-29T08:42:16.227</time></trkpt><trkpt lat="55.7836315" lon="49.1279168"><time>2022-10-29T08:42:17.227</time></trkpt><trkpt lat="55.7835900" lon="49.1278153"><time>2022-10-29T08:42:18.227</time></trkpt><trkpt lat="55.7835420" lon="49.1277235"><time>2022-10-29T08:42:19.227</time></trkpt><trkpt lat="55.7834944" lon="49.1276387"><time>2022-10-29T08:42:20.227</time></trkpt><trkpt lat="55.7834447" lon="49.1275536"><time>2022-10-29T08:42:21.250</time></trkpt><trkpt lat="55.7833990" lon="49.1274687"><time>2022-10-29T08:42:22.230</time></trkpt><trkpt lat="55.7833567" lon="49.1273861"><time>2022-10-29T08:42:23.223</time></trkpt><trkpt lat="55.7833169" lon="49.1272957"><time>2022-10-29T08:42:24.227</time></trkpt><trkpt lat="55.7832790" lon="49.1272057"><time>2022-10-29T08:42:25.223</time></trkpt><trkpt lat="55.7832393" lon="49.1271184"><time>2022-10-29T08:42:26.223</time></trkpt><trkpt lat="55.7832023" lon="49.1270373"><time>2022-10-29T08:42:27.227</time></trkpt><trkpt lat="55.7831686" lon="49.1269718"><time>2022-10-29T08:42:28.227</time></trkpt><trkpt lat="55.7831367" lon="49.1269142"><time>2022-10-29T08:42:29.227</time></trkpt><trkpt lat="55.7830915" lon="49.1268235"><time>2022-10-29T08:42:31.223</time></trkpt><trkpt lat="55.7830789" lon="49.1267468"><time>2022-10-29T08:42:33.227</time></trkpt><trkpt lat="55.7831071" lon="49.1266709"><time>2022-10-29T08:42:36.227</time></trkpt><trkpt lat="55.7831052" lon="49.1265770"><time>2022-10-29T08:42:53.227</time></trkpt><trkpt lat="55.7830693" lon="49.1265239"><time>2022-10-29T08:42:55.237</time></trkpt><trkpt lat="55.7829909" lon="49.1264965"><time>2022-10-29T08:42:57.237</time></trkpt><trkpt lat="55.7829445" lon="49.1264860"><time>2022-10-29T08:42:58.240</time></trkpt><trkpt lat="55.7828968" lon="49.1264499"><time>2022-10-29T08:43:00.237</time></trkpt><trkpt lat="55.7828684" lon="49.1263372"><time>2022-10-29T08:43:03.227</time></trkpt><trkpt lat="55.7828428" lon="49.1262632"><time>2022-10-29T08:43:04.227</time></trkpt><trkpt lat="55.7828249" lon="49.1261761"><time>2022-10-29T08:43:05.227</time></trkpt><trkpt lat="55.7828072" lon="49.1260910"><time>2022-10-29T08:43:06.227</time></trkpt><trkpt lat="55.7827787" lon="49.1260082"><time>2022-10-29T08:43:07.257</time></trkpt><trkpt lat="55.7827477" lon="49.1259243"><time>2022-10-29T08:43:08.227</time></trkpt><trkpt lat="55.7827096" lon="49.1258468"><time>2022-10-29T08:43:09.227</time></trkpt><trkpt lat="55.7826632" lon="49.1257667"><time>2022-10-29T08:43:10.227</time></trkpt><trkpt lat="55.7826171" lon="49.1256852"><time>2022-10-29T08:43:11.227</time></trkpt><trkpt lat="55.7825684" lon="49.1256075"><time>2022-10-29T08:43:12.223</time></trkpt><trkpt lat="55.7825200" lon="49.1255258"><time>2022-10-29T08:43:13.223</time></trkpt><trkpt lat="55.7824688" lon="49.1254403"><time>2022-10-29T08:43:14.223</time></trkpt><trkpt lat="55.7824164" lon="49.1253569"><time>2022-10-29T08:43:15.207</time></trkpt><trkpt lat="55.7823669" lon="49.1252661"><time>2022-10-29T08:43:16.273</time></trkpt><trkpt lat="55.7823218" lon="49.1251659"><time>2022-10-29T08:43:17.273</time></trkpt><trkpt lat="55.7822817" lon="49.1250722"><time>2022-10-29T08:43:18.233</time></trkpt><trkpt lat="55.7822429" lon="49.1249791"><time>2022-10-29T08:43:19.230</time></trkpt><trkpt lat="55.7822025" lon="49.1248854"><time>2022-10-29T08:43:20.227</time></trkpt><trkpt lat="55.7821623" lon="49.1247972"><time>2022-10-29T08:43:21.230</time></trkpt><trkpt lat="55.7821249" lon="49.1247105"><time>2022-10-29T08:43:22.227</time></trkpt><trkpt lat="55.7820886" lon="49.1246326"><time>2022-10-29T08:43:23.223</time></trkpt><trkpt lat="55.7820542" lon="49.1245639"><time>2022-10-29T08:43:24.223</time></trkpt><trkpt lat="55.7820253" lon="49.1244962"><time>2022-10-29T08:43:25.223</time></trkpt><trkpt lat="55.7819643" lon="49.1243741"><time>2022-10-29T08:43:27.223</time></trkpt><trkpt lat="55.7819297" lon="49.1243108"><time>2022-10-29T08:43:28.223</time></trkpt><trkpt lat="55.7818911" lon="49.1242079"><time>2022-10-29T08:43:30.240</time></trkpt><trkpt lat="55.7819261" lon="49.1241006"><time>2022-10-29T08:43:32.223</time></trkpt><trkpt lat="55.7819626" lon="49.1240353"><time>2022-10-29T08:43:33.223</time></trkpt><trkpt lat="55.7820017" lon="49.1239663"><time>2022-10-29T08:43:34.220</time></trkpt><trkpt lat="55.7820446" lon="49.1238999"><time>2022-10-29T08:43:35.217</time></trkpt><trkpt lat="55.7820905" lon="49.1238333"><time>2022-10-29T08:43:36.230</time></trkpt><trkpt lat="55.7821363" lon="49.1237619"><time>2022-10-29T08:43:37.227</time></trkpt><trkpt lat="55.7821803" lon="49.1236932"><time>2022-10-29T08:43:38.227</time></trkpt><trkpt lat="55.7822176" lon="49.1236369"><time>2022-10-29T08:43:39.223</time></trkpt><trkpt lat="55.7822452" lon="49.1235693"><time>2022-10-29T08:43:41.223</time></trkpt><trkpt lat="55.7821981" lon="49.1236466"><time>2022-10-29T08:43:46.223</time></trkpt><trkpt lat="55.7821568" lon="49.1237313"><time>2022-10-29T08:43:48.230</time></trkpt><trkpt lat="55.7820862" lon="49.1238222"><time>2022-10-29T08:43:50.227</time></trkpt><trkpt lat="55.7820178" lon="49.1239176"><time>2022-10-29T08:43:52.210</time></trkpt><trkpt lat="55.7819831" lon="49.1239742"><time>2022-10-29T08:43:53.223</time></trkpt><trkpt lat="55.7819493" lon="49.1240384"><time>2022-10-29T08:43:54.247</time></trkpt><trkpt lat="55.7819198" lon="49.1241097"><time>2022-10-29T08:43:55.223</time></trkpt><trkpt lat="55.7818884" lon="49.1241857"><time>2022-10-29T08:43:56.227</time></trkpt><trkpt lat="55.7818566" lon="49.1242581"><time>2022-10-29T08:43:57.257</time></trkpt><trkpt lat="55.7818246" lon="49.1243204"><time>2022-10-29T08:43:58.237</time></trkpt><trkpt lat="55.7817573" lon="49.1243405"><time>2022-10-29T08:44:00.227</time></trkpt><trkpt lat="55.7816907" lon="49.1242577"><time>2022-10-29T08:44:02.220</time></trkpt><trkpt lat="55.7816413" lon="49.1242316"><time>2022-10-29T08:44:04.217</time></trkpt><trkpt lat="55.7816187" lon="49.1241552"><time>2022-10-29T08:44:22.217</time></trkpt><trkpt lat="55.7816005" lon="49.1240529"><time>2022-10-29T08:44:24.227</time></trkpt><trkpt lat="55.7815853" lon="49.1239691"><time>2022-10-29T08:44:25.210</time></trkpt><trkpt lat="55.7815938" lon="49.1238297"><time>2022-10-29T08:44:27.217</time></trkpt><trkpt lat="55.7816529" lon="49.1237282"><time>2022-10-29T08:44:29.217</time></trkpt><trkpt lat="55.7816902" lon="49.1236831"><time>2022-10-29T08:44:30.227</time></trkpt><trkpt lat="55.7817302" lon="49.1236411"><time>2022-10-29T08:44:31.213</time></trkpt><trkpt lat="55.7818036" lon="49.1235638"><time>2022-10-29T08:44:33.267</time></trkpt><trkpt lat="55.7818443" lon="49.1235267"><time>2022-10-29T08:44:34.233</time></trkpt><trkpt lat="55.7818866" lon="49.1234901"><time>2022-10-29T08:44:35.237</time></trkpt><trkpt lat="55.7819328" lon="49.1234474"><time>2022-10-29T08:44:36.233</time></trkpt><trkpt lat="55.7819816" lon="49.1233973"><time>2022-10-29T08:44:37.237</time></trkpt><trkpt lat="55.7820346" lon="49.1233392"><time>2022-10-29T08:44:38.237</time></trkpt><trkpt lat="55.7820891" lon="49.1232735"><time>2022-10-29T08:44:39.237</time></trkpt><trkpt lat="55.7821480" lon="49.1232014"><time>2022-10-29T08:44:40.240</time></trkpt><trkpt lat="55.7822070" lon="49.1231258"><time>2022-10-29T08:44:41.233</time></trkpt><trkpt lat="55.7822640" lon="49.1230470"><time>2022-10-29T08:44:42.223</time></trkpt><trkpt lat="55.7823206" lon="49.1229602"><time>2022-10-29T08:44:43.237</time></trkpt><trkpt lat="55.7823749" lon="49.1228722"><time>2022-10-29T08:44:44.227</time></trkpt><trkpt lat="55.7824296" lon="49.1227788"><time>2022-10-29T08:44:45.203</time></trkpt><trkpt lat="55.7824817" lon="49.1226813"><time>2022-10-29T08:44:46.230</time></trkpt><trkpt lat="55.7825330" lon="49.1225876"><time>2022-10-29T08:44:47.233</time></trkpt><trkpt lat="55.7825874" lon="49.1224957"><time>2022-10-29T08:44:48.270</time></trkpt><trkpt lat="55.7826427" lon="49.1224059"><time>2022-10-29T08:44:49.227</time></trkpt><trkpt lat="55.7827005" lon="49.1223118"><time>2022-10-29T08:44:50.230</time></trkpt><trkpt lat="55.7827581" lon="49.1222203"><time>2022-10-29T08:44:51.230</time></trkpt><trkpt lat="55.7828169" lon="49.1221263"><time>2022-10-29T08:44:52.237</time></trkpt><trkpt lat="55.7828795" lon="49.1220338"><time>2022-10-29T08:44:53.233</time></trkpt><trkpt lat="55.7829446" lon="49.1219522"><time>2022-10-29T08:44:54.230</time></trkpt><trkpt lat="55.7830055" lon="49.1218667"><time>2022-10-29T08:44:55.230</time></trkpt><trkpt lat="55.7830649" lon="49.1217752"><time>2022-10-29T08:44:56.237</time></trkpt><trkpt lat="55.7831236" lon="49.1216837"><time>2022-10-29T08:44:57.237</time></trkpt><trkpt lat="55.7831813" lon="49.1215936"><time>2022-10-29T08:44:58.227</time></trkpt><trkpt lat="55.7832382" lon="49.1215016"><time>2022-10-29T08:44:59.220</time></trkpt><trkpt lat="55.7832974" lon="49.1214020"><time>2022-10-29T08:45:00.237</time></trkpt><trkpt lat="55.7833569" lon="49.1213000"><time>2022-10-29T08:45:01.237</time></trkpt><trkpt lat="55.7834135" lon="49.1212024"><time>2022-10-29T08:45:02.250</time></trkpt><trkpt lat="55.7834708" lon="49.1211053"><time>2022-10-29T08:45:03.270</time></trkpt><trkpt lat="55.7835263" lon="49.1210113"><time>2022-10-29T08:45:04.237</time></trkpt><trkpt lat="55.7835745" lon="49.1209151"><time>2022-10-29T08:45:05.230</time></trkpt><trkpt lat="55.7836103" lon="49.1208123"><time>2022-10-29T08:45:06.233</time></trkpt><trkpt lat="55.7836419" lon="49.1207118"><time>2022-10-29T08:45:07.237</time></trkpt><trkpt lat="55.7836776" lon="49.1206184"><time>2022-10-29T08:45:08.237</time></trkpt><trkpt lat="55.7837195" lon="49.1205340"><time>2022-10-29T08:45:09.233</time></trkpt><trkpt lat="55.7837660" lon="49.1204528"><time>2022-10-29T08:45:10.237</time></trkpt><trkpt lat="55.7838150" lon="49.1203732"><time>2022-10-29T08:45:11.227</time></trkpt><trkpt lat="55.7838646" lon="49.1202869"><time>2022-10-29T08:45:12.237</time></trkpt><trkpt lat="55.7839125" lon="49.1201942"><time>2022-10-29T08:45:13.237</time></trkpt><trkpt lat="55.7839627" lon="49.1200992"><time>2022-10-29T08:45:14.240</time></trkpt><trkpt lat="55.7840189" lon="49.1200115"><time>2022-10-29T08:45:15.233</time></trkpt><trkpt lat="55.7840778" lon="49.1199297"><time>2022-10-29T08:45:16.230</time></trkpt><trkpt lat="55.7841391" lon="49.1198559"><time>2022-10-29T08:45:17.213</time></trkpt><trkpt lat="55.7841992" lon="49.1197811"><time>2022-10-29T08:45:18.263</time></trkpt><trkpt lat="55.7842563" lon="49.1197019"><time>2022-10-29T08:45:19.233</time></trkpt><trkpt lat="55.7843075" lon="49.1196269"><time>2022-10-29T08:45:20.237</time></trkpt><trkpt lat="55.7843436" lon="49.1195708"><time>2022-10-29T08:45:21.237</time></trkpt><trkpt lat="55.7843018" lon="49.1195322"><time>2022-10-29T08:45:26.230</time></trkpt><trkpt lat="55.7842432" lon="49.1195155"><time>2022-10-29T08:45:29.220</time></trkpt><trkpt lat="55.7842003" lon="49.1194686"><time>2022-10-29T08:45:31.210</time></trkpt><trkpt lat="55.7841556" lon="49.1194062"><time>2022-10-29T08:45:33.217</time></trkpt><trkpt lat="55.7840895" lon="49.1193368"><time>2022-10-29T08:45:35.230</time></trkpt><trkpt lat="55.7840493" lon="49.1192977"><time>2022-10-29T08:45:36.230</time></trkpt><trkpt lat="55.7840072" lon="49.1192568"><time>2022-10-29T08:45:37.230</time></trkpt><trkpt lat="55.7839642" lon="49.1192108"><time>2022-10-29T08:45:38.230</time></trkpt><trkpt lat="55.7839211" lon="49.1191667"><time>2022-10-29T08:45:39.217</time></trkpt><trkpt lat="55.7838768" lon="49.1191167"><time>2022-10-29T08:45:40.210</time></trkpt><trkpt lat="55.7838334" lon="49.1190608"><time>2022-10-29T08:45:41.237</time></trkpt><trkpt lat="55.7837900" lon="49.1190006"><time>2022-10-29T08:45:42.233</time></trkpt><trkpt lat="55.7837480" lon="49.1189460"><time>2022-10-29T08:45:43.203</time></trkpt><trkpt lat="55.7837073" lon="49.1188939"><time>2022-10-29T08:45:44.233</time></trkpt><trkpt lat="55.7836686" lon="49.1188396"><time>2022-10-29T08:45:45.240</time></trkpt><trkpt lat="55.7836304" lon="49.1187835"><time>2022-10-29T08:45:46.240</time></trkpt><trkpt lat="55.7835901" lon="49.1187222"><time>2022-10-29T08:45:47.240</time></trkpt><trkpt lat="55.7835509" lon="49.1186571"><time>2022-10-29T08:45:48.240</time></trkpt><trkpt lat="55.7835131" lon="49.1185891"><time>2022-10-29T08:45:49.247</time></trkpt><trkpt lat="55.7834745" lon="49.1185228"><time>2022-10-29T08:45:50.220</time></trkpt><trkpt lat="55.7834385" lon="49.1184593"><time>2022-10-29T08:45:51.233</time></trkpt><trkpt lat="55.7834059" lon="49.1184001"><time>2022-10-29T08:45:52.237</time></trkpt><trkpt lat="55.7833643" lon="49.1183271"><time>2022-10-29T08:45:54.233</time></trkpt><trkpt lat="55.7833242" lon="49.1182711"><time>2022-10-29T08:45:58.223</time></trkpt><trkpt lat="55.7832803" lon="49.1181877"><time>2022-10-29T08:46:01.257</time></trkpt><trkpt lat="55.7832722" lon="49.1180511"><time>2022-10-29T08:46:03.230</time></trkpt><trkpt lat="55.7832763" lon="49.1179704"><time>2022-10-29T08:46:04.230</time></trkpt><trkpt lat="55.7832848" lon="49.1178856"><time>2022-10-29T08:46:05.237</time></trkpt><trkpt lat="55.7832985" lon="49.1178039"><time>2022-10-29T08:46:06.240</time></trkpt><trkpt lat="55.7833162" lon="49.1177198"><time>2022-10-29T08:46:07.253</time></trkpt><trkpt lat="55.7833406" lon="49.1176361"><time>2022-10-29T08:46:08.243</time></trkpt><trkpt lat="55.7833669" lon="49.1175565"><time>2022-10-29T08:46:09.237</time></trkpt><trkpt lat="55.7833928" lon="49.1174844"><time>2022-10-29T08:46:10.227</time></trkpt><trkpt lat="55.7834075" lon="49.1174063"><time>2022-10-29T08:46:11.237</time></trkpt><trkpt lat="55.7833997" lon="49.1173265"><time>2022-10-29T08:46:12.243</time></trkpt><trkpt lat="55.7833661" lon="49.1172592"><time>2022-10-29T08:46:13.227</time></trkpt><trkpt lat="55.7833153" lon="49.1171906"><time>2022-10-29T08:46:14.237</time></trkpt><trkpt lat="55.7832606" lon="49.1171267"><time>2022-10-29T08:46:15.237</time></trkpt><trkpt lat="55.7832084" lon="49.1170583"><time>2022-10-29T08:46:16.233</time></trkpt><trkpt lat="55.7831592" lon="49.1169919"><time>2022-10-29T08:46:17.233</time></trkpt><trkpt lat="55.7831097" lon="49.1169289"><time>2022-10-29T08:46:18.227</time></trkpt><trkpt lat="55.7830613" lon="49.1168701"><time>2022-10-29T08:46:19.227</time></trkpt><trkpt lat="55.7830156" lon="49.1168092"><time>2022-10-29T08:46:20.247</time></trkpt><trkpt lat="55.7829747" lon="49.1167455"><time>2022-10-29T08:46:21.227</time></trkpt><trkpt lat="55.7829360" lon="49.1166922"><time>2022-10-29T08:46:22.230</time></trkpt><trkpt lat="55.7828916" lon="49.1166431"><time>2022-10-29T08:46:23.230</time></trkpt><trkpt lat="55.7828421" lon="49.1166000"><time>2022-10-29T08:46:24.237</time></trkpt><trkpt lat="55.7827909" lon="49.1165709"><time>2022-10-29T08:46:25.243</time></trkpt><trkpt lat="55.7827393" lon="49.1165475"><time>2022-10-29T08:46:26.240</time></trkpt><trkpt lat="55.7826865" lon="49.1164975"><time>2022-10-29T08:46:27.243</time></trkpt><trkpt lat="55.7826355" lon="49.1164231"><time>2022-10-29T08:46:28.287</time></trkpt><trkpt lat="55.7825877" lon="49.1163393"><time>2022-10-29T08:46:29.230</time></trkpt><trkpt lat="55.7825420" lon="49.1162669"><time>2022-10-29T08:46:30.240</time></trkpt><trkpt lat="55.7824987" lon="49.1161911"><time>2022-10-29T08:46:31.227</time></trkpt><trkpt lat="55.7824577" lon="49.1161185"><time>2022-10-29T08:46:32.237</time></trkpt><trkpt lat="55.7824178" lon="49.1160718"><time>2022-10-29T08:46:33.237</time></trkpt><trkpt lat="55.7823725" lon="49.1160462"><time>2022-10-29T08:46:34.240</time></trkpt><trkpt lat="55.7823215" lon="49.1160462"><time>2022-10-29T08:46:35.240</time></trkpt><trkpt lat="55.7822677" lon="49.1160753"><time>2022-10-29T08:46:36.233</time></trkpt><trkpt lat="55.7822150" lon="49.1161332"><time>2022-10-29T08:46:37.233</time></trkpt><trkpt lat="55.7821657" lon="49.1162023"><time>2022-10-29T08:46:38.237</time></trkpt><trkpt lat="55.7821205" lon="49.1162739"><time>2022-10-29T08:46:39.230</time></trkpt><trkpt lat="55.7820714" lon="49.1163371"><time>2022-10-29T08:46:40.250</time></trkpt><trkpt lat="55.7820234" lon="49.1164052"><time>2022-10-29T08:46:41.217</time></trkpt><trkpt lat="55.7819738" lon="49.1164664"><time>2022-10-29T08:46:42.223</time></trkpt><trkpt lat="55.7819245" lon="49.1165257"><time>2022-10-29T08:46:43.227</time></trkpt><trkpt lat="55.7818780" lon="49.1165855"><time>2022-10-29T08:46:44.230</time></trkpt><trkpt lat="55.7818305" lon="49.1166485"><time>2022-10-29T08:46:45.240</time></trkpt><trkpt lat="55.7817798" lon="49.1167125"><time>2022-10-29T08:46:46.223</time></trkpt><trkpt lat="55.7817261" lon="49.1167748"><time>2022-10-29T08:46:47.230</time></trkpt><trkpt lat="55.7816729" lon="49.1168339"><time>2022-10-29T08:46:48.250</time></trkpt><trkpt lat="55.7816196" lon="49.1168885"><time>2022-10-29T08:46:49.237</time></trkpt><trkpt lat="55.7815659" lon="49.1169402"><time>2022-10-29T08:46:50.237</time></trkpt><trkpt lat="55.7815159" lon="49.1169974"><time>2022-10-29T08:46:51.227</time></trkpt><trkpt lat="55.7814654" lon="49.1170611"><time>2022-10-29T08:46:52.227</time></trkpt><trkpt lat="55.7814120" lon="49.1171291"><time>2022-10-29T08:46:53.237</time></trkpt><trkpt lat="55.7813583" lon="49.1171992"><time>2022-10-29T08:46:54.250</time></trkpt><trkpt lat="55.7813041" lon="49.1172691"><time>2022-10-29T08:46:55.247</time></trkpt><trkpt lat="55.7812503" lon="49.1173378"><time>2022-10-29T08:46:56.237</time></trkpt><trkpt lat="55.7811946" lon="49.1173986"><time>2022-10-29T08:46:57.230</time></trkpt><trkpt lat="55.7811455" lon="49.1174550"><time>2022-10-29T08:46:58.237</time></trkpt><trkpt lat="55.7811046" lon="49.1175214"><time>2022-10-29T08:46:59.223</time></trkpt><trkpt lat="55.7810565" lon="49.1175842"><time>2022-10-29T08:47:00.240</time></trkpt><trkpt lat="55.7810036" lon="49.1176427"><time>2022-10-29T08:47:01.250</time></trkpt><trkpt lat="55.7809499" lon="49.1177010"><time>2022-10-29T08:47:02.227</time></trkpt><trkpt lat="55.7808963" lon="49.1177603"><time>2022-10-29T08:47:03.233</time></trkpt><trkpt lat="55.7808410" lon="49.1178267"><time>2022-10-29T08:47:04.230</time></trkpt><trkpt lat="55.7807852" lon="49.1178943"><time>2022-10-29T08:47:05.233</time></trkpt><trkpt lat="55.7807293" lon="49.1179654"><time>2022-10-29T08:47:06.243</time></trkpt><trkpt lat="55.7806719" lon="49.1180388"><time>2022-10-29T08:47:07.277</time></trkpt><trkpt lat="55.7806132" lon="49.1181123"><time>2022-10-29T08:47:08.237</time></trkpt><trkpt lat="55.7805542" lon="49.1181875"><time>2022-10-29T08:47:09.227</time></trkpt><trkpt lat="55.7804957" lon="49.1182651"><time>2022-10-29T08:47:10.237</time></trkpt><trkpt lat="55.7804385" lon="49.1183419"><time>2022-10-29T08:47:11.237</time></trkpt><trkpt lat="55.7803874" lon="49.1184146"><time>2022-10-29T08:47:12.250</time></trkpt><trkpt lat="55.7803375" lon="49.1184841"><time>2022-10-29T08:47:13.240</time></trkpt><trkpt lat="55.7802846" lon="49.1185507"><time>2022-10-29T08:47:14.220</time></trkpt><trkpt lat="55.7802342" lon="49.1186194"><time>2022-10-29T08:47:15.240</time></trkpt><trkpt lat="55.7801852" lon="49.1186862"><time>2022-10-29T08:47:16.240</time></trkpt><trkpt lat="55.7801334" lon="49.1187501"><time>2022-10-29T08:47:17.240</time></trkpt><trkpt lat="55.7800819" lon="49.1188125"><time>2022-10-29T08:47:18.243</time></trkpt><trkpt lat="55.7800336" lon="49.1188733"><time>2022-10-29T08:47:19.243</time></trkpt><trkpt lat="55.7799866" lon="49.1189329"><time>2022-10-29T08:47:20.230</time></trkpt><trkpt lat="55.7799394" lon="49.1189973"><time>2022-10-29T08:47:21.243</time></trkpt><trkpt lat="55.7798922" lon="49.1190538"><time>2022-10-29T08:47:22.243</time></trkpt><trkpt lat="55.7798492" lon="49.1191020"><time>2022-10-29T08:47:23.243</time></trkpt><trkpt lat="55.7798095" lon="49.1191487"><time>2022-10-29T08:47:24.237</time></trkpt><trkpt lat="55.7797699" lon="49.1191933"><time>2022-10-29T08:47:25.233</time></trkpt><trkpt lat="55.7797289" lon="49.1192376"><time>2022-10-29T08:47:26.227</time></trkpt><trkpt lat="55.7796884" lon="49.1192896"><time>2022-10-29T08:47:27.240</time></trkpt><trkpt lat="55.7796481" lon="49.1193530"><time>2022-10-29T08:47:28.230</time></trkpt><trkpt lat="55.7796056" lon="49.1194126"><time>2022-10-29T08:47:29.247</time></trkpt><trkpt lat="55.7795607" lon="49.1194688"><time>2022-10-29T08:47:30.237</time></trkpt><trkpt lat="55.7795156" lon="49.1195237"><time>2022-10-29T08:47:31.240</time></trkpt><trkpt lat="55.7794695" lon="49.1195809"><time>2022-10-29T08:47:32.237</time></trkpt><trkpt lat="55.7794216" lon="49.1196369"><time>2022-10-29T08:47:33.247</time></trkpt><trkpt lat="55.7793737" lon="49.1196916"><time>2022-10-29T08:47:34.247</time></trkpt><trkpt lat="55.7793295" lon="49.1197478"><time>2022-10-29T08:47:35.223</time></trkpt><trkpt lat="55.7792888" lon="49.1197953"><time>2022-10-29T08:47:36.240</time></trkpt><trkpt lat="55.7792324" lon="49.1197744"><time>2022-10-29T08:47:38.253</time></trkpt><trkpt lat="55.7792267" lon="49.1196567"><time>2022-10-29T08:47:41.280</time></trkpt><trkpt lat="55.7792295" lon="49.1196133"><time>2022-10-29T08:47:42.250</time></trkpt><trkpt lat="55.7792436" lon="49.1195318"><time>2022-10-29T08:47:44.237</time></trkpt><trkpt lat="55.7792959" lon="49.1194684"><time>2022-10-29T08:47:47.247</time></trkpt><trkpt lat="55.7792928" lon="49.1193417"><time>2022-10-29T08:47:50.220</time></trkpt><trkpt lat="55.7792567" lon="49.1192219"><time>2022-10-29T08:47:52.220</time></trkpt><trkpt lat="55.7792196" lon="49.1191203"><time>2022-10-29T08:47:54.227</time></trkpt><trkpt lat="55.7791733" lon="49.1189806"><time>2022-10-29T08:47:56.233</time></trkpt><trkpt lat="55.7791553" lon="49.1189023"><time>2022-10-29T08:47:57.237</time></trkpt><trkpt lat="55.7791410" lon="49.1188252"><time>2022-10-29T08:47:58.277</time></trkpt><trkpt lat="55.7791299" lon="49.1187514"><time>2022-10-29T08:47:59.237</time></trkpt><trkpt lat="55.7790967" lon="49.1186059"><time>2022-10-29T08:48:01.233</time></trkpt><trkpt lat="55.7790590" lon="49.1184813"><time>2022-10-29T08:48:03.237</time></trkpt><trkpt lat="55.7790777" lon="49.1183495"><time>2022-10-29T08:48:05.237</time></trkpt><trkpt lat="55.7791179" lon="49.1182339"><time>2022-10-29T08:48:07.237</time></trkpt><trkpt lat="55.7791630" lon="49.1181332"><time>2022-10-29T08:48:09.233</time></trkpt><trkpt lat="55.7792246" lon="49.1180338"><time>2022-10-29T08:48:11.233</time></trkpt><trkpt lat="55.7792759" lon="49.1179448"><time>2022-10-29T08:48:13.220</time></trkpt><trkpt lat="55.7792104" lon="49.1179875"><time>2022-10-29T08:48:18.227</time></trkpt><trkpt lat="55.7791466" lon="49.1181057"><time>2022-10-29T08:48:20.237</time></trkpt><trkpt lat="55.7791115" lon="49.1181631"><time>2022-10-29T08:48:21.233</time></trkpt><trkpt lat="55.7790748" lon="49.1182112"><time>2022-10-29T08:48:22.273</time></trkpt><trkpt lat="55.7790748" lon="49.1182112"><time>2022-10-29T08:48:22.300</time></trkpt><trkpt lat="55.7790342" lon="49.1182465"><time>2022-10-29T08:48:23.273</time></trkpt><trkpt lat="55.7789985" lon="49.1182676"><time>2022-10-29T08:48:24.233</time></trkpt><trkpt lat="55.7789806" lon="49.1181813"><time>2022-10-29T08:49:10.247</time></trkpt><trkpt lat="55.7789448" lon="49.1180326"><time>2022-10-29T08:49:12.257</time></trkpt><trkpt lat="55.7789302" lon="49.1179400"><time>2022-10-29T08:49:13.227</time></trkpt><trkpt lat="55.7789100" lon="49.1178504"><time>2022-10-29T08:49:14.240</time></trkpt><trkpt lat="55.7788907" lon="49.1177592"><time>2022-10-29T08:49:15.240</time></trkpt><trkpt lat="55.7788701" lon="49.1176632"><time>2022-10-29T08:49:16.263</time></trkpt><trkpt lat="55.7788488" lon="49.1175620"><time>2022-10-29T08:49:17.250</time></trkpt><trkpt lat="55.7788259" lon="49.1174633"><time>2022-10-29T08:49:18.230</time></trkpt><trkpt lat="55.7787998" lon="49.1173658"><time>2022-10-29T08:49:19.230</time></trkpt><trkpt lat="55.7787725" lon="49.1172596"><time>2022-10-29T08:49:20.240</time></trkpt><trkpt lat="55.7787432" lon="49.1171545"><time>2022-10-29T08:49:21.257</time></trkpt><trkpt lat="55.7787144" lon="49.1170469"><time>2022-10-29T08:49:22.230</time></trkpt><trkpt lat="55.7786895" lon="49.1169370"><time>2022-10-29T08:49:23.233</time></trkpt><trkpt lat="55.7786670" lon="49.1168235"><time>2022-10-29T08:49:24.233</time></trkpt><trkpt lat="55.7786426" lon="49.1167127"><time>2022-10-29T08:49:25.237</time></trkpt><trkpt lat="55.7786168" lon="49.1165980"><time>2022-10-29T08:49:26.237</time></trkpt><trkpt lat="55.7785873" lon="49.1164833"><time>2022-10-29T08:49:27.247</time></trkpt><trkpt lat="55.7785567" lon="49.1163734"><time>2022-10-29T08:49:28.247</time></trkpt><trkpt lat="55.7785237" lon="49.1162633"><time>2022-10-29T08:49:29.233</time></trkpt><trkpt lat="55.7784925" lon="49.1161539"><time>2022-10-29T08:49:30.240</time></trkpt><trkpt lat="55.7784621" lon="49.1160416"><time>2022-10-29T08:49:31.233</time></trkpt><trkpt lat="55.7784314" lon="49.1159291"><time>2022-10-29T08:49:32.240</time></trkpt><trkpt lat="55.7784000" lon="49.1158131"><time>2022-10-29T08:49:33.237</time></trkpt><trkpt lat="55.7783691" lon="49.1156954"><time>2022-10-29T08:49:34.257</time></trkpt><trkpt lat="55.7783367" lon="49.1155806"><time>2022-10-29T08:49:35.247</time></trkpt><trkpt lat="55.7783042" lon="49.1154698"><time>2022-10-29T08:49:36.233</time></trkpt><trkpt lat="55.7782741" lon="49.1153775"><time>2022-10-29T08:49:37.227</time></trkpt><trkpt lat="55.7782457" lon="49.1153081"><time>2022-10-29T08:49:38.240</time></trkpt><trkpt lat="55.7782018" lon="49.1152820"><time>2022-10-29T08:49:39.237</time></trkpt><trkpt lat="55.7781461" lon="49.1153066"><time>2022-10-29T08:49:40.243</time></trkpt><trkpt lat="55.7780937" lon="49.1153571"><time>2022-10-29T08:49:41.243</time></trkpt><trkpt lat="55.7780474" lon="49.1154180"><time>2022-10-29T08:49:42.233</time></trkpt><trkpt lat="55.7780052" lon="49.1154723"><time>2022-10-29T08:49:43.227</time></trkpt><trkpt lat="55.7779467" lon="49.1155374"><time>2022-10-29T08:49:45.237</time></trkpt><trkpt lat="55.7779043" lon="49.1156047"><time>2022-10-29T08:49:48.240</time></trkpt><trkpt lat="55.7778623" lon="49.1156683"><time>2022-10-29T08:49:50.243</time></trkpt><trkpt lat="55.7778012" lon="49.1157344"><time>2022-10-29T08:49:52.240</time></trkpt><trkpt lat="55.7777243" lon="49.1158106"><time>2022-10-29T08:49:54.237</time></trkpt><trkpt lat="55.7776809" lon="49.1158568"><time>2022-10-29T08:49:55.240</time></trkpt><trkpt lat="55.7776322" lon="49.1159024"><time>2022-10-29T08:49:56.230</time></trkpt><trkpt lat="55.7775925" lon="49.1159408"><time>2022-10-29T08:49:57.237</time></trkpt><trkpt lat="55.7775061" lon="49.1159901"><time>2022-10-29T08:49:59.230</time></trkpt><trkpt lat="55.7774300" lon="49.1160365"><time>2022-10-29T08:50:01.223</time></trkpt><trkpt lat="55.7773828" lon="49.1160687"><time>2022-10-29T08:50:05.230</time></trkpt><trkpt lat="55.7773197" lon="49.1159580"><time>2022-10-29T08:50:11.240</time></trkpt><trkpt lat="55.7772880" lon="49.1158745"><time>2022-10-29T08:50:14.247</time></trkpt><trkpt lat="55.7772428" lon="49.1159521"><time>2022-10-29T08:50:24.260</time></trkpt><trkpt lat="55.7771871" lon="49.1160246"><time>2022-10-29T08:50:27.243</time></trkpt><trkpt lat="55.7771316" lon="49.1160916"><time>2022-10-29T08:50:29.233</time></trkpt><trkpt lat="55.7770566" lon="49.1161618"><time>2022-10-29T08:50:31.227</time></trkpt><trkpt lat="55.7770166" lon="49.1161979"><time>2022-10-29T08:50:32.237</time></trkpt><trkpt lat="55.7769741" lon="49.1162385"><time>2022-10-29T08:50:33.243</time></trkpt><trkpt lat="55.7769286" lon="49.1162858"><time>2022-10-29T08:50:34.237</time></trkpt><trkpt lat="55.7768802" lon="49.1163376"><time>2022-10-29T08:50:35.270</time></trkpt><trkpt lat="55.7768303" lon="49.1163893"><time>2022-10-29T08:50:36.223</time></trkpt><trkpt lat="55.7767799" lon="49.1164404"><time>2022-10-29T08:50:37.233</time></trkpt><trkpt lat="55.7767281" lon="49.1164939"><time>2022-10-29T08:50:38.243</time></trkpt><trkpt lat="55.7766746" lon="49.1165470"><time>2022-10-29T08:50:39.240</time></trkpt><trkpt lat="55.7766199" lon="49.1166017"><time>2022-10-29T08:50:40.233</time></trkpt><trkpt lat="55.7765652" lon="49.1166598"><time>2022-10-29T08:50:41.230</time></trkpt><trkpt lat="55.7765094" lon="49.1167152"><time>2022-10-29T08:50:42.263</time></trkpt><trkpt lat="55.7764525" lon="49.1167691"><time>2022-10-29T08:50:43.230</time></trkpt><trkpt lat="55.7763940" lon="49.1168243"><time>2022-10-29T08:50:44.237</time></trkpt><trkpt lat="55.7763347" lon="49.1168816"><time>2022-10-29T08:50:45.250</time></trkpt><trkpt lat="55.7762762" lon="49.1169357"><time>2022-10-29T08:50:46.253</time></trkpt><trkpt lat="55.7762173" lon="49.1169886"><time>2022-10-29T08:50:47.243</time></trkpt><trkpt lat="55.7761584" lon="49.1170445"><time>2022-10-29T08:50:48.240</time></trkpt><trkpt lat="55.7760987" lon="49.1171026"><time>2022-10-29T08:50:49.230</time></trkpt><trkpt lat="55.7760400" lon="49.1171640"><time>2022-10-29T08:50:50.253</time></trkpt><trkpt lat="55.7759805" lon="49.1172196"><time>2022-10-29T08:50:51.247</time></trkpt><trkpt lat="55.7759205" lon="49.1172758"><time>2022-10-29T08:50:52.233</time></trkpt><trkpt lat="55.7758601" lon="49.1173331"><time>2022-10-29T08:50:53.240</time></trkpt><trkpt lat="55.7758014" lon="49.1173922"><time>2022-10-29T08:50:54.253</time></trkpt><trkpt lat="55.7757445" lon="49.1174520"><time>2022-10-29T08:50:55.233</time></trkpt><trkpt lat="55.7756881" lon="49.1175076"><time>2022-10-29T08:50:56.267</time></trkpt><trkpt lat="55.7756318" lon="49.1175631"><time>2022-10-29T08:50:57.237</time></trkpt><trkpt lat="55.7755777" lon="49.1176206"><time>2022-10-29T08:50:58.257</time></trkpt><trkpt lat="55.7755185" lon="49.1176737"><time>2022-10-29T08:50:59.240</time></trkpt><trkpt lat="55.7754599" lon="49.1177256"><time>2022-10-29T08:51:00.233</time></trkpt><trkpt lat="55.7754042" lon="49.1177806"><time>2022-10-29T08:51:01.243</time></trkpt><trkpt lat="55.7753476" lon="49.1178364"><time>2022-10-29T08:51:02.233</time></trkpt><trkpt lat="55.7752910" lon="49.1178924"><time>2022-10-29T08:51:03.250</time></trkpt><trkpt lat="55.7752359" lon="49.1179465"><time>2022-10-29T08:51:04.253</time></trkpt><trkpt lat="55.7751797" lon="49.1179992"><time>2022-10-29T08:51:05.237</time></trkpt><trkpt lat="55.7751236" lon="49.1180560"><time>2022-10-29T08:51:06.250</time></trkpt><trkpt lat="55.7750675" lon="49.1181127"><time>2022-10-29T08:51:07.250</time></trkpt><trkpt lat="55.7750102" lon="49.1181710"><time>2022-10-29T08:51:08.237</time></trkpt><trkpt lat="55.7749550" lon="49.1182311"><time>2022-10-29T08:51:09.260</time></trkpt><trkpt lat="55.7749012" lon="49.1182917"><time>2022-10-29T08:51:10.293</time></trkpt><trkpt lat="55.7748474" lon="49.1183497"><time>2022-10-29T08:51:11.243</time></trkpt><trkpt lat="55.7747940" lon="49.1184045"><time>2022-10-29T08:51:12.237</time></trkpt><trkpt lat="55.7747431" lon="49.1184646"><time>2022-10-29T08:51:13.243</time></trkpt><trkpt lat="55.7746935" lon="49.1185248"><time>2022-10-29T08:51:14.227</time></trkpt><trkpt lat="55.7746504" lon="49.1185970"><time>2022-10-29T08:51:15.240</time></trkpt><trkpt lat="55.7746177" lon="49.1186806"><time>2022-10-29T08:51:16.240</time></trkpt><trkpt lat="55.7745874" lon="49.1187573"><time>2022-10-29T08:51:17.280</time></trkpt><trkpt lat="55.7745534" lon="49.1188250"><time>2022-10-29T08:51:18.247</time></trkpt><trkpt lat="55.7745142" lon="49.1188791"><time>2022-10-29T08:51:19.237</time></trkpt><trkpt lat="55.7744722" lon="49.1189301"><time>2022-10-29T08:51:20.223</time></trkpt><trkpt lat="55.7744279" lon="49.1189714"><time>2022-10-29T08:51:21.227</time></trkpt><trkpt lat="55.7743829" lon="49.1190053"><time>2022-10-29T08:51:22.227</time></trkpt><trkpt lat="55.7743397" lon="49.1190371"><time>2022-10-29T08:51:23.233</time></trkpt><trkpt lat="55.7743397" lon="49.1190371"><time>2022-10-29T08:51:23.273</time></trkpt><trkpt lat="55.7742800" lon="49.1191309"><time>2022-10-29T08:51:25.273</time></trkpt><trkpt lat="55.7742607" lon="49.1191774"><time>2022-10-29T08:51:26.237</time></trkpt><trkpt lat="55.7742118" lon="49.1192322"><time>2022-10-29T08:52:22.243</time></trkpt><trkpt lat="55.7741682" lon="49.1192788"><time>2022-10-29T08:52:25.233</time></trkpt><trkpt lat="55.7742191" lon="49.1192738"><time>2022-10-29T08:52:28.227</time></trkpt><trkpt lat="55.7742731" lon="49.1191837"><time>2022-10-29T08:52:30.223</time></trkpt><trkpt lat="55.7743076" lon="49.1191305"><time>2022-10-29T08:52:31.223</time></trkpt><trkpt lat="55.7743435" lon="49.1190779"><time>2022-10-29T08:52:32.230</time></trkpt><trkpt lat="55.7743808" lon="49.1190284"><time>2022-10-29T08:52:33.227</time></trkpt><trkpt lat="55.7744186" lon="49.1189793"><time>2022-10-29T08:52:34.230</time></trkpt><trkpt lat="55.7744599" lon="49.1189263"><time>2022-10-29T08:52:35.227</time></trkpt><trkpt lat="55.7745019" lon="49.1188725"><time>2022-10-29T08:52:36.227</time></trkpt><trkpt lat="55.7745472" lon="49.1188224"><time>2022-10-29T08:52:37.227</time></trkpt><trkpt lat="55.7745933" lon="49.1187746"><time>2022-10-29T08:52:38.220</time></trkpt><trkpt lat="55.7746389" lon="49.1187311"><time>2022-10-29T08:52:39.223</time></trkpt><trkpt lat="55.7746810" lon="49.1186894"><time>2022-10-29T08:52:40.223</time></trkpt><trkpt lat="55.7747549" lon="49.1186242"><time>2022-10-29T08:52:42.227</time></trkpt><trkpt lat="55.7748256" lon="49.1185595"><time>2022-10-29T08:52:44.227</time></trkpt><trkpt lat="55.7749002" lon="49.1184778"><time>2022-10-29T08:52:46.230</time></trkpt><trkpt lat="55.7749414" lon="49.1184402"><time>2022-10-29T08:52:47.227</time></trkpt><trkpt lat="55.7750049" lon="49.1183781"><time>2022-10-29T08:52:49.237</time></trkpt><trkpt lat="55.7750390" lon="49.1182545"><time>2022-10-29T08:52:52.237</time></trkpt><trkpt lat="55.7750389" lon="49.1181744"><time>2022-10-29T08:52:53.247</time></trkpt><trkpt lat="55.7750314" lon="49.1180150"><time>2022-10-29T08:52:55.233</time></trkpt><trkpt lat="55.7750213" lon="49.1179268"><time>2022-10-29T08:52:56.240</time></trkpt><trkpt lat="55.7750117" lon="49.1178347"><time>2022-10-29T08:52:57.230</time></trkpt><trkpt lat="55.7750070" lon="49.1177435"><time>2022-10-29T08:52:58.220</time></trkpt><trkpt lat="55.7749997" lon="49.1176516"><time>2022-10-29T08:52:59.237</time></trkpt><trkpt lat="55.7749908" lon="49.1175622"><time>2022-10-29T08:53:00.207</time></trkpt><trkpt lat="55.7749803" lon="49.1174769"><time>2022-10-29T08:53:01.220</time></trkpt><trkpt lat="55.7749659" lon="49.1173972"><time>2022-10-29T08:53:02.220</time></trkpt><trkpt lat="55.7749516" lon="49.1173194"><time>2022-10-29T08:53:03.223</time></trkpt><trkpt lat="55.7749386" lon="49.1172343"><time>2022-10-29T08:53:04.230</time></trkpt><trkpt lat="55.7749248" lon="49.1171428"><time>2022-10-29T08:53:05.227</time></trkpt><trkpt lat="55.7749128" lon="49.1170448"><time>2022-10-29T08:53:06.227</time></trkpt><trkpt lat="55.7749002" lon="49.1169449"><time>2022-10-29T08:53:07.227</time></trkpt><trkpt lat="55.7748868" lon="49.1168417"><time>2022-10-29T08:53:08.227</time></trkpt><trkpt lat="55.7748763" lon="49.1167349"><time>2022-10-29T08:53:09.233</time></trkpt><trkpt lat="55.7748640" lon="49.1166302"><time>2022-10-29T08:53:10.233</time></trkpt><trkpt lat="55.7748518" lon="49.1165242"><time>2022-10-29T08:53:11.230</time></trkpt><trkpt lat="55.7748376" lon="49.1164141"><time>2022-10-29T08:53:12.227</time></trkpt><trkpt lat="55.7748193" lon="49.1163029"><time>2022-10-29T08:53:13.230</time></trkpt><trkpt lat="55.7748036" lon="49.1161947"><time>2022-10-29T08:53:14.237</time></trkpt><trkpt lat="55.7747906" lon="49.1160887"><time>2022-10-29T08:53:15.233</time></trkpt><trkpt lat="55.7747758" lon="49.1159865"><time>2022-10-29T08:53:16.233</time></trkpt><trkpt lat="55.7747564" lon="49.1158859"><time>2022-10-29T08:53:17.230</time></trkpt><trkpt lat="55.7747319" lon="49.1157877"><time>2022-10-29T08:53:18.237</time></trkpt><trkpt lat="55.7747046" lon="49.1156915"><time>2022-10-29T08:53:19.237</time></trkpt><trkpt lat="55.7746756" lon="49.1155917"><time>2022-10-29T08:53:20.217</time></trkpt><trkpt lat="55.7746491" lon="49.1154859"><time>2022-10-29T08:53:21.230</time></trkpt><trkpt lat="55.7746257" lon="49.1153797"><time>2022-10-29T08:53:22.230</time></trkpt><trkpt lat="55.7746018" lon="49.1152788"><time>2022-10-29T08:53:23.230</time></trkpt><trkpt lat="55.7745767" lon="49.1151811"><time>2022-10-29T08:53:24.233</time></trkpt><trkpt lat="55.7745505" lon="49.1150799"><time>2022-10-29T08:53:25.227</time></trkpt><trkpt lat="55.7745229" lon="49.1149756"><time>2022-10-29T08:53:26.230</time></trkpt><trkpt lat="55.7744952" lon="49.1148694"><time>2022-10-29T08:53:27.233</time></trkpt><trkpt lat="55.7744677" lon="49.1147588"><time>2022-10-29T08:53:28.223</time></trkpt><trkpt lat="55.7744408" lon="49.1146480"><time>2022-10-29T08:53:29.240</time></trkpt><trkpt lat="55.7744140" lon="49.1145377"><time>2022-10-29T08:53:30.237</time></trkpt><trkpt lat="55.7743881" lon="49.1144278"><time>2022-10-29T08:53:31.233</time></trkpt><trkpt lat="55.7743613" lon="49.1143160"><time>2022-10-29T08:53:32.227</time></trkpt><trkpt lat="55.7743349" lon="49.1142081"><time>2022-10-29T08:53:33.220</time></trkpt><trkpt lat="55.7743104" lon="49.1140994"><time>2022-10-29T08:53:34.230</time></trkpt><trkpt lat="55.7742871" lon="49.1139922"><time>2022-10-29T08:53:35.227</time></trkpt><trkpt lat="55.7742645" lon="49.1138849"><time>2022-10-29T08:53:36.233</time></trkpt><trkpt lat="55.7742428" lon="49.1137791"><time>2022-10-29T08:53:37.220</time></trkpt><trkpt lat="55.7742220" lon="49.1136761"><time>2022-10-29T08:53:38.227</time></trkpt><trkpt lat="55.7742002" lon="49.1135702"><time>2022-10-29T08:53:39.233</time></trkpt><trkpt lat="55.7741772" lon="49.1134656"><time>2022-10-29T08:53:40.227</time></trkpt><trkpt lat="55.7741555" lon="49.1133623"><time>2022-10-29T08:53:41.237</time></trkpt><trkpt lat="55.7741342" lon="49.1132598"><time>2022-10-29T08:53:42.230</time></trkpt><trkpt lat="55.7741116" lon="49.1131602"><time>2022-10-29T08:53:43.233</time></trkpt><trkpt lat="55.7740851" lon="49.1130616"><time>2022-10-29T08:53:44.230</time></trkpt><trkpt lat="55.7740593" lon="49.1129595"><time>2022-10-29T08:53:45.243</time></trkpt><trkpt lat="55.7740329" lon="49.1128539"><time>2022-10-29T08:53:46.233</time></trkpt><trkpt lat="55.7740056" lon="49.1127444"><time>2022-10-29T08:53:47.220</time></trkpt><trkpt lat="55.7739763" lon="49.1126334"><time>2022-10-29T08:53:48.227</time></trkpt><trkpt lat="55.7739449" lon="49.1125251"><time>2022-10-29T08:53:49.230</time></trkpt><trkpt lat="55.7739165" lon="49.1124168"><time>2022-10-29T08:53:50.230</time></trkpt><trkpt lat="55.7738894" lon="49.1123096"><time>2022-10-29T08:53:51.223</time></trkpt><trkpt lat="55.7738631" lon="49.1122055"><time>2022-10-29T08:53:52.227</time></trkpt><trkpt lat="55.7738363" lon="49.1121042"><time>2022-10-29T08:53:53.223</time></trkpt><trkpt lat="55.7738112" lon="49.1120002"><time>2022-10-29T08:53:54.237</time></trkpt><trkpt lat="55.7737845" lon="49.1118925"><time>2022-10-29T08:53:55.237</time></trkpt><trkpt lat="55.7737567" lon="49.1117854"><time>2022-10-29T08:53:56.213</time></trkpt><trkpt lat="55.7737275" lon="49.1116781"><time>2022-10-29T08:53:57.227</time></trkpt><trkpt lat="55.7736990" lon="49.1115681"><time>2022-10-29T08:53:58.223</time></trkpt><trkpt lat="55.7736696" lon="49.1114598"><time>2022-10-29T08:53:59.233</time></trkpt><trkpt lat="55.7736403" lon="49.1113570"><time>2022-10-29T08:54:00.233</time></trkpt><trkpt lat="55.7736161" lon="49.1112630"><time>2022-10-29T08:54:01.237</time></trkpt><trkpt lat="55.7735864" lon="49.1111696"><time>2022-10-29T08:54:03.233</time></trkpt><trkpt lat="55.7735499" lon="49.1111014"><time>2022-10-29T08:54:11.230</time></trkpt><trkpt lat="55.7735179" lon="49.1110234"><time>2022-10-29T08:54:13.217</time></trkpt><trkpt lat="55.7734910" lon="49.1109003"><time>2022-10-29T08:54:15.223</time></trkpt><trkpt lat="55.7734903" lon="49.1108038"><time>2022-10-29T08:54:17.223</time></trkpt><trkpt lat="55.7734912" lon="49.1107217"><time>2022-10-29T08:54:21.227</time></trkpt><trkpt lat="55.7734948" lon="49.1106416"><time>2022-10-29T08:54:23.233</time></trkpt><trkpt lat="55.7734857" lon="49.1105131"><time>2022-10-29T08:54:25.227</time></trkpt><trkpt lat="55.7734817" lon="49.1103678"><time>2022-10-29T08:54:27.227</time></trkpt><trkpt lat="55.7734995" lon="49.1102816"><time>2022-10-29T08:54:28.210</time></trkpt><trkpt lat="55.7735286" lon="49.1101891"><time>2022-10-29T08:54:29.230</time></trkpt><trkpt lat="55.7735613" lon="49.1100959"><time>2022-10-29T08:54:30.233</time></trkpt><trkpt lat="55.7735926" lon="49.1100024"><time>2022-10-29T08:54:31.237</time></trkpt><trkpt lat="55.7736216" lon="49.1099106"><time>2022-10-29T08:54:32.240</time></trkpt><trkpt lat="55.7736520" lon="49.1098218"><time>2022-10-29T08:54:33.227</time></trkpt><trkpt lat="55.7736838" lon="49.1097305"><time>2022-10-29T08:54:34.273</time></trkpt><trkpt lat="55.7737204" lon="49.1096395"><time>2022-10-29T08:54:35.233</time></trkpt><trkpt lat="55.7737530" lon="49.1095463"><time>2022-10-29T08:54:36.253</time></trkpt><trkpt lat="55.7737837" lon="49.1094465"><time>2022-10-29T08:54:37.263</time></trkpt><trkpt lat="55.7738004" lon="49.1093449"><time>2022-10-29T08:54:38.237</time></trkpt><trkpt lat="55.7738078" lon="49.1092357"><time>2022-10-29T08:54:39.233</time></trkpt><trkpt lat="55.7738097" lon="49.1091129"><time>2022-10-29T08:54:40.237</time></trkpt><trkpt lat="55.7738117" lon="49.1089893"><time>2022-10-29T08:54:41.233</time></trkpt><trkpt lat="55.7738189" lon="49.1088748"><time>2022-10-29T08:54:42.250</time></trkpt><trkpt lat="55.7738335" lon="49.1087641"><time>2022-10-29T08:54:43.250</time></trkpt><trkpt lat="55.7738559" lon="49.1086655"><time>2022-10-29T08:54:44.233</time></trkpt><trkpt lat="55.7738758" lon="49.1085681"><time>2022-10-29T08:54:45.227</time></trkpt><trkpt lat="55.7738870" lon="49.1084750"><time>2022-10-29T08:54:46.237</time></trkpt><trkpt lat="55.7739130" lon="49.1083356"><time>2022-10-29T08:54:48.230</time></trkpt><trkpt lat="55.7739393" lon="49.1082109"><time>2022-10-29T08:54:50.223</time></trkpt><trkpt lat="55.7739911" lon="49.1081445"><time>2022-10-29T08:54:52.247</time></trkpt><trkpt lat="55.7740688" lon="49.1081550"><time>2022-10-29T08:54:54.243</time></trkpt><trkpt lat="55.7741571" lon="49.1081561"><time>2022-10-29T08:54:56.277</time></trkpt><trkpt lat="55.7742083" lon="49.1081471"><time>2022-10-29T08:54:57.240</time></trkpt><trkpt lat="55.7742558" lon="49.1081225"><time>2022-10-29T08:54:58.240</time></trkpt><trkpt lat="55.7743011" lon="49.1080898"><time>2022-10-29T08:54:59.247</time></trkpt><trkpt lat="55.7743465" lon="49.1080520"><time>2022-10-29T08:55:00.233</time></trkpt><trkpt lat="55.7743920" lon="49.1080112"><time>2022-10-29T08:55:01.237</time></trkpt><trkpt lat="55.7744396" lon="49.1079704"><time>2022-10-29T08:55:02.237</time></trkpt><trkpt lat="55.7744869" lon="49.1079278"><time>2022-10-29T08:55:03.240</time></trkpt><trkpt lat="55.7745353" lon="49.1078842"><time>2022-10-29T08:55:04.280</time></trkpt><trkpt lat="55.7745862" lon="49.1078419"><time>2022-10-29T08:55:05.253</time></trkpt><trkpt lat="55.7746398" lon="49.1078052"><time>2022-10-29T08:55:06.233</time></trkpt><trkpt lat="55.7746939" lon="49.1077736"><time>2022-10-29T08:55:07.230</time></trkpt><trkpt lat="55.7747480" lon="49.1077383"><time>2022-10-29T08:55:08.230</time></trkpt><trkpt lat="55.7748021" lon="49.1076975"><time>2022-10-29T08:55:09.253</time></trkpt><trkpt lat="55.7748021" lon="49.1076975"><time>2022-10-29T08:55:09.277</time></trkpt><trkpt lat="55.7748542" lon="49.1076520"><time>2022-10-29T08:55:10.277</time></trkpt><trkpt lat="55.7748961" lon="49.1075992"><time>2022-10-29T08:55:11.237</time></trkpt><trkpt lat="55.7749203" lon="49.1075309"><time>2022-10-29T08:55:19.237</time></trkpt><trkpt lat="55.7749449" lon="49.1074401"><time>2022-10-29T08:55:22.237</time></trkpt><trkpt lat="55.7749597" lon="49.1073278"><time>2022-10-29T08:55:30.217</time></trkpt><trkpt lat="55.7749864" lon="49.1072018"><time>2022-10-29T08:55:32.243</time></trkpt><trkpt lat="55.7750104" lon="49.1071200"><time>2022-10-29T08:55:33.230</time></trkpt><trkpt lat="55.7750443" lon="49.1070300"><time>2022-10-29T08:55:34.233</time></trkpt><trkpt lat="55.7750784" lon="49.1069323"><time>2022-10-29T08:55:35.233</time></trkpt><trkpt lat="55.7750994" lon="49.1068314"><time>2022-10-29T08:55:36.230</time></trkpt><trkpt lat="55.7751097" lon="49.1067275"><time>2022-10-29T08:55:37.237</time></trkpt><trkpt lat="55.7751154" lon="49.1066240"><time>2022-10-29T08:55:38.233</time></trkpt><trkpt lat="55.7751247" lon="49.1065234"><time>2022-10-29T08:55:39.237</time></trkpt><trkpt lat="55.7751421" lon="49.1064335"><time>2022-10-29T08:55:40.233</time></trkpt><trkpt lat="55.7751626" lon="49.1063457"><time>2022-10-29T08:55:41.237</time></trkpt><trkpt lat="55.7751776" lon="49.1062509"><time>2022-10-29T08:55:42.253</time></trkpt><trkpt lat="55.7751805" lon="49.1061468"><time>2022-10-29T08:55:43.243</time></trkpt><trkpt lat="55.7751739" lon="49.1060446"><time>2022-10-29T08:55:44.243</time></trkpt><trkpt lat="55.7751635" lon="49.1059504"><time>2022-10-29T08:55:45.237</time></trkpt><trkpt lat="55.7751497" lon="49.1058612"><time>2022-10-29T08:55:46.243</time></trkpt><trkpt lat="55.7751235" lon="49.1057940"><time>2022-10-29T08:55:47.237</time></trkpt><trkpt lat="55.7750818" lon="49.1057529"><time>2022-10-29T08:55:48.253</time></trkpt><trkpt lat="55.7750298" lon="49.1057172"><time>2022-10-29T08:55:49.227</time></trkpt><trkpt lat="55.7749814" lon="49.1056759"><time>2022-10-29T08:55:50.240</time></trkpt><trkpt lat="55.7749308" lon="49.1056282"><time>2022-10-29T08:55:51.233</time></trkpt><trkpt lat="55.7748802" lon="49.1055706"><time>2022-10-29T08:55:52.237</time></trkpt><trkpt lat="55.7748291" lon="49.1055088"><time>2022-10-29T08:55:53.233</time></trkpt><trkpt lat="55.7747790" lon="49.1054468"><time>2022-10-29T08:55:54.237</time></trkpt><trkpt lat="55.7747308" lon="49.1053866"><time>2022-10-29T08:55:55.233</time></trkpt><trkpt lat="55.7746826" lon="49.1053313"><time>2022-10-29T08:55:56.233</time></trkpt><trkpt lat="55.7746355" lon="49.1052827"><time>2022-10-29T08:55:57.247</time></trkpt><trkpt lat="55.7745934" lon="49.1052186"><time>2022-10-29T08:55:58.230</time></trkpt><trkpt lat="55.7745557" lon="49.1051463"><time>2022-10-29T08:55:59.243</time></trkpt><trkpt lat="55.7745180" lon="49.1050805"><time>2022-10-29T08:56:00.230</time></trkpt><trkpt lat="55.7744780" lon="49.1050209"><time>2022-10-29T08:56:01.237</time></trkpt><trkpt lat="55.7744363" lon="49.1049594"><time>2022-10-29T08:56:02.237</time></trkpt><trkpt lat="55.7743957" lon="49.1048917"><time>2022-10-29T08:56:03.240</time></trkpt><trkpt lat="55.7743568" lon="49.1048226"><time>2022-10-29T08:56:04.230</time></trkpt><trkpt lat="55.7743159" lon="49.1047562"><time>2022-10-29T08:56:05.237</time></trkpt><trkpt lat="55.7742719" lon="49.1046906"><time>2022-10-29T08:56:06.243</time></trkpt><trkpt lat="55.7742255" lon="49.1046287"><time>2022-10-29T08:56:07.240</time></trkpt><trkpt lat="55.7741772" lon="49.1045759"><time>2022-10-29T08:56:08.230</time></trkpt><trkpt lat="55.7741306" lon="49.1045166"><time>2022-10-29T08:56:09.253</time></trkpt><trkpt lat="55.7740819" lon="49.1044626"><time>2022-10-29T08:56:10.237</time></trkpt><trkpt lat="55.7740361" lon="49.1044092"><time>2022-10-29T08:56:11.240</time></trkpt><trkpt lat="55.7739967" lon="49.1043534"><time>2022-10-29T08:56:12.247</time></trkpt><trkpt lat="55.7739542" lon="49.1042978"><time>2022-10-29T08:56:13.237</time></trkpt><trkpt lat="55.7739113" lon="49.1042417"><time>2022-10-29T08:56:14.230</time></trkpt><trkpt lat="55.7738773" lon="49.1041846"><time>2022-10-29T08:56:15.237</time></trkpt><trkpt lat="55.7738183" lon="49.1040875"><time>2022-10-29T08:56:17.237</time></trkpt><trkpt lat="55.7737688" lon="49.1040126"><time>2022-10-29T08:56:19.233</time></trkpt><trkpt lat="55.7737201" lon="49.1039433"><time>2022-10-29T08:56:22.243</time></trkpt><trkpt lat="55.7736631" lon="49.1038854"><time>2022-10-29T08:56:24.237</time></trkpt><trkpt lat="55.7736049" lon="49.1038140"><time>2022-10-29T08:56:26.233</time></trkpt><trkpt lat="55.7735530" lon="49.1037423"><time>2022-10-29T08:56:28.237</time></trkpt><trkpt lat="55.7734921" lon="49.1036626"><time>2022-10-29T08:56:30.233</time></trkpt><trkpt lat="55.7734215" lon="49.1035660"><time>2022-10-29T08:56:32.240</time></trkpt><trkpt lat="55.7733848" lon="49.1035095"><time>2022-10-29T08:56:33.243</time></trkpt><trkpt lat="55.7733476" lon="49.1034532"><time>2022-10-29T08:56:34.240</time></trkpt><trkpt lat="55.7733049" lon="49.1034039"><time>2022-10-29T08:56:35.233</time></trkpt><trkpt lat="55.7732569" lon="49.1033585"><time>2022-10-29T08:56:36.233</time></trkpt><trkpt lat="55.7732156" lon="49.1033072"><time>2022-10-29T08:56:37.247</time></trkpt><trkpt lat="55.7731770" lon="49.1032571"><time>2022-10-29T08:56:38.250</time></trkpt><trkpt lat="55.7731369" lon="49.1032098"><time>2022-10-29T08:56:39.237</time></trkpt><trkpt lat="55.7730935" lon="49.1031578"><time>2022-10-29T08:56:40.243</time></trkpt><trkpt lat="55.7730451" lon="49.1031017"><time>2022-10-29T08:56:41.230</time></trkpt><trkpt lat="55.7730012" lon="49.1030447"><time>2022-10-29T08:56:42.243</time></trkpt><trkpt lat="55.7729603" lon="49.1029869"><time>2022-10-29T08:56:43.243</time></trkpt><trkpt lat="55.7729187" lon="49.1029262"><time>2022-10-29T08:56:44.230</time></trkpt><trkpt lat="55.7728747" lon="49.1028708"><time>2022-10-29T08:56:45.233</time></trkpt><trkpt lat="55.7728257" lon="49.1028345"><time>2022-10-29T08:56:46.237</time></trkpt><trkpt lat="55.7727705" lon="49.1028107"><time>2022-10-29T08:56:47.240</time></trkpt><trkpt lat="55.7727202" lon="49.1028058"><time>2022-10-29T08:56:48.237</time></trkpt><trkpt lat="55.7726751" lon="49.1028189"><time>2022-10-29T08:56:49.237</time></trkpt><trkpt lat="55.7726316" lon="49.1028422"><time>2022-10-29T08:56:50.230</time></trkpt><trkpt lat="55.7725857" lon="49.1028662"><time>2022-10-29T08:56:51.233</time></trkpt><trkpt lat="55.7725378" lon="49.1028728"><time>2022-10-29T08:56:52.237</time></trkpt><trkpt lat="55.7724849" lon="49.1028725"><time>2022-10-29T08:56:53.230</time></trkpt><trkpt lat="55.7724341" lon="49.1028777"><time>2022-10-29T08:56:54.230</time></trkpt><trkpt lat="55.7723841" lon="49.1028888"><time>2022-10-29T08:56:55.233</time></trkpt><trkpt lat="55.7723357" lon="49.1029005"><time>2022-10-29T08:56:56.227</time></trkpt><trkpt lat="55.7722524" lon="49.1029368"><time>2022-10-29T08:56:58.230</time></trkpt><trkpt lat="55.7721694" lon="49.1029686"><time>2022-10-29T08:57:00.237</time></trkpt><trkpt lat="55.7720797" lon="49.1029920"><time>2022-10-29T08:57:02.247</time></trkpt><trkpt lat="55.7720111" lon="49.1030034"><time>2022-10-29T08:57:04.237</time></trkpt><trkpt lat="55.7719633" lon="49.1029916"><time>2022-10-29T08:57:52.240</time></trkpt><trkpt lat="55.7718990" lon="49.1030147"><time>2022-10-29T08:57:54.233</time></trkpt><trkpt lat="55.7718066" lon="49.1030497"><time>2022-10-29T08:57:56.240</time></trkpt><trkpt lat="55.7717534" lon="49.1030686"><time>2022-10-29T08:57:57.227</time></trkpt><trkpt lat="55.7717035" lon="49.1030754"><time>2022-10-29T08:57:58.240</time></trkpt><trkpt lat="55.7716576" lon="49.1030884"><time>2022-10-29T08:57:59.237</time></trkpt><trkpt lat="55.7716089" lon="49.1031078"><time>2022-10-29T08:58:00.220</time></trkpt><trkpt lat="55.7715567" lon="49.1031231"><time>2022-10-29T08:58:01.237</time></trkpt><trkpt lat="55.7715055" lon="49.1031282"><time>2022-10-29T08:58:02.240</time></trkpt><trkpt lat="55.7714540" lon="49.1031438"><time>2022-10-29T08:58:03.240</time></trkpt><trkpt lat="55.7714012" lon="49.1031655"><time>2022-10-29T08:58:04.243</time></trkpt><trkpt lat="55.7713466" lon="49.1031855"><time>2022-10-29T08:58:05.243</time></trkpt><trkpt lat="55.7712911" lon="49.1032050"><time>2022-10-29T08:58:06.243</time></trkpt><trkpt lat="55.7712371" lon="49.1032345"><time>2022-10-29T08:58:07.240</time></trkpt><trkpt lat="55.7711840" lon="49.1032658"><time>2022-10-29T08:58:08.237</time></trkpt><trkpt lat="55.7711297" lon="49.1032921"><time>2022-10-29T08:58:09.227</time></trkpt><trkpt lat="55.7710748" lon="49.1033146"><time>2022-10-29T08:58:10.230</time></trkpt><trkpt lat="55.7710295" lon="49.1033435"><time>2022-10-29T08:58:11.237</time></trkpt><trkpt lat="55.7709871" lon="49.1033711"><time>2022-10-29T08:58:12.270</time></trkpt><trkpt lat="55.7709444" lon="49.1033934"><time>2022-10-29T08:58:13.233</time></trkpt><trkpt lat="55.7708973" lon="49.1034168"><time>2022-10-29T08:58:14.233</time></trkpt><trkpt lat="55.7708447" lon="49.1034390"><time>2022-10-29T08:58:15.233</time></trkpt><trkpt lat="55.7707891" lon="49.1034562"><time>2022-10-29T08:58:16.237</time></trkpt><trkpt lat="55.7707302" lon="49.1034725"><time>2022-10-29T08:58:17.240</time></trkpt><trkpt lat="55.7706702" lon="49.1034946"><time>2022-10-29T08:58:18.240</time></trkpt><trkpt lat="55.7706101" lon="49.1035167"><time>2022-10-29T08:58:19.237</time></trkpt><trkpt lat="55.7705521" lon="49.1035401"><time>2022-10-29T08:58:20.240</time></trkpt><trkpt lat="55.7704959" lon="49.1035656"><time>2022-10-29T08:58:21.237</time></trkpt><trkpt lat="55.7704365" lon="49.1035857"><time>2022-10-29T08:58:22.230</time></trkpt><trkpt lat="55.7703779" lon="49.1036055"><time>2022-10-29T08:58:23.237</time></trkpt><trkpt lat="55.7703214" lon="49.1036271"><time>2022-10-29T08:58:24.240</time></trkpt><trkpt lat="55.7702649" lon="49.1036481"><time>2022-10-29T08:58:25.233</time></trkpt><trkpt lat="55.7702089" lon="49.1036705"><time>2022-10-29T08:58:26.220</time></trkpt><trkpt lat="55.7701555" lon="49.1036987"><time>2022-10-29T08:58:27.237</time></trkpt><trkpt lat="55.7701052" lon="49.1037229"><time>2022-10-29T08:58:28.230</time></trkpt><trkpt lat="55.7700551" lon="49.1037406"><time>2022-10-29T08:58:29.287</time></trkpt><trkpt lat="55.7700047" lon="49.1037490"><time>2022-10-29T08:58:30.250</time></trkpt><trkpt lat="55.7699535" lon="49.1037554"><time>2022-10-29T08:58:31.230</time></trkpt><trkpt lat="55.7699070" lon="49.1037705"><time>2022-10-29T08:58:32.237</time></trkpt><trkpt lat="55.7698330" lon="49.1038054"><time>2022-10-29T08:58:34.227</time></trkpt><trkpt lat="55.7697640" lon="49.1038526"><time>2022-10-29T08:58:36.230</time></trkpt><trkpt lat="55.7696939" lon="49.1038950"><time>2022-10-29T08:58:38.240</time></trkpt><trkpt lat="55.7696148" lon="49.1039311"><time>2022-10-29T08:58:40.237</time></trkpt><trkpt lat="55.7695708" lon="49.1039478"><time>2022-10-29T08:58:41.207</time></trkpt><trkpt lat="55.7694873" lon="49.1039729"><time>2022-10-29T08:58:43.237</time></trkpt><trkpt lat="55.7694281" lon="49.1039904"><time>2022-10-29T08:58:45.273</time></trkpt><trkpt lat="55.7694271" lon="49.1039899"><time>2022-10-29T08:58:46.243</time></trkpt><trkpt lat="55.7693754" lon="49.1040615"><time>2022-10-29T08:58:56.237</time></trkpt><trkpt lat="55.7693696" lon="49.1041699"><time>2022-10-29T08:58:59.227</time></trkpt><trkpt lat="55.7694509" lon="49.1042040"><time>2022-10-29T08:59:02.233</time></trkpt><trkpt lat="55.7695222" lon="49.1042473"><time>2022-10-29T08:59:04.233</time></trkpt><trkpt lat="55.7695676" lon="49.1043742"><time>2022-10-29T08:59:06.213</time></trkpt><trkpt lat="55.7695809" lon="49.1044519"><time>2022-10-29T08:59:07.223</time></trkpt><trkpt lat="55.7695946" lon="49.1045806"><time>2022-10-29T08:59:09.223</time></trkpt><trkpt lat="55.7695436" lon="49.1046186"><time>2022-10-29T08:59:12.243</time></trkpt><trkpt lat="55.7694821" lon="49.1046265"><time>2022-10-29T08:59:14.277</time></trkpt><trkpt lat="55.7694821" lon="49.1046265"><time>2022-10-29T08:59:14.300</time></trkpt><trkpt lat="55.7694596" lon="49.1047014"><time>2022-10-29T09:02:28.260</time></trkpt><trkpt lat="55.7694590" lon="49.1047106"><time>2022-10-29T09:02:29.237</time></trkpt><trkpt lat="55.7694085" lon="49.1047474"><time>2022-10-29T09:02:36.220</time></trkpt><trkpt lat="55.7693622" lon="49.1047596"><time>2022-10-29T09:02:39.237</time></trkpt><trkpt lat="55.7693071" lon="49.1047497"><time>2022-10-29T09:02:42.233</time></trkpt><trkpt lat="55.7692363" lon="49.1047773"><time>2022-10-29T09:02:44.230</time></trkpt><trkpt lat="55.7691459" lon="49.1047516"><time>2022-10-29T09:02:46.237</time></trkpt><trkpt lat="55.7691088" lon="49.1047029"><time>2022-10-29T09:02:47.233</time></trkpt><trkpt lat="55.7690803" lon="49.1045621"><time>2022-10-29T09:02:49.237</time></trkpt><trkpt lat="55.7690631" lon="49.1044096"><time>2022-10-29T09:02:51.223</time></trkpt><trkpt lat="55.7690519" lon="49.1043301"><time>2022-10-29T09:02:52.233</time></trkpt><trkpt lat="55.7690238" lon="49.1041924"><time>2022-10-29T09:02:54.237</time></trkpt><trkpt lat="55.7689543" lon="49.1041213"><time>2022-10-29T09:02:56.233</time></trkpt><trkpt lat="55.7688790" lon="49.1041560"><time>2022-10-29T09:02:58.233</time></trkpt><trkpt lat="55.7687972" lon="49.1042031"><time>2022-10-29T09:03:00.237</time></trkpt><trkpt lat="55.7687131" lon="49.1042258"><time>2022-10-29T09:03:02.230</time></trkpt><trkpt lat="55.7686280" lon="49.1042544"><time>2022-10-29T09:03:04.230</time></trkpt><trkpt lat="55.7685830" lon="49.1042706"><time>2022-10-29T09:03:05.237</time></trkpt><trkpt lat="55.7684970" lon="49.1043129"><time>2022-10-29T09:03:07.230</time></trkpt><trkpt lat="55.7684508" lon="49.1043306"><time>2022-10-29T09:03:08.230</time></trkpt><trkpt lat="55.7684044" lon="49.1043483"><time>2022-10-29T09:03:09.257</time></trkpt><trkpt lat="55.7683564" lon="49.1043656"><time>2022-10-29T09:03:10.230</time></trkpt><trkpt lat="55.7683089" lon="49.1043842"><time>2022-10-29T09:03:11.227</time></trkpt><trkpt lat="55.7682641" lon="49.1044021"><time>2022-10-29T09:03:12.233</time></trkpt><trkpt lat="55.7682000" lon="49.1044366"><time>2022-10-29T09:03:14.230</time></trkpt><trkpt lat="55.7681464" lon="49.1044182"><time>2022-10-29T09:03:27.230</time></trkpt><trkpt lat="55.7680894" lon="49.1044214"><time>2022-10-29T09:03:31.230</time></trkpt><trkpt lat="55.7680316" lon="49.1044488"><time>2022-10-29T09:03:34.230</time></trkpt><trkpt lat="55.7679864" lon="49.1045285"><time>2022-10-29T09:03:37.230</time></trkpt><trkpt lat="55.7679100" lon="49.1045292"><time>2022-10-29T09:03:39.230</time></trkpt><trkpt lat="55.7678545" lon="49.1045613"><time>2022-10-29T09:03:41.230</time></trkpt><trkpt lat="55.7678116" lon="49.1045999"><time>2022-10-29T09:03:43.207</time></trkpt><trkpt lat="55.7677433" lon="49.1046373"><time>2022-10-29T09:03:46.227</time></trkpt><trkpt lat="55.7676903" lon="49.1046545"><time>2022-10-29T09:03:48.213</time></trkpt><trkpt lat="55.7676399" lon="49.1046881"><time>2022-10-29T09:03:50.223</time></trkpt><trkpt lat="55.7675808" lon="49.1047228"><time>2022-10-29T09:03:51.217</time></trkpt><trkpt lat="55.7675178" lon="49.1047583"><time>2022-10-29T09:03:53.220</time></trkpt><trkpt lat="55.7674473" lon="49.1047909"><time>2022-10-29T09:03:55.237</time></trkpt><trkpt lat="55.7673911" lon="49.1048214"><time>2022-10-29T09:03:57.237</time></trkpt><trkpt lat="55.7673299" lon="49.1048429"><time>2022-10-29T09:03:59.227</time></trkpt><trkpt lat="55.7672667" lon="49.1048707"><time>2022-10-29T09:04:01.237</time></trkpt><trkpt lat="55.7671934" lon="49.1048916"><time>2022-10-29T09:04:03.223</time></trkpt><trkpt lat="55.7671158" lon="49.1049327"><time>2022-10-29T09:04:05.247</time></trkpt><trkpt lat="55.7670407" lon="49.1049765"><time>2022-10-29T09:04:07.227</time></trkpt><trkpt lat="55.7669559" lon="49.1050082"><time>2022-10-29T09:04:09.223</time></trkpt><trkpt lat="55.7668762" lon="49.1050563"><time>2022-10-29T09:04:11.230</time></trkpt><trkpt lat="55.7667950" lon="49.1051078"><time>2022-10-29T09:04:13.223</time></trkpt><trkpt lat="55.7667513" lon="49.1051320"><time>2022-10-29T09:04:14.243</time></trkpt><trkpt lat="55.7667059" lon="49.1051528"><time>2022-10-29T09:04:15.240</time></trkpt><trkpt lat="55.7666615" lon="49.1051691"><time>2022-10-29T09:04:16.240</time></trkpt><trkpt lat="55.7665838" lon="49.1052143"><time>2022-10-29T09:04:18.243</time></trkpt><trkpt lat="55.7665307" lon="49.1052656"><time>2022-10-29T09:04:20.240</time></trkpt><trkpt lat="55.7664728" lon="49.1053057"><time>2022-10-29T09:04:22.250</time></trkpt><trkpt lat="55.7664030" lon="49.1053697"><time>2022-10-29T09:04:24.243</time></trkpt><trkpt lat="55.7663295" lon="49.1054339"><time>2022-10-29T09:04:26.237</time></trkpt><trkpt lat="55.7662873" lon="49.1055275"><time>2022-10-29T09:04:28.230</time></trkpt><trkpt lat="55.7662952" lon="49.1056106"><time>2022-10-29T09:04:29.230</time></trkpt><trkpt lat="55.7663156" lon="49.1057003"><time>2022-10-29T09:04:30.243</time></trkpt><trkpt lat="55.7663365" lon="49.1057878"><time>2022-10-29T09:04:31.223</time></trkpt><trkpt lat="55.7663503" lon="49.1058761"><time>2022-10-29T09:04:32.233</time></trkpt><trkpt lat="55.7663680" lon="49.1059684"><time>2022-10-29T09:04:33.240</time></trkpt><trkpt lat="55.7663837" lon="49.1060721"><time>2022-10-29T09:04:34.247</time></trkpt><trkpt lat="55.7663984" lon="49.1061753"><time>2022-10-29T09:04:35.227</time></trkpt><trkpt lat="55.7664105" lon="49.1062832"><time>2022-10-29T09:04:36.240</time></trkpt><trkpt lat="55.7664248" lon="49.1063921"><time>2022-10-29T09:04:37.227</time></trkpt><trkpt lat="55.7664319" lon="49.1065054"><time>2022-10-29T09:04:38.240</time></trkpt><trkpt lat="55.7664464" lon="49.1066205"><time>2022-10-29T09:04:39.237</time></trkpt><trkpt lat="55.7664570" lon="49.1067351"><time>2022-10-29T09:04:40.233</time></trkpt><trkpt lat="55.7664683" lon="49.1068502"><time>2022-10-29T09:04:41.243</time></trkpt><trkpt lat="55.7664805" lon="49.1069626"><time>2022-10-29T09:04:42.240</time></trkpt><trkpt lat="55.7664934" lon="49.1070686"><time>2022-10-29T09:04:43.223</time></trkpt><trkpt lat="55.7665134" lon="49.1071885"><time>2022-10-29T09:04:45.237</time></trkpt><trkpt lat="55.7665561" lon="49.1072507"><time>2022-10-29T09:04:48.243</time></trkpt><trkpt lat="55.7665624" lon="49.1073655"><time>2022-10-29T09:04:51.247</time></trkpt><trkpt lat="55.7665995" lon="49.1074165"><time>2022-10-29T09:04:54.237</time></trkpt><trkpt lat="55.7666423" lon="49.1073881"><time>2022-10-29T09:04:56.233</time></trkpt><trkpt lat="55.7666857" lon="49.1073659"><time>2022-10-29T09:04:58.237</time></trkpt><trkpt lat="55.7667332" lon="49.1073222"><time>2022-10-29T09:05:09.237</time></trkpt><trkpt lat="55.7667773" lon="49.1073063"><time>2022-10-29T09:05:11.237</time></trkpt><trkpt lat="55.7667566" lon="49.1073986"><time>2022-10-29T09:05:16.230</time></trkpt><trkpt lat="55.7667643" lon="49.1074785"><time>2022-10-29T09:05:18.243</time></trkpt><trkpt lat="55.7667799" lon="49.1075586"><time>2022-10-29T09:05:20.227</time></trkpt><trkpt lat="55.7668015" lon="49.1076511"><time>2022-10-29T09:05:23.243</time></trkpt><trkpt lat="55.7668145" lon="49.1077612"><time>2022-10-29T09:05:26.250</time></trkpt><trkpt lat="55.7668327" lon="49.1078579"><time>2022-10-29T09:05:30.227</time></trkpt><trkpt lat="55.7668415" lon="49.1079860"><time>2022-10-29T09:05:33.213</time></trkpt><trkpt lat="55.7668403" lon="49.1081357"><time>2022-10-29T09:05:35.223</time></trkpt><trkpt lat="55.7668365" lon="49.1082237"><time>2022-10-29T09:05:36.240</time></trkpt><trkpt lat="55.7668341" lon="49.1083097"><time>2022-10-29T09:05:37.230</time></trkpt><trkpt lat="55.7668317" lon="49.1084054"><time>2022-10-29T09:05:39.230</time></trkpt><trkpt lat="55.7668343" lon="49.1085009"><time>2022-10-29T09:05:41.230</time></trkpt><trkpt lat="55.7668477" lon="49.1087235"><time>2022-10-29T09:05:42.233</time></trkpt><trkpt lat="55.7668711" lon="49.1087973"><time>2022-10-29T09:05:43.220</time></trkpt><trkpt lat="55.7668993" lon="49.1088811"><time>2022-10-29T09:05:44.233</time></trkpt><trkpt lat="55.7669260" lon="49.1089676"><time>2022-10-29T09:05:45.237</time></trkpt><trkpt lat="55.7669506" lon="49.1090574"><time>2022-10-29T09:05:46.240</time></trkpt><trkpt lat="55.7669744" lon="49.1091480"><time>2022-10-29T09:05:47.237</time></trkpt><trkpt lat="55.7669986" lon="49.1092387"><time>2022-10-29T09:05:48.233</time></trkpt><trkpt lat="55.7670229" lon="49.1093278"><time>2022-10-29T09:05:49.227</time></trkpt><trkpt lat="55.7670454" lon="49.1094123"><time>2022-10-29T09:05:50.240</time></trkpt><trkpt lat="55.7670688" lon="49.1094950"><time>2022-10-29T09:05:51.243</time></trkpt><trkpt lat="55.7670888" lon="49.1095740"><time>2022-10-29T09:05:52.233</time></trkpt><trkpt lat="55.7671078" lon="49.1096482"><time>2022-10-29T09:05:53.237</time></trkpt><trkpt lat="55.7671256" lon="49.1097226"><time>2022-10-29T09:05:54.237</time></trkpt><trkpt lat="55.7671453" lon="49.1097970"><time>2022-10-29T09:05:55.237</time></trkpt><trkpt lat="55.7671676" lon="49.1098756"><time>2022-10-29T09:05:56.243</time></trkpt><trkpt lat="55.7671858" lon="49.1099509"><time>2022-10-29T09:05:57.240</time></trkpt><trkpt lat="55.7672159" lon="49.1100820"><time>2022-10-29T09:05:59.230</time></trkpt><trkpt lat="55.7672490" lon="49.1102158"><time>2022-10-29T09:06:01.227</time></trkpt><trkpt lat="55.7672496" lon="49.1103409"><time>2022-10-29T09:06:03.227</time></trkpt><trkpt lat="55.7671783" lon="49.1103999"><time>2022-10-29T09:06:05.247</time></trkpt><trkpt lat="55.7671080" lon="49.1103772"><time>2022-10-29T09:06:07.220</time></trkpt><trkpt lat="55.7670386" lon="49.1103863"><time>2022-10-29T09:06:24.247</time></trkpt><trkpt lat="55.7669733" lon="49.1103911"><time>2022-10-29T09:06:26.230</time></trkpt><trkpt lat="55.7669035" lon="49.1103977"><time>2022-10-29T09:06:28.237</time></trkpt><trkpt lat="55.7668291" lon="49.1104028"><time>2022-10-29T09:06:30.230</time></trkpt><trkpt lat="55.7667471" lon="49.1104118"><time>2022-10-29T09:06:32.240</time></trkpt><trkpt lat="55.7666611" lon="49.1104243"><time>2022-10-29T09:06:34.233</time></trkpt><trkpt lat="55.7665924" lon="49.1104451"><time>2022-10-29T09:06:36.243</time></trkpt><trkpt lat="55.7665209" lon="49.1104787"><time>2022-10-29T09:06:38.237</time></trkpt><trkpt lat="55.7664419" lon="49.1105177"><time>2022-10-29T09:06:40.233</time></trkpt><trkpt lat="55.7663962" lon="49.1105285"><time>2022-10-29T09:06:41.237</time></trkpt><trkpt lat="55.7663475" lon="49.1105304"><time>2022-10-29T09:06:42.250</time></trkpt><trkpt lat="55.7663005" lon="49.1105239"><time>2022-10-29T09:06:43.243</time></trkpt><trkpt lat="55.7662553" lon="49.1105205"><time>2022-10-29T09:06:44.253</time></trkpt><trkpt lat="55.7661644" lon="49.1105390"><time>2022-10-29T09:06:46.223</time></trkpt><trkpt lat="55.7661158" lon="49.1105498"><time>2022-10-29T09:06:47.240</time></trkpt><trkpt lat="55.7660660" lon="49.1105521"><time>2022-10-29T09:06:48.233</time></trkpt><trkpt lat="55.7660169" lon="49.1105504"><time>2022-10-29T09:06:49.233</time></trkpt><trkpt lat="55.7659712" lon="49.1105541"><time>2022-10-29T09:06:50.227</time></trkpt><trkpt lat="55.7659261" lon="49.1105629"><time>2022-10-29T09:06:51.243</time></trkpt><trkpt lat="55.7658802" lon="49.1105780"><time>2022-10-29T09:06:52.237</time></trkpt><trkpt lat="55.7658338" lon="49.1105936"><time>2022-10-29T09:06:53.240</time></trkpt><trkpt lat="55.7657862" lon="49.1106081"><time>2022-10-29T09:06:54.250</time></trkpt><trkpt lat="55.7657396" lon="49.1106185"><time>2022-10-29T09:06:55.243</time></trkpt><trkpt lat="55.7656911" lon="49.1106306"><time>2022-10-29T09:06:56.243</time></trkpt><trkpt lat="55.7656401" lon="49.1106433"><time>2022-10-29T09:06:57.240</time></trkpt><trkpt lat="55.7655896" lon="49.1106554"><time>2022-10-29T09:06:58.237</time></trkpt><trkpt lat="55.7655369" lon="49.1106637"><time>2022-10-29T09:06:59.237</time></trkpt><trkpt lat="55.7654842" lon="49.1106731"><time>2022-10-29T09:07:00.270</time></trkpt><trkpt lat="55.7654319" lon="49.1106814"><time>2022-10-29T09:07:01.253</time></trkpt><trkpt lat="55.7653813" lon="49.1106869"><time>2022-10-29T09:07:02.237</time></trkpt><trkpt lat="55.7653336" lon="49.1106972"><time>2022-10-29T09:07:03.247</time></trkpt><trkpt lat="55.7652850" lon="49.1107090"><time>2022-10-29T09:07:04.237</time></trkpt><trkpt lat="55.7652325" lon="49.1107183"><time>2022-10-29T09:07:05.247</time></trkpt><trkpt lat="55.7651827" lon="49.1107275"><time>2022-10-29T09:07:06.237</time></trkpt><trkpt lat="55.7651380" lon="49.1107357"><time>2022-10-29T09:07:07.257</time></trkpt><trkpt lat="55.7650491" lon="49.1107498"><time>2022-10-29T09:07:09.237</time></trkpt><trkpt lat="55.7649638" lon="49.1107758"><time>2022-10-29T09:07:11.250</time></trkpt><trkpt lat="55.7648797" lon="49.1108226"><time>2022-10-29T09:07:13.253</time></trkpt><trkpt lat="55.7648422" lon="49.1108677"><time>2022-10-29T09:07:14.240</time></trkpt><trkpt lat="55.7648151" lon="49.1109367"><time>2022-10-29T09:07:15.233</time></trkpt><trkpt lat="55.7647962" lon="49.1110209"><time>2022-10-29T09:07:16.253</time></trkpt><trkpt lat="55.7647932" lon="49.1111143"><time>2022-10-29T09:07:17.250</time></trkpt><trkpt lat="55.7648029" lon="49.1112083"><time>2022-10-29T09:07:18.240</time></trkpt><trkpt lat="55.7648169" lon="49.1112893"><time>2022-10-29T09:07:19.243</time></trkpt><trkpt lat="55.7648401" lon="49.1114225"><time>2022-10-29T09:07:21.240</time></trkpt><trkpt lat="55.7648539" lon="49.1115774"><time>2022-10-29T09:07:23.257</time></trkpt><trkpt lat="55.7648593" lon="49.1116642"><time>2022-10-29T09:07:24.250</time></trkpt><trkpt lat="55.7648677" lon="49.1117596"><time>2022-10-29T09:07:25.230</time></trkpt><trkpt lat="55.7648742" lon="49.1118647"><time>2022-10-29T09:07:26.293</time></trkpt><trkpt lat="55.7648814" lon="49.1119734"><time>2022-10-29T09:07:27.263</time></trkpt><trkpt lat="55.7648873" lon="49.1120849"><time>2022-10-29T09:07:28.257</time></trkpt><trkpt lat="55.7648876" lon="49.1121957"><time>2022-10-29T09:07:29.250</time></trkpt><trkpt lat="55.7648870" lon="49.1123124"><time>2022-10-29T09:07:30.247</time></trkpt><trkpt lat="55.7648840" lon="49.1124363"><time>2022-10-29T09:07:31.233</time></trkpt><trkpt lat="55.7648778" lon="49.1125573"><time>2022-10-29T09:07:32.253</time></trkpt><trkpt lat="55.7648597" lon="49.1126683"><time>2022-10-29T09:07:33.237</time></trkpt><trkpt lat="55.7648230" lon="49.1127597"><time>2022-10-29T09:07:34.243</time></trkpt><trkpt lat="55.7647717" lon="49.1128260"><time>2022-10-29T09:07:35.237</time></trkpt><trkpt lat="55.7647089" lon="49.1128713"><time>2022-10-29T09:07:36.240</time></trkpt><trkpt lat="55.7646399" lon="49.1128960"><time>2022-10-29T09:07:37.277</time></trkpt><trkpt lat="55.7645729" lon="49.1129021"><time>2022-10-29T09:07:38.243</time></trkpt><trkpt lat="55.7645183" lon="49.1129087"><time>2022-10-29T09:07:39.247</time></trkpt><trkpt lat="55.7644723" lon="49.1129137"><time>2022-10-29T09:07:41.233</time></trkpt><trkpt lat="55.7644373" lon="49.1129726"><time>2022-10-29T09:07:59.240</time></trkpt><trkpt lat="55.7644041" lon="49.1131015"><time>2022-10-29T09:08:01.253</time></trkpt><trkpt lat="55.7643954" lon="49.1131869"><time>2022-10-29T09:08:02.230</time></trkpt><trkpt lat="55.7643953" lon="49.1132798"><time>2022-10-29T09:08:03.240</time></trkpt><trkpt lat="55.7644057" lon="49.1133693"><time>2022-10-29T09:08:04.230</time></trkpt><trkpt lat="55.7644272" lon="49.1134623"><time>2022-10-29T09:08:05.250</time></trkpt><trkpt lat="55.7644552" lon="49.1135549"><time>2022-10-29T09:08:06.253</time></trkpt><trkpt lat="55.7644806" lon="49.1136458"><time>2022-10-29T09:08:07.283</time></trkpt><trkpt lat="55.7645065" lon="49.1137392"><time>2022-10-29T09:08:08.250</time></trkpt><trkpt lat="55.7645305" lon="49.1138318"><time>2022-10-29T09:08:09.257</time></trkpt><trkpt lat="55.7645493" lon="49.1139285"><time>2022-10-29T09:08:10.257</time></trkpt><trkpt lat="55.7645640" lon="49.1140175"><time>2022-10-29T09:08:11.257</time></trkpt><trkpt lat="55.7645630" lon="49.1141524"><time>2022-10-29T09:08:13.257</time></trkpt><trkpt lat="55.7645085" lon="49.1142286"><time>2022-10-29T09:08:15.250</time></trkpt><trkpt lat="55.7644247" lon="49.1142198"><time>2022-10-29T09:08:17.247</time></trkpt><trkpt lat="55.7643781" lon="49.1142176"><time>2022-10-29T09:08:18.263</time></trkpt><trkpt lat="55.7643304" lon="49.1142319"><time>2022-10-29T09:08:19.247</time></trkpt><trkpt lat="55.7642792" lon="49.1142587"><time>2022-10-29T09:08:20.247</time></trkpt><trkpt lat="55.7642222" lon="49.1142734"><time>2022-10-29T09:08:21.250</time></trkpt><trkpt lat="55.7641691" lon="49.1142763"><time>2022-10-29T09:08:22.240</time></trkpt><trkpt lat="55.7641201" lon="49.1142770"><time>2022-10-29T09:08:23.253</time></trkpt><trkpt lat="55.7640741" lon="49.1142822"><time>2022-10-29T09:08:24.247</time></trkpt><trkpt lat="55.7639867" lon="49.1142976"><time>2022-10-29T09:08:26.250</time></trkpt><trkpt lat="55.7639149" lon="49.1143128"><time>2022-10-29T09:08:28.230</time></trkpt><trkpt lat="55.7638531" lon="49.1143129"><time>2022-10-29T09:09:13.257</time></trkpt><trkpt lat="55.7637937" lon="49.1143085"><time>2022-10-29T09:09:15.267</time></trkpt><trkpt lat="55.7637498" lon="49.1143118"><time>2022-10-29T09:09:16.260</time></trkpt><trkpt lat="55.7636675" lon="49.1143346"><time>2022-10-29T09:09:18.253</time></trkpt><trkpt lat="55.7636081" lon="49.1143406"><time>2022-10-29T09:09:20.253</time></trkpt><trkpt lat="55.7635665" lon="49.1143731"><time>2022-10-29T09:09:23.233</time></trkpt><trkpt lat="55.7636301" lon="49.1143209"><time>2022-10-29T09:09:46.250</time></trkpt><trkpt lat="55.7637132" lon="49.1143006"><time>2022-10-29T09:09:48.243</time></trkpt><trkpt lat="55.7637605" lon="49.1142948"><time>2022-10-29T09:09:49.237</time></trkpt><trkpt lat="55.7638076" lon="49.1142942"><time>2022-10-29T09:09:50.280</time></trkpt><trkpt lat="55.7638475" lon="49.1142972"><time>2022-10-29T09:09:51.257</time></trkpt><trkpt lat="55.7639185" lon="49.1142985"><time>2022-10-29T09:09:53.240</time></trkpt><trkpt lat="55.7639932" lon="49.1142858"><time>2022-10-29T09:09:55.240</time></trkpt><trkpt lat="55.7640623" lon="49.1142670"><time>2022-10-29T09:09:57.257</time></trkpt><trkpt lat="55.7641200" lon="49.1142443"><time>2022-10-29T09:09:59.237</time></trkpt><trkpt lat="55.7641857" lon="49.1142329"><time>2022-10-29T09:10:01.250</time></trkpt><trkpt lat="55.7642685" lon="49.1142108"><time>2022-10-29T09:10:03.263</time></trkpt><trkpt lat="55.7643494" lon="49.1141936"><time>2022-10-29T09:10:05.253</time></trkpt><trkpt lat="55.7644297" lon="49.1141908"><time>2022-10-29T09:10:07.257</time></trkpt><trkpt lat="55.7645114" lon="49.1141749"><time>2022-10-29T09:10:09.217</time></trkpt><trkpt lat="55.7645601" lon="49.1140861"><time>2022-10-29T09:10:11.257</time></trkpt><trkpt lat="55.7645260" lon="49.1139297"><time>2022-10-29T09:10:13.250</time></trkpt><trkpt lat="55.7644934" lon="49.1138361"><time>2022-10-29T09:10:14.253</time></trkpt><trkpt lat="55.7644700" lon="49.1137482"><time>2022-10-29T09:10:15.267</time></trkpt><trkpt lat="55.7644481" lon="49.1136571"><time>2022-10-29T09:10:16.257</time></trkpt><trkpt lat="55.7644267" lon="49.1135619"><time>2022-10-29T09:10:17.297</time></trkpt><trkpt lat="55.7644033" lon="49.1134601"><time>2022-10-29T09:10:18.257</time></trkpt><trkpt lat="55.7643826" lon="49.1133561"><time>2022-10-29T09:10:19.250</time></trkpt><trkpt lat="55.7643600" lon="49.1132550"><time>2022-10-29T09:10:20.260</time></trkpt><trkpt lat="55.7643368" lon="49.1131597"><time>2022-10-29T09:10:21.250</time></trkpt><trkpt lat="55.7643093" lon="49.1130711"><time>2022-10-29T09:10:22.277</time></trkpt><trkpt lat="55.7643093" lon="49.1130711"><time>2022-10-29T09:10:22.307</time></trkpt><trkpt lat="55.7642837" lon="49.1129971"><time>2022-10-29T09:10:23.297</time></trkpt><trkpt lat="55.7642690" lon="49.1129415"><time>2022-10-29T09:10:24.227</time></trkpt><trkpt lat="55.7643138" lon="49.1128951"><time>2022-10-29T09:10:27.250</time></trkpt><trkpt lat="55.7643330" lon="49.1129739"><time>2022-10-29T09:10:45.257</time></trkpt><trkpt lat="55.7643716" lon="49.1131037"><time>2022-10-29T09:10:47.243</time></trkpt><trkpt lat="55.7643911" lon="49.1131930"><time>2022-10-29T09:10:48.240</time></trkpt><trkpt lat="55.7644123" lon="49.1132981"><time>2022-10-29T09:10:49.243</time></trkpt><trkpt lat="55.7644353" lon="49.1134117"><time>2022-10-29T09:10:50.233</time></trkpt><trkpt lat="55.7644599" lon="49.1135230"><time>2022-10-29T09:10:51.247</time></trkpt><trkpt lat="55.7644836" lon="49.1136286"><time>2022-10-29T09:10:52.243</time></trkpt><trkpt lat="55.7645048" lon="49.1137305"><time>2022-10-29T09:10:53.240</time></trkpt><trkpt lat="55.7645272" lon="49.1138334"><time>2022-10-29T09:10:54.247</time></trkpt><trkpt lat="55.7645509" lon="49.1139384"><time>2022-10-29T09:10:55.247</time></trkpt><trkpt lat="55.7645741" lon="49.1140447"><time>2022-10-29T09:10:56.227</time></trkpt><trkpt lat="55.7645977" lon="49.1141515"><time>2022-10-29T09:10:57.260</time></trkpt><trkpt lat="55.7646211" lon="49.1142592"><time>2022-10-29T09:10:58.250</time></trkpt><trkpt lat="55.7646446" lon="49.1143695"><time>2022-10-29T09:10:59.233</time></trkpt><trkpt lat="55.7646718" lon="49.1144764"><time>2022-10-29T09:11:00.247</time></trkpt><trkpt lat="55.7646989" lon="49.1145814"><time>2022-10-29T09:11:01.250</time></trkpt><trkpt lat="55.7647278" lon="49.1146813"><time>2022-10-29T09:11:02.250</time></trkpt><trkpt lat="55.7647596" lon="49.1147810"><time>2022-10-29T09:11:03.247</time></trkpt><trkpt lat="55.7647929" lon="49.1148790"><time>2022-10-29T09:11:04.250</time></trkpt><trkpt lat="55.7648260" lon="49.1149778"><time>2022-10-29T09:11:05.253</time></trkpt><trkpt lat="55.7648575" lon="49.1150766"><time>2022-10-29T09:11:06.250</time></trkpt><trkpt lat="55.7648888" lon="49.1151716"><time>2022-10-29T09:11:07.253</time></trkpt><trkpt lat="55.7649198" lon="49.1152645"><time>2022-10-29T09:11:08.240</time></trkpt><trkpt lat="55.7649476" lon="49.1153523"><time>2022-10-29T09:11:09.227</time></trkpt><trkpt lat="55.7649757" lon="49.1154365"><time>2022-10-29T09:11:10.247</time></trkpt><trkpt lat="55.7650029" lon="49.1155179"><time>2022-10-29T09:11:11.260</time></trkpt><trkpt lat="55.7650294" lon="49.1155991"><time>2022-10-29T09:11:12.257</time></trkpt><trkpt lat="55.7650572" lon="49.1156804"><time>2022-10-29T09:11:13.237</time></trkpt><trkpt lat="55.7650842" lon="49.1157609"><time>2022-10-29T09:11:14.250</time></trkpt><trkpt lat="55.7651138" lon="49.1158364"><time>2022-10-29T09:11:15.257</time></trkpt><trkpt lat="55.7651379" lon="49.1159129"><time>2022-10-29T09:11:16.240</time></trkpt><trkpt lat="55.7651574" lon="49.1159948"><time>2022-10-29T09:11:17.237</time></trkpt><trkpt lat="55.7651828" lon="49.1160829"><time>2022-10-29T09:11:18.243</time></trkpt><trkpt lat="55.7652128" lon="49.1161736"><time>2022-10-29T09:11:19.247</time></trkpt><trkpt lat="55.7652440" lon="49.1162621"><time>2022-10-29T09:11:20.243</time></trkpt><trkpt lat="55.7652766" lon="49.1163497"><time>2022-10-29T09:11:21.240</time></trkpt><trkpt lat="55.7653096" lon="49.1164367"><time>2022-10-29T09:11:22.260</time></trkpt><trkpt lat="55.7653400" lon="49.1165211"><time>2022-10-29T09:11:23.227</time></trkpt><trkpt lat="55.7653661" lon="49.1166031"><time>2022-10-29T09:11:24.227</time></trkpt><trkpt lat="55.7653875" lon="49.1166803"><time>2022-10-29T09:11:25.247</time></trkpt><trkpt lat="55.7654093" lon="49.1167579"><time>2022-10-29T09:11:26.237</time></trkpt><trkpt lat="55.7654294" lon="49.1168561"><time>2022-10-29T09:11:28.250</time></trkpt><trkpt lat="55.7654540" lon="49.1169574"><time>2022-10-29T09:11:42.217</time></trkpt><trkpt lat="55.7654897" lon="49.1171025"><time>2022-10-29T09:11:44.227</time></trkpt><trkpt lat="55.7655099" lon="49.1171770"><time>2022-10-29T09:11:45.233</time></trkpt><trkpt lat="55.7655473" lon="49.1172992"><time>2022-10-29T09:11:47.233</time></trkpt><trkpt lat="55.7655910" lon="49.1174220"><time>2022-10-29T09:11:49.223</time></trkpt><trkpt lat="55.7656379" lon="49.1175533"><time>2022-10-29T09:11:51.233</time></trkpt><trkpt lat="55.7656576" lon="49.1176262"><time>2022-10-29T09:11:52.233</time></trkpt><trkpt lat="55.7656732" lon="49.1177024"><time>2022-10-29T09:11:53.243</time></trkpt><trkpt lat="55.7656894" lon="49.1177776"><time>2022-10-29T09:11:54.237</time></trkpt><trkpt lat="55.7657083" lon="49.1178510"><time>2022-10-29T09:11:55.250</time></trkpt><trkpt lat="55.7657287" lon="49.1179235"><time>2022-10-29T09:11:56.237</time></trkpt><trkpt lat="55.7657693" lon="49.1180529"><time>2022-10-29T09:11:58.233</time></trkpt><trkpt lat="55.7658005" lon="49.1181564"><time>2022-10-29T09:12:00.243</time></trkpt><trkpt lat="55.7658136" lon="49.1182519"><time>2022-10-29T09:12:02.237</time></trkpt><trkpt lat="55.7658364" lon="49.1183381"><time>2022-10-29T09:12:04.243</time></trkpt><trkpt lat="55.7658679" lon="49.1184329"><time>2022-10-29T09:12:06.243</time></trkpt><trkpt lat="55.7659052" lon="49.1185195"><time>2022-10-29T09:12:08.237</time></trkpt><trkpt lat="55.7659431" lon="49.1186362"><time>2022-10-29T09:12:10.233</time></trkpt><trkpt lat="55.7659788" lon="49.1187658"><time>2022-10-29T09:12:12.247</time></trkpt><trkpt lat="55.7659999" lon="49.1188385"><time>2022-10-29T09:12:13.243</time></trkpt><trkpt lat="55.7660209" lon="49.1189149"><time>2022-10-29T09:12:14.243</time></trkpt><trkpt lat="55.7660437" lon="49.1189961"><time>2022-10-29T09:12:15.233</time></trkpt><trkpt lat="55.7660718" lon="49.1190719"><time>2022-10-29T09:12:16.247</time></trkpt><trkpt lat="55.7661031" lon="49.1191433"><time>2022-10-29T09:12:17.243</time></trkpt><trkpt lat="55.7661319" lon="49.1192147"><time>2022-10-29T09:12:18.227</time></trkpt><trkpt lat="55.7661769" lon="49.1193517"><time>2022-10-29T09:12:20.237</time></trkpt><trkpt lat="55.7661990" lon="49.1194247"><time>2022-10-29T09:12:21.227</time></trkpt><trkpt lat="55.7662224" lon="49.1195000"><time>2022-10-29T09:12:22.227</time></trkpt><trkpt lat="55.7662462" lon="49.1195759"><time>2022-10-29T09:12:23.243</time></trkpt><trkpt lat="55.7662673" lon="49.1196472"><time>2022-10-29T09:12:24.243</time></trkpt><trkpt lat="55.7662890" lon="49.1197246"><time>2022-10-29T09:12:25.237</time></trkpt><trkpt lat="55.7663108" lon="49.1198033"><time>2022-10-29T09:12:26.233</time></trkpt><trkpt lat="55.7663349" lon="49.1198770"><time>2022-10-29T09:12:27.230</time></trkpt><trkpt lat="55.7663647" lon="49.1199658"><time>2022-10-29T09:12:29.223</time></trkpt><trkpt lat="55.7663844" lon="49.1200671"><time>2022-10-29T09:12:31.240</time></trkpt><trkpt lat="55.7664261" lon="49.1201993"><time>2022-10-29T09:12:33.227</time></trkpt><trkpt lat="55.7664480" lon="49.1202745"><time>2022-10-29T09:12:34.220</time></trkpt><trkpt lat="55.7664715" lon="49.1203448"><time>2022-10-29T09:12:35.230</time></trkpt><trkpt lat="55.7665076" lon="49.1204630"><time>2022-10-29T09:12:37.230</time></trkpt><trkpt lat="55.7665444" lon="49.1205631"><time>2022-10-29T09:12:40.237</time></trkpt><trkpt lat="55.7665666" lon="49.1206459"><time>2022-10-29T09:12:42.240</time></trkpt><trkpt lat="55.7665938" lon="49.1207988"><time>2022-10-29T09:12:44.223</time></trkpt><trkpt lat="55.7666086" lon="49.1208942"><time>2022-10-29T09:12:45.237</time></trkpt><trkpt lat="55.7666329" lon="49.1209781"><time>2022-10-29T09:12:46.223</time></trkpt><trkpt lat="55.7666614" lon="49.1210576"><time>2022-10-29T09:12:47.250</time></trkpt><trkpt lat="55.7666886" lon="49.1211431"><time>2022-10-29T09:12:48.250</time></trkpt><trkpt lat="55.7667127" lon="49.1212291"><time>2022-10-29T09:12:49.220</time></trkpt><trkpt lat="55.7667362" lon="49.1213140"><time>2022-10-29T09:12:50.237</time></trkpt><trkpt lat="55.7667606" lon="49.1213986"><time>2022-10-29T09:12:51.227</time></trkpt><trkpt lat="55.7667863" lon="49.1214848"><time>2022-10-29T09:12:52.213</time></trkpt><trkpt lat="55.7668141" lon="49.1215703"><time>2022-10-29T09:12:53.223</time></trkpt><trkpt lat="55.7668426" lon="49.1216591"><time>2022-10-29T09:12:54.220</time></trkpt><trkpt lat="55.7668673" lon="49.1217458"><time>2022-10-29T09:12:55.223</time></trkpt><trkpt lat="55.7668917" lon="49.1218317"><time>2022-10-29T09:12:56.230</time></trkpt><trkpt lat="55.7669170" lon="49.1219187"><time>2022-10-29T09:12:57.230</time></trkpt><trkpt lat="55.7669417" lon="49.1220035"><time>2022-10-29T09:12:58.233</time></trkpt><trkpt lat="55.7669685" lon="49.1220816"><time>2022-10-29T09:12:59.240</time></trkpt><trkpt lat="55.7669961" lon="49.1221621"><time>2022-10-29T09:13:00.233</time></trkpt><trkpt lat="55.7670224" lon="49.1222455"><time>2022-10-29T09:13:01.240</time></trkpt><trkpt lat="55.7670484" lon="49.1223341"><time>2022-10-29T09:13:02.233</time></trkpt><trkpt lat="55.7670741" lon="49.1224253"><time>2022-10-29T09:13:03.233</time></trkpt><trkpt lat="55.7670994" lon="49.1225197"><time>2022-10-29T09:13:04.230</time></trkpt><trkpt lat="55.7671229" lon="49.1226209"><time>2022-10-29T09:13:05.237</time></trkpt><trkpt lat="55.7671495" lon="49.1227237"><time>2022-10-29T09:13:06.237</time></trkpt><trkpt lat="55.7671785" lon="49.1228238"><time>2022-10-29T09:13:07.233</time></trkpt><trkpt lat="55.7672123" lon="49.1229225"><time>2022-10-29T09:13:08.243</time></trkpt><trkpt lat="55.7672453" lon="49.1230198"><time>2022-10-29T09:13:09.237</time></trkpt><trkpt lat="55.7672781" lon="49.1231198"><time>2022-10-29T09:13:10.247</time></trkpt><trkpt lat="55.7673072" lon="49.1232228"><time>2022-10-29T09:13:11.240</time></trkpt><trkpt lat="55.7673356" lon="49.1233270"><time>2022-10-29T09:13:12.230</time></trkpt><trkpt lat="55.7673646" lon="49.1234308"><time>2022-10-29T09:13:13.240</time></trkpt><trkpt lat="55.7673947" lon="49.1235343"><time>2022-10-29T09:13:14.240</time></trkpt><trkpt lat="55.7674242" lon="49.1236345"><time>2022-10-29T09:13:15.227</time></trkpt><trkpt lat="55.7674489" lon="49.1237350"><time>2022-10-29T09:13:16.247</time></trkpt><trkpt lat="55.7674742" lon="49.1238371"><time>2022-10-29T09:13:17.247</time></trkpt><trkpt lat="55.7675040" lon="49.1239429"><time>2022-10-29T09:13:18.243</time></trkpt><trkpt lat="55.7675331" lon="49.1240491"><time>2022-10-29T09:13:19.233</time></trkpt><trkpt lat="55.7675636" lon="49.1241531"><time>2022-10-29T09:13:20.247</time></trkpt><trkpt lat="55.7675982" lon="49.1242552"><time>2022-10-29T09:13:21.233</time></trkpt><trkpt lat="55.7676345" lon="49.1243549"><time>2022-10-29T09:13:22.250</time></trkpt><trkpt lat="55.7676716" lon="49.1244545"><time>2022-10-29T09:13:23.233</time></trkpt><trkpt lat="55.7677046" lon="49.1245553"><time>2022-10-29T09:13:24.250</time></trkpt><trkpt lat="55.7677386" lon="49.1246591"><time>2022-10-29T09:13:25.233</time></trkpt><trkpt lat="55.7677696" lon="49.1247618"><time>2022-10-29T09:13:26.237</time></trkpt><trkpt lat="55.7677898" lon="49.1248663"><time>2022-10-29T09:13:27.237</time></trkpt><trkpt lat="55.7677968" lon="49.1249660"><time>2022-10-29T09:13:28.247</time></trkpt><trkpt lat="55.7677823" lon="49.1250506"><time>2022-10-29T09:13:29.237</time></trkpt><trkpt lat="55.7677461" lon="49.1251146"><time>2022-10-29T09:13:30.243</time></trkpt><trkpt lat="55.7677012" lon="49.1251724"><time>2022-10-29T09:13:31.253</time></trkpt><trkpt lat="55.7676595" lon="49.1252253"><time>2022-10-29T09:13:32.253</time></trkpt><trkpt lat="55.7676205" lon="49.1252724"><time>2022-10-29T09:13:33.240</time></trkpt><trkpt lat="55.7675822" lon="49.1253190"><time>2022-10-29T09:13:34.233</time></trkpt><trkpt lat="55.7675451" lon="49.1253682"><time>2022-10-29T09:13:35.243</time></trkpt><trkpt lat="55.7674696" lon="49.1254386"><time>2022-10-29T09:13:37.233</time></trkpt><trkpt lat="55.7674030" lon="49.1254875"><time>2022-10-29T09:13:39.237</time></trkpt><trkpt lat="55.7673478" lon="49.1256017"><time>2022-10-29T09:13:41.240</time></trkpt><trkpt lat="55.7673234" lon="49.1256746"><time>2022-10-29T09:13:42.243</time></trkpt><trkpt lat="55.7673063" lon="49.1257580"><time>2022-10-29T09:13:43.230</time></trkpt><trkpt lat="55.7672938" lon="49.1258465"><time>2022-10-29T09:13:44.247</time></trkpt><trkpt lat="55.7672839" lon="49.1259392"><time>2022-10-29T09:13:45.240</time></trkpt><trkpt lat="55.7672754" lon="49.1260331"><time>2022-10-29T09:13:46.237</time></trkpt><trkpt lat="55.7672782" lon="49.1261273"><time>2022-10-29T09:13:47.243</time></trkpt><trkpt lat="55.7672932" lon="49.1262190"><time>2022-10-29T09:13:48.247</time></trkpt><trkpt lat="55.7673174" lon="49.1263044"><time>2022-10-29T09:13:49.243</time></trkpt><trkpt lat="55.7673471" lon="49.1263742"><time>2022-10-29T09:13:50.243</time></trkpt><trkpt lat="55.7673867" lon="49.1264199"><time>2022-10-29T09:13:51.237</time></trkpt><trkpt lat="55.7674322" lon="49.1264586"><time>2022-10-29T09:13:52.243</time></trkpt><trkpt lat="55.7674739" lon="49.1265005"><time>2022-10-29T09:13:53.237</time></trkpt><trkpt lat="55.7675088" lon="49.1265550"><time>2022-10-29T09:13:54.233</time></trkpt><trkpt lat="55.7675340" lon="49.1266227"><time>2022-10-29T09:13:55.247</time></trkpt><trkpt lat="55.7675563" lon="49.1266952"><time>2022-10-29T09:13:56.247</time></trkpt><trkpt lat="55.7675775" lon="49.1267744"><time>2022-10-29T09:13:57.240</time></trkpt><trkpt lat="55.7676008" lon="49.1268551"><time>2022-10-29T09:13:58.247</time></trkpt><trkpt lat="55.7676235" lon="49.1269299"><time>2022-10-29T09:13:59.247</time></trkpt><trkpt lat="55.7676433" lon="49.1270057"><time>2022-10-29T09:14:00.250</time></trkpt><trkpt lat="55.7676285" lon="49.1271179"><time>2022-10-29T09:14:02.287</time></trkpt><trkpt lat="55.7675888" lon="49.1271565"><time>2022-10-29T09:14:03.250</time></trkpt><trkpt lat="55.7675369" lon="49.1271859"><time>2022-10-29T09:14:04.257</time></trkpt><trkpt lat="55.7674819" lon="49.1272140"><time>2022-10-29T09:14:05.233</time></trkpt><trkpt lat="55.7674284" lon="49.1272399"><time>2022-10-29T09:14:06.247</time></trkpt><trkpt lat="55.7673769" lon="49.1272661"><time>2022-10-29T09:14:07.253</time></trkpt><trkpt lat="55.7673273" lon="49.1272916"><time>2022-10-29T09:14:08.250</time></trkpt><trkpt lat="55.7672831" lon="49.1273202"><time>2022-10-29T09:14:09.243</time></trkpt><trkpt lat="55.7672528" lon="49.1274065"><time>2022-10-29T09:14:11.263</time></trkpt><trkpt lat="55.7672430" lon="49.1275063"><time>2022-10-29T09:14:13.243</time></trkpt><trkpt lat="55.7672366" lon="49.1275982"><time>2022-10-29T09:14:15.247</time></trkpt><trkpt lat="55.7672237" lon="49.1276975"><time>2022-10-29T09:14:17.237</time></trkpt><trkpt lat="55.7671964" lon="49.1278114"><time>2022-10-29T09:14:19.247</time></trkpt><trkpt lat="55.7671780" lon="49.1279238"><time>2022-10-29T09:14:21.250</time></trkpt><trkpt lat="55.7671599" lon="49.1280571"><time>2022-10-29T09:14:23.253</time></trkpt><trkpt lat="55.7671385" lon="49.1281764"><time>2022-10-29T09:14:25.250</time></trkpt><trkpt lat="55.7671323" lon="49.1282993"><time>2022-10-29T09:14:27.250</time></trkpt><trkpt lat="55.7671343" lon="49.1284279"><time>2022-10-29T09:14:29.267</time></trkpt><trkpt lat="55.7671351" lon="49.1284869"><time>2022-10-29T09:14:30.243</time></trkpt><trkpt lat="55.7671178" lon="49.1285867"><time>2022-10-29T09:14:32.233</time></trkpt><trkpt lat="55.7670931" lon="49.1286907"><time>2022-10-29T09:14:34.243</time></trkpt><trkpt lat="55.7670836" lon="49.1287850"><time>2022-10-29T09:14:36.250</time></trkpt><trkpt lat="55.7670664" lon="49.1289021"><time>2022-10-29T09:14:38.240</time></trkpt><trkpt lat="55.7670484" lon="49.1289921"><time>2022-10-29T09:14:40.227</time></trkpt><trkpt lat="55.7670369" lon="49.1290856"><time>2022-10-29T09:14:42.237</time></trkpt><trkpt lat="55.7670145" lon="49.1292396"><time>2022-10-29T09:14:43.290</time></trkpt><trkpt lat="55.7670076" lon="49.1293092"><time>2022-10-29T09:14:44.240</time></trkpt><trkpt lat="55.7670157" lon="49.1294040"><time>2022-10-29T09:14:58.220</time></trkpt><trkpt lat="55.7670161" lon="49.1295193"><time>2022-10-29T09:15:02.250</time></trkpt><trkpt lat="55.7670147" lon="49.1296168"><time>2022-10-29T09:15:06.237</time></trkpt><trkpt lat="55.7669999" lon="49.1297011"><time>2022-10-29T09:15:08.273</time></trkpt><trkpt lat="55.7669999" lon="49.1297011"><time>2022-10-29T09:15:08.297</time></trkpt><trkpt lat="55.7669470" lon="49.1296727"><time>2022-10-29T09:15:54.263</time></trkpt><trkpt lat="55.7669380" lon="49.1296553"><time>2022-10-29T09:15:55.237</time></trkpt><trkpt lat="55.7669142" lon="49.1295780"><time>2022-10-29T09:16:00.247</time></trkpt><trkpt lat="55.7668786" lon="49.1295283"><time>2022-10-29T09:16:02.257</time></trkpt><trkpt lat="55.7668560" lon="49.1294548"><time>2022-10-29T09:16:04.233</time></trkpt><trkpt lat="55.7668538" lon="49.1293333"><time>2022-10-29T09:16:09.247</time></trkpt><trkpt lat="55.7668156" lon="49.1292511"><time>2022-10-29T09:16:11.247</time></trkpt><trkpt lat="55.7667662" lon="49.1291868"><time>2022-10-29T09:16:13.253</time></trkpt><trkpt lat="55.7667223" lon="49.1291261"><time>2022-10-29T09:16:15.233</time></trkpt><trkpt lat="55.7666832" lon="49.1290543"><time>2022-10-29T09:16:17.230</time></trkpt><trkpt lat="55.7666474" lon="49.1289766"><time>2022-10-29T09:16:19.250</time></trkpt><trkpt lat="55.7666190" lon="49.1288904"><time>2022-10-29T09:16:21.253</time></trkpt><trkpt lat="55.7665827" lon="49.1288211"><time>2022-10-29T09:16:23.260</time></trkpt><trkpt lat="55.7665459" lon="49.1287716"><time>2022-10-29T09:16:26.267</time></trkpt><trkpt lat="55.7665386" lon="49.1286768"><time>2022-10-29T09:16:29.247</time></trkpt><trkpt lat="55.7665318" lon="49.1285590"><time>2022-10-29T09:16:31.237</time></trkpt><trkpt lat="55.7665220" lon="49.1284204"><time>2022-10-29T09:16:33.250</time></trkpt><trkpt lat="55.7664992" lon="49.1282914"><time>2022-10-29T09:16:35.250</time></trkpt><trkpt lat="55.7664952" lon="49.1281471"><time>2022-10-29T09:16:37.243</time></trkpt><trkpt lat="55.7664985" lon="49.1279971"><time>2022-10-29T09:16:39.237</time></trkpt><trkpt lat="55.7664906" lon="49.1278710"><time>2022-10-29T09:16:41.237</time></trkpt><trkpt lat="55.7664859" lon="49.1277722"><time>2022-10-29T09:16:43.243</time></trkpt><trkpt lat="55.7664581" lon="49.1276916"><time>2022-10-29T09:16:51.250</time></trkpt><trkpt lat="55.7664035" lon="49.1276635"><time>2022-10-29T09:16:54.237</time></trkpt><trkpt lat="55.7663505" lon="49.1276807"><time>2022-10-29T09:16:56.253</time></trkpt><trkpt lat="55.7662971" lon="49.1276922"><time>2022-10-29T09:16:58.257</time></trkpt><trkpt lat="55.7661958" lon="49.1277075"><time>2022-10-29T09:17:00.257</time></trkpt><trkpt lat="55.7661420" lon="49.1277076"><time>2022-10-29T09:17:02.243</time></trkpt><trkpt lat="55.7660970" lon="49.1277188"><time>2022-10-29T09:17:09.247</time></trkpt><trkpt lat="55.7660359" lon="49.1277259"><time>2022-10-29T09:17:11.247</time></trkpt><trkpt lat="55.7660125" lon="49.1276525"><time>2022-10-29T09:17:13.260</time></trkpt><trkpt lat="55.7660165" lon="49.1275402"><time>2022-10-29T09:17:15.257</time></trkpt><trkpt lat="55.7660271" lon="49.1274549"><time>2022-10-29T09:17:20.250</time></trkpt><trkpt lat="55.7659870" lon="49.1273932"><time>2022-10-29T09:17:31.257</time></trkpt><trkpt lat="55.7659146" lon="49.1273500"><time>2022-10-29T09:17:33.250</time></trkpt><trkpt lat="55.7658695" lon="49.1273533"><time>2022-10-29T09:17:34.257</time></trkpt><trkpt lat="55.7658202" lon="49.1273554"><time>2022-10-29T09:17:35.257</time></trkpt><trkpt lat="55.7657751" lon="49.1273636"><time>2022-10-29T09:17:36.243</time></trkpt><trkpt lat="55.7657272" lon="49.1273743"><time>2022-10-29T09:17:37.230</time></trkpt><trkpt lat="55.7656772" lon="49.1273905"><time>2022-10-29T09:17:38.253</time></trkpt><trkpt lat="55.7656238" lon="49.1274035"><time>2022-10-29T09:17:40.240</time></trkpt><trkpt lat="55.7655703" lon="49.1274141"><time>2022-10-29T09:17:42.247</time></trkpt><trkpt lat="55.7653984" lon="49.1274463"><time>2022-10-29T09:17:43.250</time></trkpt><trkpt lat="55.7653409" lon="49.1274527"><time>2022-10-29T09:17:44.253</time></trkpt><trkpt lat="55.7652829" lon="49.1274587"><time>2022-10-29T09:17:45.250</time></trkpt><trkpt lat="55.7652245" lon="49.1274645"><time>2022-10-29T09:17:46.250</time></trkpt><trkpt lat="55.7651656" lon="49.1274703"><time>2022-10-29T09:17:47.237</time></trkpt><trkpt lat="55.7651081" lon="49.1274776"><time>2022-10-29T09:17:48.253</time></trkpt><trkpt lat="55.7650500" lon="49.1274854"><time>2022-10-29T09:17:49.247</time></trkpt><trkpt lat="55.7649922" lon="49.1274931"><time>2022-10-29T09:17:50.250</time></trkpt><trkpt lat="55.7649332" lon="49.1274992"><time>2022-10-29T09:17:51.250</time></trkpt><trkpt lat="55.7648730" lon="49.1275049"><time>2022-10-29T09:17:52.247</time></trkpt><trkpt lat="55.7648127" lon="49.1275094"><time>2022-10-29T09:17:53.250</time></trkpt><trkpt lat="55.7647507" lon="49.1275162"><time>2022-10-29T09:17:54.257</time></trkpt><trkpt lat="55.7646878" lon="49.1275252"><time>2022-10-29T09:17:55.247</time></trkpt><trkpt lat="55.7646266" lon="49.1275335"><time>2022-10-29T09:17:56.257</time></trkpt><trkpt lat="55.7645647" lon="49.1275359"><time>2022-10-29T09:17:57.227</time></trkpt><trkpt lat="55.7645024" lon="49.1275395"><time>2022-10-29T09:17:58.257</time></trkpt><trkpt lat="55.7644410" lon="49.1275438"><time>2022-10-29T09:17:59.247</time></trkpt><trkpt lat="55.7643791" lon="49.1275476"><time>2022-10-29T09:18:00.253</time></trkpt><trkpt lat="55.7643176" lon="49.1275563"><time>2022-10-29T09:18:01.247</time></trkpt><trkpt lat="55.7642552" lon="49.1275694"><time>2022-10-29T09:18:02.253</time></trkpt><trkpt lat="55.7641928" lon="49.1275809"><time>2022-10-29T09:18:03.253</time></trkpt><trkpt lat="55.7641290" lon="49.1275915"><time>2022-10-29T09:18:04.247</time></trkpt><trkpt lat="55.7640655" lon="49.1276000"><time>2022-10-29T09:18:05.253</time></trkpt><trkpt lat="55.7640010" lon="49.1276075"><time>2022-10-29T09:18:06.240</time></trkpt><trkpt lat="55.7639358" lon="49.1276153"><time>2022-10-29T09:18:07.260</time></trkpt><trkpt lat="55.7638713" lon="49.1276242"><time>2022-10-29T09:18:08.257</time></trkpt><trkpt lat="55.7638091" lon="49.1276352"><time>2022-10-29T09:18:09.247</time></trkpt><trkpt lat="55.7637479" lon="49.1276487"><time>2022-10-29T09:18:10.257</time></trkpt><trkpt lat="55.7636838" lon="49.1276587"><time>2022-10-29T09:18:11.247</time></trkpt><trkpt lat="55.7636205" lon="49.1276639"><time>2022-10-29T09:18:12.270</time></trkpt><trkpt lat="55.7635638" lon="49.1276693"><time>2022-10-29T09:18:13.253</time></trkpt><trkpt lat="55.7635068" lon="49.1276676"><time>2022-10-29T09:18:14.260</time></trkpt><trkpt lat="55.7634572" lon="49.1276436"><time>2022-10-29T09:18:15.267</time></trkpt><trkpt lat="55.7634152" lon="49.1275156"><time>2022-10-29T09:18:17.253</time></trkpt><trkpt lat="55.7634127" lon="49.1274246"><time>2022-10-29T09:18:18.253</time></trkpt><trkpt lat="55.7634117" lon="49.1273284"><time>2022-10-29T09:18:19.253</time></trkpt><trkpt lat="55.7634142" lon="49.1272251"><time>2022-10-29T09:18:20.243</time></trkpt><trkpt lat="55.7634103" lon="49.1271247"><time>2022-10-29T09:18:21.250</time></trkpt><trkpt lat="55.7634029" lon="49.1270266"><time>2022-10-29T09:18:22.250</time></trkpt><trkpt lat="55.7633935" lon="49.1269332"><time>2022-10-29T09:18:23.237</time></trkpt><trkpt lat="55.7633853" lon="49.1268389"><time>2022-10-29T09:18:24.237</time></trkpt><trkpt lat="55.7633773" lon="49.1267429"><time>2022-10-29T09:18:25.257</time></trkpt><trkpt lat="55.7633718" lon="49.1266435"><time>2022-10-29T09:18:26.247</time></trkpt><trkpt lat="55.7633684" lon="49.1265441"><time>2022-10-29T09:18:27.247</time></trkpt><trkpt lat="55.7633640" lon="49.1264437"><time>2022-10-29T09:18:28.250</time></trkpt><trkpt lat="55.7633583" lon="49.1263383"><time>2022-10-29T09:18:29.247</time></trkpt><trkpt lat="55.7633510" lon="49.1262298"><time>2022-10-29T09:18:30.257</time></trkpt><trkpt lat="55.7633451" lon="49.1261215"><time>2022-10-29T09:18:31.260</time></trkpt><trkpt lat="55.7633389" lon="49.1260055"><time>2022-10-29T09:18:32.253</time></trkpt><trkpt lat="55.7633336" lon="49.1258917"><time>2022-10-29T09:18:33.263</time></trkpt><trkpt lat="55.7633287" lon="49.1257830"><time>2022-10-29T09:18:34.237</time></trkpt><trkpt lat="55.7633219" lon="49.1256714"><time>2022-10-29T09:18:35.253</time></trkpt><trkpt lat="55.7633139" lon="49.1255600"><time>2022-10-29T09:18:36.250</time></trkpt><trkpt lat="55.7633037" lon="49.1254485"><time>2022-10-29T09:18:37.247</time></trkpt><trkpt lat="55.7632920" lon="49.1253384"><time>2022-10-29T09:18:38.250</time></trkpt><trkpt lat="55.7632793" lon="49.1252291"><time>2022-10-29T09:18:39.247</time></trkpt><trkpt lat="55.7632690" lon="49.1251199"><time>2022-10-29T09:18:40.250</time></trkpt><trkpt lat="55.7632591" lon="49.1250100"><time>2022-10-29T09:18:41.250</time></trkpt><trkpt lat="55.7632447" lon="49.1249013"><time>2022-10-29T09:18:42.257</time></trkpt><trkpt lat="55.7632272" lon="49.1247915"><time>2022-10-29T09:18:43.250</time></trkpt><trkpt lat="55.7632099" lon="49.1246823"><time>2022-10-29T09:18:44.243</time></trkpt><trkpt lat="55.7631954" lon="49.1245725"><time>2022-10-29T09:18:45.257</time></trkpt><trkpt lat="55.7631836" lon="49.1244620"><time>2022-10-29T09:18:46.243</time></trkpt><trkpt lat="55.7631739" lon="49.1243555"><time>2022-10-29T09:18:47.253</time></trkpt><trkpt lat="55.7631651" lon="49.1242506"><time>2022-10-29T09:18:48.253</time></trkpt><trkpt lat="55.7631537" lon="49.1241424"><time>2022-10-29T09:18:49.243</time></trkpt><trkpt lat="55.7631434" lon="49.1240297"><time>2022-10-29T09:18:50.253</time></trkpt><trkpt lat="55.7631277" lon="49.1239153"><time>2022-10-29T09:18:51.253</time></trkpt><trkpt lat="55.7631084" lon="49.1238014"><time>2022-10-29T09:18:52.237</time></trkpt><trkpt lat="55.7630936" lon="49.1236877"><time>2022-10-29T09:18:53.257</time></trkpt><trkpt lat="55.7630806" lon="49.1235762"><time>2022-10-29T09:18:54.250</time></trkpt><trkpt lat="55.7630642" lon="49.1234672"><time>2022-10-29T09:18:55.250</time></trkpt><trkpt lat="55.7630439" lon="49.1233589"><time>2022-10-29T09:18:56.260</time></trkpt><trkpt lat="55.7630192" lon="49.1232549"><time>2022-10-29T09:18:57.247</time></trkpt><trkpt lat="55.7629930" lon="49.1231550"><time>2022-10-29T09:18:58.247</time></trkpt><trkpt lat="55.7629667" lon="49.1230583"><time>2022-10-29T09:18:59.247</time></trkpt><trkpt lat="55.7629380" lon="49.1229690"><time>2022-10-29T09:19:00.230</time></trkpt><trkpt lat="55.7629115" lon="49.1228846"><time>2022-10-29T09:19:01.253</time></trkpt><trkpt lat="55.7628821" lon="49.1228059"><time>2022-10-29T09:19:02.253</time></trkpt><trkpt lat="55.7628477" lon="49.1227402"><time>2022-10-29T09:19:03.250</time></trkpt><trkpt lat="55.7628063" lon="49.1226838"><time>2022-10-29T09:19:04.257</time></trkpt><trkpt lat="55.7627583" lon="49.1226472"><time>2022-10-29T09:19:05.247</time></trkpt><trkpt lat="55.7627046" lon="49.1226336"><time>2022-10-29T09:19:06.247</time></trkpt><trkpt lat="55.7626468" lon="49.1226341"><time>2022-10-29T09:19:07.253</time></trkpt><trkpt lat="55.7625918" lon="49.1226392"><time>2022-10-29T09:19:08.233</time></trkpt><trkpt lat="55.7625365" lon="49.1226448"><time>2022-10-29T09:19:09.263</time></trkpt><trkpt lat="55.7624821" lon="49.1226563"><time>2022-10-29T09:19:10.253</time></trkpt><trkpt lat="55.7624280" lon="49.1226733"><time>2022-10-29T09:19:11.247</time></trkpt><trkpt lat="55.7623737" lon="49.1226917"><time>2022-10-29T09:19:12.237</time></trkpt><trkpt lat="55.7623186" lon="49.1227073"><time>2022-10-29T09:19:13.253</time></trkpt><trkpt lat="55.7622644" lon="49.1227212"><time>2022-10-29T09:19:14.243</time></trkpt><trkpt lat="55.7622077" lon="49.1227374"><time>2022-10-29T09:19:15.237</time></trkpt><trkpt lat="55.7621484" lon="49.1227536"><time>2022-10-29T09:19:16.243</time></trkpt><trkpt lat="55.7620890" lon="49.1227673"><time>2022-10-29T09:19:17.240</time></trkpt><trkpt lat="55.7620302" lon="49.1227825"><time>2022-10-29T09:19:18.237</time></trkpt><trkpt lat="55.7619713" lon="49.1227937"><time>2022-10-29T09:19:19.243</time></trkpt><trkpt lat="55.7619114" lon="49.1228019"><time>2022-10-29T09:19:20.243</time></trkpt><trkpt lat="55.7618527" lon="49.1228126"><time>2022-10-29T09:19:21.243</time></trkpt><trkpt lat="55.7617967" lon="49.1228254"><time>2022-10-29T09:19:22.247</time></trkpt><trkpt lat="55.7617417" lon="49.1228344"><time>2022-10-29T09:19:23.243</time></trkpt><trkpt lat="55.7616860" lon="49.1228441"><time>2022-10-29T09:19:24.237</time></trkpt><trkpt lat="55.7616280" lon="49.1228551"><time>2022-10-29T09:19:25.247</time></trkpt><trkpt lat="55.7615689" lon="49.1228650"><time>2022-10-29T09:19:26.273</time></trkpt><trkpt lat="55.7615103" lon="49.1228778"><time>2022-10-29T09:19:27.240</time></trkpt><trkpt lat="55.7614494" lon="49.1228904"><time>2022-10-29T09:19:28.243</time></trkpt><trkpt lat="55.7613860" lon="49.1229049"><time>2022-10-29T09:19:29.253</time></trkpt><trkpt lat="55.7613210" lon="49.1229209"><time>2022-10-29T09:19:30.243</time></trkpt><trkpt lat="55.7612564" lon="49.1229309"><time>2022-10-29T09:19:31.240</time></trkpt><trkpt lat="55.7611940" lon="49.1229419"><time>2022-10-29T09:19:32.250</time></trkpt><trkpt lat="55.7611333" lon="49.1229591"><time>2022-10-29T09:19:33.240</time></trkpt><trkpt lat="55.7610731" lon="49.1229698"><time>2022-10-29T09:19:34.243</time></trkpt><trkpt lat="55.7610133" lon="49.1229639"><time>2022-10-29T09:19:35.240</time></trkpt><trkpt lat="55.7609589" lon="49.1229347"><time>2022-10-29T09:19:36.240</time></trkpt><trkpt lat="55.7609176" lon="49.1228719"><time>2022-10-29T09:19:37.240</time></trkpt><trkpt lat="55.7608869" lon="49.1227872"><time>2022-10-29T09:19:38.233</time></trkpt><trkpt lat="55.7608579" lon="49.1226846"><time>2022-10-29T09:19:39.240</time></trkpt><trkpt lat="55.7608268" lon="49.1225745"><time>2022-10-29T09:19:40.243</time></trkpt><trkpt lat="55.7607978" lon="49.1224701"><time>2022-10-29T09:19:41.240</time></trkpt><trkpt lat="55.7607658" lon="49.1223664"><time>2022-10-29T09:19:42.247</time></trkpt><trkpt lat="55.7607329" lon="49.1222645"><time>2022-10-29T09:19:43.243</time></trkpt><trkpt lat="55.7607006" lon="49.1221576"><time>2022-10-29T09:19:44.247</time></trkpt><trkpt lat="55.7606682" lon="49.1220475"><time>2022-10-29T09:19:45.240</time></trkpt><trkpt lat="55.7606352" lon="49.1219371"><time>2022-10-29T09:19:46.240</time></trkpt><trkpt lat="55.7605990" lon="49.1218247"><time>2022-10-29T09:19:47.240</time></trkpt><trkpt lat="55.7605644" lon="49.1217085"><time>2022-10-29T09:19:48.243</time></trkpt><trkpt lat="55.7605302" lon="49.1215884"><time>2022-10-29T09:19:49.243</time></trkpt><trkpt lat="55.7604934" lon="49.1214648"><time>2022-10-29T09:19:50.267</time></trkpt><trkpt lat="55.7604553" lon="49.1213400"><time>2022-10-29T09:19:51.247</time></trkpt><trkpt lat="55.7604143" lon="49.1212164"><time>2022-10-29T09:19:52.240</time></trkpt><trkpt lat="55.7603726" lon="49.1210909"><time>2022-10-29T09:19:53.240</time></trkpt><trkpt lat="55.7603330" lon="49.1209655"><time>2022-10-29T09:19:54.247</time></trkpt><trkpt lat="55.7602926" lon="49.1208427"><time>2022-10-29T09:19:55.240</time></trkpt><trkpt lat="55.7602499" lon="49.1207181"><time>2022-10-29T09:19:56.240</time></trkpt><trkpt lat="55.7602092" lon="49.1205919"><time>2022-10-29T09:19:57.240</time></trkpt><trkpt lat="55.7601721" lon="49.1204677"><time>2022-10-29T09:19:58.240</time></trkpt><trkpt lat="55.7601376" lon="49.1203458"><time>2022-10-29T09:19:59.247</time></trkpt><trkpt lat="55.7601013" lon="49.1202253"><time>2022-10-29T09:20:00.220</time></trkpt><trkpt lat="55.7600665" lon="49.1201045"><time>2022-10-29T09:20:01.237</time></trkpt><trkpt lat="55.7600308" lon="49.1199859"><time>2022-10-29T09:20:02.240</time></trkpt><trkpt lat="55.7599978" lon="49.1198695"><time>2022-10-29T09:20:03.243</time></trkpt><trkpt lat="55.7599650" lon="49.1197581"><time>2022-10-29T09:20:04.237</time></trkpt><trkpt lat="55.7599318" lon="49.1196504"><time>2022-10-29T09:20:05.240</time></trkpt><trkpt lat="55.7599008" lon="49.1195440"><time>2022-10-29T09:20:06.220</time></trkpt><trkpt lat="55.7598691" lon="49.1194360"><time>2022-10-29T09:20:07.243</time></trkpt><trkpt lat="55.7598373" lon="49.1193290"><time>2022-10-29T09:20:08.243</time></trkpt><trkpt lat="55.7598048" lon="49.1192234"><time>2022-10-29T09:20:09.237</time></trkpt><trkpt lat="55.7597735" lon="49.1191153"><time>2022-10-29T09:20:10.243</time></trkpt><trkpt lat="55.7597391" lon="49.1190125"><time>2022-10-29T09:20:11.243</time></trkpt><trkpt lat="55.7597087" lon="49.1189209"><time>2022-10-29T09:20:12.227</time></trkpt><trkpt lat="55.7596847" lon="49.1188328"><time>2022-10-29T09:20:13.243</time></trkpt><trkpt lat="55.7596604" lon="49.1187479"><time>2022-10-29T09:20:14.243</time></trkpt><trkpt lat="55.7596351" lon="49.1186685"><time>2022-10-29T09:20:15.250</time></trkpt><trkpt lat="55.7596149" lon="49.1185919"><time>2022-10-29T09:20:16.227</time></trkpt><trkpt lat="55.7595801" lon="49.1184551"><time>2022-10-29T09:20:18.240</time></trkpt><trkpt lat="55.7595610" lon="49.1182982"><time>2022-10-29T09:20:20.257</time></trkpt><trkpt lat="55.7595489" lon="49.1182027"><time>2022-10-29T09:20:21.247</time></trkpt><trkpt lat="55.7595327" lon="49.1181029"><time>2022-10-29T09:20:22.250</time></trkpt><trkpt lat="55.7595172" lon="49.1180019"><time>2022-10-29T09:20:23.247</time></trkpt><trkpt lat="55.7595027" lon="49.1179011"><time>2022-10-29T09:20:24.240</time></trkpt><trkpt lat="55.7594865" lon="49.1178013"><time>2022-10-29T09:20:25.250</time></trkpt><trkpt lat="55.7594691" lon="49.1177037"><time>2022-10-29T09:20:26.247</time></trkpt><trkpt lat="55.7594518" lon="49.1176064"><time>2022-10-29T09:20:27.227</time></trkpt><trkpt lat="55.7594370" lon="49.1175056"><time>2022-10-29T09:20:28.247</time></trkpt><trkpt lat="55.7594239" lon="49.1174000"><time>2022-10-29T09:20:29.247</time></trkpt><trkpt lat="55.7594115" lon="49.1172922"><time>2022-10-29T09:20:30.240</time></trkpt><trkpt lat="55.7593977" lon="49.1171801"><time>2022-10-29T09:20:31.247</time></trkpt><trkpt lat="55.7593832" lon="49.1170668"><time>2022-10-29T09:20:32.247</time></trkpt><trkpt lat="55.7593677" lon="49.1169533"><time>2022-10-29T09:20:33.250</time></trkpt><trkpt lat="55.7593489" lon="49.1168380"><time>2022-10-29T09:20:34.243</time></trkpt><trkpt lat="55.7593283" lon="49.1167222"><time>2022-10-29T09:20:35.247</time></trkpt><trkpt lat="55.7593085" lon="49.1166030"><time>2022-10-29T09:20:36.250</time></trkpt><trkpt lat="55.7592888" lon="49.1164808"><time>2022-10-29T09:20:37.233</time></trkpt><trkpt lat="55.7592697" lon="49.1163610"><time>2022-10-29T09:20:38.247</time></trkpt><trkpt lat="55.7592518" lon="49.1162464"><time>2022-10-29T09:20:39.243</time></trkpt><trkpt lat="55.7592336" lon="49.1161331"><time>2022-10-29T09:20:40.250</time></trkpt><trkpt lat="55.7592161" lon="49.1160206"><time>2022-10-29T09:20:41.240</time></trkpt><trkpt lat="55.7592003" lon="49.1159112"><time>2022-10-29T09:20:42.247</time></trkpt><trkpt lat="55.7591866" lon="49.1158075"><time>2022-10-29T09:20:43.250</time></trkpt><trkpt lat="55.7591737" lon="49.1157057"><time>2022-10-29T09:20:44.240</time></trkpt><trkpt lat="55.7591595" lon="49.1156026"><time>2022-10-29T09:20:45.257</time></trkpt><trkpt lat="55.7591441" lon="49.1154983"><time>2022-10-29T09:20:46.250</time></trkpt><trkpt lat="55.7591298" lon="49.1153932"><time>2022-10-29T09:20:47.243</time></trkpt><trkpt lat="55.7591146" lon="49.1152851"><time>2022-10-29T09:20:48.243</time></trkpt><trkpt lat="55.7590987" lon="49.1151799"><time>2022-10-29T09:20:49.253</time></trkpt><trkpt lat="55.7590850" lon="49.1150780"><time>2022-10-29T09:20:50.250</time></trkpt><trkpt lat="55.7590744" lon="49.1149799"><time>2022-10-29T09:20:51.247</time></trkpt><trkpt lat="55.7590659" lon="49.1148845"><time>2022-10-29T09:20:52.243</time></trkpt><trkpt lat="55.7590589" lon="49.1147933"><time>2022-10-29T09:20:53.250</time></trkpt><trkpt lat="55.7590568" lon="49.1147060"><time>2022-10-29T09:20:54.247</time></trkpt><trkpt lat="55.7590502" lon="49.1146225"><time>2022-10-29T09:20:55.247</time></trkpt><trkpt lat="55.7590413" lon="49.1145380"><time>2022-10-29T09:20:56.243</time></trkpt><trkpt lat="55.7590315" lon="49.1144535"><time>2022-10-29T09:20:57.253</time></trkpt><trkpt lat="55.7590214" lon="49.1143666"><time>2022-10-29T09:20:58.247</time></trkpt><trkpt lat="55.7590119" lon="49.1142770"><time>2022-10-29T09:20:59.253</time></trkpt><trkpt lat="55.7590034" lon="49.1141863"><time>2022-10-29T09:21:00.250</time></trkpt><trkpt lat="55.7589975" lon="49.1140983"><time>2022-10-29T09:21:01.240</time></trkpt><trkpt lat="55.7589886" lon="49.1140144"><time>2022-10-29T09:21:02.247</time></trkpt><trkpt lat="55.7589782" lon="49.1139314"><time>2022-10-29T09:21:03.247</time></trkpt><trkpt lat="55.7589672" lon="49.1138498"><time>2022-10-29T09:21:04.247</time></trkpt><trkpt lat="55.7589560" lon="49.1137704"><time>2022-10-29T09:21:05.237</time></trkpt><trkpt lat="55.7589481" lon="49.1136915"><time>2022-10-29T09:21:06.247</time></trkpt><trkpt lat="55.7589473" lon="49.1135423"><time>2022-10-29T09:21:08.230</time></trkpt><trkpt lat="55.7589345" lon="49.1133832"><time>2022-10-29T09:21:10.243</time></trkpt><trkpt lat="55.7589222" lon="49.1132920"><time>2022-10-29T09:21:11.243</time></trkpt><trkpt lat="55.7589122" lon="49.1131916"><time>2022-10-29T09:21:12.250</time></trkpt><trkpt lat="55.7589083" lon="49.1130879"><time>2022-10-29T09:21:13.243</time></trkpt><trkpt lat="55.7588985" lon="49.1129871"><time>2022-10-29T09:21:14.250</time></trkpt><trkpt lat="55.7588864" lon="49.1128875"><time>2022-10-29T09:21:15.240</time></trkpt><trkpt lat="55.7588759" lon="49.1127837"><time>2022-10-29T09:21:16.283</time></trkpt><trkpt lat="55.7588683" lon="49.1126791"><time>2022-10-29T09:21:17.250</time></trkpt><trkpt lat="55.7588596" lon="49.1125732"><time>2022-10-29T09:21:18.257</time></trkpt><trkpt lat="55.7588499" lon="49.1124637"><time>2022-10-29T09:21:19.227</time></trkpt><trkpt lat="55.7588400" lon="49.1123532"><time>2022-10-29T09:21:20.257</time></trkpt><trkpt lat="55.7588302" lon="49.1122447"><time>2022-10-29T09:21:21.257</time></trkpt><trkpt lat="55.7588209" lon="49.1121364"><time>2022-10-29T09:21:22.260</time></trkpt><trkpt lat="55.7588095" lon="49.1120270"><time>2022-10-29T09:21:23.277</time></trkpt><trkpt lat="55.7587965" lon="49.1119155"><time>2022-10-29T09:21:24.257</time></trkpt><trkpt lat="55.7587829" lon="49.1118027"><time>2022-10-29T09:21:25.243</time></trkpt><trkpt lat="55.7587727" lon="49.1116907"><time>2022-10-29T09:21:26.243</time></trkpt><trkpt lat="55.7587654" lon="49.1115805"><time>2022-10-29T09:21:27.257</time></trkpt><trkpt lat="55.7587564" lon="49.1114733"><time>2022-10-29T09:21:28.253</time></trkpt><trkpt lat="55.7587454" lon="49.1113720"><time>2022-10-29T09:21:29.257</time></trkpt><trkpt lat="55.7587363" lon="49.1112716"><time>2022-10-29T09:21:30.290</time></trkpt><trkpt lat="55.7587327" lon="49.1111716"><time>2022-10-29T09:21:31.237</time></trkpt><trkpt lat="55.7587263" lon="49.1110703"><time>2022-10-29T09:21:32.253</time></trkpt><trkpt lat="55.7587185" lon="49.1109633"><time>2022-10-29T09:21:33.253</time></trkpt><trkpt lat="55.7587112" lon="49.1108539"><time>2022-10-29T09:21:34.250</time></trkpt><trkpt lat="55.7586999" lon="49.1107430"><time>2022-10-29T09:21:35.250</time></trkpt><trkpt lat="55.7586870" lon="49.1106307"><time>2022-10-29T09:21:36.250</time></trkpt><trkpt lat="55.7586749" lon="49.1105207"><time>2022-10-29T09:21:37.247</time></trkpt><trkpt lat="55.7586632" lon="49.1104150"><time>2022-10-29T09:21:38.313</time></trkpt><trkpt lat="55.7586540" lon="49.1103095"><time>2022-10-29T09:21:39.253</time></trkpt><trkpt lat="55.7586458" lon="49.1102061"><time>2022-10-29T09:21:40.243</time></trkpt><trkpt lat="55.7586344" lon="49.1101065"><time>2022-10-29T09:21:41.263</time></trkpt><trkpt lat="55.7586205" lon="49.1100094"><time>2022-10-29T09:21:42.277</time></trkpt><trkpt lat="55.7586205" lon="49.1100094"><time>2022-10-29T09:21:42.297</time></trkpt><trkpt lat="55.7586058" lon="49.1099248"><time>2022-10-29T09:21:43.267</time></trkpt><trkpt lat="55.7585907" lon="49.1098717"><time>2022-10-29T09:21:44.237</time></trkpt><trkpt lat="55.7586273" lon="49.1099235"><time>2022-10-29T09:21:51.250</time></trkpt><trkpt lat="55.7586556" lon="49.1099908"><time>2022-10-29T09:23:27.250</time></trkpt><trkpt lat="55.7586642" lon="49.1100940"><time>2022-10-29T09:23:29.247</time></trkpt><trkpt lat="55.7586740" lon="49.1102382"><time>2022-10-29T09:23:31.250</time></trkpt><trkpt lat="55.7586813" lon="49.1103243"><time>2022-10-29T09:23:32.243</time></trkpt><trkpt lat="55.7586875" lon="49.1104181"><time>2022-10-29T09:23:33.243</time></trkpt><trkpt lat="55.7586969" lon="49.1105152"><time>2022-10-29T09:23:34.243</time></trkpt><trkpt lat="55.7587057" lon="49.1106143"><time>2022-10-29T09:23:35.247</time></trkpt><trkpt lat="55.7587144" lon="49.1107186"><time>2022-10-29T09:23:36.240</time></trkpt><trkpt lat="55.7587236" lon="49.1108252"><time>2022-10-29T09:23:37.247</time></trkpt><trkpt lat="55.7587317" lon="49.1109325"><time>2022-10-29T09:23:38.243</time></trkpt><trkpt lat="55.7587398" lon="49.1110414"><time>2022-10-29T09:23:39.250</time></trkpt><trkpt lat="55.7587489" lon="49.1111528"><time>2022-10-29T09:23:40.247</time></trkpt><trkpt lat="55.7587526" lon="49.1112658"><time>2022-10-29T09:23:41.243</time></trkpt><trkpt lat="55.7587523" lon="49.1113797"><time>2022-10-29T09:23:42.253</time></trkpt><trkpt lat="55.7587570" lon="49.1114902"><time>2022-10-29T09:23:43.247</time></trkpt><trkpt lat="55.7587651" lon="49.1116013"><time>2022-10-29T09:23:44.247</time></trkpt><trkpt lat="55.7587805" lon="49.1117130"><time>2022-10-29T09:23:45.250</time></trkpt><trkpt lat="55.7587973" lon="49.1118155"><time>2022-10-29T09:23:46.243</time></trkpt><trkpt lat="55.7588104" lon="49.1119224"><time>2022-10-29T09:23:47.253</time></trkpt><trkpt lat="55.7588230" lon="49.1120352"><time>2022-10-29T09:23:48.250</time></trkpt><trkpt lat="55.7588357" lon="49.1121475"><time>2022-10-29T09:23:49.247</time></trkpt><trkpt lat="55.7588497" lon="49.1122559"><time>2022-10-29T09:23:50.243</time></trkpt><trkpt lat="55.7588632" lon="49.1123638"><time>2022-10-29T09:23:51.243</time></trkpt><trkpt lat="55.7588763" lon="49.1124766"><time>2022-10-29T09:23:52.243</time></trkpt><trkpt lat="55.7588878" lon="49.1125869"><time>2022-10-29T09:23:53.247</time></trkpt><trkpt lat="55.7588986" lon="49.1126955"><time>2022-10-29T09:23:54.253</time></trkpt><trkpt lat="55.7589087" lon="49.1128032"><time>2022-10-29T09:23:55.250</time></trkpt><trkpt lat="55.7589201" lon="49.1129130"><time>2022-10-29T09:23:56.253</time></trkpt><trkpt lat="55.7589307" lon="49.1130244"><time>2022-10-29T09:23:57.247</time></trkpt><trkpt lat="55.7589374" lon="49.1131353"><time>2022-10-29T09:23:58.247</time></trkpt><trkpt lat="55.7589413" lon="49.1132464"><time>2022-10-29T09:23:59.247</time></trkpt><trkpt lat="55.7589452" lon="49.1133585"><time>2022-10-29T09:24:00.227</time></trkpt><trkpt lat="55.7589470" lon="49.1134717"><time>2022-10-29T09:24:01.250</time></trkpt><trkpt lat="55.7589508" lon="49.1135801"><time>2022-10-29T09:24:02.250</time></trkpt><trkpt lat="55.7589549" lon="49.1136873"><time>2022-10-29T09:24:03.253</time></trkpt><trkpt lat="55.7589611" lon="49.1137980"><time>2022-10-29T09:24:04.257</time></trkpt><trkpt lat="55.7589684" lon="49.1139155"><time>2022-10-29T09:24:05.247</time></trkpt><trkpt lat="55.7589767" lon="49.1140372"><time>2022-10-29T09:24:06.233</time></trkpt><trkpt lat="55.7589867" lon="49.1141645"><time>2022-10-29T09:24:07.247</time></trkpt><trkpt lat="55.7589973" lon="49.1142901"><time>2022-10-29T09:24:08.247</time></trkpt><trkpt lat="55.7590073" lon="49.1144153"><time>2022-10-29T09:24:09.250</time></trkpt><trkpt lat="55.7590178" lon="49.1145367"><time>2022-10-29T09:24:10.250</time></trkpt><trkpt lat="55.7590281" lon="49.1146578"><time>2022-10-29T09:24:11.250</time></trkpt><trkpt lat="55.7590360" lon="49.1147798"><time>2022-10-29T09:24:12.253</time></trkpt><trkpt lat="55.7590434" lon="49.1149010"><time>2022-10-29T09:24:13.230</time></trkpt><trkpt lat="55.7590540" lon="49.1150191"><time>2022-10-29T09:24:14.250</time></trkpt><trkpt lat="55.7590673" lon="49.1151366"><time>2022-10-29T09:24:15.250</time></trkpt><trkpt lat="55.7590877" lon="49.1152566"><time>2022-10-29T09:24:16.247</time></trkpt><trkpt lat="55.7591137" lon="49.1153790"><time>2022-10-29T09:24:17.253</time></trkpt><trkpt lat="55.7591395" lon="49.1155026"><time>2022-10-29T09:24:18.250</time></trkpt><trkpt lat="55.7591572" lon="49.1156273"><time>2022-10-29T09:24:19.253</time></trkpt><trkpt lat="55.7591709" lon="49.1157539"><time>2022-10-29T09:24:20.243</time></trkpt><trkpt lat="55.7591862" lon="49.1158774"><time>2022-10-29T09:24:21.243</time></trkpt><trkpt lat="55.7592020" lon="49.1159991"><time>2022-10-29T09:24:22.263</time></trkpt><trkpt lat="55.7592187" lon="49.1161235"><time>2022-10-29T09:24:23.250</time></trkpt><trkpt lat="55.7592367" lon="49.1162540"><time>2022-10-29T09:24:24.257</time></trkpt><trkpt lat="55.7592569" lon="49.1163845"><time>2022-10-29T09:24:25.253</time></trkpt><trkpt lat="55.7592748" lon="49.1165097"><time>2022-10-29T09:24:26.237</time></trkpt><trkpt lat="55.7592914" lon="49.1166333"><time>2022-10-29T09:24:27.250</time></trkpt><trkpt lat="55.7593066" lon="49.1167491"><time>2022-10-29T09:24:28.250</time></trkpt><trkpt lat="55.7593235" lon="49.1168588"><time>2022-10-29T09:24:29.253</time></trkpt><trkpt lat="55.7593438" lon="49.1169695"><time>2022-10-29T09:24:30.247</time></trkpt><trkpt lat="55.7593639" lon="49.1170783"><time>2022-10-29T09:24:31.247</time></trkpt><trkpt lat="55.7593824" lon="49.1171865"><time>2022-10-29T09:24:32.253</time></trkpt><trkpt lat="55.7593994" lon="49.1172961"><time>2022-10-29T09:24:33.243</time></trkpt><trkpt lat="55.7594146" lon="49.1174034"><time>2022-10-29T09:24:34.247</time></trkpt><trkpt lat="55.7594323" lon="49.1175091"><time>2022-10-29T09:24:35.250</time></trkpt><trkpt lat="55.7594507" lon="49.1176120"><time>2022-10-29T09:24:36.237</time></trkpt><trkpt lat="55.7594705" lon="49.1177133"><time>2022-10-29T09:24:37.243</time></trkpt><trkpt lat="55.7594899" lon="49.1178076"><time>2022-10-29T09:24:38.250</time></trkpt><trkpt lat="55.7595046" lon="49.1178944"><time>2022-10-29T09:24:39.240</time></trkpt><trkpt lat="55.7595157" lon="49.1179756"><time>2022-10-29T09:24:40.250</time></trkpt><trkpt lat="55.7595037" lon="49.1181142"><time>2022-10-29T09:24:42.257</time></trkpt><trkpt lat="55.7594321" lon="49.1181809"><time>2022-10-29T09:24:44.250</time></trkpt><trkpt lat="55.7593874" lon="49.1181926"><time>2022-10-29T09:24:45.230</time></trkpt><trkpt lat="55.7593420" lon="49.1181908"><time>2022-10-29T09:24:46.250</time></trkpt><trkpt lat="55.7592933" lon="49.1181855"><time>2022-10-29T09:24:47.247</time></trkpt><trkpt lat="55.7592461" lon="49.1181806"><time>2022-10-29T09:24:48.253</time></trkpt><trkpt lat="55.7591990" lon="49.1181764"><time>2022-10-29T09:24:49.243</time></trkpt><trkpt lat="55.7591105" lon="49.1181753"><time>2022-10-29T09:24:51.247</time></trkpt><trkpt lat="55.7590651" lon="49.1181807"><time>2022-10-29T09:24:52.257</time></trkpt><trkpt lat="55.7590154" lon="49.1181826"><time>2022-10-29T09:24:53.250</time></trkpt><trkpt lat="55.7589662" lon="49.1181817"><time>2022-10-29T09:24:54.253</time></trkpt><trkpt lat="55.7589157" lon="49.1181783"><time>2022-10-29T09:24:55.250</time></trkpt><trkpt lat="55.7588652" lon="49.1181772"><time>2022-10-29T09:24:56.247</time></trkpt><trkpt lat="55.7588162" lon="49.1181769"><time>2022-10-29T09:24:57.257</time></trkpt><trkpt lat="55.7587667" lon="49.1181781"><time>2022-10-29T09:24:58.247</time></trkpt><trkpt lat="55.7587173" lon="49.1181784"><time>2022-10-29T09:24:59.243</time></trkpt><trkpt lat="55.7586705" lon="49.1181741"><time>2022-10-29T09:25:00.243</time></trkpt><trkpt lat="55.7586201" lon="49.1181684"><time>2022-10-29T09:25:01.250</time></trkpt><trkpt lat="55.7585687" lon="49.1181628"><time>2022-10-29T09:25:02.247</time></trkpt><trkpt lat="55.7585153" lon="49.1181593"><time>2022-10-29T09:25:03.247</time></trkpt><trkpt lat="55.7584623" lon="49.1181573"><time>2022-10-29T09:25:04.250</time></trkpt><trkpt lat="55.7584085" lon="49.1181557"><time>2022-10-29T09:25:05.250</time></trkpt><trkpt lat="55.7583526" lon="49.1181550"><time>2022-10-29T09:25:06.237</time></trkpt><trkpt lat="55.7582963" lon="49.1181495"><time>2022-10-29T09:25:07.250</time></trkpt><trkpt lat="55.7582407" lon="49.1181380"><time>2022-10-29T09:25:08.250</time></trkpt><trkpt lat="55.7581878" lon="49.1181331"><time>2022-10-29T09:25:09.247</time></trkpt><trkpt lat="55.7581351" lon="49.1181331"><time>2022-10-29T09:25:10.253</time></trkpt><trkpt lat="55.7580836" lon="49.1181341"><time>2022-10-29T09:25:11.253</time></trkpt><trkpt lat="55.7580341" lon="49.1181359"><time>2022-10-29T09:25:12.250</time></trkpt><trkpt lat="55.7579830" lon="49.1181381"><time>2022-10-29T09:25:13.250</time></trkpt><trkpt lat="55.7579308" lon="49.1181427"><time>2022-10-29T09:25:14.243</time></trkpt><trkpt lat="55.7578785" lon="49.1181494"><time>2022-10-29T09:25:15.250</time></trkpt><trkpt lat="55.7578259" lon="49.1181550"><time>2022-10-29T09:25:16.250</time></trkpt><trkpt lat="55.7577725" lon="49.1181631"><time>2022-10-29T09:25:17.250</time></trkpt><trkpt lat="55.7577196" lon="49.1181688"><time>2022-10-29T09:25:18.257</time></trkpt><trkpt lat="55.7576704" lon="49.1181738"><time>2022-10-29T09:25:19.250</time></trkpt><trkpt lat="55.7576200" lon="49.1181816"><time>2022-10-29T09:25:20.247</time></trkpt><trkpt lat="55.7575741" lon="49.1182092"><time>2022-10-29T09:25:21.247</time></trkpt><trkpt lat="55.7575393" lon="49.1182628"><time>2022-10-29T09:25:22.250</time></trkpt><trkpt lat="55.7575136" lon="49.1183338"><time>2022-10-29T09:25:23.260</time></trkpt><trkpt lat="55.7574942" lon="49.1184129"><time>2022-10-29T09:25:24.253</time></trkpt><trkpt lat="55.7574826" lon="49.1185029"><time>2022-10-29T09:25:25.253</time></trkpt><trkpt lat="55.7574696" lon="49.1186024"><time>2022-10-29T09:25:26.247</time></trkpt><trkpt lat="55.7574612" lon="49.1187074"><time>2022-10-29T09:25:27.247</time></trkpt><trkpt lat="55.7574550" lon="49.1188019"><time>2022-10-29T09:25:28.243</time></trkpt><trkpt lat="55.7574349" lon="49.1188835"><time>2022-10-29T09:25:29.250</time></trkpt><trkpt lat="55.7574076" lon="49.1189494"><time>2022-10-29T09:25:30.253</time></trkpt><trkpt lat="55.7573625" lon="49.1189868"><time>2022-10-29T09:25:31.247</time></trkpt><trkpt lat="55.7573110" lon="49.1189998"><time>2022-10-29T09:25:32.253</time></trkpt><trkpt lat="55.7572545" lon="49.1190026"><time>2022-10-29T09:25:33.247</time></trkpt><trkpt lat="55.7571865" lon="49.1189994"><time>2022-10-29T09:25:34.253</time></trkpt><trkpt lat="55.7571194" lon="49.1189909"><time>2022-10-29T09:25:35.247</time></trkpt><trkpt lat="55.7570566" lon="49.1189840"><time>2022-10-29T09:25:36.253</time></trkpt><trkpt lat="55.7570028" lon="49.1189988"><time>2022-10-29T09:25:37.253</time></trkpt><trkpt lat="55.7569516" lon="49.1190426"><time>2022-10-29T09:25:38.250</time></trkpt><trkpt lat="55.7569049" lon="49.1191130"><time>2022-10-29T09:25:39.250</time></trkpt><trkpt lat="55.7568631" lon="49.1192041"><time>2022-10-29T09:25:40.253</time></trkpt><trkpt lat="55.7568265" lon="49.1193002"><time>2022-10-29T09:25:41.247</time></trkpt><trkpt lat="55.7568030" lon="49.1193922"><time>2022-10-29T09:25:42.247</time></trkpt><trkpt lat="55.7567897" lon="49.1194772"><time>2022-10-29T09:25:43.247</time></trkpt><trkpt lat="55.7567847" lon="49.1195586"><time>2022-10-29T09:25:44.243</time></trkpt><trkpt lat="55.7567844" lon="49.1196408"><time>2022-10-29T09:25:45.247</time></trkpt><trkpt lat="55.7567994" lon="49.1197856"><time>2022-10-29T09:25:47.280</time></trkpt><trkpt lat="55.7568068" lon="49.1198485"><time>2022-10-29T09:25:48.250</time></trkpt><trkpt lat="55.7568117" lon="49.1199543"><time>2022-10-29T09:25:50.253</time></trkpt><trkpt lat="55.7568107" lon="49.1200549"><time>2022-10-29T09:25:52.250</time></trkpt><trkpt lat="55.7567997" lon="49.1201642"><time>2022-10-29T09:25:54.250</time></trkpt><trkpt lat="55.7567819" lon="49.1202881"><time>2022-10-29T09:25:56.247</time></trkpt><trkpt lat="55.7567757" lon="49.1204274"><time>2022-10-29T09:25:58.250</time></trkpt><trkpt lat="55.7567795" lon="49.1205863"><time>2022-10-29T09:26:00.240</time></trkpt><trkpt lat="55.7567750" lon="49.1207406"><time>2022-10-29T09:26:02.247</time></trkpt><trkpt lat="55.7567611" lon="49.1208815"><time>2022-10-29T09:26:04.257</time></trkpt><trkpt lat="55.7567549" lon="49.1210466"><time>2022-10-29T09:26:06.250</time></trkpt><trkpt lat="55.7567505" lon="49.1211361"><time>2022-10-29T09:26:07.250</time></trkpt><trkpt lat="55.7567444" lon="49.1212253"><time>2022-10-29T09:26:08.253</time></trkpt><trkpt lat="55.7567374" lon="49.1213144"><time>2022-10-29T09:26:09.250</time></trkpt><trkpt lat="55.7567312" lon="49.1214055"><time>2022-10-29T09:26:10.250</time></trkpt><trkpt lat="55.7567218" lon="49.1215463"><time>2022-10-29T09:26:12.260</time></trkpt><trkpt lat="55.7567129" lon="49.1216597"><time>2022-10-29T09:26:14.250</time></trkpt><trkpt lat="55.7567067" lon="49.1217906"><time>2022-10-29T09:26:16.257</time></trkpt><trkpt lat="55.7566971" lon="49.1219352"><time>2022-10-29T09:26:18.250</time></trkpt><trkpt lat="55.7566953" lon="49.1220762"><time>2022-10-29T09:26:20.243</time></trkpt><trkpt lat="55.7566943" lon="49.1222279"><time>2022-10-29T09:26:22.247</time></trkpt><trkpt lat="55.7566994" lon="49.1223707"><time>2022-10-29T09:26:24.260</time></trkpt><trkpt lat="55.7566925" lon="49.1225293"><time>2022-10-29T09:26:26.250</time></trkpt><trkpt lat="55.7566880" lon="49.1226178"><time>2022-10-29T09:26:27.250</time></trkpt><trkpt lat="55.7566851" lon="49.1227071"><time>2022-10-29T09:26:28.253</time></trkpt><trkpt lat="55.7566853" lon="49.1227940"><time>2022-10-29T09:26:29.250</time></trkpt><trkpt lat="55.7566878" lon="49.1228741"><time>2022-10-29T09:26:30.247</time></trkpt><trkpt lat="55.7566822" lon="49.1230170"><time>2022-10-29T09:26:32.257</time></trkpt><trkpt lat="55.7566575" lon="49.1231121"><time>2022-10-29T09:26:34.253</time></trkpt><trkpt lat="55.7566182" lon="49.1230552"><time>2022-10-29T09:26:52.253</time></trkpt><trkpt lat="55.7565663" lon="49.1230126"><time>2022-10-29T09:26:55.293</time></trkpt><trkpt lat="55.7565603" lon="49.1230159"><time>2022-10-29T09:26:56.250</time></trkpt><trkpt lat="55.7565160" lon="49.1229899"><time>2022-10-29T09:27:00.240</time></trkpt><trkpt lat="55.7564767" lon="49.1229407"><time>2022-10-29T09:27:02.257</time></trkpt><trkpt lat="55.7564166" lon="49.1228515"><time>2022-10-29T09:27:04.247</time></trkpt><trkpt lat="55.7563473" lon="49.1227416"><time>2022-10-29T09:27:06.250</time></trkpt><trkpt lat="55.7563080" lon="49.1226825"><time>2022-10-29T09:27:07.253</time></trkpt><trkpt lat="55.7562621" lon="49.1226398"><time>2022-10-29T09:27:08.253</time></trkpt><trkpt lat="55.7562068" lon="49.1226265"><time>2022-10-29T09:27:09.247</time></trkpt><trkpt lat="55.7561595" lon="49.1226306"><time>2022-10-29T09:27:10.290</time></trkpt><trkpt lat="55.7561146" lon="49.1226367"><time>2022-10-29T09:27:11.250</time></trkpt><trkpt lat="55.7560264" lon="49.1226305"><time>2022-10-29T09:27:13.250</time></trkpt><trkpt lat="55.7559548" lon="49.1225563"><time>2022-10-29T09:27:15.250</time></trkpt><trkpt lat="55.7558793" lon="49.1225241"><time>2022-10-29T09:27:17.273</time></trkpt><trkpt lat="55.7558793" lon="49.1225241"><time>2022-10-29T09:27:17.297</time></trkpt><trkpt lat="55.7558124" lon="49.1226080"><time>2022-10-29T09:27:19.297</time></trkpt><trkpt lat="55.7557859" lon="49.1226346"><time>2022-10-29T09:27:20.257</time></trkpt><trkpt lat="55.7557390" lon="49.1226211"><time>2022-10-29T09:27:22.253</time></trkpt><trkpt lat="55.7556605" lon="49.1225976"><time>2022-10-29T09:27:24.250</time></trkpt><trkpt lat="55.7556084" lon="49.1225958"><time>2022-10-29T09:27:25.260</time></trkpt><trkpt lat="55.7555583" lon="49.1225921"><time>2022-10-29T09:27:26.250</time></trkpt><trkpt lat="55.7555072" lon="49.1225848"><time>2022-10-29T09:27:27.247</time></trkpt><trkpt lat="55.7554565" lon="49.1225803"><time>2022-10-29T09:27:28.247</time></trkpt><trkpt lat="55.7554047" lon="49.1225779"><time>2022-10-29T09:27:29.253</time></trkpt><trkpt lat="55.7553501" lon="49.1225778"><time>2022-10-29T09:27:30.257</time></trkpt><trkpt lat="55.7553027" lon="49.1225654"><time>2022-10-29T09:27:31.253</time></trkpt><trkpt lat="55.7552606" lon="49.1224480"><time>2022-10-29T09:27:33.247</time></trkpt><trkpt lat="55.7552630" lon="49.1223417"><time>2022-10-29T09:27:34.250</time></trkpt><trkpt lat="55.7552713" lon="49.1222429"><time>2022-10-29T09:27:35.247</time></trkpt><trkpt lat="55.7552920" lon="49.1221565"><time>2022-10-29T09:27:36.247</time></trkpt><trkpt lat="55.7553294" lon="49.1221076"><time>2022-10-29T09:27:37.247</time></trkpt><trkpt lat="55.7553780" lon="49.1220862"><time>2022-10-29T09:27:38.253</time></trkpt><trkpt lat="55.7554313" lon="49.1220830"><time>2022-10-29T09:27:39.243</time></trkpt><trkpt lat="55.7554920" lon="49.1220950"><time>2022-10-29T09:27:40.250</time></trkpt><trkpt lat="55.7555507" lon="49.1221118"><time>2022-10-29T09:27:41.260</time></trkpt><trkpt lat="55.7556090" lon="49.1221273"><time>2022-10-29T09:27:42.257</time></trkpt><trkpt lat="55.7556705" lon="49.1221411"><time>2022-10-29T09:27:43.250</time></trkpt><trkpt lat="55.7557301" lon="49.1221542"><time>2022-10-29T09:27:44.247</time></trkpt><trkpt lat="55.7557866" lon="49.1221607"><time>2022-10-29T09:27:45.253</time></trkpt><trkpt lat="55.7558419" lon="49.1221663"><time>2022-10-29T09:27:46.250</time></trkpt><trkpt lat="55.7558938" lon="49.1221725"><time>2022-10-29T09:27:47.260</time></trkpt><trkpt lat="55.7559458" lon="49.1221774"><time>2022-10-29T09:27:48.257</time></trkpt><trkpt lat="55.7560035" lon="49.1221815"><time>2022-10-29T09:27:49.253</time></trkpt><trkpt lat="55.7560643" lon="49.1221878"><time>2022-10-29T09:27:50.250</time></trkpt><trkpt lat="55.7561235" lon="49.1221900"><time>2022-10-29T09:27:51.253</time></trkpt><trkpt lat="55.7561818" lon="49.1221951"><time>2022-10-29T09:27:52.247</time></trkpt><trkpt lat="55.7562384" lon="49.1221979"><time>2022-10-29T09:27:53.247</time></trkpt><trkpt lat="55.7562936" lon="49.1221952"><time>2022-10-29T09:27:54.250</time></trkpt><trkpt lat="55.7563487" lon="49.1221892"><time>2022-10-29T09:27:55.247</time></trkpt><trkpt lat="55.7564027" lon="49.1221871"><time>2022-10-29T09:27:56.243</time></trkpt><trkpt lat="55.7564517" lon="49.1221907"><time>2022-10-29T09:27:57.250</time></trkpt><trkpt lat="55.7565247" lon="49.1222605"><time>2022-10-29T09:27:59.250</time></trkpt><trkpt lat="55.7565473" lon="49.1223395"><time>2022-10-29T09:28:00.247</time></trkpt><trkpt lat="55.7565621" lon="49.1224329"><time>2022-10-29T09:28:01.253</time></trkpt><trkpt lat="55.7565705" lon="49.1225326"><time>2022-10-29T09:28:02.253</time></trkpt><trkpt lat="55.7565732" lon="49.1226273"><time>2022-10-29T09:28:03.233</time></trkpt><trkpt lat="55.7565716" lon="49.1227204"><time>2022-10-29T09:28:04.250</time></trkpt><trkpt lat="55.7565721" lon="49.1228109"><time>2022-10-29T09:28:05.257</time></trkpt><trkpt lat="55.7565741" lon="49.1228907"><time>2022-10-29T09:28:06.257</time></trkpt><trkpt lat="55.7565748" lon="49.1230209"><time>2022-10-29T09:28:08.247</time></trkpt><trkpt lat="55.7566201" lon="49.1230851"><time>2022-10-29T09:28:14.250</time></trkpt><trkpt lat="55.7566598" lon="49.1230199"><time>2022-10-29T09:28:17.253</time></trkpt><trkpt lat="55.7566733" lon="49.1228937"><time>2022-10-29T09:28:19.247</time></trkpt><trkpt lat="55.7566661" lon="49.1227676"><time>2022-10-29T09:28:21.253</time></trkpt><trkpt lat="55.7566599" lon="49.1226252"><time>2022-10-29T09:28:23.250</time></trkpt><trkpt lat="55.7566620" lon="49.1224621"><time>2022-10-29T09:28:25.263</time></trkpt><trkpt lat="55.7566622" lon="49.1223664"><time>2022-10-29T09:28:27.250</time></trkpt><trkpt lat="55.7566659" lon="49.1222710"><time>2022-10-29T09:28:29.240</time></trkpt><trkpt lat="55.7566752" lon="49.1220030"><time>2022-10-29T09:28:30.243</time></trkpt><trkpt lat="55.7566750" lon="49.1219059"><time>2022-10-29T09:28:31.250</time></trkpt><trkpt lat="55.7566727" lon="49.1218172"><time>2022-10-29T09:28:32.250</time></trkpt><trkpt lat="55.7566722" lon="49.1217233"><time>2022-10-29T09:28:33.257</time></trkpt><trkpt lat="55.7566778" lon="49.1216275"><time>2022-10-29T09:28:34.247</time></trkpt><trkpt lat="55.7566880" lon="49.1215319"><time>2022-10-29T09:28:35.253</time></trkpt><trkpt lat="55.7567004" lon="49.1214322"><time>2022-10-29T09:28:36.260</time></trkpt><trkpt lat="55.7567109" lon="49.1213298"><time>2022-10-29T09:28:37.257</time></trkpt><trkpt lat="55.7567135" lon="49.1212206"><time>2022-10-29T09:28:38.250</time></trkpt><trkpt lat="55.7567148" lon="49.1211070"><time>2022-10-29T09:28:39.247</time></trkpt><trkpt lat="55.7567159" lon="49.1209984"><time>2022-10-29T09:28:40.247</time></trkpt><trkpt lat="55.7567197" lon="49.1208928"><time>2022-10-29T09:28:41.247</time></trkpt><trkpt lat="55.7567246" lon="49.1207919"><time>2022-10-29T09:28:42.257</time></trkpt><trkpt lat="55.7567261" lon="49.1207035"><time>2022-10-29T09:28:43.250</time></trkpt><trkpt lat="55.7567356" lon="49.1205525"><time>2022-10-29T09:28:45.247</time></trkpt><trkpt lat="55.7567513" lon="49.1203998"><time>2022-10-29T09:28:47.247</time></trkpt><trkpt lat="55.7567614" lon="49.1202587"><time>2022-10-29T09:28:49.250</time></trkpt><trkpt lat="55.7567714" lon="49.1201344"><time>2022-10-29T09:28:51.253</time></trkpt><trkpt lat="55.7567699" lon="49.1200355"><time>2022-10-29T09:28:53.257</time></trkpt><trkpt lat="55.7567741" lon="49.1199434"><time>2022-10-29T09:28:55.243</time></trkpt><trkpt lat="55.7567865" lon="49.1198507"><time>2022-10-29T09:28:57.253</time></trkpt><trkpt lat="55.7568015" lon="49.1197501"><time>2022-10-29T09:28:59.253</time></trkpt><trkpt lat="55.7568084" lon="49.1196245"><time>2022-10-29T09:29:01.240</time></trkpt><trkpt lat="55.7568045" lon="49.1194974"><time>2022-10-29T09:29:03.250</time></trkpt><trkpt lat="55.7568119" lon="49.1193611"><time>2022-10-29T09:29:05.250</time></trkpt><trkpt lat="55.7568173" lon="49.1192267"><time>2022-10-29T09:29:07.257</time></trkpt><trkpt lat="55.7568419" lon="49.1191212"><time>2022-10-29T09:29:09.243</time></trkpt><trkpt lat="55.7568920" lon="49.1190271"><time>2022-10-29T09:29:11.247</time></trkpt><trkpt lat="55.7569377" lon="49.1189771"><time>2022-10-29T09:29:13.237</time></trkpt><trkpt lat="55.7569910" lon="49.1189679"><time>2022-10-29T09:29:15.250</time></trkpt><trkpt lat="55.7571176" lon="49.1189358"><time>2022-10-29T09:29:16.247</time></trkpt><trkpt lat="55.7571706" lon="49.1189569"><time>2022-10-29T09:29:17.247</time></trkpt><trkpt lat="55.7572249" lon="49.1189834"><time>2022-10-29T09:29:18.247</time></trkpt><trkpt lat="55.7572828" lon="49.1190089"><time>2022-10-29T09:29:19.253</time></trkpt><trkpt lat="55.7573384" lon="49.1190187"><time>2022-10-29T09:29:20.250</time></trkpt><trkpt lat="55.7573888" lon="49.1190068"><time>2022-10-29T09:29:21.250</time></trkpt><trkpt lat="55.7574286" lon="49.1189667"><time>2022-10-29T09:29:22.260</time></trkpt><trkpt lat="55.7574585" lon="49.1189073"><time>2022-10-29T09:29:23.250</time></trkpt><trkpt lat="55.7574912" lon="49.1187671"><time>2022-10-29T09:29:25.250</time></trkpt><trkpt lat="55.7574972" lon="49.1186239"><time>2022-10-29T09:29:27.253</time></trkpt><trkpt lat="55.7574868" lon="49.1185270"><time>2022-10-29T09:29:29.247</time></trkpt><trkpt lat="55.7574684" lon="49.1184518"><time>2022-10-29T09:29:43.247</time></trkpt><trkpt lat="55.7574666" lon="49.1183488"><time>2022-10-29T09:29:45.250</time></trkpt><trkpt lat="55.7574365" lon="49.1182417"><time>2022-10-29T09:29:47.247</time></trkpt><trkpt lat="55.7573773" lon="49.1181688"><time>2022-10-29T09:29:49.253</time></trkpt><trkpt lat="55.7573058" lon="49.1181205"><time>2022-10-29T09:29:51.247</time></trkpt><trkpt lat="55.7572279" lon="49.1180704"><time>2022-10-29T09:29:53.253</time></trkpt><trkpt lat="55.7571485" lon="49.1180013"><time>2022-10-29T09:29:55.257</time></trkpt><trkpt lat="55.7571058" lon="49.1179551"><time>2022-10-29T09:29:56.253</time></trkpt><trkpt lat="55.7570572" lon="49.1179137"><time>2022-10-29T09:29:57.250</time></trkpt><trkpt lat="55.7570030" lon="49.1178791"><time>2022-10-29T09:29:58.250</time></trkpt><trkpt lat="55.7569476" lon="49.1178559"><time>2022-10-29T09:29:59.250</time></trkpt><trkpt lat="55.7568932" lon="49.1178386"><time>2022-10-29T09:30:00.250</time></trkpt><trkpt lat="55.7568396" lon="49.1178264"><time>2022-10-29T09:30:01.243</time></trkpt><trkpt lat="55.7567844" lon="49.1178158"><time>2022-10-29T09:30:02.250</time></trkpt><trkpt lat="55.7567262" lon="49.1178107"><time>2022-10-29T09:30:03.257</time></trkpt><trkpt lat="55.7566661" lon="49.1178074"><time>2022-10-29T09:30:04.250</time></trkpt><trkpt lat="55.7566052" lon="49.1178075"><time>2022-10-29T09:30:05.247</time></trkpt><trkpt lat="55.7565431" lon="49.1178071"><time>2022-10-29T09:30:06.250</time></trkpt><trkpt lat="55.7564803" lon="49.1178008"><time>2022-10-29T09:30:07.233</time></trkpt><trkpt lat="55.7564183" lon="49.1177939"><time>2022-10-29T09:30:08.263</time></trkpt><trkpt lat="55.7563570" lon="49.1177877"><time>2022-10-29T09:30:09.253</time></trkpt><trkpt lat="55.7562957" lon="49.1177787"><time>2022-10-29T09:30:10.250</time></trkpt><trkpt lat="55.7562359" lon="49.1177745"><time>2022-10-29T09:30:11.250</time></trkpt><trkpt lat="55.7561755" lon="49.1177756"><time>2022-10-29T09:30:12.253</time></trkpt><trkpt lat="55.7561162" lon="49.1177741"><time>2022-10-29T09:30:13.250</time></trkpt><trkpt lat="55.7560557" lon="49.1177690"><time>2022-10-29T09:30:14.257</time></trkpt><trkpt lat="55.7559939" lon="49.1177636"><time>2022-10-29T09:30:15.253</time></trkpt><trkpt lat="55.7559311" lon="49.1177591"><time>2022-10-29T09:30:16.250</time></trkpt><trkpt lat="55.7558679" lon="49.1177532"><time>2022-10-29T09:30:17.253</time></trkpt><trkpt lat="55.7558063" lon="49.1177471"><time>2022-10-29T09:30:18.260</time></trkpt><trkpt lat="55.7557449" lon="49.1177382"><time>2022-10-29T09:30:19.257</time></trkpt><trkpt lat="55.7556840" lon="49.1177254"><time>2022-10-29T09:30:20.257</time></trkpt><trkpt lat="55.7556233" lon="49.1177098"><time>2022-10-29T09:30:21.260</time></trkpt><trkpt lat="55.7555650" lon="49.1176887"><time>2022-10-29T09:30:22.253</time></trkpt><trkpt lat="55.7555088" lon="49.1176578"><time>2022-10-29T09:30:23.250</time></trkpt><trkpt lat="55.7554605" lon="49.1176062"><time>2022-10-29T09:30:24.260</time></trkpt><trkpt lat="55.7554238" lon="49.1175231"><time>2022-10-29T09:30:25.253</time></trkpt><trkpt lat="55.7554003" lon="49.1174027"><time>2022-10-29T09:30:26.250</time></trkpt><trkpt lat="55.7553863" lon="49.1172653"><time>2022-10-29T09:30:27.253</time></trkpt><trkpt lat="55.7553730" lon="49.1171229"><time>2022-10-29T09:30:28.253</time></trkpt><trkpt lat="55.7553660" lon="49.1169813"><time>2022-10-29T09:30:29.253</time></trkpt><trkpt lat="55.7553598" lon="49.1168510"><time>2022-10-29T09:30:30.253</time></trkpt><trkpt lat="55.7553441" lon="49.1167261"><time>2022-10-29T09:30:31.257</time></trkpt><trkpt lat="55.7553250" lon="49.1165967"><time>2022-10-29T09:30:32.253</time></trkpt><trkpt lat="55.7553047" lon="49.1164680"><time>2022-10-29T09:30:33.257</time></trkpt><trkpt lat="55.7552842" lon="49.1163419"><time>2022-10-29T09:30:34.253</time></trkpt><trkpt lat="55.7552682" lon="49.1162228"><time>2022-10-29T09:30:35.247</time></trkpt><trkpt lat="55.7552499" lon="49.1161078"><time>2022-10-29T09:30:36.260</time></trkpt><trkpt lat="55.7552277" lon="49.1159969"><time>2022-10-29T09:30:37.257</time></trkpt><trkpt lat="55.7552038" lon="49.1158895"><time>2022-10-29T09:30:38.243</time></trkpt><trkpt lat="55.7551804" lon="49.1157803"><time>2022-10-29T09:30:39.250</time></trkpt><trkpt lat="55.7551569" lon="49.1156711"><time>2022-10-29T09:30:40.253</time></trkpt><trkpt lat="55.7551328" lon="49.1155671"><time>2022-10-29T09:30:41.250</time></trkpt><trkpt lat="55.7551087" lon="49.1154658"><time>2022-10-29T09:30:42.253</time></trkpt><trkpt lat="55.7550906" lon="49.1153656"><time>2022-10-29T09:30:43.250</time></trkpt><trkpt lat="55.7550813" lon="49.1152600"><time>2022-10-29T09:30:44.240</time></trkpt><trkpt lat="55.7550846" lon="49.1151547"><time>2022-10-29T09:30:45.253</time></trkpt><trkpt lat="55.7550997" lon="49.1150543"><time>2022-10-29T09:30:46.253</time></trkpt><trkpt lat="55.7551298" lon="49.1149668"><time>2022-10-29T09:30:47.257</time></trkpt><trkpt lat="55.7551656" lon="49.1148929"><time>2022-10-29T09:30:48.253</time></trkpt><trkpt lat="55.7552017" lon="49.1148244"><time>2022-10-29T09:30:49.260</time></trkpt><trkpt lat="55.7552340" lon="49.1147564"><time>2022-10-29T09:30:50.253</time></trkpt><trkpt lat="55.7552607" lon="49.1146809"><time>2022-10-29T09:30:51.247</time></trkpt><trkpt lat="55.7552824" lon="49.1145957"><time>2022-10-29T09:30:52.250</time></trkpt><trkpt lat="55.7553007" lon="49.1144993"><time>2022-10-29T09:30:53.260</time></trkpt><trkpt lat="55.7553164" lon="49.1143971"><time>2022-10-29T09:30:54.247</time></trkpt><trkpt lat="55.7553267" lon="49.1142919"><time>2022-10-29T09:30:55.243</time></trkpt><trkpt lat="55.7553340" lon="49.1141829"><time>2022-10-29T09:30:56.250</time></trkpt><trkpt lat="55.7553376" lon="49.1140726"><time>2022-10-29T09:30:57.243</time></trkpt><trkpt lat="55.7553439" lon="49.1139594"><time>2022-10-29T09:30:58.233</time></trkpt><trkpt lat="55.7553529" lon="49.1138425"><time>2022-10-29T09:30:59.250</time></trkpt><trkpt lat="55.7553624" lon="49.1137288"><time>2022-10-29T09:31:00.243</time></trkpt><trkpt lat="55.7553736" lon="49.1136163"><time>2022-10-29T09:31:01.247</time></trkpt><trkpt lat="55.7553846" lon="49.1135020"><time>2022-10-29T09:31:02.247</time></trkpt><trkpt lat="55.7553959" lon="49.1133837"><time>2022-10-29T09:31:03.253</time></trkpt><trkpt lat="55.7554054" lon="49.1132567"><time>2022-10-29T09:31:04.250</time></trkpt><trkpt lat="55.7554154" lon="49.1131297"><time>2022-10-29T09:31:05.287</time></trkpt><trkpt lat="55.7554285" lon="49.1130058"><time>2022-10-29T09:31:06.250</time></trkpt><trkpt lat="55.7554398" lon="49.1128827"><time>2022-10-29T09:31:07.237</time></trkpt><trkpt lat="55.7554502" lon="49.1127611"><time>2022-10-29T09:31:08.240</time></trkpt><trkpt lat="55.7554590" lon="49.1126407"><time>2022-10-29T09:31:09.253</time></trkpt><trkpt lat="55.7554702" lon="49.1125206"><time>2022-10-29T09:31:10.260</time></trkpt><trkpt lat="55.7554817" lon="49.1123985"><time>2022-10-29T09:31:11.257</time></trkpt><trkpt lat="55.7554912" lon="49.1122762"><time>2022-10-29T09:31:12.253</time></trkpt><trkpt lat="55.7554981" lon="49.1121510"><time>2022-10-29T09:31:13.263</time></trkpt><trkpt lat="55.7555014" lon="49.1120271"><time>2022-10-29T09:31:14.267</time></trkpt><trkpt lat="55.7555046" lon="49.1119083"><time>2022-10-29T09:31:15.250</time></trkpt><trkpt lat="55.7555108" lon="49.1117940"><time>2022-10-29T09:31:16.257</time></trkpt><trkpt lat="55.7555166" lon="49.1116747"><time>2022-10-29T09:31:17.250</time></trkpt><trkpt lat="55.7555181" lon="49.1115551"><time>2022-10-29T09:31:18.297</time></trkpt><trkpt lat="55.7555193" lon="49.1114348"><time>2022-10-29T09:31:19.250</time></trkpt><trkpt lat="55.7555199" lon="49.1113162"><time>2022-10-29T09:31:20.253</time></trkpt><trkpt lat="55.7555185" lon="49.1111987"><time>2022-10-29T09:31:21.247</time></trkpt><trkpt lat="55.7555135" lon="49.1110825"><time>2022-10-29T09:31:22.253</time></trkpt><trkpt lat="55.7554991" lon="49.1109688"><time>2022-10-29T09:31:23.250</time></trkpt><trkpt lat="55.7554702" lon="49.1108621"><time>2022-10-29T09:31:24.260</time></trkpt><trkpt lat="55.7554313" lon="49.1107687"><time>2022-10-29T09:31:25.227</time></trkpt><trkpt lat="55.7553828" lon="49.1106857"><time>2022-10-29T09:31:26.283</time></trkpt><trkpt lat="55.7553338" lon="49.1106095"><time>2022-10-29T09:31:27.257</time></trkpt><trkpt lat="55.7552921" lon="49.1105371"><time>2022-10-29T09:31:28.253</time></trkpt><trkpt lat="55.7552529" lon="49.1104605"><time>2022-10-29T09:31:29.250</time></trkpt><trkpt lat="55.7552189" lon="49.1103750"><time>2022-10-29T09:31:30.250</time></trkpt><trkpt lat="55.7551996" lon="49.1102759"><time>2022-10-29T09:31:31.253</time></trkpt><trkpt lat="55.7551924" lon="49.1101648"><time>2022-10-29T09:31:32.257</time></trkpt><trkpt lat="55.7551943" lon="49.1100451"><time>2022-10-29T09:31:33.257</time></trkpt><trkpt lat="55.7551960" lon="49.1099248"><time>2022-10-29T09:31:34.250</time></trkpt><trkpt lat="55.7551944" lon="49.1098117"><time>2022-10-29T09:31:35.250</time></trkpt><trkpt lat="55.7551940" lon="49.1097002"><time>2022-10-29T09:31:36.260</time></trkpt><trkpt lat="55.7551933" lon="49.1095883"><time>2022-10-29T09:31:37.253</time></trkpt><trkpt lat="55.7551917" lon="49.1094796"><time>2022-10-29T09:31:38.297</time></trkpt><trkpt lat="55.7551911" lon="49.1093711"><time>2022-10-29T09:31:39.253</time></trkpt><trkpt lat="55.7551895" lon="49.1092657"><time>2022-10-29T09:31:40.260</time></trkpt><trkpt lat="55.7551865" lon="49.1091640"><time>2022-10-29T09:31:41.250</time></trkpt><trkpt lat="55.7551827" lon="49.1090636"><time>2022-10-29T09:31:42.253</time></trkpt><trkpt lat="55.7551823" lon="49.1089617"><time>2022-10-29T09:31:43.257</time></trkpt><trkpt lat="55.7551796" lon="49.1088579"><time>2022-10-29T09:31:44.250</time></trkpt><trkpt lat="55.7551758" lon="49.1087520"><time>2022-10-29T09:31:45.247</time></trkpt><trkpt lat="55.7551748" lon="49.1086456"><time>2022-10-29T09:31:46.247</time></trkpt><trkpt lat="55.7551757" lon="49.1085392"><time>2022-10-29T09:31:47.293</time></trkpt><trkpt lat="55.7551738" lon="49.1084312"><time>2022-10-29T09:31:48.257</time></trkpt><trkpt lat="55.7551708" lon="49.1083232"><time>2022-10-29T09:31:49.250</time></trkpt><trkpt lat="55.7551670" lon="49.1082175"><time>2022-10-29T09:31:50.250</time></trkpt><trkpt lat="55.7551647" lon="49.1081121"><time>2022-10-29T09:31:51.247</time></trkpt><trkpt lat="55.7551633" lon="49.1080085"><time>2022-10-29T09:31:52.253</time></trkpt><trkpt lat="55.7551610" lon="49.1079016"><time>2022-10-29T09:31:53.253</time></trkpt><trkpt lat="55.7551579" lon="49.1077968"><time>2022-10-29T09:31:54.237</time></trkpt><trkpt lat="55.7551530" lon="49.1076955"><time>2022-10-29T09:31:55.247</time></trkpt><trkpt lat="55.7551495" lon="49.1075952"><time>2022-10-29T09:31:56.247</time></trkpt><trkpt lat="55.7551485" lon="49.1074958"><time>2022-10-29T09:31:57.253</time></trkpt><trkpt lat="55.7551492" lon="49.1073999"><time>2022-10-29T09:31:58.253</time></trkpt><trkpt lat="55.7551515" lon="49.1073035"><time>2022-10-29T09:31:59.240</time></trkpt><trkpt lat="55.7551520" lon="49.1072070"><time>2022-10-29T09:32:00.247</time></trkpt><trkpt lat="55.7551548" lon="49.1071111"><time>2022-10-29T09:32:01.247</time></trkpt><trkpt lat="55.7551599" lon="49.1070137"><time>2022-10-29T09:32:02.247</time></trkpt><trkpt lat="55.7551677" lon="49.1069146"><time>2022-10-29T09:32:03.243</time></trkpt><trkpt lat="55.7551749" lon="49.1068158"><time>2022-10-29T09:32:04.303</time></trkpt><trkpt lat="55.7551840" lon="49.1067121"><time>2022-10-29T09:32:05.247</time></trkpt><trkpt lat="55.7551942" lon="49.1066075"><time>2022-10-29T09:32:06.250</time></trkpt><trkpt lat="55.7552021" lon="49.1065021"><time>2022-10-29T09:32:07.240</time></trkpt><trkpt lat="55.7552075" lon="49.1063955"><time>2022-10-29T09:32:08.247</time></trkpt><trkpt lat="55.7552142" lon="49.1062889"><time>2022-10-29T09:32:09.247</time></trkpt><trkpt lat="55.7552202" lon="49.1061801"><time>2022-10-29T09:32:10.247</time></trkpt><trkpt lat="55.7552277" lon="49.1060711"><time>2022-10-29T09:32:11.247</time></trkpt><trkpt lat="55.7552332" lon="49.1059615"><time>2022-10-29T09:32:12.253</time></trkpt><trkpt lat="55.7552365" lon="49.1058540"><time>2022-10-29T09:32:13.247</time></trkpt><trkpt lat="55.7552354" lon="49.1057469"><time>2022-10-29T09:32:14.253</time></trkpt><trkpt lat="55.7552293" lon="49.1056441"><time>2022-10-29T09:32:15.253</time></trkpt><trkpt lat="55.7552208" lon="49.1055503"><time>2022-10-29T09:32:16.250</time></trkpt><trkpt lat="55.7552061" lon="49.1054638"><time>2022-10-29T09:32:17.250</time></trkpt><trkpt lat="55.7551767" lon="49.1053859"><time>2022-10-29T09:32:18.250</time></trkpt><trkpt lat="55.7551311" lon="49.1053193"><time>2022-10-29T09:32:19.250</time></trkpt><trkpt lat="55.7550745" lon="49.1052743"><time>2022-10-29T09:32:20.247</time></trkpt><trkpt lat="55.7550156" lon="49.1052529"><time>2022-10-29T09:32:21.257</time></trkpt><trkpt lat="55.7549627" lon="49.1052516"><time>2022-10-29T09:32:22.263</time></trkpt><trkpt lat="55.7549101" lon="49.1052539"><time>2022-10-29T09:32:23.253</time></trkpt><trkpt lat="55.7548569" lon="49.1052568"><time>2022-10-29T09:32:24.230</time></trkpt><trkpt lat="55.7548027" lon="49.1052611"><time>2022-10-29T09:32:25.230</time></trkpt><trkpt lat="55.7547478" lon="49.1052645"><time>2022-10-29T09:32:26.257</time></trkpt><trkpt lat="55.7546958" lon="49.1052592"><time>2022-10-29T09:32:27.247</time></trkpt><trkpt lat="55.7546410" lon="49.1052510"><time>2022-10-29T09:32:28.250</time></trkpt><trkpt lat="55.7545867" lon="49.1052476"><time>2022-10-29T09:32:29.223</time></trkpt><trkpt lat="55.7545294" lon="49.1052430"><time>2022-10-29T09:32:30.247</time></trkpt><trkpt lat="55.7544708" lon="49.1052324"><time>2022-10-29T09:32:31.247</time></trkpt><trkpt lat="55.7544113" lon="49.1052162"><time>2022-10-29T09:32:32.250</time></trkpt><trkpt lat="55.7543508" lon="49.1052008"><time>2022-10-29T09:32:33.247</time></trkpt><trkpt lat="55.7542895" lon="49.1051828"><time>2022-10-29T09:32:34.227</time></trkpt><trkpt lat="55.7542280" lon="49.1051659"><time>2022-10-29T09:32:35.233</time></trkpt><trkpt lat="55.7541673" lon="49.1051519"><time>2022-10-29T09:32:36.247</time></trkpt><trkpt lat="55.7541072" lon="49.1051371"><time>2022-10-29T09:32:37.247</time></trkpt><trkpt lat="55.7540462" lon="49.1051229"><time>2022-10-29T09:32:38.250</time></trkpt><trkpt lat="55.7539865" lon="49.1051107"><time>2022-10-29T09:32:39.253</time></trkpt><trkpt lat="55.7539276" lon="49.1051006"><time>2022-10-29T09:32:40.247</time></trkpt><trkpt lat="55.7538675" lon="49.1050912"><time>2022-10-29T09:32:41.247</time></trkpt><trkpt lat="55.7538068" lon="49.1050782"><time>2022-10-29T09:32:42.247</time></trkpt><trkpt lat="55.7537458" lon="49.1050684"><time>2022-10-29T09:32:43.247</time></trkpt><trkpt lat="55.7536864" lon="49.1050596"><time>2022-10-29T09:32:44.250</time></trkpt><trkpt lat="55.7536273" lon="49.1050483"><time>2022-10-29T09:32:45.253</time></trkpt><trkpt lat="55.7535673" lon="49.1050404"><time>2022-10-29T09:32:46.250</time></trkpt><trkpt lat="55.7535068" lon="49.1050363"><time>2022-10-29T09:32:47.247</time></trkpt><trkpt lat="55.7534468" lon="49.1050304"><time>2022-10-29T09:32:48.247</time></trkpt><trkpt lat="55.7533882" lon="49.1050222"><time>2022-10-29T09:32:49.250</time></trkpt><trkpt lat="55.7533300" lon="49.1050140"><time>2022-10-29T09:32:50.247</time></trkpt><trkpt lat="55.7532711" lon="49.1050088"><time>2022-10-29T09:32:51.270</time></trkpt><trkpt lat="55.7532129" lon="49.1050103"><time>2022-10-29T09:32:52.253</time></trkpt><trkpt lat="55.7531547" lon="49.1050033"><time>2022-10-29T09:32:53.247</time></trkpt><trkpt lat="55.7530974" lon="49.1049921"><time>2022-10-29T09:32:54.247</time></trkpt><trkpt lat="55.7530392" lon="49.1049805"><time>2022-10-29T09:32:55.250</time></trkpt><trkpt lat="55.7529813" lon="49.1049695"><time>2022-10-29T09:32:56.247</time></trkpt><trkpt lat="55.7529240" lon="49.1049566"><time>2022-10-29T09:32:57.233</time></trkpt><trkpt lat="55.7528667" lon="49.1049465"><time>2022-10-29T09:32:58.247</time></trkpt><trkpt lat="55.7528095" lon="49.1049407"><time>2022-10-29T09:32:59.247</time></trkpt><trkpt lat="55.7527517" lon="49.1049397"><time>2022-10-29T09:33:00.247</time></trkpt><trkpt lat="55.7526926" lon="49.1049333"><time>2022-10-29T09:33:01.227</time></trkpt><trkpt lat="55.7526329" lon="49.1049274"><time>2022-10-29T09:33:02.247</time></trkpt><trkpt lat="55.7525732" lon="49.1049204"><time>2022-10-29T09:33:03.243</time></trkpt><trkpt lat="55.7525134" lon="49.1049102"><time>2022-10-29T09:33:04.247</time></trkpt><trkpt lat="55.7524528" lon="49.1049023"><time>2022-10-29T09:33:05.247</time></trkpt><trkpt lat="55.7523911" lon="49.1048982"><time>2022-10-29T09:33:06.243</time></trkpt><trkpt lat="55.7523295" lon="49.1048889"><time>2022-10-29T09:33:07.247</time></trkpt><trkpt lat="55.7522689" lon="49.1048825"><time>2022-10-29T09:33:08.247</time></trkpt><trkpt lat="55.7522083" lon="49.1048817"><time>2022-10-29T09:33:09.250</time></trkpt><trkpt lat="55.7521487" lon="49.1048809"><time>2022-10-29T09:33:10.247</time></trkpt><trkpt lat="55.7520880" lon="49.1048781"><time>2022-10-29T09:33:11.247</time></trkpt><trkpt lat="55.7520273" lon="49.1048741"><time>2022-10-29T09:33:12.253</time></trkpt><trkpt lat="55.7519665" lon="49.1048724"><time>2022-10-29T09:33:13.247</time></trkpt><trkpt lat="55.7519048" lon="49.1048690"><time>2022-10-29T09:33:14.247</time></trkpt><trkpt lat="55.7518435" lon="49.1048678"><time>2022-10-29T09:33:15.267</time></trkpt><trkpt lat="55.7517824" lon="49.1048677"><time>2022-10-29T09:33:16.247</time></trkpt><trkpt lat="55.7517193" lon="49.1048656"><time>2022-10-29T09:33:17.250</time></trkpt><trkpt lat="55.7516560" lon="49.1048629"><time>2022-10-29T09:33:18.250</time></trkpt><trkpt lat="55.7515930" lon="49.1048591"><time>2022-10-29T09:33:19.250</time></trkpt><trkpt lat="55.7515289" lon="49.1048553"><time>2022-10-29T09:33:20.250</time></trkpt><trkpt lat="55.7514636" lon="49.1048531"><time>2022-10-29T09:33:21.253</time></trkpt><trkpt lat="55.7513979" lon="49.1048505"><time>2022-10-29T09:33:22.253</time></trkpt><trkpt lat="55.7513345" lon="49.1048460"><time>2022-10-29T09:33:23.247</time></trkpt><trkpt lat="55.7512757" lon="49.1048436"><time>2022-10-29T09:33:24.247</time></trkpt><trkpt lat="55.7512196" lon="49.1048399"><time>2022-10-29T09:33:25.247</time></trkpt><trkpt lat="55.7511627" lon="49.1048356"><time>2022-10-29T09:33:26.250</time></trkpt><trkpt lat="55.7511029" lon="49.1048364"><time>2022-10-29T09:33:27.247</time></trkpt><trkpt lat="55.7510438" lon="49.1048380"><time>2022-10-29T09:33:28.250</time></trkpt><trkpt lat="55.7509839" lon="49.1048380"><time>2022-10-29T09:33:29.247</time></trkpt><trkpt lat="55.7509219" lon="49.1048379"><time>2022-10-29T09:33:30.247</time></trkpt><trkpt lat="55.7508603" lon="49.1048366"><time>2022-10-29T09:33:31.247</time></trkpt><trkpt lat="55.7507987" lon="49.1048298"><time>2022-10-29T09:33:32.250</time></trkpt><trkpt lat="55.7507374" lon="49.1048247"><time>2022-10-29T09:33:33.247</time></trkpt><trkpt lat="55.7506759" lon="49.1048226"><time>2022-10-29T09:33:34.247</time></trkpt><trkpt lat="55.7506132" lon="49.1048216"><time>2022-10-29T09:33:35.247</time></trkpt><trkpt lat="55.7505490" lon="49.1048192"><time>2022-10-29T09:33:36.250</time></trkpt><trkpt lat="55.7504830" lon="49.1048162"><time>2022-10-29T09:33:37.247</time></trkpt><trkpt lat="55.7504195" lon="49.1048103"><time>2022-10-29T09:33:38.247</time></trkpt><trkpt lat="55.7503579" lon="49.1048089"><time>2022-10-29T09:33:39.270</time></trkpt><trkpt lat="55.7502952" lon="49.1048059"><time>2022-10-29T09:33:40.247</time></trkpt><trkpt lat="55.7502322" lon="49.1048037"><time>2022-10-29T09:33:41.247</time></trkpt><trkpt lat="55.7501711" lon="49.1047993"><time>2022-10-29T09:33:42.250</time></trkpt><trkpt lat="55.7501096" lon="49.1047975"><time>2022-10-29T09:33:43.250</time></trkpt><trkpt lat="55.7500476" lon="49.1047926"><time>2022-10-29T09:33:44.237</time></trkpt><trkpt lat="55.7499846" lon="49.1047924"><time>2022-10-29T09:33:45.250</time></trkpt><trkpt lat="55.7499215" lon="49.1047907"><time>2022-10-29T09:33:46.247</time></trkpt><trkpt lat="55.7498573" lon="49.1047871"><time>2022-10-29T09:33:47.247</time></trkpt><trkpt lat="55.7497938" lon="49.1047870"><time>2022-10-29T09:33:48.247</time></trkpt><trkpt lat="55.7497311" lon="49.1047881"><time>2022-10-29T09:33:49.247</time></trkpt><trkpt lat="55.7496677" lon="49.1047880"><time>2022-10-29T09:33:50.250</time></trkpt><trkpt lat="55.7496065" lon="49.1047869"><time>2022-10-29T09:33:51.273</time></trkpt><trkpt lat="55.7495453" lon="49.1047900"><time>2022-10-29T09:33:52.250</time></trkpt><trkpt lat="55.7494833" lon="49.1047910"><time>2022-10-29T09:33:53.250</time></trkpt><trkpt lat="55.7494215" lon="49.1047904"><time>2022-10-29T09:33:54.250</time></trkpt><trkpt lat="55.7493580" lon="49.1047922"><time>2022-10-29T09:33:55.247</time></trkpt><trkpt lat="55.7492939" lon="49.1047916"><time>2022-10-29T09:33:56.250</time></trkpt><trkpt lat="55.7492298" lon="49.1047941"><time>2022-10-29T09:33:57.257</time></trkpt><trkpt lat="55.7491668" lon="49.1047949"><time>2022-10-29T09:33:58.250</time></trkpt><trkpt lat="55.7491026" lon="49.1047930"><time>2022-10-29T09:33:59.253</time></trkpt><trkpt lat="55.7490387" lon="49.1047904"><time>2022-10-29T09:34:00.247</time></trkpt><trkpt lat="55.7489769" lon="49.1047884"><time>2022-10-29T09:34:01.250</time></trkpt><trkpt lat="55.7489172" lon="49.1047858"><time>2022-10-29T09:34:02.250</time></trkpt><trkpt lat="55.7488577" lon="49.1047871"><time>2022-10-29T09:34:03.247</time></trkpt><trkpt lat="55.7487963" lon="49.1047888"><time>2022-10-29T09:34:04.247</time></trkpt><trkpt lat="55.7487342" lon="49.1047922"><time>2022-10-29T09:34:05.250</time></trkpt><trkpt lat="55.7486726" lon="49.1047925"><time>2022-10-29T09:34:06.250</time></trkpt><trkpt lat="55.7486118" lon="49.1047927"><time>2022-10-29T09:34:07.247</time></trkpt><trkpt lat="55.7485499" lon="49.1047909"><time>2022-10-29T09:34:08.247</time></trkpt><trkpt lat="55.7484885" lon="49.1047916"><time>2022-10-29T09:34:09.253</time></trkpt><trkpt lat="55.7484255" lon="49.1047910"><time>2022-10-29T09:34:10.250</time></trkpt><trkpt lat="55.7483626" lon="49.1047930"><time>2022-10-29T09:34:11.247</time></trkpt><trkpt lat="55.7483000" lon="49.1047933"><time>2022-10-29T09:34:12.250</time></trkpt><trkpt lat="55.7482362" lon="49.1047937"><time>2022-10-29T09:34:13.247</time></trkpt><trkpt lat="55.7481715" lon="49.1047953"><time>2022-10-29T09:34:14.247</time></trkpt><trkpt lat="55.7481080" lon="49.1047966"><time>2022-10-29T09:34:15.250</time></trkpt><trkpt lat="55.7480450" lon="49.1047945"><time>2022-10-29T09:34:16.247</time></trkpt><trkpt lat="55.7479817" lon="49.1047974"><time>2022-10-29T09:34:17.230</time></trkpt><trkpt lat="55.7479186" lon="49.1048004"><time>2022-10-29T09:34:18.260</time></trkpt><trkpt lat="55.7478562" lon="49.1048013"><time>2022-10-29T09:34:19.253</time></trkpt><trkpt lat="55.7477965" lon="49.1048011"><time>2022-10-29T09:34:20.253</time></trkpt><trkpt lat="55.7477354" lon="49.1047991"><time>2022-10-29T09:34:21.253</time></trkpt><trkpt lat="55.7476729" lon="49.1047979"><time>2022-10-29T09:34:22.257</time></trkpt><trkpt lat="55.7476119" lon="49.1047965"><time>2022-10-29T09:34:23.250</time></trkpt><trkpt lat="55.7475508" lon="49.1047959"><time>2022-10-29T09:34:24.247</time></trkpt><trkpt lat="55.7474884" lon="49.1047954"><time>2022-10-29T09:34:25.247</time></trkpt><trkpt lat="55.7474251" lon="49.1047948"><time>2022-10-29T09:34:26.247</time></trkpt><trkpt lat="55.7473607" lon="49.1047943"><time>2022-10-29T09:34:27.237</time></trkpt><trkpt lat="55.7472972" lon="49.1047940"><time>2022-10-29T09:34:28.247</time></trkpt><trkpt lat="55.7472345" lon="49.1047925"><time>2022-10-29T09:34:29.233</time></trkpt><trkpt lat="55.7471714" lon="49.1047914"><time>2022-10-29T09:34:30.247</time></trkpt><trkpt lat="55.7471095" lon="49.1047926"><time>2022-10-29T09:34:31.250</time></trkpt><trkpt lat="55.7470472" lon="49.1047913"><time>2022-10-29T09:34:32.250</time></trkpt><trkpt lat="55.7469821" lon="49.1047925"><time>2022-10-29T09:34:33.247</time></trkpt><trkpt lat="55.7469167" lon="49.1047943"><time>2022-10-29T09:34:34.243</time></trkpt><trkpt lat="55.7468520" lon="49.1047935"><time>2022-10-29T09:34:35.240</time></trkpt><trkpt lat="55.7467871" lon="49.1047922"><time>2022-10-29T09:34:36.280</time></trkpt><trkpt lat="55.7467231" lon="49.1047905"><time>2022-10-29T09:34:37.247</time></trkpt><trkpt lat="55.7466563" lon="49.1047873"><time>2022-10-29T09:34:38.253</time></trkpt><trkpt lat="55.7465879" lon="49.1047837"><time>2022-10-29T09:34:39.247</time></trkpt><trkpt lat="55.7465193" lon="49.1047769"><time>2022-10-29T09:34:40.257</time></trkpt><trkpt lat="55.7464498" lon="49.1047724"><time>2022-10-29T09:34:41.247</time></trkpt><trkpt lat="55.7463794" lon="49.1047690"><time>2022-10-29T09:34:42.267</time></trkpt><trkpt lat="55.7463097" lon="49.1047674"><time>2022-10-29T09:34:43.257</time></trkpt><trkpt lat="55.7462418" lon="49.1047642"><time>2022-10-29T09:34:44.250</time></trkpt><trkpt lat="55.7461744" lon="49.1047670"><time>2022-10-29T09:34:45.257</time></trkpt><trkpt lat="55.7461070" lon="49.1047695"><time>2022-10-29T09:34:46.253</time></trkpt><trkpt lat="55.7460402" lon="49.1047738"><time>2022-10-29T09:34:47.253</time></trkpt><trkpt lat="55.7459755" lon="49.1047775"><time>2022-10-29T09:34:48.257</time></trkpt><trkpt lat="55.7459114" lon="49.1047782"><time>2022-10-29T09:34:49.280</time></trkpt><trkpt lat="55.7458475" lon="49.1047806"><time>2022-10-29T09:34:50.253</time></trkpt><trkpt lat="55.7457830" lon="49.1047835"><time>2022-10-29T09:34:51.253</time></trkpt><trkpt lat="55.7457175" lon="49.1047825"><time>2022-10-29T09:34:52.260</time></trkpt><trkpt lat="55.7456519" lon="49.1047814"><time>2022-10-29T09:34:53.257</time></trkpt><trkpt lat="55.7455873" lon="49.1047805"><time>2022-10-29T09:34:54.260</time></trkpt><trkpt lat="55.7455242" lon="49.1047822"><time>2022-10-29T09:34:55.257</time></trkpt><trkpt lat="55.7454624" lon="49.1047865"><time>2022-10-29T09:34:56.253</time></trkpt><trkpt lat="55.7454033" lon="49.1047881"><time>2022-10-29T09:34:57.283</time></trkpt><trkpt lat="55.7453448" lon="49.1047850"><time>2022-10-29T09:34:58.250</time></trkpt><trkpt lat="55.7452844" lon="49.1047835"><time>2022-10-29T09:34:59.263</time></trkpt><trkpt lat="55.7452224" lon="49.1047859"><time>2022-10-29T09:35:00.253</time></trkpt><trkpt lat="55.7451590" lon="49.1047886"><time>2022-10-29T09:35:01.263</time></trkpt><trkpt lat="55.7450950" lon="49.1047898"><time>2022-10-29T09:35:02.250</time></trkpt><trkpt lat="55.7450287" lon="49.1047914"><time>2022-10-29T09:35:03.247</time></trkpt><trkpt lat="55.7449616" lon="49.1047919"><time>2022-10-29T09:35:04.250</time></trkpt><trkpt lat="55.7448947" lon="49.1047886"><time>2022-10-29T09:35:05.247</time></trkpt><trkpt lat="55.7448273" lon="49.1047860"><time>2022-10-29T09:35:06.247</time></trkpt><trkpt lat="55.7447599" lon="49.1047810"><time>2022-10-29T09:35:07.253</time></trkpt><trkpt lat="55.7446932" lon="49.1047729"><time>2022-10-29T09:35:08.260</time></trkpt><trkpt lat="55.7446282" lon="49.1047698"><time>2022-10-29T09:35:09.293</time></trkpt><trkpt lat="55.7445622" lon="49.1047692"><time>2022-10-29T09:35:10.253</time></trkpt><trkpt lat="55.7444968" lon="49.1047699"><time>2022-10-29T09:35:11.257</time></trkpt><trkpt lat="55.7444303" lon="49.1047708"><time>2022-10-29T09:35:12.263</time></trkpt><trkpt lat="55.7443636" lon="49.1047763"><time>2022-10-29T09:35:13.253</time></trkpt><trkpt lat="55.7442986" lon="49.1047816"><time>2022-10-29T09:35:14.250</time></trkpt><trkpt lat="55.7442349" lon="49.1047857"><time>2022-10-29T09:35:15.250</time></trkpt><trkpt lat="55.7441722" lon="49.1047880"><time>2022-10-29T09:35:16.283</time></trkpt><trkpt lat="55.7441094" lon="49.1047871"><time>2022-10-29T09:35:17.250</time></trkpt><trkpt lat="55.7440479" lon="49.1047854"><time>2022-10-29T09:35:18.250</time></trkpt><trkpt lat="55.7439867" lon="49.1047857"><time>2022-10-29T09:35:19.247</time></trkpt><trkpt lat="55.7439266" lon="49.1047888"><time>2022-10-29T09:35:20.253</time></trkpt><trkpt lat="55.7438655" lon="49.1047899"><time>2022-10-29T09:35:21.247</time></trkpt><trkpt lat="55.7438065" lon="49.1047920"><time>2022-10-29T09:35:22.247</time></trkpt><trkpt lat="55.7437470" lon="49.1047943"><time>2022-10-29T09:35:23.243</time></trkpt><trkpt lat="55.7436875" lon="49.1047963"><time>2022-10-29T09:35:24.253</time></trkpt><trkpt lat="55.7436308" lon="49.1047969"><time>2022-10-29T09:35:25.253</time></trkpt><trkpt lat="55.7435748" lon="49.1047965"><time>2022-10-29T09:35:26.253</time></trkpt><trkpt lat="55.7435184" lon="49.1047960"><time>2022-10-29T09:35:27.253</time></trkpt><trkpt lat="55.7434616" lon="49.1047961"><time>2022-10-29T09:35:28.250</time></trkpt><trkpt lat="55.7434069" lon="49.1047968"><time>2022-10-29T09:35:29.253</time></trkpt><trkpt lat="55.7433542" lon="49.1047989"><time>2022-10-29T09:35:30.247</time></trkpt><trkpt lat="55.7433018" lon="49.1048005"><time>2022-10-29T09:35:31.247</time></trkpt><trkpt lat="55.7432495" lon="49.1048010"><time>2022-10-29T09:35:32.303</time></trkpt><trkpt lat="55.7431970" lon="49.1048062"><time>2022-10-29T09:35:33.253</time></trkpt><trkpt lat="55.7431456" lon="49.1048085"><time>2022-10-29T09:35:34.257</time></trkpt><trkpt lat="55.7430963" lon="49.1048018"><time>2022-10-29T09:35:35.250</time></trkpt><trkpt lat="55.7430488" lon="49.1047960"><time>2022-10-29T09:35:36.253</time></trkpt><trkpt lat="55.7429623" lon="49.1047893"><time>2022-10-29T09:35:38.250</time></trkpt><trkpt lat="55.7428862" lon="49.1047765"><time>2022-10-29T09:35:40.250</time></trkpt><trkpt lat="55.7428375" lon="49.1047563"><time>2022-10-29T09:35:43.250</time></trkpt><trkpt lat="55.7428993" lon="49.1047436"><time>2022-10-29T09:35:50.253</time></trkpt><trkpt lat="55.7429624" lon="49.1047445"><time>2022-10-29T09:35:52.253</time></trkpt><trkpt lat="55.7430471" lon="49.1047439"><time>2022-10-29T09:35:54.250</time></trkpt><trkpt lat="55.7430929" lon="49.1047482"><time>2022-10-29T09:35:55.250</time></trkpt><trkpt lat="55.7431401" lon="49.1047509"><time>2022-10-29T09:35:56.243</time></trkpt><trkpt lat="55.7431897" lon="49.1047531"><time>2022-10-29T09:35:57.247</time></trkpt><trkpt lat="55.7432428" lon="49.1047549"><time>2022-10-29T09:35:58.253</time></trkpt><trkpt lat="55.7432967" lon="49.1047571"><time>2022-10-29T09:35:59.290</time></trkpt><trkpt lat="55.7433488" lon="49.1047588"><time>2022-10-29T09:36:00.253</time></trkpt><trkpt lat="55.7434012" lon="49.1047599"><time>2022-10-29T09:36:01.257</time></trkpt><trkpt lat="55.7434524" lon="49.1047600"><time>2022-10-29T09:36:02.247</time></trkpt><trkpt lat="55.7435041" lon="49.1047621"><time>2022-10-29T09:36:03.250</time></trkpt><trkpt lat="55.7435559" lon="49.1047597"><time>2022-10-29T09:36:04.247</time></trkpt><trkpt lat="55.7436071" lon="49.1047565"><time>2022-10-29T09:36:05.250</time></trkpt><trkpt lat="55.7436811" lon="49.1047545"><time>2022-10-29T09:36:07.240</time></trkpt><trkpt lat="55.7437414" lon="49.1047516"><time>2022-10-29T09:36:10.263</time></trkpt><trkpt lat="55.7438041" lon="49.1047562"><time>2022-10-29T09:36:12.260</time></trkpt><trkpt lat="55.7438897" lon="49.1047535"><time>2022-10-29T09:36:14.250</time></trkpt><trkpt lat="55.7439745" lon="49.1047452"><time>2022-10-29T09:36:16.253</time></trkpt><trkpt lat="55.7440606" lon="49.1047395"><time>2022-10-29T09:36:18.253</time></trkpt><trkpt lat="55.7441382" lon="49.1047421"><time>2022-10-29T09:36:20.257</time></trkpt><trkpt lat="55.7441994" lon="49.1047409"><time>2022-10-29T09:36:22.283</time></trkpt><trkpt lat="55.7442361" lon="49.1047442"><time>2022-10-29T09:36:23.257</time></trkpt><trkpt lat="55.7443186" lon="49.1047592"><time>2022-10-29T09:36:25.257</time></trkpt><trkpt lat="55.7444129" lon="49.1047827"><time>2022-10-29T09:36:27.253</time></trkpt><trkpt lat="55.7444685" lon="49.1047887"><time>2022-10-29T09:36:28.250</time></trkpt><trkpt lat="55.7445250" lon="49.1047941"><time>2022-10-29T09:36:29.250</time></trkpt><trkpt lat="55.7445793" lon="49.1048011"><time>2022-10-29T09:36:30.250</time></trkpt><trkpt lat="55.7446328" lon="49.1048098"><time>2022-10-29T09:36:31.247</time></trkpt><trkpt lat="55.7446846" lon="49.1048293"><time>2022-10-29T09:36:32.280</time></trkpt><trkpt lat="55.7447304" lon="49.1048655"><time>2022-10-29T09:36:33.257</time></trkpt><trkpt lat="55.7447746" lon="49.1049086"><time>2022-10-29T09:36:34.243</time></trkpt><trkpt lat="55.7448209" lon="49.1049453"><time>2022-10-29T09:36:35.250</time></trkpt><trkpt lat="55.7448733" lon="49.1049722"><time>2022-10-29T09:36:36.253</time></trkpt><trkpt lat="55.7449301" lon="49.1049927"><time>2022-10-29T09:36:37.273</time></trkpt><trkpt lat="55.7449301" lon="49.1049927"><time>2022-10-29T09:36:37.290</time></trkpt><trkpt lat="55.7449882" lon="49.1050072"><time>2022-10-29T09:36:38.297</time></trkpt><trkpt lat="55.7450367" lon="49.1050245"><time>2022-10-29T09:36:39.267</time></trkpt><trkpt lat="55.7449888" lon="49.1050790"><time>2022-10-29T09:36:44.250</time></trkpt><trkpt lat="55.7449127" lon="49.1050699"><time>2022-10-29T09:36:46.260</time></trkpt><trkpt lat="55.7448306" lon="49.1050714"><time>2022-10-29T09:36:48.260</time></trkpt><trkpt lat="55.7447855" lon="49.1050699"><time>2022-10-29T09:36:49.240</time></trkpt><trkpt lat="55.7447392" lon="49.1050639"><time>2022-10-29T09:36:50.250</time></trkpt><trkpt lat="55.7446449" lon="49.1050485"><time>2022-10-29T09:36:52.263</time></trkpt><trkpt lat="55.7445948" lon="49.1050510"><time>2022-10-29T09:36:53.257</time></trkpt><trkpt lat="55.7445093" lon="49.1050358"><time>2022-10-29T09:36:55.260</time></trkpt><trkpt lat="55.7444224" lon="49.1050233"><time>2022-10-29T09:36:57.247</time></trkpt><trkpt lat="55.7443772" lon="49.1050288"><time>2022-10-29T09:36:58.237</time></trkpt><trkpt lat="55.7443307" lon="49.1050373"><time>2022-10-29T09:36:59.253</time></trkpt><trkpt lat="55.7442812" lon="49.1050450"><time>2022-10-29T09:37:00.250</time></trkpt><trkpt lat="55.7442301" lon="49.1050449"><time>2022-10-29T09:37:01.250</time></trkpt><trkpt lat="55.7441760" lon="49.1050371"><time>2022-10-29T09:37:02.253</time></trkpt><trkpt lat="55.7441191" lon="49.1050302"><time>2022-10-29T09:37:03.250</time></trkpt><trkpt lat="55.7440610" lon="49.1050248"><time>2022-10-29T09:37:04.257</time></trkpt><trkpt lat="55.7440070" lon="49.1050260"><time>2022-10-29T09:37:05.247</time></trkpt><trkpt lat="55.7439539" lon="49.1050308"><time>2022-10-29T09:37:06.250</time></trkpt><trkpt lat="55.7438974" lon="49.1050335"><time>2022-10-29T09:37:07.250</time></trkpt><trkpt lat="55.7438418" lon="49.1050308"><time>2022-10-29T09:37:08.247</time></trkpt><trkpt lat="55.7437887" lon="49.1050218"><time>2022-10-29T09:37:09.247</time></trkpt><trkpt lat="55.7437368" lon="49.1050153"><time>2022-10-29T09:37:10.250</time></trkpt><trkpt lat="55.7436885" lon="49.1050147"><time>2022-10-29T09:37:11.247</time></trkpt><trkpt lat="55.7436030" lon="49.1050318"><time>2022-10-29T09:37:13.253</time></trkpt><trkpt lat="55.7435534" lon="49.1050352"><time>2022-10-29T09:37:14.250</time></trkpt><trkpt lat="55.7435036" lon="49.1050361"><time>2022-10-29T09:37:15.247</time></trkpt><trkpt lat="55.7434562" lon="49.1050364"><time>2022-10-29T09:37:16.250</time></trkpt><trkpt lat="55.7434091" lon="49.1050403"><time>2022-10-29T09:37:17.250</time></trkpt><trkpt lat="55.7433612" lon="49.1050469"><time>2022-10-29T09:37:18.263</time></trkpt><trkpt lat="55.7433160" lon="49.1050556"><time>2022-10-29T09:37:19.257</time></trkpt><trkpt lat="55.7432276" lon="49.1050648"><time>2022-10-29T09:37:21.250</time></trkpt><trkpt lat="55.7431406" lon="49.1050590"><time>2022-10-29T09:37:23.250</time></trkpt><trkpt lat="55.7430936" lon="49.1050485"><time>2022-10-29T09:37:24.247</time></trkpt><trkpt lat="55.7430422" lon="49.1050384"><time>2022-10-29T09:37:25.247</time></trkpt><trkpt lat="55.7429881" lon="49.1050282"><time>2022-10-29T09:37:26.250</time></trkpt><trkpt lat="55.7429345" lon="49.1050162"><time>2022-10-29T09:37:27.250</time></trkpt><trkpt lat="55.7428770" lon="49.1050062"><time>2022-10-29T09:37:28.253</time></trkpt><trkpt lat="55.7428177" lon="49.1050023"><time>2022-10-29T09:37:29.253</time></trkpt><trkpt lat="55.7427594" lon="49.1050033"><time>2022-10-29T09:37:30.247</time></trkpt><trkpt lat="55.7427035" lon="49.1050040"><time>2022-10-29T09:37:31.247</time></trkpt><trkpt lat="55.7426511" lon="49.1050038"><time>2022-10-29T09:37:32.250</time></trkpt><trkpt lat="55.7425977" lon="49.1050026"><time>2022-10-29T09:37:33.257</time></trkpt><trkpt lat="55.7425449" lon="49.1050043"><time>2022-10-29T09:37:34.243</time></trkpt><trkpt lat="55.7424959" lon="49.1050078"><time>2022-10-29T09:37:35.250</time></trkpt><trkpt lat="55.7424165" lon="49.1050247"><time>2022-10-29T09:37:37.247</time></trkpt><trkpt lat="55.7423646" lon="49.1050732"><time>2022-10-29T09:37:40.247</time></trkpt><trkpt lat="55.7423156" lon="49.1050644"><time>2022-10-29T09:37:44.250</time></trkpt><trkpt lat="55.7422723" lon="49.1051424"><time>2022-10-29T09:37:48.253</time></trkpt><trkpt lat="55.7422587" lon="49.1052301"><time>2022-10-29T09:37:50.253</time></trkpt><trkpt lat="55.7422455" lon="49.1053545"><time>2022-10-29T09:37:52.250</time></trkpt><trkpt lat="55.7422458" lon="49.1054914"><time>2022-10-29T09:37:54.253</time></trkpt><trkpt lat="55.7422504" lon="49.1056502"><time>2022-10-29T09:37:56.250</time></trkpt><trkpt lat="55.7422513" lon="49.1057333"><time>2022-10-29T09:37:57.253</time></trkpt><trkpt lat="55.7422513" lon="49.1058181"><time>2022-10-29T09:37:58.250</time></trkpt><trkpt lat="55.7422488" lon="49.1059045"><time>2022-10-29T09:37:59.250</time></trkpt><trkpt lat="55.7422477" lon="49.1059943"><time>2022-10-29T09:38:00.253</time></trkpt><trkpt lat="55.7422489" lon="49.1060849"><time>2022-10-29T09:38:01.250</time></trkpt><trkpt lat="55.7422518" lon="49.1061770"><time>2022-10-29T09:38:02.253</time></trkpt><trkpt lat="55.7422455" lon="49.1062746"><time>2022-10-29T09:38:03.247</time></trkpt><trkpt lat="55.7422350" lon="49.1063722"><time>2022-10-29T09:38:04.250</time></trkpt><trkpt lat="55.7422256" lon="49.1064697"><time>2022-10-29T09:38:05.257</time></trkpt><trkpt lat="55.7422205" lon="49.1065704"><time>2022-10-29T09:38:06.250</time></trkpt><trkpt lat="55.7422206" lon="49.1066757"><time>2022-10-29T09:38:07.250</time></trkpt><trkpt lat="55.7422218" lon="49.1067800"><time>2022-10-29T09:38:08.250</time></trkpt><trkpt lat="55.7422234" lon="49.1068870"><time>2022-10-29T09:38:09.250</time></trkpt><trkpt lat="55.7422241" lon="49.1069971"><time>2022-10-29T09:38:10.247</time></trkpt><trkpt lat="55.7422230" lon="49.1071079"><time>2022-10-29T09:38:11.250</time></trkpt><trkpt lat="55.7422207" lon="49.1072173"><time>2022-10-29T09:38:12.253</time></trkpt><trkpt lat="55.7422173" lon="49.1073289"><time>2022-10-29T09:38:13.250</time></trkpt><trkpt lat="55.7422129" lon="49.1074417"><time>2022-10-29T09:38:14.240</time></trkpt><trkpt lat="55.7422071" lon="49.1075555"><time>2022-10-29T09:38:15.250</time></trkpt><trkpt lat="55.7422007" lon="49.1076705"><time>2022-10-29T09:38:16.247</time></trkpt><trkpt lat="55.7421950" lon="49.1077851"><time>2022-10-29T09:38:17.253</time></trkpt><trkpt lat="55.7421927" lon="49.1079010"><time>2022-10-29T09:38:18.243</time></trkpt><trkpt lat="55.7421892" lon="49.1080152"><time>2022-10-29T09:38:19.247</time></trkpt><trkpt lat="55.7421842" lon="49.1081294"><time>2022-10-29T09:38:20.247</time></trkpt><trkpt lat="55.7421797" lon="49.1082428"><time>2022-10-29T09:38:21.250</time></trkpt><trkpt lat="55.7421755" lon="49.1083547"><time>2022-10-29T09:38:22.257</time></trkpt><trkpt lat="55.7421724" lon="49.1084654"><time>2022-10-29T09:38:23.227</time></trkpt><trkpt lat="55.7421696" lon="49.1085788"><time>2022-10-29T09:38:24.247</time></trkpt><trkpt lat="55.7421656" lon="49.1086886"><time>2022-10-29T09:38:25.247</time></trkpt><trkpt lat="55.7421607" lon="49.1088019"><time>2022-10-29T09:38:26.247</time></trkpt><trkpt lat="55.7421574" lon="49.1089190"><time>2022-10-29T09:38:27.250</time></trkpt><trkpt lat="55.7421565" lon="49.1090318"><time>2022-10-29T09:38:28.253</time></trkpt><trkpt lat="55.7421587" lon="49.1091436"><time>2022-10-29T09:38:29.250</time></trkpt><trkpt lat="55.7421633" lon="49.1092531"><time>2022-10-29T09:38:30.247</time></trkpt><trkpt lat="55.7421686" lon="49.1093601"><time>2022-10-29T09:38:31.250</time></trkpt><trkpt lat="55.7421728" lon="49.1094677"><time>2022-10-29T09:38:32.247</time></trkpt><trkpt lat="55.7421757" lon="49.1095770"><time>2022-10-29T09:38:33.237</time></trkpt><trkpt lat="55.7421796" lon="49.1096832"><time>2022-10-29T09:38:34.247</time></trkpt><trkpt lat="55.7421837" lon="49.1097913"><time>2022-10-29T09:38:35.250</time></trkpt><trkpt lat="55.7421867" lon="49.1098984"><time>2022-10-29T09:38:36.247</time></trkpt><trkpt lat="55.7421899" lon="49.1100038"><time>2022-10-29T09:38:37.250</time></trkpt><trkpt lat="55.7421910" lon="49.1101080"><time>2022-10-29T09:38:38.253</time></trkpt><trkpt lat="55.7421913" lon="49.1102108"><time>2022-10-29T09:38:39.250</time></trkpt><trkpt lat="55.7421966" lon="49.1103114"><time>2022-10-29T09:38:40.250</time></trkpt><trkpt lat="55.7422051" lon="49.1104071"><time>2022-10-29T09:38:41.237</time></trkpt><trkpt lat="55.7422100" lon="49.1105023"><time>2022-10-29T09:38:42.257</time></trkpt><trkpt lat="55.7422123" lon="49.1105997"><time>2022-10-29T09:38:43.257</time></trkpt><trkpt lat="55.7422152" lon="49.1107010"><time>2022-10-29T09:38:44.247</time></trkpt><trkpt lat="55.7422170" lon="49.1108061"><time>2022-10-29T09:38:45.250</time></trkpt><trkpt lat="55.7422197" lon="49.1109128"><time>2022-10-29T09:38:46.247</time></trkpt><trkpt lat="55.7422225" lon="49.1110206"><time>2022-10-29T09:38:47.253</time></trkpt><trkpt lat="55.7422253" lon="49.1111273"><time>2022-10-29T09:38:48.253</time></trkpt><trkpt lat="55.7422281" lon="49.1112371"><time>2022-10-29T09:38:49.247</time></trkpt><trkpt lat="55.7422309" lon="49.1113468"><time>2022-10-29T09:38:50.253</time></trkpt><trkpt lat="55.7422347" lon="49.1114572"><time>2022-10-29T09:38:51.250</time></trkpt><trkpt lat="55.7422405" lon="49.1115686"><time>2022-10-29T09:38:52.253</time></trkpt><trkpt lat="55.7422463" lon="49.1116794"><time>2022-10-29T09:38:53.250</time></trkpt><trkpt lat="55.7422510" lon="49.1117918"><time>2022-10-29T09:38:54.273</time></trkpt><trkpt lat="55.7422523" lon="49.1119035"><time>2022-10-29T09:38:55.250</time></trkpt><trkpt lat="55.7422535" lon="49.1120137"><time>2022-10-29T09:38:56.257</time></trkpt><trkpt lat="55.7422553" lon="49.1121221"><time>2022-10-29T09:38:57.257</time></trkpt><trkpt lat="55.7422582" lon="49.1122307"><time>2022-10-29T09:38:58.250</time></trkpt><trkpt lat="55.7422604" lon="49.1123405"><time>2022-10-29T09:38:59.250</time></trkpt><trkpt lat="55.7422621" lon="49.1124525"><time>2022-10-29T09:39:00.260</time></trkpt><trkpt lat="55.7422633" lon="49.1125647"><time>2022-10-29T09:39:01.253</time></trkpt><trkpt lat="55.7422642" lon="49.1126794"><time>2022-10-29T09:39:02.253</time></trkpt><trkpt lat="55.7422651" lon="49.1127914"><time>2022-10-29T09:39:03.253</time></trkpt><trkpt lat="55.7422655" lon="49.1129042"><time>2022-10-29T09:39:04.250</time></trkpt><trkpt lat="55.7422661" lon="49.1130167"><time>2022-10-29T09:39:05.250</time></trkpt><trkpt lat="55.7422671" lon="49.1131286"><time>2022-10-29T09:39:06.247</time></trkpt><trkpt lat="55.7422674" lon="49.1132417"><time>2022-10-29T09:39:07.247</time></trkpt><trkpt lat="55.7422700" lon="49.1133541"><time>2022-10-29T09:39:08.250</time></trkpt><trkpt lat="55.7422724" lon="49.1134656"><time>2022-10-29T09:39:09.250</time></trkpt><trkpt lat="55.7422743" lon="49.1135773"><time>2022-10-29T09:39:10.253</time></trkpt><trkpt lat="55.7422785" lon="49.1136881"><time>2022-10-29T09:39:11.247</time></trkpt><trkpt lat="55.7422834" lon="49.1137999"><time>2022-10-29T09:39:12.257</time></trkpt><trkpt lat="55.7422862" lon="49.1139112"><time>2022-10-29T09:39:13.247</time></trkpt><trkpt lat="55.7422892" lon="49.1140209"><time>2022-10-29T09:39:14.253</time></trkpt><trkpt lat="55.7422921" lon="49.1141301"><time>2022-10-29T09:39:15.250</time></trkpt><trkpt lat="55.7422943" lon="49.1142368"><time>2022-10-29T09:39:16.233</time></trkpt><trkpt lat="55.7422951" lon="49.1143434"><time>2022-10-29T09:39:17.240</time></trkpt><trkpt lat="55.7422955" lon="49.1144515"><time>2022-10-29T09:39:18.223</time></trkpt><trkpt lat="55.7422961" lon="49.1145585"><time>2022-10-29T09:39:19.250</time></trkpt><trkpt lat="55.7422973" lon="49.1146648"><time>2022-10-29T09:39:20.250</time></trkpt><trkpt lat="55.7422988" lon="49.1147702"><time>2022-10-29T09:39:21.247</time></trkpt><trkpt lat="55.7423003" lon="49.1148756"><time>2022-10-29T09:39:22.253</time></trkpt><trkpt lat="55.7423035" lon="49.1149775"><time>2022-10-29T09:39:23.253</time></trkpt><trkpt lat="55.7423072" lon="49.1150798"><time>2022-10-29T09:39:24.257</time></trkpt><trkpt lat="55.7423077" lon="49.1151786"><time>2022-10-29T09:39:25.257</time></trkpt><trkpt lat="55.7423006" lon="49.1152708"><time>2022-10-29T09:39:26.253</time></trkpt><trkpt lat="55.7422788" lon="49.1153503"><time>2022-10-29T09:39:27.250</time></trkpt><trkpt lat="55.7422383" lon="49.1154065"><time>2022-10-29T09:39:28.257</time></trkpt><trkpt lat="55.7421813" lon="49.1154409"><time>2022-10-29T09:39:29.257</time></trkpt><trkpt lat="55.7421249" lon="49.1154554"><time>2022-10-29T09:39:30.260</time></trkpt><trkpt lat="55.7420697" lon="49.1154549"><time>2022-10-29T09:39:31.247</time></trkpt><trkpt lat="55.7420141" lon="49.1154474"><time>2022-10-29T09:39:32.257</time></trkpt><trkpt lat="55.7419549" lon="49.1154338"><time>2022-10-29T09:39:33.247</time></trkpt><trkpt lat="55.7418940" lon="49.1154267"><time>2022-10-29T09:39:34.253</time></trkpt><trkpt lat="55.7418337" lon="49.1154233"><time>2022-10-29T09:39:35.253</time></trkpt><trkpt lat="55.7417724" lon="49.1154244"><time>2022-10-29T09:39:36.247</time></trkpt><trkpt lat="55.7417147" lon="49.1154335"><time>2022-10-29T09:39:37.253</time></trkpt><trkpt lat="55.7416566" lon="49.1154397"><time>2022-10-29T09:39:38.257</time></trkpt><trkpt lat="55.7415974" lon="49.1154407"><time>2022-10-29T09:39:39.247</time></trkpt><trkpt lat="55.7415381" lon="49.1154406"><time>2022-10-29T09:39:40.247</time></trkpt><trkpt lat="55.7414801" lon="49.1154408"><time>2022-10-29T09:39:41.250</time></trkpt><trkpt lat="55.7414224" lon="49.1154387"><time>2022-10-29T09:39:42.257</time></trkpt><trkpt lat="55.7413623" lon="49.1154355"><time>2022-10-29T09:39:43.257</time></trkpt><trkpt lat="55.7413036" lon="49.1154306"><time>2022-10-29T09:39:44.257</time></trkpt><trkpt lat="55.7412437" lon="49.1154261"><time>2022-10-29T09:39:45.253</time></trkpt><trkpt lat="55.7411842" lon="49.1154222"><time>2022-10-29T09:39:46.253</time></trkpt><trkpt lat="55.7411207" lon="49.1154181"><time>2022-10-29T09:39:47.257</time></trkpt><trkpt lat="55.7410574" lon="49.1154150"><time>2022-10-29T09:39:48.250</time></trkpt><trkpt lat="55.7409942" lon="49.1154134"><time>2022-10-29T09:39:49.250</time></trkpt><trkpt lat="55.7409311" lon="49.1154108"><time>2022-10-29T09:39:50.257</time></trkpt><trkpt lat="55.7408671" lon="49.1154073"><time>2022-10-29T09:39:51.250</time></trkpt><trkpt lat="55.7408044" lon="49.1154053"><time>2022-10-29T09:39:52.250</time></trkpt><trkpt lat="55.7407411" lon="49.1154050"><time>2022-10-29T09:39:53.253</time></trkpt><trkpt lat="55.7406776" lon="49.1154040"><time>2022-10-29T09:39:54.253</time></trkpt><trkpt lat="55.7406159" lon="49.1154043"><time>2022-10-29T09:39:55.257</time></trkpt><trkpt lat="55.7405560" lon="49.1154069"><time>2022-10-29T09:39:56.240</time></trkpt><trkpt lat="55.7404985" lon="49.1154076"><time>2022-10-29T09:39:57.240</time></trkpt><trkpt lat="55.7404434" lon="49.1154072"><time>2022-10-29T09:39:58.247</time></trkpt><trkpt lat="55.7403884" lon="49.1154081"><time>2022-10-29T09:39:59.257</time></trkpt><trkpt lat="55.7403331" lon="49.1154095"><time>2022-10-29T09:40:00.257</time></trkpt><trkpt lat="55.7402753" lon="49.1154098"><time>2022-10-29T09:40:01.250</time></trkpt><trkpt lat="55.7402158" lon="49.1154086"><time>2022-10-29T09:40:02.250</time></trkpt><trkpt lat="55.7401562" lon="49.1154086"><time>2022-10-29T09:40:03.247</time></trkpt><trkpt lat="55.7400975" lon="49.1154107"><time>2022-10-29T09:40:04.247</time></trkpt><trkpt lat="55.7400385" lon="49.1154118"><time>2022-10-29T09:40:05.247</time></trkpt><trkpt lat="55.7399785" lon="49.1154126"><time>2022-10-29T09:40:06.283</time></trkpt><trkpt lat="55.7399201" lon="49.1154120"><time>2022-10-29T09:40:07.257</time></trkpt><trkpt lat="55.7398615" lon="49.1154120"><time>2022-10-29T09:40:08.257</time></trkpt><trkpt lat="55.7398014" lon="49.1154098"><time>2022-10-29T09:40:09.257</time></trkpt><trkpt lat="55.7397416" lon="49.1154068"><time>2022-10-29T09:40:10.257</time></trkpt><trkpt lat="55.7396815" lon="49.1154046"><time>2022-10-29T09:40:11.250</time></trkpt><trkpt lat="55.7396231" lon="49.1154017"><time>2022-10-29T09:40:12.257</time></trkpt><trkpt lat="55.7395656" lon="49.1153966"><time>2022-10-29T09:40:13.250</time></trkpt><trkpt lat="55.7395076" lon="49.1153925"><time>2022-10-29T09:40:14.253</time></trkpt><trkpt lat="55.7394485" lon="49.1153900"><time>2022-10-29T09:40:15.253</time></trkpt><trkpt lat="55.7393882" lon="49.1153871"><time>2022-10-29T09:40:16.253</time></trkpt><trkpt lat="55.7393285" lon="49.1153822"><time>2022-10-29T09:40:17.257</time></trkpt><trkpt lat="55.7392710" lon="49.1153786"><time>2022-10-29T09:40:18.260</time></trkpt><trkpt lat="55.7392140" lon="49.1153762"><time>2022-10-29T09:40:19.253</time></trkpt><trkpt lat="55.7391569" lon="49.1153740"><time>2022-10-29T09:40:20.257</time></trkpt><trkpt lat="55.7390986" lon="49.1153735"><time>2022-10-29T09:40:21.290</time></trkpt><trkpt lat="55.7390398" lon="49.1153755"><time>2022-10-29T09:40:22.260</time></trkpt><trkpt lat="55.7389833" lon="49.1153817"><time>2022-10-29T09:40:23.263</time></trkpt><trkpt lat="55.7389293" lon="49.1153881"><time>2022-10-29T09:40:24.260</time></trkpt><trkpt lat="55.7388755" lon="49.1153926"><time>2022-10-29T09:40:25.240</time></trkpt><trkpt lat="55.7388221" lon="49.1153999"><time>2022-10-29T09:40:26.250</time></trkpt><trkpt lat="55.7387679" lon="49.1154066"><time>2022-10-29T09:40:27.260</time></trkpt><trkpt lat="55.7387092" lon="49.1154156"><time>2022-10-29T09:40:28.257</time></trkpt><trkpt lat="55.7386501" lon="49.1154280"><time>2022-10-29T09:40:29.297</time></trkpt><trkpt lat="55.7385935" lon="49.1154405"><time>2022-10-29T09:40:30.257</time></trkpt><trkpt lat="55.7385367" lon="49.1154474"><time>2022-10-29T09:40:31.263</time></trkpt><trkpt lat="55.7384791" lon="49.1154503"><time>2022-10-29T09:40:32.260</time></trkpt><trkpt lat="55.7384211" lon="49.1154510"><time>2022-10-29T09:40:33.257</time></trkpt><trkpt lat="55.7383659" lon="49.1154605"><time>2022-10-29T09:40:34.283</time></trkpt><trkpt lat="55.7383659" lon="49.1154605"><time>2022-10-29T09:40:34.303</time></trkpt><trkpt lat="55.7383197" lon="49.1154835"><time>2022-10-29T09:40:35.297</time></trkpt><trkpt lat="55.7382927" lon="49.1155056"><time>2022-10-29T09:40:36.257</time></trkpt><trkpt lat="55.7382392" lon="49.1155236"><time>2022-10-29T09:41:02.263</time></trkpt><trkpt lat="55.7381764" lon="49.1155011"><time>2022-10-29T09:41:04.247</time></trkpt><trkpt lat="55.7380955" lon="49.1154951"><time>2022-10-29T09:41:06.250</time></trkpt><trkpt lat="55.7380201" lon="49.1155203"><time>2022-10-29T09:41:08.257</time></trkpt><trkpt lat="55.7379503" lon="49.1155560"><time>2022-10-29T09:41:10.250</time></trkpt><trkpt lat="55.7378744" lon="49.1155145"><time>2022-10-29T09:41:12.260</time></trkpt><trkpt lat="55.7378332" lon="49.1154721"><time>2022-10-29T09:41:13.253</time></trkpt><trkpt lat="55.7377882" lon="49.1154341"><time>2022-10-29T09:41:14.250</time></trkpt><trkpt lat="55.7377397" lon="49.1154039"><time>2022-10-29T09:41:15.250</time></trkpt><trkpt lat="55.7376889" lon="49.1153786"><time>2022-10-29T09:41:16.250</time></trkpt><trkpt lat="55.7376371" lon="49.1153597"><time>2022-10-29T09:41:17.257</time></trkpt><trkpt lat="55.7375830" lon="49.1153516"><time>2022-10-29T09:41:18.247</time></trkpt><trkpt lat="55.7375299" lon="49.1153496"><time>2022-10-29T09:41:19.257</time></trkpt><trkpt lat="55.7374741" lon="49.1153485"><time>2022-10-29T09:41:20.250</time></trkpt><trkpt lat="55.7374167" lon="49.1153444"><time>2022-10-29T09:41:21.243</time></trkpt><trkpt lat="55.7373575" lon="49.1153397"><time>2022-10-29T09:41:22.253</time></trkpt><trkpt lat="55.7372919" lon="49.1153324"><time>2022-10-29T09:41:23.250</time></trkpt><trkpt lat="55.7372287" lon="49.1153255"><time>2022-10-29T09:41:24.247</time></trkpt><trkpt lat="55.7371640" lon="49.1153220"><time>2022-10-29T09:41:25.247</time></trkpt><trkpt lat="55.7371004" lon="49.1153175"><time>2022-10-29T09:41:26.247</time></trkpt><trkpt lat="55.7370347" lon="49.1153136"><time>2022-10-29T09:41:27.247</time></trkpt><trkpt lat="55.7369703" lon="49.1153118"><time>2022-10-29T09:41:28.250</time></trkpt><trkpt lat="55.7369068" lon="49.1153111"><time>2022-10-29T09:41:29.253</time></trkpt><trkpt lat="55.7368432" lon="49.1153093"><time>2022-10-29T09:41:30.270</time></trkpt><trkpt lat="55.7367780" lon="49.1153047"><time>2022-10-29T09:41:31.247</time></trkpt><trkpt lat="55.7367123" lon="49.1153036"><time>2022-10-29T09:41:32.250</time></trkpt><trkpt lat="55.7366469" lon="49.1153041"><time>2022-10-29T09:41:33.247</time></trkpt><trkpt lat="55.7365811" lon="49.1153025"><time>2022-10-29T09:41:34.250</time></trkpt><trkpt lat="55.7365154" lon="49.1153002"><time>2022-10-29T09:41:35.253</time></trkpt><trkpt lat="55.7364499" lon="49.1152975"><time>2022-10-29T09:41:36.253</time></trkpt><trkpt lat="55.7363851" lon="49.1152963"><time>2022-10-29T09:41:37.247</time></trkpt><trkpt lat="55.7363213" lon="49.1152919"><time>2022-10-29T09:41:38.250</time></trkpt><trkpt lat="55.7362566" lon="49.1152869"><time>2022-10-29T09:41:39.247</time></trkpt><trkpt lat="55.7361913" lon="49.1152826"><time>2022-10-29T09:41:40.250</time></trkpt><trkpt lat="55.7361254" lon="49.1152783"><time>2022-10-29T09:41:41.253</time></trkpt><trkpt lat="55.7360606" lon="49.1152760"><time>2022-10-29T09:41:42.267</time></trkpt><trkpt lat="55.7359976" lon="49.1152772"><time>2022-10-29T09:41:43.247</time></trkpt><trkpt lat="55.7359341" lon="49.1152769"><time>2022-10-29T09:41:44.247</time></trkpt><trkpt lat="55.7358718" lon="49.1152777"><time>2022-10-29T09:41:45.243</time></trkpt><trkpt lat="55.7358096" lon="49.1152786"><time>2022-10-29T09:41:46.247</time></trkpt><trkpt lat="55.7357493" lon="49.1152805"><time>2022-10-29T09:41:47.250</time></trkpt><trkpt lat="55.7356900" lon="49.1152824"><time>2022-10-29T09:41:48.250</time></trkpt><trkpt lat="55.7356332" lon="49.1152876"><time>2022-10-29T09:41:49.247</time></trkpt><trkpt lat="55.7355800" lon="49.1152953"><time>2022-10-29T09:41:50.247</time></trkpt><trkpt lat="55.7355263" lon="49.1153034"><time>2022-10-29T09:41:51.250</time></trkpt><trkpt lat="55.7354729" lon="49.1153175"><time>2022-10-29T09:41:52.253</time></trkpt><trkpt lat="55.7354197" lon="49.1153357"><time>2022-10-29T09:41:53.247</time></trkpt><trkpt lat="55.7353651" lon="49.1153453"><time>2022-10-29T09:41:54.230</time></trkpt><trkpt lat="55.7353069" lon="49.1153384"><time>2022-10-29T09:41:55.250</time></trkpt><trkpt lat="55.7352492" lon="49.1153279"><time>2022-10-29T09:41:56.250</time></trkpt><trkpt lat="55.7351917" lon="49.1153189"><time>2022-10-29T09:41:57.250</time></trkpt><trkpt lat="55.7351341" lon="49.1153070"><time>2022-10-29T09:41:58.257</time></trkpt><trkpt lat="55.7350766" lon="49.1152983"><time>2022-10-29T09:41:59.247</time></trkpt><trkpt lat="55.7350189" lon="49.1152925"><time>2022-10-29T09:42:00.250</time></trkpt><trkpt lat="55.7349624" lon="49.1152922"><time>2022-10-29T09:42:01.247</time></trkpt><trkpt lat="55.7349069" lon="49.1152896"><time>2022-10-29T09:42:02.250</time></trkpt><trkpt lat="55.7348542" lon="49.1152824"><time>2022-10-29T09:42:03.243</time></trkpt><trkpt lat="55.7348028" lon="49.1152768"><time>2022-10-29T09:42:04.247</time></trkpt><trkpt lat="55.7347525" lon="49.1152708"><time>2022-10-29T09:42:05.247</time></trkpt><trkpt lat="55.7347032" lon="49.1152697"><time>2022-10-29T09:42:06.227</time></trkpt><trkpt lat="55.7346529" lon="49.1152702"><time>2022-10-29T09:42:07.257</time></trkpt><trkpt lat="55.7346046" lon="49.1152692"><time>2022-10-29T09:42:08.247</time></trkpt><trkpt lat="55.7345147" lon="49.1152599"><time>2022-10-29T09:42:10.247</time></trkpt><trkpt lat="55.7344687" lon="49.1152525"><time>2022-10-29T09:42:11.237</time></trkpt><trkpt lat="55.7344209" lon="49.1152493"><time>2022-10-29T09:42:12.250</time></trkpt><trkpt lat="55.7343733" lon="49.1152479"><time>2022-10-29T09:42:13.247</time></trkpt><trkpt lat="55.7343263" lon="49.1152481"><time>2022-10-29T09:42:14.253</time></trkpt><trkpt lat="55.7342786" lon="49.1152492"><time>2022-10-29T09:42:15.253</time></trkpt><trkpt lat="55.7342323" lon="49.1152478"><time>2022-10-29T09:42:16.247</time></trkpt><trkpt lat="55.7341855" lon="49.1152450"><time>2022-10-29T09:42:17.247</time></trkpt><trkpt lat="55.7341389" lon="49.1152425"><time>2022-10-29T09:42:18.257</time></trkpt><trkpt lat="55.7340903" lon="49.1152425"><time>2022-10-29T09:42:19.250</time></trkpt><trkpt lat="55.7340444" lon="49.1152428"><time>2022-10-29T09:42:20.247</time></trkpt><trkpt lat="55.7339972" lon="49.1152439"><time>2022-10-29T09:42:21.257</time></trkpt><trkpt lat="55.7339480" lon="49.1152397"><time>2022-10-29T09:42:22.257</time></trkpt><trkpt lat="55.7338982" lon="49.1152370"><time>2022-10-29T09:42:23.253</time></trkpt><trkpt lat="55.7338479" lon="49.1152349"><time>2022-10-29T09:42:24.250</time></trkpt><trkpt lat="55.7337980" lon="49.1152322"><time>2022-10-29T09:42:25.233</time></trkpt><trkpt lat="55.7337469" lon="49.1152321"><time>2022-10-29T09:42:26.260</time></trkpt><trkpt lat="55.7336958" lon="49.1152335"><time>2022-10-29T09:42:27.263</time></trkpt><trkpt lat="55.7336447" lon="49.1152306"><time>2022-10-29T09:42:28.253</time></trkpt><trkpt lat="55.7335959" lon="49.1152270"><time>2022-10-29T09:42:29.250</time></trkpt><trkpt lat="55.7335450" lon="49.1152244"><time>2022-10-29T09:42:30.250</time></trkpt><trkpt lat="55.7334942" lon="49.1152218"><time>2022-10-29T09:42:31.250</time></trkpt><trkpt lat="55.7334445" lon="49.1152190"><time>2022-10-29T09:42:32.253</time></trkpt><trkpt lat="55.7333953" lon="49.1152168"><time>2022-10-29T09:42:33.247</time></trkpt><trkpt lat="55.7333478" lon="49.1152170"><time>2022-10-29T09:42:34.257</time></trkpt><trkpt lat="55.7332999" lon="49.1152174"><time>2022-10-29T09:42:35.253</time></trkpt><trkpt lat="55.7332473" lon="49.1152180"><time>2022-10-29T09:42:36.247</time></trkpt><trkpt lat="55.7331965" lon="49.1152181"><time>2022-10-29T09:42:37.247</time></trkpt><trkpt lat="55.7331463" lon="49.1152164"><time>2022-10-29T09:42:38.253</time></trkpt><trkpt lat="55.7330944" lon="49.1152129"><time>2022-10-29T09:42:39.247</time></trkpt><trkpt lat="55.7330427" lon="49.1152093"><time>2022-10-29T09:42:40.243</time></trkpt><trkpt lat="55.7329906" lon="49.1152059"><time>2022-10-29T09:42:41.253</time></trkpt><trkpt lat="55.7329370" lon="49.1152048"><time>2022-10-29T09:42:42.253</time></trkpt><trkpt lat="55.7328842" lon="49.1152056"><time>2022-10-29T09:42:43.247</time></trkpt><trkpt lat="55.7328323" lon="49.1152097"><time>2022-10-29T09:42:44.247</time></trkpt><trkpt lat="55.7327810" lon="49.1152157"><time>2022-10-29T09:42:45.253</time></trkpt><trkpt lat="55.7327312" lon="49.1152233"><time>2022-10-29T09:42:46.247</time></trkpt><trkpt lat="55.7326815" lon="49.1152268"><time>2022-10-29T09:42:47.243</time></trkpt><trkpt lat="55.7326309" lon="49.1152253"><time>2022-10-29T09:42:48.253</time></trkpt><trkpt lat="55.7325811" lon="49.1152192"><time>2022-10-29T09:42:49.250</time></trkpt><trkpt lat="55.7325314" lon="49.1152133"><time>2022-10-29T09:42:50.247</time></trkpt><trkpt lat="55.7324808" lon="49.1152099"><time>2022-10-29T09:42:51.253</time></trkpt><trkpt lat="55.7324298" lon="49.1152062"><time>2022-10-29T09:42:52.257</time></trkpt><trkpt lat="55.7323776" lon="49.1152037"><time>2022-10-29T09:42:53.247</time></trkpt><trkpt lat="55.7323230" lon="49.1152031"><time>2022-10-29T09:42:54.250</time></trkpt><trkpt lat="55.7322735" lon="49.1152008"><time>2022-10-29T09:42:55.253</time></trkpt><trkpt lat="55.7322231" lon="49.1151987"><time>2022-10-29T09:42:56.247</time></trkpt><trkpt lat="55.7321713" lon="49.1151956"><time>2022-10-29T09:42:57.247</time></trkpt><trkpt lat="55.7321195" lon="49.1151951"><time>2022-10-29T09:42:58.250</time></trkpt><trkpt lat="55.7320657" lon="49.1151970"><time>2022-10-29T09:42:59.263</time></trkpt><trkpt lat="55.7320084" lon="49.1151974"><time>2022-10-29T09:43:00.247</time></trkpt><trkpt lat="55.7319520" lon="49.1151957"><time>2022-10-29T09:43:01.250</time></trkpt><trkpt lat="55.7318936" lon="49.1151938"><time>2022-10-29T09:43:02.260</time></trkpt><trkpt lat="55.7318340" lon="49.1151936"><time>2022-10-29T09:43:03.247</time></trkpt><trkpt lat="55.7317752" lon="49.1151927"><time>2022-10-29T09:43:04.247</time></trkpt><trkpt lat="55.7317160" lon="49.1151902"><time>2022-10-29T09:43:05.250</time></trkpt><trkpt lat="55.7316563" lon="49.1151896"><time>2022-10-29T09:43:06.247</time></trkpt><trkpt lat="55.7315972" lon="49.1151848"><time>2022-10-29T09:43:07.247</time></trkpt><trkpt lat="55.7315379" lon="49.1151797"><time>2022-10-29T09:43:08.240</time></trkpt><trkpt lat="55.7314779" lon="49.1151770"><time>2022-10-29T09:43:09.250</time></trkpt><trkpt lat="55.7314178" lon="49.1151745"><time>2022-10-29T09:43:10.247</time></trkpt><trkpt lat="55.7313608" lon="49.1151745"><time>2022-10-29T09:43:11.247</time></trkpt><trkpt lat="55.7313067" lon="49.1151802"><time>2022-10-29T09:43:12.247</time></trkpt><trkpt lat="55.7312584" lon="49.1151968"><time>2022-10-29T09:43:13.250</time></trkpt><trkpt lat="55.7312135" lon="49.1152205"><time>2022-10-29T09:43:14.250</time></trkpt><trkpt lat="55.7311669" lon="49.1152415"><time>2022-10-29T09:43:15.247</time></trkpt><trkpt lat="55.7311200" lon="49.1152579"><time>2022-10-29T09:43:16.253</time></trkpt><trkpt lat="55.7310758" lon="49.1152756"><time>2022-10-29T09:43:17.253</time></trkpt><trkpt lat="55.7309996" lon="49.1153348"><time>2022-10-29T09:43:19.260</time></trkpt><trkpt lat="55.7309767" lon="49.1154810"><time>2022-10-29T09:43:21.250</time></trkpt><trkpt lat="55.7309831" lon="49.1155679"><time>2022-10-29T09:43:22.260</time></trkpt><trkpt lat="55.7309901" lon="49.1156584"><time>2022-10-29T09:43:23.250</time></trkpt><trkpt lat="55.7309946" lon="49.1157498"><time>2022-10-29T09:43:24.237</time></trkpt><trkpt lat="55.7309972" lon="49.1158403"><time>2022-10-29T09:43:25.253</time></trkpt><trkpt lat="55.7309984" lon="49.1159314"><time>2022-10-29T09:43:26.247</time></trkpt><trkpt lat="55.7309978" lon="49.1160236"><time>2022-10-29T09:43:27.250</time></trkpt><trkpt lat="55.7309974" lon="49.1161213"><time>2022-10-29T09:43:28.253</time></trkpt><trkpt lat="55.7309955" lon="49.1162216"><time>2022-10-29T09:43:29.250</time></trkpt><trkpt lat="55.7309917" lon="49.1163205"><time>2022-10-29T09:43:30.257</time></trkpt><trkpt lat="55.7309909" lon="49.1164234"><time>2022-10-29T09:43:31.247</time></trkpt><trkpt lat="55.7309894" lon="49.1165260"><time>2022-10-29T09:43:32.250</time></trkpt><trkpt lat="55.7309892" lon="49.1166283"><time>2022-10-29T09:43:33.243</time></trkpt><trkpt lat="55.7309897" lon="49.1167313"><time>2022-10-29T09:43:34.257</time></trkpt><trkpt lat="55.7309887" lon="49.1168342"><time>2022-10-29T09:43:35.250</time></trkpt><trkpt lat="55.7309893" lon="49.1169372"><time>2022-10-29T09:43:36.253</time></trkpt><trkpt lat="55.7309885" lon="49.1170395"><time>2022-10-29T09:43:37.260</time></trkpt><trkpt lat="55.7309867" lon="49.1171436"><time>2022-10-29T09:43:38.253</time></trkpt><trkpt lat="55.7309841" lon="49.1172477"><time>2022-10-29T09:43:39.250</time></trkpt><trkpt lat="55.7309824" lon="49.1173522"><time>2022-10-29T09:43:40.253</time></trkpt><trkpt lat="55.7309781" lon="49.1174561"><time>2022-10-29T09:43:41.250</time></trkpt><trkpt lat="55.7309739" lon="49.1175589"><time>2022-10-29T09:43:42.260</time></trkpt><trkpt lat="55.7309694" lon="49.1176560"><time>2022-10-29T09:43:43.260</time></trkpt><trkpt lat="55.7309690" lon="49.1177519"><time>2022-10-29T09:43:44.243</time></trkpt><trkpt lat="55.7309712" lon="49.1178506"><time>2022-10-29T09:43:45.250</time></trkpt><trkpt lat="55.7309738" lon="49.1179533"><time>2022-10-29T09:43:46.247</time></trkpt><trkpt lat="55.7309758" lon="49.1180608"><time>2022-10-29T09:43:47.253</time></trkpt><trkpt lat="55.7309761" lon="49.1181703"><time>2022-10-29T09:43:48.250</time></trkpt><trkpt lat="55.7309737" lon="49.1182752"><time>2022-10-29T09:43:49.250</time></trkpt><trkpt lat="55.7309700" lon="49.1183781"><time>2022-10-29T09:43:50.257</time></trkpt><trkpt lat="55.7309631" lon="49.1184772"><time>2022-10-29T09:43:51.243</time></trkpt><trkpt lat="55.7309517" lon="49.1185756"><time>2022-10-29T09:43:52.260</time></trkpt><trkpt lat="55.7309411" lon="49.1186793"><time>2022-10-29T09:43:53.253</time></trkpt><trkpt lat="55.7309348" lon="49.1187868"><time>2022-10-29T09:43:54.253</time></trkpt><trkpt lat="55.7309339" lon="49.1188915"><time>2022-10-29T09:43:55.250</time></trkpt><trkpt lat="55.7309351" lon="49.1189919"><time>2022-10-29T09:43:56.247</time></trkpt><trkpt lat="55.7309341" lon="49.1190943"><time>2022-10-29T09:43:57.247</time></trkpt><trkpt lat="55.7309319" lon="49.1191982"><time>2022-10-29T09:43:58.253</time></trkpt><trkpt lat="55.7309301" lon="49.1193022"><time>2022-10-29T09:43:59.253</time></trkpt><trkpt lat="55.7309298" lon="49.1194069"><time>2022-10-29T09:44:00.253</time></trkpt><trkpt lat="55.7309315" lon="49.1195131"><time>2022-10-29T09:44:01.247</time></trkpt><trkpt lat="55.7309310" lon="49.1196222"><time>2022-10-29T09:44:02.233</time></trkpt><trkpt lat="55.7309298" lon="49.1197272"><time>2022-10-29T09:44:03.227</time></trkpt><trkpt lat="55.7309308" lon="49.1198301"><time>2022-10-29T09:44:04.247</time></trkpt><trkpt lat="55.7309319" lon="49.1199343"><time>2022-10-29T09:44:05.247</time></trkpt><trkpt lat="55.7309302" lon="49.1200356"><time>2022-10-29T09:44:06.247</time></trkpt><trkpt lat="55.7309297" lon="49.1201342"><time>2022-10-29T09:44:07.247</time></trkpt><trkpt lat="55.7309294" lon="49.1202402"><time>2022-10-29T09:44:08.257</time></trkpt><trkpt lat="55.7309299" lon="49.1203469"><time>2022-10-29T09:44:09.253</time></trkpt><trkpt lat="55.7309341" lon="49.1204564"><time>2022-10-29T09:44:10.247</time></trkpt><trkpt lat="55.7309416" lon="49.1205672"><time>2022-10-29T09:44:11.253</time></trkpt><trkpt lat="55.7309470" lon="49.1206804"><time>2022-10-29T09:44:12.257</time></trkpt><trkpt lat="55.7309471" lon="49.1207944"><time>2022-10-29T09:44:13.247</time></trkpt><trkpt lat="55.7309466" lon="49.1209017"><time>2022-10-29T09:44:14.250</time></trkpt><trkpt lat="55.7309446" lon="49.1210031"><time>2022-10-29T09:44:15.247</time></trkpt><trkpt lat="55.7309412" lon="49.1210993"><time>2022-10-29T09:44:16.270</time></trkpt><trkpt lat="55.7309379" lon="49.1212022"><time>2022-10-29T09:44:17.250</time></trkpt><trkpt lat="55.7309353" lon="49.1213112"><time>2022-10-29T09:44:18.250</time></trkpt><trkpt lat="55.7309348" lon="49.1214207"><time>2022-10-29T09:44:19.250</time></trkpt><trkpt lat="55.7309348" lon="49.1215389"><time>2022-10-29T09:44:20.247</time></trkpt><trkpt lat="55.7309346" lon="49.1216550"><time>2022-10-29T09:44:21.247</time></trkpt><trkpt lat="55.7309314" lon="49.1217638"><time>2022-10-29T09:44:22.260</time></trkpt><trkpt lat="55.7309272" lon="49.1218703"><time>2022-10-29T09:44:23.257</time></trkpt><trkpt lat="55.7309218" lon="49.1219708"><time>2022-10-29T09:44:24.253</time></trkpt><trkpt lat="55.7309159" lon="49.1220652"><time>2022-10-29T09:44:25.247</time></trkpt><trkpt lat="55.7309139" lon="49.1221548"><time>2022-10-29T09:44:26.250</time></trkpt><trkpt lat="55.7309109" lon="49.1223028"><time>2022-10-29T09:44:28.250</time></trkpt><trkpt lat="55.7309063" lon="49.1224174"><time>2022-10-29T09:44:30.257</time></trkpt><trkpt lat="55.7309074" lon="49.1225509"><time>2022-10-29T09:44:32.253</time></trkpt><trkpt lat="55.7309066" lon="49.1226337"><time>2022-10-29T09:44:33.257</time></trkpt><trkpt lat="55.7309023" lon="49.1227186"><time>2022-10-29T09:44:34.253</time></trkpt><trkpt lat="55.7308969" lon="49.1228060"><time>2022-10-29T09:44:35.250</time></trkpt><trkpt lat="55.7308962" lon="49.1228941"><time>2022-10-29T09:44:36.250</time></trkpt><trkpt lat="55.7308971" lon="49.1229857"><time>2022-10-29T09:44:37.250</time></trkpt><trkpt lat="55.7308980" lon="49.1230786"><time>2022-10-29T09:44:38.250</time></trkpt><trkpt lat="55.7309030" lon="49.1231754"><time>2022-10-29T09:44:39.247</time></trkpt><trkpt lat="55.7309098" lon="49.1232716"><time>2022-10-29T09:44:40.247</time></trkpt><trkpt lat="55.7309139" lon="49.1233719"><time>2022-10-29T09:44:41.247</time></trkpt><trkpt lat="55.7309175" lon="49.1234700"><time>2022-10-29T09:44:42.257</time></trkpt><trkpt lat="55.7309194" lon="49.1235653"><time>2022-10-29T09:44:43.247</time></trkpt><trkpt lat="55.7309196" lon="49.1236657"><time>2022-10-29T09:44:44.250</time></trkpt><trkpt lat="55.7309150" lon="49.1237697"><time>2022-10-29T09:44:45.247</time></trkpt><trkpt lat="55.7309131" lon="49.1238773"><time>2022-10-29T09:44:46.250</time></trkpt><trkpt lat="55.7309090" lon="49.1239887"><time>2022-10-29T09:44:47.250</time></trkpt><trkpt lat="55.7309079" lon="49.1240952"><time>2022-10-29T09:44:48.247</time></trkpt><trkpt lat="55.7309106" lon="49.1241986"><time>2022-10-29T09:44:49.250</time></trkpt><trkpt lat="55.7309109" lon="49.1243053"><time>2022-10-29T09:44:50.250</time></trkpt><trkpt lat="55.7309118" lon="49.1244117"><time>2022-10-29T09:44:51.250</time></trkpt><trkpt lat="55.7309111" lon="49.1245200"><time>2022-10-29T09:44:52.250</time></trkpt><trkpt lat="55.7309080" lon="49.1246257"><time>2022-10-29T09:44:53.250</time></trkpt><trkpt lat="55.7309106" lon="49.1247262"><time>2022-10-29T09:44:54.247</time></trkpt><trkpt lat="55.7309130" lon="49.1248211"><time>2022-10-29T09:44:55.247</time></trkpt><trkpt lat="55.7309148" lon="49.1249101"><time>2022-10-29T09:44:56.243</time></trkpt><trkpt lat="55.7309196" lon="49.1249960"><time>2022-10-29T09:44:57.250</time></trkpt><trkpt lat="55.7309230" lon="49.1250849"><time>2022-10-29T09:44:58.257</time></trkpt><trkpt lat="55.7309284" lon="49.1251733"><time>2022-10-29T09:44:59.250</time></trkpt><trkpt lat="55.7309313" lon="49.1252695"><time>2022-10-29T09:45:00.257</time></trkpt><trkpt lat="55.7309307" lon="49.1253684"><time>2022-10-29T09:45:01.250</time></trkpt><trkpt lat="55.7309273" lon="49.1254675"><time>2022-10-29T09:45:02.250</time></trkpt><trkpt lat="55.7309252" lon="49.1255635"><time>2022-10-29T09:45:03.250</time></trkpt><trkpt lat="55.7309239" lon="49.1256596"><time>2022-10-29T09:45:04.270</time></trkpt><trkpt lat="55.7309215" lon="49.1257574"><time>2022-10-29T09:45:05.253</time></trkpt><trkpt lat="55.7309181" lon="49.1258556"><time>2022-10-29T09:45:06.250</time></trkpt><trkpt lat="55.7309157" lon="49.1259551"><time>2022-10-29T09:45:07.250</time></trkpt><trkpt lat="55.7309127" lon="49.1260575"><time>2022-10-29T09:45:08.260</time></trkpt><trkpt lat="55.7309068" lon="49.1261591"><time>2022-10-29T09:45:09.247</time></trkpt><trkpt lat="55.7309057" lon="49.1262572"><time>2022-10-29T09:45:10.247</time></trkpt><trkpt lat="55.7309071" lon="49.1263562"><time>2022-10-29T09:45:11.247</time></trkpt><trkpt lat="55.7309078" lon="49.1264557"><time>2022-10-29T09:45:12.253</time></trkpt><trkpt lat="55.7309071" lon="49.1265533"><time>2022-10-29T09:45:13.250</time></trkpt><trkpt lat="55.7309075" lon="49.1266502"><time>2022-10-29T09:45:14.253</time></trkpt><trkpt lat="55.7309082" lon="49.1267472"><time>2022-10-29T09:45:15.250</time></trkpt><trkpt lat="55.7309110" lon="49.1268411"><time>2022-10-29T09:45:16.270</time></trkpt><trkpt lat="55.7309168" lon="49.1269332"><time>2022-10-29T09:45:17.247</time></trkpt><trkpt lat="55.7309215" lon="49.1270312"><time>2022-10-29T09:45:18.243</time></trkpt><trkpt lat="55.7309228" lon="49.1271314"><time>2022-10-29T09:45:19.250</time></trkpt><trkpt lat="55.7309195" lon="49.1272174"><time>2022-10-29T09:45:20.250</time></trkpt><trkpt lat="55.7309157" lon="49.1273810"><time>2022-10-29T09:45:22.250</time></trkpt><trkpt lat="55.7309144" lon="49.1274762"><time>2022-10-29T09:45:23.250</time></trkpt><trkpt lat="55.7309173" lon="49.1275720"><time>2022-10-29T09:45:24.253</time></trkpt><trkpt lat="55.7309204" lon="49.1276658"><time>2022-10-29T09:45:25.247</time></trkpt><trkpt lat="55.7309222" lon="49.1277601"><time>2022-10-29T09:45:26.253</time></trkpt><trkpt lat="55.7309194" lon="49.1278528"><time>2022-10-29T09:45:27.270</time></trkpt><trkpt lat="55.7309162" lon="49.1279410"><time>2022-10-29T09:45:28.247</time></trkpt><trkpt lat="55.7309191" lon="49.1280288"><time>2022-10-29T09:45:29.250</time></trkpt><trkpt lat="55.7309178" lon="49.1281204"><time>2022-10-29T09:45:30.250</time></trkpt><trkpt lat="55.7309169" lon="49.1282111"><time>2022-10-29T09:45:31.250</time></trkpt><trkpt lat="55.7309181" lon="49.1283680"><time>2022-10-29T09:45:33.233</time></trkpt><trkpt lat="55.7309218" lon="49.1285146"><time>2022-10-29T09:45:35.247</time></trkpt><trkpt lat="55.7309215" lon="49.1286660"><time>2022-10-29T09:45:37.247</time></trkpt><trkpt lat="55.7309231" lon="49.1287893"><time>2022-10-29T09:45:39.250</time></trkpt><trkpt lat="55.7309345" lon="49.1288740"><time>2022-10-29T09:45:42.250</time></trkpt><trkpt lat="55.7309115" lon="49.1289488"><time>2022-10-29T09:45:48.247</time></trkpt><trkpt lat="55.7309033" lon="49.1290409"><time>2022-10-29T09:45:53.257</time></trkpt><trkpt lat="55.7308899" lon="49.1291254"><time>2022-10-29T09:45:58.247</time></trkpt><trkpt lat="55.7308834" lon="49.1292237"><time>2022-10-29T09:46:05.247</time></trkpt><trkpt lat="55.7308893" lon="49.1293082"><time>2022-10-29T09:46:10.253</time></trkpt><trkpt lat="55.7308908" lon="49.1294056"><time>2022-10-29T09:46:13.253</time></trkpt><trkpt lat="55.7308854" lon="49.1294972"><time>2022-10-29T09:46:16.250</time></trkpt><trkpt lat="55.7308866" lon="49.1295773"><time>2022-10-29T09:46:21.253</time></trkpt><trkpt lat="55.7308816" lon="49.1297062"><time>2022-10-29T09:46:26.247</time></trkpt><trkpt lat="55.7308897" lon="49.1297946"><time>2022-10-29T09:46:31.250</time></trkpt><trkpt lat="55.7308997" lon="49.1298750"><time>2022-10-29T09:46:35.250</time></trkpt><trkpt lat="55.7309136" lon="49.1299598"><time>2022-10-29T09:46:39.247</time></trkpt><trkpt lat="55.7308932" lon="49.1300687"><time>2022-10-29T09:46:46.243</time></trkpt><trkpt lat="55.7308878" lon="49.1301633"><time>2022-10-29T09:46:48.247</time></trkpt><trkpt lat="55.7308872" lon="49.1302589"><time>2022-10-29T09:46:50.247</time></trkpt><trkpt lat="55.7308869" lon="49.1304437"><time>2022-10-29T09:46:51.247</time></trkpt><trkpt lat="55.7308846" lon="49.1305249"><time>2022-10-29T09:46:52.247</time></trkpt><trkpt lat="55.7308842" lon="49.1306047"><time>2022-10-29T09:46:53.247</time></trkpt><trkpt lat="55.7308846" lon="49.1306879"><time>2022-10-29T09:46:54.247</time></trkpt><trkpt lat="55.7308820" lon="49.1307728"><time>2022-10-29T09:46:55.253</time></trkpt><trkpt lat="55.7308799" lon="49.1308589"><time>2022-10-29T09:46:56.247</time></trkpt><trkpt lat="55.7308771" lon="49.1309456"><time>2022-10-29T09:46:57.247</time></trkpt><trkpt lat="55.7308739" lon="49.1310351"><time>2022-10-29T09:46:58.247</time></trkpt><trkpt lat="55.7308690" lon="49.1311258"><time>2022-10-29T09:46:59.237</time></trkpt><trkpt lat="55.7308646" lon="49.1312188"><time>2022-10-29T09:47:00.247</time></trkpt><trkpt lat="55.7308602" lon="49.1313164"><time>2022-10-29T09:47:01.257</time></trkpt><trkpt lat="55.7308580" lon="49.1314140"><time>2022-10-29T09:47:02.253</time></trkpt><trkpt lat="55.7308574" lon="49.1315098"><time>2022-10-29T09:47:03.250</time></trkpt><trkpt lat="55.7308581" lon="49.1316025"><time>2022-10-29T09:47:04.277</time></trkpt><trkpt lat="55.7308579" lon="49.1317019"><time>2022-10-29T09:47:05.260</time></trkpt><trkpt lat="55.7308617" lon="49.1318017"><time>2022-10-29T09:47:06.250</time></trkpt><trkpt lat="55.7308634" lon="49.1318994"><time>2022-10-29T09:47:07.253</time></trkpt><trkpt lat="55.7308626" lon="49.1319975"><time>2022-10-29T09:47:08.253</time></trkpt><trkpt lat="55.7308634" lon="49.1320947"><time>2022-10-29T09:47:09.253</time></trkpt><trkpt lat="55.7308608" lon="49.1321901"><time>2022-10-29T09:47:10.247</time></trkpt><trkpt lat="55.7308557" lon="49.1322828"><time>2022-10-29T09:47:11.250</time></trkpt><trkpt lat="55.7308535" lon="49.1323782"><time>2022-10-29T09:47:12.280</time></trkpt><trkpt lat="55.7308557" lon="49.1324748"><time>2022-10-29T09:47:13.250</time></trkpt><trkpt lat="55.7308564" lon="49.1325686"><time>2022-10-29T09:47:14.250</time></trkpt><trkpt lat="55.7308524" lon="49.1326645"><time>2022-10-29T09:47:15.247</time></trkpt><trkpt lat="55.7308496" lon="49.1327622"><time>2022-10-29T09:47:16.250</time></trkpt><trkpt lat="55.7308499" lon="49.1328559"><time>2022-10-29T09:47:17.250</time></trkpt><trkpt lat="55.7308466" lon="49.1329467"><time>2022-10-29T09:47:18.260</time></trkpt><trkpt lat="55.7308400" lon="49.1330373"><time>2022-10-29T09:47:19.250</time></trkpt><trkpt lat="55.7308353" lon="49.1331234"><time>2022-10-29T09:47:20.260</time></trkpt><trkpt lat="55.7308357" lon="49.1332092"><time>2022-10-29T09:47:21.250</time></trkpt><trkpt lat="55.7308375" lon="49.1333051"><time>2022-10-29T09:47:22.253</time></trkpt><trkpt lat="55.7308391" lon="49.1334078"><time>2022-10-29T09:47:23.253</time></trkpt><trkpt lat="55.7308384" lon="49.1335191"><time>2022-10-29T09:47:24.273</time></trkpt><trkpt lat="55.7308351" lon="49.1336274"><time>2022-10-29T09:47:25.257</time></trkpt><trkpt lat="55.7308320" lon="49.1337311"><time>2022-10-29T09:47:26.250</time></trkpt><trkpt lat="55.7308317" lon="49.1338286"><time>2022-10-29T09:47:27.250</time></trkpt><trkpt lat="55.7308311" lon="49.1339251"><time>2022-10-29T09:47:28.250</time></trkpt><trkpt lat="55.7308343" lon="49.1340182"><time>2022-10-29T09:47:29.250</time></trkpt><trkpt lat="55.7308507" lon="49.1340958"><time>2022-10-29T09:47:30.247</time></trkpt><trkpt lat="55.7309011" lon="49.1341518"><time>2022-10-29T09:47:32.257</time></trkpt><trkpt lat="55.7309434" lon="49.1342033"><time>2022-10-29T09:48:05.250</time></trkpt><trkpt lat="55.7309152" lon="49.1343077"><time>2022-10-29T09:48:07.250</time></trkpt><trkpt lat="55.7308772" lon="49.1344405"><time>2022-10-29T09:48:09.250</time></trkpt><trkpt lat="55.7308807" lon="49.1345867"><time>2022-10-29T09:48:11.250</time></trkpt><trkpt lat="55.7308788" lon="49.1346723"><time>2022-10-29T09:48:12.273</time></trkpt><trkpt lat="55.7308765" lon="49.1347638"><time>2022-10-29T09:48:13.250</time></trkpt><trkpt lat="55.7308777" lon="49.1348569"><time>2022-10-29T09:48:14.253</time></trkpt><trkpt lat="55.7308776" lon="49.1349571"><time>2022-10-29T09:48:15.250</time></trkpt><trkpt lat="55.7308748" lon="49.1350627"><time>2022-10-29T09:48:16.250</time></trkpt><trkpt lat="55.7308715" lon="49.1351694"><time>2022-10-29T09:48:17.250</time></trkpt><trkpt lat="55.7308693" lon="49.1352749"><time>2022-10-29T09:48:18.257</time></trkpt><trkpt lat="55.7308694" lon="49.1353791"><time>2022-10-29T09:48:19.250</time></trkpt><trkpt lat="55.7308689" lon="49.1354834"><time>2022-10-29T09:48:20.253</time></trkpt><trkpt lat="55.7308687" lon="49.1355890"><time>2022-10-29T09:48:21.250</time></trkpt><trkpt lat="55.7308711" lon="49.1356954"><time>2022-10-29T09:48:22.253</time></trkpt><trkpt lat="55.7308711" lon="49.1358051"><time>2022-10-29T09:48:23.250</time></trkpt><trkpt lat="55.7308709" lon="49.1359141"><time>2022-10-29T09:48:24.253</time></trkpt><trkpt lat="55.7308710" lon="49.1360264"><time>2022-10-29T09:48:25.250</time></trkpt><trkpt lat="55.7308713" lon="49.1361344"><time>2022-10-29T09:48:26.250</time></trkpt><trkpt lat="55.7308705" lon="49.1362440"><time>2022-10-29T09:48:27.277</time></trkpt><trkpt lat="55.7308683" lon="49.1363543"><time>2022-10-29T09:48:28.247</time></trkpt><trkpt lat="55.7308668" lon="49.1364656"><time>2022-10-29T09:48:29.257</time></trkpt><trkpt lat="55.7308657" lon="49.1365744"><time>2022-10-29T09:48:30.263</time></trkpt><trkpt lat="55.7308654" lon="49.1366855"><time>2022-10-29T09:48:31.237</time></trkpt><trkpt lat="55.7308675" lon="49.1367976"><time>2022-10-29T09:48:32.247</time></trkpt><trkpt lat="55.7308715" lon="49.1369130"><time>2022-10-29T09:48:33.237</time></trkpt><trkpt lat="55.7308752" lon="49.1370326"><time>2022-10-29T09:48:34.257</time></trkpt><trkpt lat="55.7308767" lon="49.1371545"><time>2022-10-29T09:48:35.257</time></trkpt><trkpt lat="55.7308725" lon="49.1372715"><time>2022-10-29T09:48:36.237</time></trkpt><trkpt lat="55.7308690" lon="49.1373856"><time>2022-10-29T09:48:37.253</time></trkpt><trkpt lat="55.7308651" lon="49.1374989"><time>2022-10-29T09:48:38.237</time></trkpt><trkpt lat="55.7308613" lon="49.1376113"><time>2022-10-29T09:48:39.253</time></trkpt><trkpt lat="55.7308577" lon="49.1377183"><time>2022-10-29T09:48:40.253</time></trkpt><trkpt lat="55.7308546" lon="49.1378225"><time>2022-10-29T09:48:41.250</time></trkpt><trkpt lat="55.7308518" lon="49.1379272"><time>2022-10-29T09:48:42.260</time></trkpt><trkpt lat="55.7308498" lon="49.1380290"><time>2022-10-29T09:48:43.250</time></trkpt><trkpt lat="55.7308500" lon="49.1381359"><time>2022-10-29T09:48:44.250</time></trkpt><trkpt lat="55.7308493" lon="49.1382437"><time>2022-10-29T09:48:45.250</time></trkpt><trkpt lat="55.7308484" lon="49.1383505"><time>2022-10-29T09:48:46.250</time></trkpt><trkpt lat="55.7308457" lon="49.1384619"><time>2022-10-29T09:48:47.257</time></trkpt><trkpt lat="55.7308423" lon="49.1385764"><time>2022-10-29T09:48:48.250</time></trkpt><trkpt lat="55.7308402" lon="49.1386927"><time>2022-10-29T09:48:49.270</time></trkpt><trkpt lat="55.7308419" lon="49.1388039"><time>2022-10-29T09:48:50.250</time></trkpt><trkpt lat="55.7308417" lon="49.1389171"><time>2022-10-29T09:48:51.250</time></trkpt><trkpt lat="55.7308410" lon="49.1390294"><time>2022-10-29T09:48:52.257</time></trkpt><trkpt lat="55.7308401" lon="49.1391421"><time>2022-10-29T09:48:53.250</time></trkpt><trkpt lat="55.7308392" lon="49.1392511"><time>2022-10-29T09:48:54.250</time></trkpt><trkpt lat="55.7308374" lon="49.1393598"><time>2022-10-29T09:48:55.247</time></trkpt><trkpt lat="55.7308376" lon="49.1394709"><time>2022-10-29T09:48:56.250</time></trkpt><trkpt lat="55.7308367" lon="49.1395851"><time>2022-10-29T09:48:57.250</time></trkpt><trkpt lat="55.7308339" lon="49.1397000"><time>2022-10-29T09:48:58.250</time></trkpt><trkpt lat="55.7308327" lon="49.1398164"><time>2022-10-29T09:48:59.250</time></trkpt><trkpt lat="55.7308332" lon="49.1399360"><time>2022-10-29T09:49:00.250</time></trkpt><trkpt lat="55.7308373" lon="49.1400552"><time>2022-10-29T09:49:01.250</time></trkpt><trkpt lat="55.7308399" lon="49.1401731"><time>2022-10-29T09:49:02.257</time></trkpt><trkpt lat="55.7308443" lon="49.1402902"><time>2022-10-29T09:49:03.250</time></trkpt><trkpt lat="55.7308461" lon="49.1404056"><time>2022-10-29T09:49:04.253</time></trkpt><trkpt lat="55.7308475" lon="49.1405196"><time>2022-10-29T09:49:05.250</time></trkpt><trkpt lat="55.7308466" lon="49.1406293"><time>2022-10-29T09:49:06.253</time></trkpt><trkpt lat="55.7308451" lon="49.1407374"><time>2022-10-29T09:49:07.247</time></trkpt><trkpt lat="55.7308444" lon="49.1408425"><time>2022-10-29T09:49:08.250</time></trkpt><trkpt lat="55.7308430" lon="49.1409476"><time>2022-10-29T09:49:09.250</time></trkpt><trkpt lat="55.7308412" lon="49.1410543"><time>2022-10-29T09:49:10.247</time></trkpt><trkpt lat="55.7308397" lon="49.1411545"><time>2022-10-29T09:49:11.247</time></trkpt><trkpt lat="55.7308412" lon="49.1412513"><time>2022-10-29T09:49:12.270</time></trkpt><trkpt lat="55.7308402" lon="49.1413420"><time>2022-10-29T09:49:13.250</time></trkpt><trkpt lat="55.7308337" lon="49.1414311"><time>2022-10-29T09:49:14.237</time></trkpt><trkpt lat="55.7308253" lon="49.1415236"><time>2022-10-29T09:49:15.227</time></trkpt><trkpt lat="55.7308167" lon="49.1416150"><time>2022-10-29T09:49:16.230</time></trkpt><trkpt lat="55.7308132" lon="49.1417023"><time>2022-10-29T09:49:17.247</time></trkpt><trkpt lat="55.7308092" lon="49.1417865"><time>2022-10-29T09:49:18.230</time></trkpt><trkpt lat="55.7307937" lon="49.1419343"><time>2022-10-29T09:49:20.257</time></trkpt><trkpt lat="55.7307738" lon="49.1420546"><time>2022-10-29T09:49:22.250</time></trkpt><trkpt lat="55.7307567" lon="49.1421457"><time>2022-10-29T09:49:24.250</time></trkpt><trkpt lat="55.7307762" lon="49.1420722"><time>2022-10-29T09:49:50.250</time></trkpt><trkpt lat="55.7307892" lon="49.1419113"><time>2022-10-29T09:49:52.257</time></trkpt><trkpt lat="55.7307990" lon="49.1418206"><time>2022-10-29T09:49:53.247</time></trkpt><trkpt lat="55.7308099" lon="49.1417291"><time>2022-10-29T09:49:54.250</time></trkpt><trkpt lat="55.7308172" lon="49.1416279"><time>2022-10-29T09:49:55.237</time></trkpt><trkpt lat="55.7308203" lon="49.1415211"><time>2022-10-29T09:49:56.253</time></trkpt><trkpt lat="55.7308241" lon="49.1414109"><time>2022-10-29T09:49:57.253</time></trkpt><trkpt lat="55.7308291" lon="49.1412965"><time>2022-10-29T09:49:58.247</time></trkpt><trkpt lat="55.7308347" lon="49.1411778"><time>2022-10-29T09:49:59.253</time></trkpt><trkpt lat="55.7308383" lon="49.1410587"><time>2022-10-29T09:50:00.253</time></trkpt><trkpt lat="55.7308422" lon="49.1409408"><time>2022-10-29T09:50:01.260</time></trkpt><trkpt lat="55.7308446" lon="49.1408290"><time>2022-10-29T09:50:02.260</time></trkpt><trkpt lat="55.7308463" lon="49.1407227"><time>2022-10-29T09:50:03.253</time></trkpt><trkpt lat="55.7308463" lon="49.1406128"><time>2022-10-29T09:50:04.247</time></trkpt><trkpt lat="55.7308451" lon="49.1405040"><time>2022-10-29T09:50:05.253</time></trkpt><trkpt lat="55.7308418" lon="49.1403910"><time>2022-10-29T09:50:06.253</time></trkpt><trkpt lat="55.7308377" lon="49.1402768"><time>2022-10-29T09:50:07.250</time></trkpt><trkpt lat="55.7308338" lon="49.1401570"><time>2022-10-29T09:50:08.250</time></trkpt><trkpt lat="55.7308302" lon="49.1400363"><time>2022-10-29T09:50:09.247</time></trkpt><trkpt lat="55.7308271" lon="49.1399184"><time>2022-10-29T09:50:10.250</time></trkpt><trkpt lat="55.7308257" lon="49.1397995"><time>2022-10-29T09:50:11.230</time></trkpt><trkpt lat="55.7308249" lon="49.1396790"><time>2022-10-29T09:50:12.257</time></trkpt><trkpt lat="55.7308245" lon="49.1395607"><time>2022-10-29T09:50:13.250</time></trkpt><trkpt lat="55.7308246" lon="49.1394416"><time>2022-10-29T09:50:14.247</time></trkpt><trkpt lat="55.7308238" lon="49.1393191"><time>2022-10-29T09:50:15.250</time></trkpt><trkpt lat="55.7308240" lon="49.1391963"><time>2022-10-29T09:50:16.253</time></trkpt><trkpt lat="55.7308260" lon="49.1390736"><time>2022-10-29T09:50:17.250</time></trkpt><trkpt lat="55.7308280" lon="49.1389510"><time>2022-10-29T09:50:18.250</time></trkpt><trkpt lat="55.7308311" lon="49.1388328"><time>2022-10-29T09:50:19.257</time></trkpt><trkpt lat="55.7308349" lon="49.1387175"><time>2022-10-29T09:50:20.247</time></trkpt><trkpt lat="55.7308375" lon="49.1385982"><time>2022-10-29T09:50:21.250</time></trkpt><trkpt lat="55.7308394" lon="49.1384770"><time>2022-10-29T09:50:22.257</time></trkpt><trkpt lat="55.7308398" lon="49.1383571"><time>2022-10-29T09:50:23.253</time></trkpt><trkpt lat="55.7308366" lon="49.1382412"><time>2022-10-29T09:50:24.260</time></trkpt><trkpt lat="55.7308348" lon="49.1381248"><time>2022-10-29T09:50:25.250</time></trkpt><trkpt lat="55.7308359" lon="49.1380076"><time>2022-10-29T09:50:26.257</time></trkpt><trkpt lat="55.7308379" lon="49.1378858"><time>2022-10-29T09:50:27.250</time></trkpt><trkpt lat="55.7308407" lon="49.1377657"><time>2022-10-29T09:50:28.253</time></trkpt><trkpt lat="55.7308433" lon="49.1376503"><time>2022-10-29T09:50:29.253</time></trkpt><trkpt lat="55.7308471" lon="49.1375343"><time>2022-10-29T09:50:30.257</time></trkpt><trkpt lat="55.7308523" lon="49.1374134"><time>2022-10-29T09:50:31.253</time></trkpt><trkpt lat="55.7308554" lon="49.1372909"><time>2022-10-29T09:50:32.257</time></trkpt><trkpt lat="55.7308559" lon="49.1371716"><time>2022-10-29T09:50:33.250</time></trkpt><trkpt lat="55.7308557" lon="49.1370520"><time>2022-10-29T09:50:34.253</time></trkpt><trkpt lat="55.7308549" lon="49.1369353"><time>2022-10-29T09:50:35.250</time></trkpt><trkpt lat="55.7308553" lon="49.1368231"><time>2022-10-29T09:50:36.263</time></trkpt><trkpt lat="55.7308561" lon="49.1367116"><time>2022-10-29T09:50:37.257</time></trkpt><trkpt lat="55.7308573" lon="49.1366020"><time>2022-10-29T09:50:38.260</time></trkpt><trkpt lat="55.7308593" lon="49.1364916"><time>2022-10-29T09:50:39.253</time></trkpt><trkpt lat="55.7308605" lon="49.1363788"><time>2022-10-29T09:50:40.237</time></trkpt><trkpt lat="55.7308585" lon="49.1362656"><time>2022-10-29T09:50:41.247</time></trkpt><trkpt lat="55.7308555" lon="49.1361542"><time>2022-10-29T09:50:42.307</time></trkpt><trkpt lat="55.7308550" lon="49.1360439"><time>2022-10-29T09:50:43.267</time></trkpt><trkpt lat="55.7308551" lon="49.1359393"><time>2022-10-29T09:50:44.257</time></trkpt><trkpt lat="55.7308562" lon="49.1358374"><time>2022-10-29T09:50:45.260</time></trkpt><trkpt lat="55.7308571" lon="49.1357347"><time>2022-10-29T09:50:46.260</time></trkpt><trkpt lat="55.7308570" lon="49.1356296"><time>2022-10-29T09:50:47.263</time></trkpt><trkpt lat="55.7308579" lon="49.1355215"><time>2022-10-29T09:50:48.253</time></trkpt><trkpt lat="55.7308589" lon="49.1354117"><time>2022-10-29T09:50:49.253</time></trkpt><trkpt lat="55.7308595" lon="49.1352978"><time>2022-10-29T09:50:50.260</time></trkpt><trkpt lat="55.7308598" lon="49.1351855"><time>2022-10-29T09:50:51.253</time></trkpt><trkpt lat="55.7308578" lon="49.1350722"><time>2022-10-29T09:50:52.257</time></trkpt><trkpt lat="55.7308563" lon="49.1349591"><time>2022-10-29T09:50:53.250</time></trkpt><trkpt lat="55.7308565" lon="49.1348508"><time>2022-10-29T09:50:54.260</time></trkpt><trkpt lat="55.7308576" lon="49.1347431"><time>2022-10-29T09:50:55.260</time></trkpt><trkpt lat="55.7308588" lon="49.1346381"><time>2022-10-29T09:50:56.260</time></trkpt><trkpt lat="55.7308595" lon="49.1345390"><time>2022-10-29T09:50:57.263</time></trkpt><trkpt lat="55.7308621" lon="49.1344473"><time>2022-10-29T09:50:58.267</time></trkpt><trkpt lat="55.7308918" lon="49.1343366"><time>2022-10-29T09:51:00.257</time></trkpt><trkpt lat="55.7309589" lon="49.1343136"><time>2022-10-29T09:51:02.270</time></trkpt><trkpt lat="55.7310396" lon="49.1342944"><time>2022-10-29T09:51:04.263</time></trkpt><trkpt lat="55.7311181" lon="49.1342999"><time>2022-10-29T09:51:06.257</time></trkpt><trkpt lat="55.7311988" lon="49.1343204"><time>2022-10-29T09:51:08.257</time></trkpt><trkpt lat="55.7312714" lon="49.1343174"><time>2022-10-29T09:51:10.297</time></trkpt><trkpt lat="55.7313066" lon="49.1343184"><time>2022-10-29T09:51:11.257</time></trkpt><trkpt lat="55.7313919" lon="49.1343184"><time>2022-10-29T09:51:13.260</time></trkpt><trkpt lat="55.7314386" lon="49.1343141"><time>2022-10-29T09:51:14.257</time></trkpt><trkpt lat="55.7314882" lon="49.1343093"><time>2022-10-29T09:51:15.260</time></trkpt><trkpt lat="55.7315410" lon="49.1343063"><time>2022-10-29T09:51:16.263</time></trkpt><trkpt lat="55.7315955" lon="49.1343040"><time>2022-10-29T09:51:17.257</time></trkpt><trkpt lat="55.7316520" lon="49.1343018"><time>2022-10-29T09:51:18.257</time></trkpt><trkpt lat="55.7317097" lon="49.1343023"><time>2022-10-29T09:51:19.257</time></trkpt><trkpt lat="55.7317710" lon="49.1343008"><time>2022-10-29T09:51:20.303</time></trkpt><trkpt lat="55.7318315" lon="49.1342984"><time>2022-10-29T09:51:21.240</time></trkpt><trkpt lat="55.7318888" lon="49.1343022"><time>2022-10-29T09:51:22.260</time></trkpt><trkpt lat="55.7319444" lon="49.1343058"><time>2022-10-29T09:51:23.260</time></trkpt><trkpt lat="55.7319980" lon="49.1343049"><time>2022-10-29T09:51:24.260</time></trkpt><trkpt lat="55.7320507" lon="49.1343010"><time>2022-10-29T09:51:25.260</time></trkpt><trkpt lat="55.7321039" lon="49.1342959"><time>2022-10-29T09:51:26.253</time></trkpt><trkpt lat="55.7321551" lon="49.1342902"><time>2022-10-29T09:51:27.247</time></trkpt><trkpt lat="55.7321997" lon="49.1342698"><time>2022-10-29T09:51:28.250</time></trkpt><trkpt lat="55.7322195" lon="49.1341726"><time>2022-10-29T09:51:30.263</time></trkpt><trkpt lat="55.7321675" lon="49.1340620"><time>2022-10-29T09:51:32.293</time></trkpt><trkpt lat="55.7321675" lon="49.1340620"><time>2022-10-29T09:51:32.317</time></trkpt><trkpt lat="55.7321454" lon="49.1339733"><time>2022-10-29T09:51:34.297</time></trkpt><trkpt lat="55.7321407" lon="49.1339524"><time>2022-10-29T09:51:35.257</time></trkpt><trkpt lat="55.7321570" lon="49.1340394"><time>2022-10-29T09:51:42.267</time></trkpt><trkpt lat="55.7321781" lon="49.1341246"><time>2022-10-29T09:51:45.263</time></trkpt><trkpt lat="55.7322212" lon="49.1341815"><time>2022-10-29T09:51:48.233</time></trkpt><trkpt lat="55.7322874" lon="49.1341832"><time>2022-10-29T09:51:51.250</time></trkpt><trkpt lat="55.7323412" lon="49.1341826"><time>2022-10-29T09:51:53.257</time></trkpt><trkpt lat="55.7324669" lon="49.1341737"><time>2022-10-29T09:51:55.253</time></trkpt><trkpt lat="55.7325226" lon="49.1341695"><time>2022-10-29T09:51:56.253</time></trkpt><trkpt lat="55.7325795" lon="49.1341647"><time>2022-10-29T09:51:57.250</time></trkpt><trkpt lat="55.7326355" lon="49.1341586"><time>2022-10-29T09:51:58.250</time></trkpt><trkpt lat="55.7326914" lon="49.1341536"><time>2022-10-29T09:51:59.250</time></trkpt><trkpt lat="55.7327472" lon="49.1341507"><time>2022-10-29T09:52:00.257</time></trkpt><trkpt lat="55.7328024" lon="49.1341501"><time>2022-10-29T09:52:01.250</time></trkpt><trkpt lat="55.7328574" lon="49.1341472"><time>2022-10-29T09:52:02.253</time></trkpt><trkpt lat="55.7329129" lon="49.1341423"><time>2022-10-29T09:52:03.250</time></trkpt><trkpt lat="55.7329696" lon="49.1341414"><time>2022-10-29T09:52:04.250</time></trkpt><trkpt lat="55.7330294" lon="49.1341400"><time>2022-10-29T09:52:05.253</time></trkpt><trkpt lat="55.7330899" lon="49.1341359"><time>2022-10-29T09:52:06.253</time></trkpt><trkpt lat="55.7331453" lon="49.1341391"><time>2022-10-29T09:52:07.250</time></trkpt><trkpt lat="55.7331994" lon="49.1341402"><time>2022-10-29T09:52:08.253</time></trkpt><trkpt lat="55.7332522" lon="49.1341343"><time>2022-10-29T09:52:09.250</time></trkpt><trkpt lat="55.7333030" lon="49.1341091"><time>2022-10-29T09:52:10.247</time></trkpt><trkpt lat="55.7333477" lon="49.1340586"><time>2022-10-29T09:52:11.253</time></trkpt><trkpt lat="55.7333828" lon="49.1339893"><time>2022-10-29T09:52:12.257</time></trkpt><trkpt lat="55.7334150" lon="49.1339253"><time>2022-10-29T09:52:13.250</time></trkpt><trkpt lat="55.7334822" lon="49.1338681"><time>2022-10-29T09:52:15.250</time></trkpt><trkpt lat="55.7335641" lon="49.1338666"><time>2022-10-29T09:52:17.250</time></trkpt><trkpt lat="55.7336113" lon="49.1338723"><time>2022-10-29T09:52:18.270</time></trkpt><trkpt lat="55.7336652" lon="49.1338757"><time>2022-10-29T09:52:19.247</time></trkpt><trkpt lat="55.7337218" lon="49.1338793"><time>2022-10-29T09:52:20.257</time></trkpt><trkpt lat="55.7337790" lon="49.1338800"><time>2022-10-29T09:52:21.253</time></trkpt><trkpt lat="55.7338366" lon="49.1338797"><time>2022-10-29T09:52:22.257</time></trkpt><trkpt lat="55.7338980" lon="49.1338750"><time>2022-10-29T09:52:23.250</time></trkpt><trkpt lat="55.7339590" lon="49.1338723"><time>2022-10-29T09:52:24.250</time></trkpt><trkpt lat="55.7340193" lon="49.1338706"><time>2022-10-29T09:52:25.250</time></trkpt><trkpt lat="55.7340808" lon="49.1338728"><time>2022-10-29T09:52:26.250</time></trkpt><trkpt lat="55.7341418" lon="49.1338761"><time>2022-10-29T09:52:27.250</time></trkpt><trkpt lat="55.7342038" lon="49.1338819"><time>2022-10-29T09:52:28.250</time></trkpt><trkpt lat="55.7342654" lon="49.1338840"><time>2022-10-29T09:52:29.247</time></trkpt><trkpt lat="55.7343252" lon="49.1338847"><time>2022-10-29T09:52:30.250</time></trkpt><trkpt lat="55.7343872" lon="49.1338849"><time>2022-10-29T09:52:31.250</time></trkpt><trkpt lat="55.7344516" lon="49.1338866"><time>2022-10-29T09:52:32.250</time></trkpt><trkpt lat="55.7345136" lon="49.1338869"><time>2022-10-29T09:52:33.243</time></trkpt><trkpt lat="55.7345734" lon="49.1338872"><time>2022-10-29T09:52:34.230</time></trkpt><trkpt lat="55.7346342" lon="49.1338851"><time>2022-10-29T09:52:35.257</time></trkpt><trkpt lat="55.7346963" lon="49.1338821"><time>2022-10-29T09:52:36.253</time></trkpt><trkpt lat="55.7347591" lon="49.1338796"><time>2022-10-29T09:52:37.257</time></trkpt><trkpt lat="55.7348232" lon="49.1338815"><time>2022-10-29T09:52:38.230</time></trkpt><trkpt lat="55.7348825" lon="49.1338901"><time>2022-10-29T09:52:39.257</time></trkpt><trkpt lat="55.7349377" lon="49.1338999"><time>2022-10-29T09:52:40.253</time></trkpt><trkpt lat="55.7349881" lon="49.1339069"><time>2022-10-29T09:52:41.223</time></trkpt><trkpt lat="55.7350381" lon="49.1339065"><time>2022-10-29T09:52:42.233</time></trkpt><trkpt lat="55.7350864" lon="49.1339071"><time>2022-10-29T09:52:43.277</time></trkpt><trkpt lat="55.7351325" lon="49.1339107"><time>2022-10-29T09:52:44.250</time></trkpt><trkpt lat="55.7351782" lon="49.1339123"><time>2022-10-29T09:52:45.257</time></trkpt><trkpt lat="55.7352277" lon="49.1339119"><time>2022-10-29T09:52:46.253</time></trkpt><trkpt lat="55.7352830" lon="49.1339088"><time>2022-10-29T09:52:47.253</time></trkpt><trkpt lat="55.7353431" lon="49.1339021"><time>2022-10-29T09:52:48.253</time></trkpt><trkpt lat="55.7354011" lon="49.1338935"><time>2022-10-29T09:52:49.250</time></trkpt><trkpt lat="55.7354597" lon="49.1338851"><time>2022-10-29T09:52:50.250</time></trkpt><trkpt lat="55.7355203" lon="49.1338777"><time>2022-10-29T09:52:51.250</time></trkpt><trkpt lat="55.7355799" lon="49.1338745"><time>2022-10-29T09:52:52.257</time></trkpt><trkpt lat="55.7356416" lon="49.1338666"><time>2022-10-29T09:52:53.257</time></trkpt><trkpt lat="55.7357022" lon="49.1338544"><time>2022-10-29T09:52:54.270</time></trkpt><trkpt lat="55.7357599" lon="49.1338415"><time>2022-10-29T09:52:55.253</time></trkpt><trkpt lat="55.7358121" lon="49.1338315"><time>2022-10-29T09:52:56.250</time></trkpt><trkpt lat="55.7358631" lon="49.1338253"><time>2022-10-29T09:52:57.250</time></trkpt><trkpt lat="55.7359191" lon="49.1338219"><time>2022-10-29T09:52:58.257</time></trkpt><trkpt lat="55.7359760" lon="49.1338221"><time>2022-10-29T09:52:59.260</time></trkpt><trkpt lat="55.7360337" lon="49.1338164"><time>2022-10-29T09:53:00.263</time></trkpt><trkpt lat="55.7360932" lon="49.1338084"><time>2022-10-29T09:53:01.250</time></trkpt><trkpt lat="55.7361531" lon="49.1338001"><time>2022-10-29T09:53:02.253</time></trkpt><trkpt lat="55.7362080" lon="49.1337941"><time>2022-10-29T09:53:03.247</time></trkpt><trkpt lat="55.7362607" lon="49.1337877"><time>2022-10-29T09:53:04.250</time></trkpt><trkpt lat="55.7363193" lon="49.1337794"><time>2022-10-29T09:53:05.257</time></trkpt><trkpt lat="55.7363811" lon="49.1337624"><time>2022-10-29T09:53:06.277</time></trkpt><trkpt lat="55.7364425" lon="49.1337302"><time>2022-10-29T09:53:07.253</time></trkpt><trkpt lat="55.7365032" lon="49.1336954"><time>2022-10-29T09:53:08.250</time></trkpt><trkpt lat="55.7365636" lon="49.1336778"><time>2022-10-29T09:53:09.257</time></trkpt><trkpt lat="55.7366259" lon="49.1336817"><time>2022-10-29T09:53:10.250</time></trkpt><trkpt lat="55.7366862" lon="49.1336919"><time>2022-10-29T09:53:11.250</time></trkpt><trkpt lat="55.7367455" lon="49.1336952"><time>2022-10-29T09:53:12.263</time></trkpt><trkpt lat="55.7368077" lon="49.1336894"><time>2022-10-29T09:53:13.260</time></trkpt><trkpt lat="55.7368703" lon="49.1336839"><time>2022-10-29T09:53:14.250</time></trkpt><trkpt lat="55.7369328" lon="49.1336755"><time>2022-10-29T09:53:15.253</time></trkpt><trkpt lat="55.7369949" lon="49.1336644"><time>2022-10-29T09:53:16.250</time></trkpt><trkpt lat="55.7370559" lon="49.1336511"><time>2022-10-29T09:53:17.250</time></trkpt><trkpt lat="55.7371161" lon="49.1336403"><time>2022-10-29T09:53:18.250</time></trkpt><trkpt lat="55.7371737" lon="49.1336338"><time>2022-10-29T09:53:19.260</time></trkpt><trkpt lat="55.7372302" lon="49.1336250"><time>2022-10-29T09:53:20.250</time></trkpt><trkpt lat="55.7372846" lon="49.1336137"><time>2022-10-29T09:53:21.230</time></trkpt><trkpt lat="55.7373376" lon="49.1336003"><time>2022-10-29T09:53:22.263</time></trkpt><trkpt lat="55.7373916" lon="49.1335891"><time>2022-10-29T09:53:23.250</time></trkpt><trkpt lat="55.7374477" lon="49.1335790"><time>2022-10-29T09:53:24.257</time></trkpt><trkpt lat="55.7375050" lon="49.1335708"><time>2022-10-29T09:53:25.257</time></trkpt><trkpt lat="55.7375615" lon="49.1335622"><time>2022-10-29T09:53:26.257</time></trkpt><trkpt lat="55.7376183" lon="49.1335516"><time>2022-10-29T09:53:27.257</time></trkpt><trkpt lat="55.7376775" lon="49.1335427"><time>2022-10-29T09:53:28.257</time></trkpt><trkpt lat="55.7377340" lon="49.1335314"><time>2022-10-29T09:53:29.257</time></trkpt><trkpt lat="55.7377889" lon="49.1335226"><time>2022-10-29T09:53:30.253</time></trkpt><trkpt lat="55.7378339" lon="49.1335240"><time>2022-10-29T09:53:31.253</time></trkpt><trkpt lat="55.7379092" lon="49.1335235"><time>2022-10-29T09:53:33.257</time></trkpt><trkpt lat="55.7379924" lon="49.1335012"><time>2022-10-29T09:53:35.253</time></trkpt><trkpt lat="55.7380318" lon="49.1334577"><time>2022-10-29T09:53:36.263</time></trkpt><trkpt lat="55.7380714" lon="49.1334136"><time>2022-10-29T09:53:37.247</time></trkpt><trkpt lat="55.7381132" lon="49.1333755"><time>2022-10-29T09:53:38.260</time></trkpt><trkpt lat="55.7381599" lon="49.1333469"><time>2022-10-29T09:53:39.257</time></trkpt><trkpt lat="55.7382106" lon="49.1333282"><time>2022-10-29T09:53:40.257</time></trkpt><trkpt lat="55.7382658" lon="49.1333194"><time>2022-10-29T09:53:41.263</time></trkpt><trkpt lat="55.7383236" lon="49.1333196"><time>2022-10-29T09:53:42.253</time></trkpt><trkpt lat="55.7383824" lon="49.1333357"><time>2022-10-29T09:53:43.257</time></trkpt><trkpt lat="55.7384376" lon="49.1333618"><time>2022-10-29T09:53:44.257</time></trkpt><trkpt lat="55.7384927" lon="49.1333912"><time>2022-10-29T09:53:45.250</time></trkpt><trkpt lat="55.7385562" lon="49.1334019"><time>2022-10-29T09:53:46.257</time></trkpt><trkpt lat="55.7386180" lon="49.1333941"><time>2022-10-29T09:53:47.253</time></trkpt><trkpt lat="55.7386778" lon="49.1333824"><time>2022-10-29T09:53:48.253</time></trkpt><trkpt lat="55.7387406" lon="49.1333715"><time>2022-10-29T09:53:49.253</time></trkpt><trkpt lat="55.7388026" lon="49.1333598"><time>2022-10-29T09:53:50.257</time></trkpt><trkpt lat="55.7388675" lon="49.1333428"><time>2022-10-29T09:53:51.253</time></trkpt><trkpt lat="55.7389324" lon="49.1333247"><time>2022-10-29T09:53:52.257</time></trkpt><trkpt lat="55.7389923" lon="49.1333101"><time>2022-10-29T09:53:53.263</time></trkpt><trkpt lat="55.7390498" lon="49.1333020"><time>2022-10-29T09:53:54.263</time></trkpt><trkpt lat="55.7391022" lon="49.1332994"><time>2022-10-29T09:53:55.253</time></trkpt><trkpt lat="55.7391488" lon="49.1333042"><time>2022-10-29T09:53:56.260</time></trkpt><trkpt lat="55.7391936" lon="49.1333097"><time>2022-10-29T09:53:57.253</time></trkpt><trkpt lat="55.7392781" lon="49.1332900"><time>2022-10-29T09:53:59.247</time></trkpt><trkpt lat="55.7393293" lon="49.1332335"><time>2022-10-29T09:54:01.243</time></trkpt><trkpt lat="55.7393402" lon="49.1330981"><time>2022-10-29T09:54:03.243</time></trkpt><trkpt lat="55.7393486" lon="49.1329355"><time>2022-10-29T09:54:05.253</time></trkpt><trkpt lat="55.7393462" lon="49.1327789"><time>2022-10-29T09:54:07.240</time></trkpt><trkpt lat="55.7393328" lon="49.1326735"><time>2022-10-29T09:54:08.240</time></trkpt><trkpt lat="55.7392929" lon="49.1325264"><time>2022-10-29T09:54:09.247</time></trkpt><trkpt lat="55.7392586" lon="49.1323734"><time>2022-10-29T09:54:10.237</time></trkpt><trkpt lat="55.7392265" lon="49.1322402"><time>2022-10-29T09:54:11.237</time></trkpt><trkpt lat="55.7392138" lon="49.1321206"><time>2022-10-29T09:54:12.237</time></trkpt><trkpt lat="55.7392216" lon="49.1320014"><time>2022-10-29T09:54:13.240</time></trkpt><trkpt lat="55.7392097" lon="49.1318977"><time>2022-10-29T09:54:14.240</time></trkpt><trkpt lat="55.7392024" lon="49.1317963"><time>2022-10-29T09:54:15.243</time></trkpt><trkpt lat="55.7392011" lon="49.1316911"><time>2022-10-29T09:54:16.247</time></trkpt><trkpt lat="55.7391993" lon="49.1315945"><time>2022-10-29T09:54:17.247</time></trkpt><trkpt lat="55.7391982" lon="49.1315029"><time>2022-10-29T09:54:18.253</time></trkpt><trkpt lat="55.7391908" lon="49.1314120"><time>2022-10-29T09:54:19.247</time></trkpt><trkpt lat="55.7391846" lon="49.1313238"><time>2022-10-29T09:54:20.243</time></trkpt><trkpt lat="55.7391845" lon="49.1312320"><time>2022-10-29T09:54:21.243</time></trkpt><trkpt lat="55.7391841" lon="49.1311396"><time>2022-10-29T09:54:22.307</time></trkpt><trkpt lat="55.7391839" lon="49.1310449"><time>2022-10-29T09:54:23.277</time></trkpt><trkpt lat="55.7391819" lon="49.1309488"><time>2022-10-29T09:54:24.243</time></trkpt><trkpt lat="55.7391763" lon="49.1308585"><time>2022-10-29T09:54:25.247</time></trkpt><trkpt lat="55.7391750" lon="49.1307670"><time>2022-10-29T09:54:26.247</time></trkpt><trkpt lat="55.7391749" lon="49.1306780"><time>2022-10-29T09:54:27.247</time></trkpt><trkpt lat="55.7391744" lon="49.1305891"><time>2022-10-29T09:54:28.247</time></trkpt><trkpt lat="55.7391795" lon="49.1305007"><time>2022-10-29T09:54:29.247</time></trkpt><trkpt lat="55.7391898" lon="49.1304113"><time>2022-10-29T09:54:30.247</time></trkpt><trkpt lat="55.7392052" lon="49.1303279"><time>2022-10-29T09:54:31.243</time></trkpt><trkpt lat="55.7392603" lon="49.1302163"><time>2022-10-29T09:54:33.237</time></trkpt><trkpt lat="55.7393233" lon="49.1301892"><time>2022-10-29T09:54:35.247</time></trkpt><trkpt lat="55.7393782" lon="49.1302145"><time>2022-10-29T09:54:39.270</time></trkpt><trkpt lat="55.7394020" lon="49.1301463"><time>2022-10-29T09:54:43.257</time></trkpt><trkpt lat="55.7394191" lon="49.1300363"><time>2022-10-29T09:54:46.257</time></trkpt><trkpt lat="55.7394395" lon="49.1299138"><time>2022-10-29T09:54:48.253</time></trkpt><trkpt lat="55.7394694" lon="49.1297719"><time>2022-10-29T09:54:50.253</time></trkpt><trkpt lat="55.7395024" lon="49.1296309"><time>2022-10-29T09:54:52.283</time></trkpt><trkpt lat="55.7395199" lon="49.1295623"><time>2022-10-29T09:54:53.267</time></trkpt><trkpt lat="55.7395384" lon="49.1294863"><time>2022-10-29T09:54:54.263</time></trkpt><trkpt lat="55.7395562" lon="49.1294029"><time>2022-10-29T09:54:55.260</time></trkpt><trkpt lat="55.7395787" lon="49.1293237"><time>2022-10-29T09:54:56.257</time></trkpt><trkpt lat="55.7396023" lon="49.1292544"><time>2022-10-29T09:54:57.260</time></trkpt><trkpt lat="55.7396241" lon="49.1291846"><time>2022-10-29T09:54:58.257</time></trkpt><trkpt lat="55.7396428" lon="49.1291114"><time>2022-10-29T09:54:59.267</time></trkpt><trkpt lat="55.7396848" lon="49.1289756"><time>2022-10-29T09:55:01.250</time></trkpt><trkpt lat="55.7397115" lon="49.1289096"><time>2022-10-29T09:55:02.280</time></trkpt><trkpt lat="55.7397390" lon="49.1288454"><time>2022-10-29T09:55:03.277</time></trkpt><trkpt lat="55.7397975" lon="49.1287231"><time>2022-10-29T09:55:05.257</time></trkpt><trkpt lat="55.7398247" lon="49.1286574"><time>2022-10-29T09:55:06.250</time></trkpt><trkpt lat="55.7398749" lon="49.1285386"><time>2022-10-29T09:55:08.257</time></trkpt><trkpt lat="55.7399278" lon="49.1284408"><time>2022-10-29T09:55:10.270</time></trkpt><trkpt lat="55.7399278" lon="49.1284408"><time>2022-10-29T09:55:10.317</time></trkpt><trkpt lat="55.7399833" lon="49.1283781"><time>2022-10-29T09:55:12.283</time></trkpt><trkpt lat="55.7399985" lon="49.1283684"><time>2022-10-29T09:55:13.263</time></trkpt><trkpt lat="55.7399583" lon="49.1284349"><time>2022-10-29T09:55:28.257</time></trkpt><trkpt lat="55.7399162" lon="49.1284994"><time>2022-10-29T09:55:30.253</time></trkpt><trkpt lat="55.7398610" lon="49.1286194"><time>2022-10-29T09:55:32.260</time></trkpt><trkpt lat="55.7398354" lon="49.1286854"><time>2022-10-29T09:55:33.257</time></trkpt><trkpt lat="55.7398093" lon="49.1287529"><time>2022-10-29T09:55:34.250</time></trkpt><trkpt lat="55.7397836" lon="49.1288246"><time>2022-10-29T09:55:35.257</time></trkpt><trkpt lat="55.7397579" lon="49.1288926"><time>2022-10-29T09:55:36.253</time></trkpt><trkpt lat="55.7397310" lon="49.1289598"><time>2022-10-29T09:55:37.250</time></trkpt><trkpt lat="55.7397041" lon="49.1290299"><time>2022-10-29T09:55:38.253</time></trkpt><trkpt lat="55.7396826" lon="49.1291019"><time>2022-10-29T09:55:39.250</time></trkpt><trkpt lat="55.7396622" lon="49.1291816"><time>2022-10-29T09:55:40.257</time></trkpt><trkpt lat="55.7396387" lon="49.1292631"><time>2022-10-29T09:55:41.253</time></trkpt><trkpt lat="55.7396136" lon="49.1293398"><time>2022-10-29T09:55:42.257</time></trkpt><trkpt lat="55.7395853" lon="49.1294146"><time>2022-10-29T09:55:43.253</time></trkpt><trkpt lat="55.7395564" lon="49.1294957"><time>2022-10-29T09:55:44.257</time></trkpt><trkpt lat="55.7395300" lon="49.1295792"><time>2022-10-29T09:55:45.257</time></trkpt><trkpt lat="55.7395038" lon="49.1296569"><time>2022-10-29T09:55:46.253</time></trkpt><trkpt lat="55.7394801" lon="49.1297277"><time>2022-10-29T09:55:47.253</time></trkpt><trkpt lat="55.7394569" lon="49.1297965"><time>2022-10-29T09:55:48.253</time></trkpt><trkpt lat="55.7394361" lon="49.1298678"><time>2022-10-29T09:55:49.263</time></trkpt><trkpt lat="55.7394177" lon="49.1299454"><time>2022-10-29T09:55:50.280</time></trkpt><trkpt lat="55.7394030" lon="49.1300272"><time>2022-10-29T09:55:51.257</time></trkpt><trkpt lat="55.7393904" lon="49.1301060"><time>2022-10-29T09:55:52.253</time></trkpt><trkpt lat="55.7393859" lon="49.1301868"><time>2022-10-29T09:55:53.260</time></trkpt><trkpt lat="55.7393845" lon="49.1302701"><time>2022-10-29T09:55:54.257</time></trkpt><trkpt lat="55.7393831" lon="49.1303573"><time>2022-10-29T09:55:55.250</time></trkpt><trkpt lat="55.7393848" lon="49.1304461"><time>2022-10-29T09:55:56.263</time></trkpt><trkpt lat="55.7393870" lon="49.1305421"><time>2022-10-29T09:55:57.263</time></trkpt><trkpt lat="55.7393906" lon="49.1306423"><time>2022-10-29T09:55:58.257</time></trkpt><trkpt lat="55.7393961" lon="49.1307426"><time>2022-10-29T09:55:59.253</time></trkpt><trkpt lat="55.7394059" lon="49.1308418"><time>2022-10-29T09:56:00.250</time></trkpt><trkpt lat="55.7394212" lon="49.1309331"><time>2022-10-29T09:56:01.250</time></trkpt><trkpt lat="55.7394338" lon="49.1310249"><time>2022-10-29T09:56:02.253</time></trkpt><trkpt lat="55.7394426" lon="49.1311190"><time>2022-10-29T09:56:03.250</time></trkpt><trkpt lat="55.7394492" lon="49.1312197"><time>2022-10-29T09:56:04.257</time></trkpt><trkpt lat="55.7394538" lon="49.1313271"><time>2022-10-29T09:56:05.250</time></trkpt><trkpt lat="55.7394575" lon="49.1314392"><time>2022-10-29T09:56:06.253</time></trkpt><trkpt lat="55.7394578" lon="49.1315482"><time>2022-10-29T09:56:07.250</time></trkpt><trkpt lat="55.7394584" lon="49.1316558"><time>2022-10-29T09:56:08.253</time></trkpt><trkpt lat="55.7394626" lon="49.1317656"><time>2022-10-29T09:56:09.250</time></trkpt><trkpt lat="55.7394692" lon="49.1318721"><time>2022-10-29T09:56:10.250</time></trkpt><trkpt lat="55.7394779" lon="49.1319725"><time>2022-10-29T09:56:11.257</time></trkpt><trkpt lat="55.7394875" lon="49.1320773"><time>2022-10-29T09:56:12.253</time></trkpt><trkpt lat="55.7394966" lon="49.1321782"><time>2022-10-29T09:56:13.253</time></trkpt><trkpt lat="55.7395033" lon="49.1322825"><time>2022-10-29T09:56:14.273</time></trkpt><trkpt lat="55.7395071" lon="49.1323867"><time>2022-10-29T09:56:15.257</time></trkpt><trkpt lat="55.7395104" lon="49.1324948"><time>2022-10-29T09:56:16.260</time></trkpt><trkpt lat="55.7395178" lon="49.1326005"><time>2022-10-29T09:56:17.260</time></trkpt><trkpt lat="55.7395262" lon="49.1327042"><time>2022-10-29T09:56:18.260</time></trkpt><trkpt lat="55.7395336" lon="49.1328002"><time>2022-10-29T09:56:19.257</time></trkpt><trkpt lat="55.7395438" lon="49.1328980"><time>2022-10-29T09:56:20.253</time></trkpt><trkpt lat="55.7395597" lon="49.1329948"><time>2022-10-29T09:56:21.250</time></trkpt><trkpt lat="55.7395816" lon="49.1330806"><time>2022-10-29T09:56:22.260</time></trkpt><trkpt lat="55.7396117" lon="49.1331569"><time>2022-10-29T09:56:23.253</time></trkpt><trkpt lat="55.7396485" lon="49.1332164"><time>2022-10-29T09:56:24.253</time></trkpt><trkpt lat="55.7396931" lon="49.1332449"><time>2022-10-29T09:56:25.250</time></trkpt><trkpt lat="55.7397463" lon="49.1332399"><time>2022-10-29T09:56:26.270</time></trkpt><trkpt lat="55.7398056" lon="49.1332230"><time>2022-10-29T09:56:27.247</time></trkpt><trkpt lat="55.7398658" lon="49.1332016"><time>2022-10-29T09:56:28.263</time></trkpt><trkpt lat="55.7399234" lon="49.1331840"><time>2022-10-29T09:56:29.253</time></trkpt><trkpt lat="55.7399835" lon="49.1331770"><time>2022-10-29T09:56:30.257</time></trkpt><trkpt lat="55.7400400" lon="49.1331750"><time>2022-10-29T09:56:31.253</time></trkpt><trkpt lat="55.7400968" lon="49.1331608"><time>2022-10-29T09:56:32.260</time></trkpt><trkpt lat="55.7401540" lon="49.1331419"><time>2022-10-29T09:56:33.253</time></trkpt><trkpt lat="55.7402156" lon="49.1331213"><time>2022-10-29T09:56:34.257</time></trkpt><trkpt lat="55.7402790" lon="49.1331036"><time>2022-10-29T09:56:35.260</time></trkpt><trkpt lat="55.7403426" lon="49.1330893"><time>2022-10-29T09:56:36.253</time></trkpt><trkpt lat="55.7404077" lon="49.1330776"><time>2022-10-29T09:56:37.263</time></trkpt><trkpt lat="55.7404737" lon="49.1330682"><time>2022-10-29T09:56:38.263</time></trkpt><trkpt lat="55.7405391" lon="49.1330596"><time>2022-10-29T09:56:39.263</time></trkpt><trkpt lat="55.7406039" lon="49.1330529"><time>2022-10-29T09:56:40.263</time></trkpt><trkpt lat="55.7406721" lon="49.1330464"><time>2022-10-29T09:56:41.250</time></trkpt><trkpt lat="55.7407370" lon="49.1330478"><time>2022-10-29T09:56:42.257</time></trkpt><trkpt lat="55.7408006" lon="49.1330577"><time>2022-10-29T09:56:43.253</time></trkpt><trkpt lat="55.7408612" lon="49.1330753"><time>2022-10-29T09:56:44.253</time></trkpt><trkpt lat="55.7409164" lon="49.1331037"><time>2022-10-29T09:56:45.257</time></trkpt><trkpt lat="55.7409715" lon="49.1331384"><time>2022-10-29T09:56:46.253</time></trkpt><trkpt lat="55.7410270" lon="49.1331769"><time>2022-10-29T09:56:47.250</time></trkpt><trkpt lat="55.7410861" lon="49.1332053"><time>2022-10-29T09:56:48.260</time></trkpt><trkpt lat="55.7411508" lon="49.1332180"><time>2022-10-29T09:56:49.270</time></trkpt><trkpt lat="55.7412217" lon="49.1332171"><time>2022-10-29T09:56:50.253</time></trkpt><trkpt lat="55.7412917" lon="49.1332100"><time>2022-10-29T09:56:51.250</time></trkpt><trkpt lat="55.7413606" lon="49.1332043"><time>2022-10-29T09:56:52.257</time></trkpt><trkpt lat="55.7414268" lon="49.1331994"><time>2022-10-29T09:56:53.253</time></trkpt><trkpt lat="55.7414938" lon="49.1331927"><time>2022-10-29T09:56:54.257</time></trkpt><trkpt lat="55.7415607" lon="49.1331820"><time>2022-10-29T09:56:55.267</time></trkpt><trkpt lat="55.7416249" lon="49.1331709"><time>2022-10-29T09:56:56.257</time></trkpt><trkpt lat="55.7416882" lon="49.1331604"><time>2022-10-29T09:56:57.260</time></trkpt><trkpt lat="55.7417539" lon="49.1331499"><time>2022-10-29T09:56:58.257</time></trkpt><trkpt lat="55.7418173" lon="49.1331428"><time>2022-10-29T09:56:59.253</time></trkpt><trkpt lat="55.7418817" lon="49.1331367"><time>2022-10-29T09:57:00.260</time></trkpt><trkpt lat="55.7419474" lon="49.1331354"><time>2022-10-29T09:57:01.253</time></trkpt><trkpt lat="55.7420112" lon="49.1331293"><time>2022-10-29T09:57:02.267</time></trkpt><trkpt lat="55.7420745" lon="49.1331193"><time>2022-10-29T09:57:03.270</time></trkpt><trkpt lat="55.7421379" lon="49.1331101"><time>2022-10-29T09:57:04.260</time></trkpt><trkpt lat="55.7422029" lon="49.1331027"><time>2022-10-29T09:57:05.260</time></trkpt><trkpt lat="55.7422696" lon="49.1330937"><time>2022-10-29T09:57:06.263</time></trkpt><trkpt lat="55.7423374" lon="49.1330851"><time>2022-10-29T09:57:07.257</time></trkpt><trkpt lat="55.7424077" lon="49.1330738"><time>2022-10-29T09:57:08.260</time></trkpt><trkpt lat="55.7424768" lon="49.1330619"><time>2022-10-29T09:57:09.253</time></trkpt><trkpt lat="55.7425442" lon="49.1330518"><time>2022-10-29T09:57:10.257</time></trkpt><trkpt lat="55.7426120" lon="49.1330444"><time>2022-10-29T09:57:11.250</time></trkpt><trkpt lat="55.7426729" lon="49.1330420"><time>2022-10-29T09:57:12.263</time></trkpt><trkpt lat="55.7427256" lon="49.1330509"><time>2022-10-29T09:57:13.260</time></trkpt><trkpt lat="55.7427733" lon="49.1330714"><time>2022-10-29T09:57:14.263</time></trkpt><trkpt lat="55.7428184" lon="49.1331034"><time>2022-10-29T09:57:15.273</time></trkpt><trkpt lat="55.7428602" lon="49.1331364"><time>2022-10-29T09:57:16.263</time></trkpt><trkpt lat="55.7429328" lon="49.1331585"><time>2022-10-29T09:57:18.260</time></trkpt><trkpt lat="55.7429810" lon="49.1331712"><time>2022-10-29T09:57:21.260</time></trkpt><trkpt lat="55.7430089" lon="49.1332634"><time>2022-10-29T09:57:26.260</time></trkpt><trkpt lat="55.7430374" lon="49.1333424"><time>2022-10-29T09:57:29.260</time></trkpt><trkpt lat="55.7430834" lon="49.1332690"><time>2022-10-29T09:57:31.253</time></trkpt><trkpt lat="55.7431147" lon="49.1332078"><time>2022-10-29T09:57:32.267</time></trkpt><trkpt lat="55.7431902" lon="49.1331342"><time>2022-10-29T09:57:34.260</time></trkpt><trkpt lat="55.7432828" lon="49.1330959"><time>2022-10-29T09:57:36.257</time></trkpt><trkpt lat="55.7433301" lon="49.1330855"><time>2022-10-29T09:57:37.263</time></trkpt><trkpt lat="55.7433780" lon="49.1330738"><time>2022-10-29T09:57:38.260</time></trkpt><trkpt lat="55.7434265" lon="49.1330596"><time>2022-10-29T09:57:39.257</time></trkpt><trkpt lat="55.7434798" lon="49.1330464"><time>2022-10-29T09:57:41.260</time></trkpt><trkpt lat="55.7435323" lon="49.1330260"><time>2022-10-29T09:57:43.253</time></trkpt><trkpt lat="55.7436652" lon="49.1329704"><time>2022-10-29T09:57:44.253</time></trkpt><trkpt lat="55.7437135" lon="49.1329512"><time>2022-10-29T09:57:45.260</time></trkpt><trkpt lat="55.7437674" lon="49.1329372"><time>2022-10-29T09:57:46.257</time></trkpt><trkpt lat="55.7438256" lon="49.1329283"><time>2022-10-29T09:57:47.277</time></trkpt><trkpt lat="55.7438834" lon="49.1329172"><time>2022-10-29T09:57:48.263</time></trkpt><trkpt lat="55.7439453" lon="49.1329043"><time>2022-10-29T09:57:49.260</time></trkpt><trkpt lat="55.7440071" lon="49.1328908"><time>2022-10-29T09:57:50.260</time></trkpt><trkpt lat="55.7440671" lon="49.1328779"><time>2022-10-29T09:57:51.253</time></trkpt><trkpt lat="55.7441295" lon="49.1328676"><time>2022-10-29T09:57:52.257</time></trkpt><trkpt lat="55.7441912" lon="49.1328609"><time>2022-10-29T09:57:53.260</time></trkpt><trkpt lat="55.7442544" lon="49.1328534"><time>2022-10-29T09:57:54.263</time></trkpt><trkpt lat="55.7443199" lon="49.1328413"><time>2022-10-29T09:57:55.260</time></trkpt><trkpt lat="55.7443876" lon="49.1328276"><time>2022-10-29T09:57:56.263</time></trkpt><trkpt lat="55.7444573" lon="49.1328157"><time>2022-10-29T09:57:57.263</time></trkpt><trkpt lat="55.7445262" lon="49.1328059"><time>2022-10-29T09:57:58.263</time></trkpt><trkpt lat="55.7445979" lon="49.1327952"><time>2022-10-29T09:57:59.283</time></trkpt><trkpt lat="55.7446686" lon="49.1327875"><time>2022-10-29T09:58:00.237</time></trkpt><trkpt lat="55.7447381" lon="49.1327783"><time>2022-10-29T09:58:01.263</time></trkpt><trkpt lat="55.7448064" lon="49.1327667"><time>2022-10-29T09:58:02.267</time></trkpt><trkpt lat="55.7448739" lon="49.1327544"><time>2022-10-29T09:58:03.267</time></trkpt><trkpt lat="55.7449409" lon="49.1327432"><time>2022-10-29T09:58:04.260</time></trkpt><trkpt lat="55.7450087" lon="49.1327324"><time>2022-10-29T09:58:05.240</time></trkpt><trkpt lat="55.7450775" lon="49.1327209"><time>2022-10-29T09:58:06.253</time></trkpt><trkpt lat="55.7451475" lon="49.1327104"><time>2022-10-29T09:58:07.230</time></trkpt><trkpt lat="55.7452166" lon="49.1327014"><time>2022-10-29T09:58:08.237</time></trkpt><trkpt lat="55.7452829" lon="49.1326926"><time>2022-10-29T09:58:09.267</time></trkpt><trkpt lat="55.7453494" lon="49.1326813"><time>2022-10-29T09:58:10.250</time></trkpt><trkpt lat="55.7454112" lon="49.1326711"><time>2022-10-29T09:58:11.240</time></trkpt><trkpt lat="55.7454735" lon="49.1326600"><time>2022-10-29T09:58:12.250</time></trkpt><trkpt lat="55.7455388" lon="49.1326484"><time>2022-10-29T09:58:13.267</time></trkpt><trkpt lat="55.7456067" lon="49.1326392"><time>2022-10-29T09:58:14.237</time></trkpt><trkpt lat="55.7456727" lon="49.1326317"><time>2022-10-29T09:58:15.260</time></trkpt><trkpt lat="55.7457382" lon="49.1326212"><time>2022-10-29T09:58:16.263</time></trkpt><trkpt lat="55.7458072" lon="49.1326093"><time>2022-10-29T09:58:17.260</time></trkpt><trkpt lat="55.7458763" lon="49.1325991"><time>2022-10-29T09:58:18.253</time></trkpt><trkpt lat="55.7459455" lon="49.1325888"><time>2022-10-29T09:58:19.253</time></trkpt><trkpt lat="55.7460133" lon="49.1325805"><time>2022-10-29T09:58:20.263</time></trkpt><trkpt lat="55.7460817" lon="49.1325726"><time>2022-10-29T09:58:21.257</time></trkpt><trkpt lat="55.7461508" lon="49.1325631"><time>2022-10-29T09:58:22.260</time></trkpt><trkpt lat="55.7462214" lon="49.1325487"><time>2022-10-29T09:58:23.260</time></trkpt><trkpt lat="55.7462908" lon="49.1325341"><time>2022-10-29T09:58:24.273</time></trkpt><trkpt lat="55.7463604" lon="49.1325171"><time>2022-10-29T09:58:25.250</time></trkpt><trkpt lat="55.7464290" lon="49.1325043"><time>2022-10-29T09:58:26.250</time></trkpt><trkpt lat="55.7464992" lon="49.1324972"><time>2022-10-29T09:58:27.260</time></trkpt><trkpt lat="55.7465716" lon="49.1324922"><time>2022-10-29T09:58:28.253</time></trkpt><trkpt lat="55.7466440" lon="49.1324847"><time>2022-10-29T09:58:29.250</time></trkpt><trkpt lat="55.7467106" lon="49.1324718"><time>2022-10-29T09:58:30.257</time></trkpt><trkpt lat="55.7467776" lon="49.1324607"><time>2022-10-29T09:58:31.260</time></trkpt><trkpt lat="55.7468451" lon="49.1324476"><time>2022-10-29T09:58:32.263</time></trkpt><trkpt lat="55.7469141" lon="49.1324349"><time>2022-10-29T09:58:33.250</time></trkpt><trkpt lat="55.7469832" lon="49.1324230"><time>2022-10-29T09:58:34.250</time></trkpt><trkpt lat="55.7470524" lon="49.1324118"><time>2022-10-29T09:58:35.250</time></trkpt><trkpt lat="55.7471216" lon="49.1324005"><time>2022-10-29T09:58:36.257</time></trkpt><trkpt lat="55.7471898" lon="49.1323925"><time>2022-10-29T09:58:37.250</time></trkpt><trkpt lat="55.7472589" lon="49.1323839"><time>2022-10-29T09:58:38.277</time></trkpt><trkpt lat="55.7473266" lon="49.1323748"><time>2022-10-29T09:58:39.260</time></trkpt><trkpt lat="55.7473957" lon="49.1323644"><time>2022-10-29T09:58:40.250</time></trkpt><trkpt lat="55.7474641" lon="49.1323651"><time>2022-10-29T09:58:41.253</time></trkpt><trkpt lat="55.7475272" lon="49.1323755"><time>2022-10-29T09:58:42.260</time></trkpt><trkpt lat="55.7475900" lon="49.1323855"><time>2022-10-29T09:58:43.257</time></trkpt><trkpt lat="55.7476522" lon="49.1323880"><time>2022-10-29T09:58:44.257</time></trkpt><trkpt lat="55.7477056" lon="49.1323897"><time>2022-10-29T09:58:45.253</time></trkpt><trkpt lat="55.7477807" lon="49.1324180"><time>2022-10-29T09:58:47.283</time></trkpt><trkpt lat="55.7478052" lon="49.1324978"><time>2022-10-29T09:58:49.260</time></trkpt><trkpt lat="55.7478740" lon="49.1325479"><time>2022-10-29T09:58:52.263</time></trkpt><trkpt lat="55.7479290" lon="49.1325348"><time>2022-10-29T09:58:54.260</time></trkpt><trkpt lat="55.7479885" lon="49.1325535"><time>2022-10-29T09:58:57.250</time></trkpt><trkpt lat="55.7480296" lon="49.1324945"><time>2022-10-29T09:59:01.260</time></trkpt><trkpt lat="55.7480553" lon="49.1323934"><time>2022-10-29T09:59:03.273</time></trkpt><trkpt lat="55.7481215" lon="49.1323185"><time>2022-10-29T09:59:05.300</time></trkpt><trkpt lat="55.7481600" lon="49.1323037"><time>2022-10-29T09:59:06.277</time></trkpt><trkpt lat="55.7482353" lon="49.1323177"><time>2022-10-29T09:59:08.267</time></trkpt><trkpt lat="55.7483066" lon="49.1323306"><time>2022-10-29T09:59:10.257</time></trkpt><trkpt lat="55.7483879" lon="49.1323200"><time>2022-10-29T09:59:12.257</time></trkpt><trkpt lat="55.7484616" lon="49.1322955"><time>2022-10-29T09:59:14.260</time></trkpt><trkpt lat="55.7485366" lon="49.1322490"><time>2022-10-29T09:59:16.260</time></trkpt><trkpt lat="55.7486122" lon="49.1322131"><time>2022-10-29T09:59:18.297</time></trkpt><trkpt lat="55.7486496" lon="49.1322115"><time>2022-10-29T09:59:19.280</time></trkpt><trkpt lat="55.7487278" lon="49.1322055"><time>2022-10-29T09:59:21.263</time></trkpt><trkpt lat="55.7488122" lon="49.1322201"><time>2022-10-29T09:59:23.260</time></trkpt><trkpt lat="55.7488572" lon="49.1322342"><time>2022-10-29T09:59:24.263</time></trkpt><trkpt lat="55.7489028" lon="49.1322453"><time>2022-10-29T09:59:25.280</time></trkpt><trkpt lat="55.7489028" lon="49.1322453"><time>2022-10-29T09:59:25.320</time></trkpt><trkpt lat="55.7489481" lon="49.1322499"><time>2022-10-29T09:59:26.280</time></trkpt><trkpt lat="55.7489959" lon="49.1322446"><time>2022-10-29T09:59:27.267</time></trkpt><trkpt lat="55.7490421" lon="49.1322385"><time>2022-10-29T09:59:28.267</time></trkpt><trkpt lat="55.7491098" lon="49.1322344"><time>2022-10-29T09:59:30.263</time></trkpt><trkpt lat="55.7491815" lon="49.1322519"><time>2022-10-29T09:59:47.263</time></trkpt><trkpt lat="55.7492578" lon="49.1322332"><time>2022-10-29T09:59:49.267</time></trkpt><trkpt lat="55.7493463" lon="49.1322097"><time>2022-10-29T09:59:51.247</time></trkpt><trkpt lat="55.7493943" lon="49.1321982"><time>2022-10-29T09:59:52.263</time></trkpt><trkpt lat="55.7494482" lon="49.1321874"><time>2022-10-29T09:59:53.260</time></trkpt><trkpt lat="55.7495023" lon="49.1321724"><time>2022-10-29T09:59:54.267</time></trkpt><trkpt lat="55.7495531" lon="49.1321492"><time>2022-10-29T09:59:55.227</time></trkpt><trkpt lat="55.7496027" lon="49.1321231"><time>2022-10-29T09:59:56.230</time></trkpt><trkpt lat="55.7496549" lon="49.1320972"><time>2022-10-29T09:59:57.253</time></trkpt><trkpt lat="55.7497056" lon="49.1320803"><time>2022-10-29T09:59:58.267</time></trkpt><trkpt lat="55.7497565" lon="49.1320637"><time>2022-10-29T09:59:59.257</time></trkpt><trkpt lat="55.7498081" lon="49.1320486"><time>2022-10-29T10:00:00.257</time></trkpt><trkpt lat="55.7498633" lon="49.1320342"><time>2022-10-29T10:00:01.250</time></trkpt><trkpt lat="55.7499197" lon="49.1320193"><time>2022-10-29T10:00:02.257</time></trkpt><trkpt lat="55.7499757" lon="49.1320059"><time>2022-10-29T10:00:03.267</time></trkpt><trkpt lat="55.7500337" lon="49.1319961"><time>2022-10-29T10:00:04.260</time></trkpt><trkpt lat="55.7500945" lon="49.1319846"><time>2022-10-29T10:00:05.263</time></trkpt><trkpt lat="55.7501566" lon="49.1319739"><time>2022-10-29T10:00:06.263</time></trkpt><trkpt lat="55.7502203" lon="49.1319634"><time>2022-10-29T10:00:07.233</time></trkpt><trkpt lat="55.7502837" lon="49.1319507"><time>2022-10-29T10:00:08.267</time></trkpt><trkpt lat="55.7503473" lon="49.1319358"><time>2022-10-29T10:00:09.253</time></trkpt><trkpt lat="55.7504094" lon="49.1319228"><time>2022-10-29T10:00:10.250</time></trkpt><trkpt lat="55.7504712" lon="49.1319076"><time>2022-10-29T10:00:11.257</time></trkpt><trkpt lat="55.7505395" lon="49.1318931"><time>2022-10-29T10:00:12.263</time></trkpt><trkpt lat="55.7506097" lon="49.1318763"><time>2022-10-29T10:00:13.243</time></trkpt><trkpt lat="55.7506752" lon="49.1318568"><time>2022-10-29T10:00:14.263</time></trkpt><trkpt lat="55.7507411" lon="49.1318423"><time>2022-10-29T10:00:15.257</time></trkpt><trkpt lat="55.7508076" lon="49.1318281"><time>2022-10-29T10:00:16.263</time></trkpt><trkpt lat="55.7508753" lon="49.1318141"><time>2022-10-29T10:00:17.260</time></trkpt><trkpt lat="55.7509465" lon="49.1318037"><time>2022-10-29T10:00:18.237</time></trkpt><trkpt lat="55.7510177" lon="49.1317955"><time>2022-10-29T10:00:19.263</time></trkpt><trkpt lat="55.7510892" lon="49.1317876"><time>2022-10-29T10:00:20.260</time></trkpt><trkpt lat="55.7511577" lon="49.1317775"><time>2022-10-29T10:00:21.240</time></trkpt><trkpt lat="55.7512276" lon="49.1317689"><time>2022-10-29T10:00:22.267</time></trkpt><trkpt lat="55.7512991" lon="49.1317632"><time>2022-10-29T10:00:23.260</time></trkpt><trkpt lat="55.7513731" lon="49.1317560"><time>2022-10-29T10:00:24.267</time></trkpt><trkpt lat="55.7514481" lon="49.1317468"><time>2022-10-29T10:00:25.263</time></trkpt><trkpt lat="55.7515202" lon="49.1317387"><time>2022-10-29T10:00:26.243</time></trkpt><trkpt lat="55.7515940" lon="49.1317315"><time>2022-10-29T10:00:27.263</time></trkpt><trkpt lat="55.7516689" lon="49.1317262"><time>2022-10-29T10:00:28.267</time></trkpt><trkpt lat="55.7517458" lon="49.1317226"><time>2022-10-29T10:00:29.260</time></trkpt><trkpt lat="55.7518231" lon="49.1317169"><time>2022-10-29T10:00:30.267</time></trkpt><trkpt lat="55.7519016" lon="49.1317067"><time>2022-10-29T10:00:31.270</time></trkpt><trkpt lat="55.7519807" lon="49.1316916"><time>2022-10-29T10:00:32.267</time></trkpt><trkpt lat="55.7520621" lon="49.1316720"><time>2022-10-29T10:00:33.243</time></trkpt><trkpt lat="55.7521436" lon="49.1316544"><time>2022-10-29T10:00:34.243</time></trkpt><trkpt lat="55.7522264" lon="49.1316373"><time>2022-10-29T10:00:35.233</time></trkpt><trkpt lat="55.7523082" lon="49.1316211"><time>2022-10-29T10:00:36.257</time></trkpt><trkpt lat="55.7523913" lon="49.1316046"><time>2022-10-29T10:00:37.260</time></trkpt><trkpt lat="55.7524761" lon="49.1315897"><time>2022-10-29T10:00:38.250</time></trkpt><trkpt lat="55.7525592" lon="49.1315739"><time>2022-10-29T10:00:39.257</time></trkpt><trkpt lat="55.7526404" lon="49.1315579"><time>2022-10-29T10:00:40.263</time></trkpt><trkpt lat="55.7527206" lon="49.1315446"><time>2022-10-29T10:00:41.260</time></trkpt><trkpt lat="55.7527992" lon="49.1315314"><time>2022-10-29T10:00:42.267</time></trkpt><trkpt lat="55.7528751" lon="49.1315139"><time>2022-10-29T10:00:43.263</time></trkpt><trkpt lat="55.7529502" lon="49.1314969"><time>2022-10-29T10:00:44.263</time></trkpt><trkpt lat="55.7530237" lon="49.1314795"><time>2022-10-29T10:00:45.267</time></trkpt><trkpt lat="55.7530979" lon="49.1314645"><time>2022-10-29T10:00:46.263</time></trkpt><trkpt lat="55.7531721" lon="49.1314542"><time>2022-10-29T10:00:47.240</time></trkpt><trkpt lat="55.7532454" lon="49.1314465"><time>2022-10-29T10:00:48.260</time></trkpt><trkpt lat="55.7533209" lon="49.1314392"><time>2022-10-29T10:00:49.263</time></trkpt><trkpt lat="55.7533958" lon="49.1314293"><time>2022-10-29T10:00:50.257</time></trkpt><trkpt lat="55.7534716" lon="49.1314140"><time>2022-10-29T10:00:51.260</time></trkpt><trkpt lat="55.7535474" lon="49.1313960"><time>2022-10-29T10:00:52.263</time></trkpt><trkpt lat="55.7536225" lon="49.1313747"><time>2022-10-29T10:00:53.257</time></trkpt><trkpt lat="55.7536980" lon="49.1313505"><time>2022-10-29T10:00:54.263</time></trkpt><trkpt lat="55.7537741" lon="49.1313235"><time>2022-10-29T10:00:55.260</time></trkpt><trkpt lat="55.7538510" lon="49.1312957"><time>2022-10-29T10:00:56.273</time></trkpt><trkpt lat="55.7539302" lon="49.1312654"><time>2022-10-29T10:00:57.260</time></trkpt><trkpt lat="55.7540100" lon="49.1312327"><time>2022-10-29T10:00:58.267</time></trkpt><trkpt lat="55.7540891" lon="49.1312002"><time>2022-10-29T10:00:59.253</time></trkpt><trkpt lat="55.7541681" lon="49.1311697"><time>2022-10-29T10:01:00.257</time></trkpt><trkpt lat="55.7542463" lon="49.1311424"><time>2022-10-29T10:01:01.263</time></trkpt><trkpt lat="55.7543233" lon="49.1311127"><time>2022-10-29T10:01:02.270</time></trkpt><trkpt lat="55.7544002" lon="49.1310845"><time>2022-10-29T10:01:03.250</time></trkpt><trkpt lat="55.7544783" lon="49.1310561"><time>2022-10-29T10:01:04.257</time></trkpt><trkpt lat="55.7545550" lon="49.1310262"><time>2022-10-29T10:01:05.267</time></trkpt><trkpt lat="55.7546308" lon="49.1309966"><time>2022-10-29T10:01:06.263</time></trkpt><trkpt lat="55.7547055" lon="49.1309657"><time>2022-10-29T10:01:07.267</time></trkpt><trkpt lat="55.7547810" lon="49.1309345"><time>2022-10-29T10:01:08.270</time></trkpt><trkpt lat="55.7548560" lon="49.1309039"><time>2022-10-29T10:01:09.263</time></trkpt><trkpt lat="55.7549306" lon="49.1308749"><time>2022-10-29T10:01:10.270</time></trkpt><trkpt lat="55.7550052" lon="49.1308459"><time>2022-10-29T10:01:11.267</time></trkpt><trkpt lat="55.7550785" lon="49.1308145"><time>2022-10-29T10:01:12.267</time></trkpt><trkpt lat="55.7551499" lon="49.1307834"><time>2022-10-29T10:01:13.260</time></trkpt><trkpt lat="55.7552193" lon="49.1307554"><time>2022-10-29T10:01:14.257</time></trkpt><trkpt lat="55.7552870" lon="49.1307317"><time>2022-10-29T10:01:15.260</time></trkpt><trkpt lat="55.7553545" lon="49.1307075"><time>2022-10-29T10:01:16.267</time></trkpt><trkpt lat="55.7554209" lon="49.1306833"><time>2022-10-29T10:01:17.273</time></trkpt><trkpt lat="55.7554852" lon="49.1306577"><time>2022-10-29T10:01:18.263</time></trkpt><trkpt lat="55.7555498" lon="49.1306356"><time>2022-10-29T10:01:19.260</time></trkpt><trkpt lat="55.7556141" lon="49.1306143"><time>2022-10-29T10:01:20.263</time></trkpt><trkpt lat="55.7556773" lon="49.1305932"><time>2022-10-29T10:01:21.263</time></trkpt><trkpt lat="55.7557394" lon="49.1305735"><time>2022-10-29T10:01:22.260</time></trkpt><trkpt lat="55.7557909" lon="49.1305693"><time>2022-10-29T10:01:23.267</time></trkpt><trkpt lat="55.7558333" lon="49.1306140"><time>2022-10-29T10:01:25.267</time></trkpt><trkpt lat="55.7558724" lon="49.1306829"><time>2022-10-29T10:01:38.253</time></trkpt><trkpt lat="55.7559281" lon="49.1307494"><time>2022-10-29T10:01:40.247</time></trkpt><trkpt lat="55.7559793" lon="49.1308247"><time>2022-10-29T10:01:42.257</time></trkpt><trkpt lat="55.7560170" lon="49.1309487"><time>2022-10-29T10:01:44.237</time></trkpt><trkpt lat="55.7560455" lon="49.1310667"><time>2022-10-29T10:01:46.237</time></trkpt><trkpt lat="55.7560728" lon="49.1311885"><time>2022-10-29T10:01:48.263</time></trkpt><trkpt lat="55.7561081" lon="49.1313342"><time>2022-10-29T10:01:50.263</time></trkpt><trkpt lat="55.7561255" lon="49.1314156"><time>2022-10-29T10:01:51.263</time></trkpt><trkpt lat="55.7561444" lon="49.1314935"><time>2022-10-29T10:01:52.250</time></trkpt><trkpt lat="55.7561627" lon="49.1316379"><time>2022-10-29T10:01:54.263</time></trkpt><trkpt lat="55.7561554" lon="49.1317815"><time>2022-10-29T10:01:56.267</time></trkpt><trkpt lat="55.7561433" lon="49.1318595"><time>2022-10-29T10:01:57.263</time></trkpt><trkpt lat="55.7561286" lon="49.1319364"><time>2022-10-29T10:01:58.267</time></trkpt><trkpt lat="55.7561110" lon="49.1320098"><time>2022-10-29T10:01:59.267</time></trkpt><trkpt lat="55.7560908" lon="49.1320813"><time>2022-10-29T10:02:00.263</time></trkpt><trkpt lat="55.7560698" lon="49.1321521"><time>2022-10-29T10:02:01.283</time></trkpt><trkpt lat="55.7560476" lon="49.1322274"><time>2022-10-29T10:02:02.267</time></trkpt><trkpt lat="55.7560240" lon="49.1323055"><time>2022-10-29T10:02:03.270</time></trkpt><trkpt lat="55.7559979" lon="49.1323782"><time>2022-10-29T10:02:04.267</time></trkpt><trkpt lat="55.7559692" lon="49.1324473"><time>2022-10-29T10:02:05.267</time></trkpt><trkpt lat="55.7559308" lon="49.1325103"><time>2022-10-29T10:02:06.267</time></trkpt><trkpt lat="55.7558903" lon="49.1325666"><time>2022-10-29T10:02:07.287</time></trkpt><trkpt lat="55.7558477" lon="49.1326235"><time>2022-10-29T10:02:08.263</time></trkpt><trkpt lat="55.7558039" lon="49.1326850"><time>2022-10-29T10:02:09.263</time></trkpt><trkpt lat="55.7557652" lon="49.1327509"><time>2022-10-29T10:02:10.263</time></trkpt><trkpt lat="55.7557275" lon="49.1328222"><time>2022-10-29T10:02:11.267</time></trkpt><trkpt lat="55.7556928" lon="49.1328939"><time>2022-10-29T10:02:12.267</time></trkpt><trkpt lat="55.7556616" lon="49.1329628"><time>2022-10-29T10:02:13.267</time></trkpt><trkpt lat="55.7556338" lon="49.1330336"><time>2022-10-29T10:02:14.297</time></trkpt><trkpt lat="55.7556057" lon="49.1331122"><time>2022-10-29T10:02:15.277</time></trkpt><trkpt lat="55.7555764" lon="49.1331909"><time>2022-10-29T10:02:16.267</time></trkpt><trkpt lat="55.7555473" lon="49.1332643"><time>2022-10-29T10:02:17.273</time></trkpt><trkpt lat="55.7555200" lon="49.1333378"><time>2022-10-29T10:02:18.260</time></trkpt><trkpt lat="55.7554953" lon="49.1334134"><time>2022-10-29T10:02:19.267</time></trkpt><trkpt lat="55.7554735" lon="49.1334909"><time>2022-10-29T10:02:20.263</time></trkpt><trkpt lat="55.7554527" lon="49.1335666"><time>2022-10-29T10:02:21.267</time></trkpt><trkpt lat="55.7554324" lon="49.1336410"><time>2022-10-29T10:02:22.267</time></trkpt><trkpt lat="55.7554111" lon="49.1337159"><time>2022-10-29T10:02:23.263</time></trkpt><trkpt lat="55.7553898" lon="49.1337909"><time>2022-10-29T10:02:24.267</time></trkpt><trkpt lat="55.7553721" lon="49.1338671"><time>2022-10-29T10:02:25.260</time></trkpt><trkpt lat="55.7553567" lon="49.1339498"><time>2022-10-29T10:02:26.267</time></trkpt><trkpt lat="55.7553403" lon="49.1340321"><time>2022-10-29T10:02:27.260</time></trkpt><trkpt lat="55.7553220" lon="49.1341137"><time>2022-10-29T10:02:28.263</time></trkpt><trkpt lat="55.7553053" lon="49.1341942"><time>2022-10-29T10:02:29.260</time></trkpt><trkpt lat="55.7552926" lon="49.1342780"><time>2022-10-29T10:02:30.283</time></trkpt><trkpt lat="55.7552827" lon="49.1343625"><time>2022-10-29T10:02:31.270</time></trkpt><trkpt lat="55.7552754" lon="49.1344449"><time>2022-10-29T10:02:32.303</time></trkpt><trkpt lat="55.7552684" lon="49.1345264"><time>2022-10-29T10:02:33.257</time></trkpt><trkpt lat="55.7552596" lon="49.1346056"><time>2022-10-29T10:02:34.263</time></trkpt><trkpt lat="55.7552506" lon="49.1347534"><time>2022-10-29T10:02:36.263</time></trkpt><trkpt lat="55.7552440" lon="49.1348881"><time>2022-10-29T10:02:38.267</time></trkpt><trkpt lat="55.7552277" lon="49.1350259"><time>2022-10-29T10:02:40.263</time></trkpt><trkpt lat="55.7552130" lon="49.1351682"><time>2022-10-29T10:02:42.287</time></trkpt><trkpt lat="55.7551969" lon="49.1353224"><time>2022-10-29T10:02:44.293</time></trkpt><trkpt lat="55.7551889" lon="49.1353987"><time>2022-10-29T10:02:45.273</time></trkpt><trkpt lat="55.7551692" lon="49.1355392"><time>2022-10-29T10:02:47.267</time></trkpt><trkpt lat="55.7551400" lon="49.1356657"><time>2022-10-29T10:02:49.267</time></trkpt><trkpt lat="55.7550880" lon="49.1357955"><time>2022-10-29T10:02:51.260</time></trkpt><trkpt lat="55.7550327" lon="49.1358947"><time>2022-10-29T10:02:53.307</time></trkpt><trkpt lat="55.7550327" lon="49.1358947"><time>2022-10-29T10:02:53.330</time></trkpt><trkpt lat="55.7549745" lon="49.1359760"><time>2022-10-29T10:02:55.293</time></trkpt><trkpt lat="55.7549469" lon="49.1360042"><time>2022-10-29T10:02:56.277</time></trkpt><trkpt lat="55.7549024" lon="49.1360367"><time>2022-10-29T10:03:41.270</time></trkpt><trkpt lat="55.7548626" lon="49.1360758"><time>2022-10-29T10:03:43.240</time></trkpt><trkpt lat="55.7548101" lon="49.1361077"><time>2022-10-29T10:03:45.277</time></trkpt><trkpt lat="55.7547538" lon="49.1361299"><time>2022-10-29T10:03:47.283</time></trkpt><trkpt lat="55.7546915" lon="49.1361659"><time>2022-10-29T10:03:53.277</time></trkpt><trkpt lat="55.7546308" lon="49.1362055"><time>2022-10-29T10:03:55.280</time></trkpt><trkpt lat="55.7545546" lon="49.1362438"><time>2022-10-29T10:03:57.277</time></trkpt><trkpt lat="55.7544810" lon="49.1362963"><time>2022-10-29T10:03:59.280</time></trkpt><trkpt lat="55.7544023" lon="49.1363609"><time>2022-10-29T10:04:01.280</time></trkpt><trkpt lat="55.7543196" lon="49.1364129"><time>2022-10-29T10:04:03.283</time></trkpt><trkpt lat="55.7542388" lon="49.1364856"><time>2022-10-29T10:04:05.277</time></trkpt><trkpt lat="55.7542006" lon="49.1365280"><time>2022-10-29T10:04:06.280</time></trkpt><trkpt lat="55.7541635" lon="49.1365743"><time>2022-10-29T10:04:07.267</time></trkpt><trkpt lat="55.7540875" lon="49.1366580"><time>2022-10-29T10:04:09.250</time></trkpt><trkpt lat="55.7540423" lon="49.1366868"><time>2022-10-29T10:04:10.267</time></trkpt><trkpt lat="55.7539967" lon="49.1367118"><time>2022-10-29T10:04:11.263</time></trkpt><trkpt lat="55.7539529" lon="49.1367346"><time>2022-10-29T10:04:12.267</time></trkpt><trkpt lat="55.7539089" lon="49.1367521"><time>2022-10-29T10:04:13.260</time></trkpt><trkpt lat="55.7538283" lon="49.1367809"><time>2022-10-29T10:04:15.267</time></trkpt><trkpt lat="55.7537801" lon="49.1368216"><time>2022-10-29T10:04:47.270</time></trkpt><trkpt lat="55.7537111" lon="49.1368339"><time>2022-10-29T10:04:50.260</time></trkpt><trkpt lat="55.7536463" lon="49.1368387"><time>2022-10-29T10:04:52.270</time></trkpt><trkpt lat="55.7535755" lon="49.1368460"><time>2022-10-29T10:04:54.277</time></trkpt><trkpt lat="55.7534915" lon="49.1368336"><time>2022-10-29T10:04:56.263</time></trkpt><trkpt lat="55.7534083" lon="49.1368410"><time>2022-10-29T10:04:58.237</time></trkpt><trkpt lat="55.7533466" lon="49.1368720"><time>2022-10-29T10:05:00.263</time></trkpt><trkpt lat="55.7532945" lon="49.1369075"><time>2022-10-29T10:05:19.250</time></trkpt><trkpt lat="55.7532489" lon="49.1369430"><time>2022-10-29T10:05:21.260</time></trkpt><trkpt lat="55.7531951" lon="49.1369908"><time>2022-10-29T10:05:23.267</time></trkpt><trkpt lat="55.7531305" lon="49.1370603"><time>2022-10-29T10:05:25.270</time></trkpt><trkpt lat="55.7530571" lon="49.1371447"><time>2022-10-29T10:05:27.267</time></trkpt><trkpt lat="55.7529852" lon="49.1372374"><time>2022-10-29T10:05:29.263</time></trkpt><trkpt lat="55.7529491" lon="49.1372858"><time>2022-10-29T10:05:30.277</time></trkpt><trkpt lat="55.7528828" lon="49.1373683"><time>2022-10-29T10:05:32.260</time></trkpt><trkpt lat="55.7528260" lon="49.1374486"><time>2022-10-29T10:05:34.257</time></trkpt><trkpt lat="55.7527667" lon="49.1375254"><time>2022-10-29T10:05:36.260</time></trkpt><trkpt lat="55.7527138" lon="49.1376033"><time>2022-10-29T10:05:38.263</time></trkpt><trkpt lat="55.7526714" lon="49.1376837"><time>2022-10-29T10:05:40.250</time></trkpt><trkpt lat="55.7526287" lon="49.1377653"><time>2022-10-29T10:05:42.283</time></trkpt><trkpt lat="55.7525779" lon="49.1378507"><time>2022-10-29T10:05:44.270</time></trkpt><trkpt lat="55.7525315" lon="49.1379269"><time>2022-10-29T10:05:46.267</time></trkpt><trkpt lat="55.7524919" lon="49.1379787"><time>2022-10-29T10:05:48.273</time></trkpt><trkpt lat="55.7524777" lon="49.1380557"><time>2022-10-29T10:05:51.257</time></trkpt><trkpt lat="55.7524384" lon="49.1381322"><time>2022-10-29T10:05:54.260</time></trkpt><trkpt lat="55.7524047" lon="49.1381908"><time>2022-10-29T10:06:00.277</time></trkpt><trkpt lat="55.7523674" lon="49.1382451"><time>2022-10-29T10:06:06.270</time></trkpt><trkpt lat="55.7523240" lon="49.1382977"><time>2022-10-29T10:06:10.260</time></trkpt><trkpt lat="55.7522887" lon="49.1383629"><time>2022-10-29T10:06:14.270</time></trkpt><trkpt lat="55.7522544" lon="49.1384162"><time>2022-10-29T10:06:16.263</time></trkpt><trkpt lat="55.7522152" lon="49.1384818"><time>2022-10-29T10:06:18.270</time></trkpt><trkpt lat="55.7521781" lon="49.1385511"><time>2022-10-29T10:06:20.273</time></trkpt><trkpt lat="55.7521426" lon="49.1386229"><time>2022-10-29T10:06:22.260</time></trkpt><trkpt lat="55.7520908" lon="49.1387280"><time>2022-10-29T10:06:24.257</time></trkpt><trkpt lat="55.7520447" lon="49.1388148"><time>2022-10-29T10:06:26.257</time></trkpt><trkpt lat="55.7519942" lon="49.1389054"><time>2022-10-29T10:06:28.257</time></trkpt><trkpt lat="55.7519484" lon="49.1389667"><time>2022-10-29T10:06:29.273</time></trkpt><trkpt lat="55.7518987" lon="49.1390041"><time>2022-10-29T10:06:30.250</time></trkpt><trkpt lat="55.7518584" lon="49.1391169"><time>2022-10-29T10:06:33.257</time></trkpt><trkpt lat="55.7518048" lon="49.1392037"><time>2022-10-29T10:06:35.260</time></trkpt><trkpt lat="55.7517508" lon="49.1392931"><time>2022-10-29T10:06:37.267</time></trkpt><trkpt lat="55.7516972" lon="49.1393825"><time>2022-10-29T10:06:39.260</time></trkpt><trkpt lat="55.7516481" lon="49.1394676"><time>2022-10-29T10:06:41.247</time></trkpt><trkpt lat="55.7516076" lon="49.1395509"><time>2022-10-29T10:06:43.267</time></trkpt><trkpt lat="55.7515574" lon="49.1396414"><time>2022-10-29T10:06:45.267</time></trkpt><trkpt lat="55.7515079" lon="49.1397269"><time>2022-10-29T10:06:47.240</time></trkpt><trkpt lat="55.7514623" lon="49.1398177"><time>2022-10-29T10:06:49.263</time></trkpt><trkpt lat="55.7514191" lon="49.1398942"><time>2022-10-29T10:06:51.257</time></trkpt><trkpt lat="55.7513756" lon="49.1399479"><time>2022-10-29T10:06:53.257</time></trkpt><trkpt lat="55.7513369" lon="49.1400000"><time>2022-10-29T10:06:55.243</time></trkpt><trkpt lat="55.7512978" lon="49.1400657"><time>2022-10-29T10:06:57.277</time></trkpt><trkpt lat="55.7512577" lon="49.1401295"><time>2022-10-29T10:06:59.260</time></trkpt><trkpt lat="55.7512170" lon="49.1401919"><time>2022-10-29T10:07:01.263</time></trkpt><trkpt lat="55.7511633" lon="49.1402579"><time>2022-10-29T10:07:02.273</time></trkpt><trkpt lat="55.7510995" lon="49.1402950"><time>2022-10-29T10:07:04.257</time></trkpt><trkpt lat="55.7510419" lon="49.1403232"><time>2022-10-29T10:07:06.260</time></trkpt><trkpt lat="55.7510018" lon="49.1403649"><time>2022-10-29T10:07:08.270</time></trkpt><trkpt lat="55.7509565" lon="49.1404116"><time>2022-10-29T10:07:10.243</time></trkpt><trkpt lat="55.7509072" lon="49.1404655"><time>2022-10-29T10:07:12.257</time></trkpt><trkpt lat="55.7508544" lon="49.1405342"><time>2022-10-29T10:07:14.253</time></trkpt><trkpt lat="55.7507951" lon="49.1406259"><time>2022-10-29T10:07:16.263</time></trkpt><trkpt lat="55.7507536" lon="49.1407070"><time>2022-10-29T10:07:18.263</time></trkpt><trkpt lat="55.7507110" lon="49.1407647"><time>2022-10-29T10:07:29.273</time></trkpt><trkpt lat="55.7506798" lon="49.1408263"><time>2022-10-29T10:07:31.253</time></trkpt><trkpt lat="55.7506396" lon="49.1409054"><time>2022-10-29T10:07:33.273</time></trkpt><trkpt lat="55.7505894" lon="49.1410000"><time>2022-10-29T10:07:35.263</time></trkpt><trkpt lat="55.7505427" lon="49.1410855"><time>2022-10-29T10:07:37.267</time></trkpt><trkpt lat="55.7504978" lon="49.1411722"><time>2022-10-29T10:07:39.263</time></trkpt><trkpt lat="55.7504607" lon="49.1412417"><time>2022-10-29T10:07:41.253</time></trkpt><trkpt lat="55.7504194" lon="49.1413028"><time>2022-10-29T10:07:43.267</time></trkpt><trkpt lat="55.7503756" lon="49.1413724"><time>2022-10-29T10:07:44.270</time></trkpt><trkpt lat="55.7503386" lon="49.1414463"><time>2022-10-29T10:07:46.263</time></trkpt><trkpt lat="55.7502897" lon="49.1414779"><time>2022-10-29T10:07:49.263</time></trkpt><trkpt lat="55.7502402" lon="49.1415287"><time>2022-10-29T10:07:51.253</time></trkpt><trkpt lat="55.7502002" lon="49.1416251"><time>2022-10-29T10:07:53.263</time></trkpt><trkpt lat="55.7501694" lon="49.1417233"><time>2022-10-29T10:07:55.263</time></trkpt><trkpt lat="55.7501346" lon="49.1417875"><time>2022-10-29T10:07:57.253</time></trkpt><trkpt lat="55.7500995" lon="49.1418559"><time>2022-10-29T10:07:59.273</time></trkpt><trkpt lat="55.7500647" lon="49.1419633"><time>2022-10-29T10:08:01.257</time></trkpt><trkpt lat="55.7500291" lon="49.1420801"><time>2022-10-29T10:08:03.253</time></trkpt><trkpt lat="55.7499972" lon="49.1421715"><time>2022-10-29T10:08:05.260</time></trkpt><trkpt lat="55.7499669" lon="49.1422498"><time>2022-10-29T10:08:07.267</time></trkpt><trkpt lat="55.7499463" lon="49.1423525"><time>2022-10-29T10:08:09.270</time></trkpt><trkpt lat="55.7499252" lon="49.1424398"><time>2022-10-29T10:08:11.267</time></trkpt><trkpt lat="55.7498844" lon="49.1425622"><time>2022-10-29T10:08:12.270</time></trkpt><trkpt lat="55.7498333" lon="49.1426731"><time>2022-10-29T10:08:14.277</time></trkpt><trkpt lat="55.7497815" lon="49.1427545"><time>2022-10-29T10:08:16.257</time></trkpt><trkpt lat="55.7497301" lon="49.1428153"><time>2022-10-29T10:08:18.273</time></trkpt><trkpt lat="55.7496806" lon="49.1428807"><time>2022-10-29T10:08:20.263</time></trkpt><trkpt lat="55.7496289" lon="49.1429700"><time>2022-10-29T10:08:22.273</time></trkpt><trkpt lat="55.7495864" lon="49.1430746"><time>2022-10-29T10:08:24.243</time></trkpt><trkpt lat="55.7495500" lon="49.1431758"><time>2022-10-29T10:08:26.250</time></trkpt><trkpt lat="55.7495131" lon="49.1432623"><time>2022-10-29T10:08:28.257</time></trkpt><trkpt lat="55.7494731" lon="49.1433530"><time>2022-10-29T10:08:30.267</time></trkpt><trkpt lat="55.7494354" lon="49.1434529"><time>2022-10-29T10:08:32.260</time></trkpt><trkpt lat="55.7493899" lon="49.1435549"><time>2022-10-29T10:08:34.257</time></trkpt><trkpt lat="55.7493395" lon="49.1436471"><time>2022-10-29T10:08:36.273</time></trkpt><trkpt lat="55.7492901" lon="49.1437444"><time>2022-10-29T10:08:38.257</time></trkpt><trkpt lat="55.7492406" lon="49.1438538"><time>2022-10-29T10:08:40.263</time></trkpt><trkpt lat="55.7491968" lon="49.1439819"><time>2022-10-29T10:08:42.270</time></trkpt><trkpt lat="55.7491484" lon="49.1441081"><time>2022-10-29T10:08:44.263</time></trkpt><trkpt lat="55.7490943" lon="49.1442158"><time>2022-10-29T10:08:46.253</time></trkpt><trkpt lat="55.7490384" lon="49.1443309"><time>2022-10-29T10:08:48.273</time></trkpt><trkpt lat="55.7489671" lon="49.1444321"><time>2022-10-29T10:08:50.257</time></trkpt><trkpt lat="55.7489249" lon="49.1444774"><time>2022-10-29T10:08:51.250</time></trkpt><trkpt lat="55.7488828" lon="49.1445219"><time>2022-10-29T10:08:52.267</time></trkpt><trkpt lat="55.7488388" lon="49.1445621"><time>2022-10-29T10:08:53.273</time></trkpt><trkpt lat="55.7487928" lon="49.1445956"><time>2022-10-29T10:08:54.273</time></trkpt><trkpt lat="55.7487458" lon="49.1446239"><time>2022-10-29T10:08:55.303</time></trkpt><trkpt lat="55.7486975" lon="49.1446468"><time>2022-10-29T10:08:56.257</time></trkpt><trkpt lat="55.7486504" lon="49.1446741"><time>2022-10-29T10:08:57.267</time></trkpt><trkpt lat="55.7486052" lon="49.1447065"><time>2022-10-29T10:08:58.257</time></trkpt><trkpt lat="55.7485567" lon="49.1447296"><time>2022-10-29T10:08:59.273</time></trkpt><trkpt lat="55.7485037" lon="49.1447381"><time>2022-10-29T10:09:00.260</time></trkpt><trkpt lat="55.7484508" lon="49.1447403"><time>2022-10-29T10:09:01.240</time></trkpt><trkpt lat="55.7483978" lon="49.1447435"><time>2022-10-29T10:09:02.247</time></trkpt><trkpt lat="55.7483444" lon="49.1447463"><time>2022-10-29T10:09:03.260</time></trkpt><trkpt lat="55.7482930" lon="49.1447439"><time>2022-10-29T10:09:04.277</time></trkpt><trkpt lat="55.7482435" lon="49.1447347"><time>2022-10-29T10:09:05.267</time></trkpt><trkpt lat="55.7481640" lon="49.1446973"><time>2022-10-29T10:09:07.273</time></trkpt><trkpt lat="55.7480903" lon="49.1446578"><time>2022-10-29T10:09:09.253</time></trkpt><trkpt lat="55.7480359" lon="49.1445879"><time>2022-10-29T10:09:11.267</time></trkpt><trkpt lat="55.7480058" lon="49.1444962"><time>2022-10-29T10:09:13.263</time></trkpt><trkpt lat="55.7479707" lon="49.1444024"><time>2022-10-29T10:09:15.263</time></trkpt><trkpt lat="55.7479585" lon="49.1443153"><time>2022-10-29T10:09:19.270</time></trkpt><trkpt lat="55.7479459" lon="49.1442266"><time>2022-10-29T10:09:23.270</time></trkpt><trkpt lat="55.7478738" lon="49.1442130"><time>2022-10-29T10:09:25.270</time></trkpt><trkpt lat="55.7478039" lon="49.1442125"><time>2022-10-29T10:09:27.343</time></trkpt><trkpt lat="55.7477649" lon="49.1441994"><time>2022-10-29T10:09:28.263</time></trkpt><trkpt lat="55.7477085" lon="49.1441384"><time>2022-10-29T10:09:30.260</time></trkpt><trkpt lat="55.7476595" lon="49.1440987"><time>2022-10-29T10:09:32.263</time></trkpt><trkpt lat="55.7475308" lon="49.1440249"><time>2022-10-29T10:09:34.270</time></trkpt><trkpt lat="55.7474527" lon="49.1440074"><time>2022-10-29T10:09:36.260</time></trkpt><trkpt lat="55.7473828" lon="49.1439284"><time>2022-10-29T10:09:38.290</time></trkpt><trkpt lat="55.7473693" lon="49.1438613"><time>2022-10-29T10:09:39.273</time></trkpt><trkpt lat="55.7473456" lon="49.1437238"><time>2022-10-29T10:09:41.260</time></trkpt><trkpt lat="55.7473346" lon="49.1436387"><time>2022-10-29T10:09:42.270</time></trkpt><trkpt lat="55.7473246" lon="49.1435558"><time>2022-10-29T10:09:43.307</time></trkpt><trkpt lat="55.7473192" lon="49.1434772"><time>2022-10-29T10:09:44.270</time></trkpt><trkpt lat="55.7473223" lon="49.1433480"><time>2022-10-29T10:09:46.277</time></trkpt><trkpt lat="55.7473690" lon="49.1434290"><time>2022-10-29T10:09:50.263</time></trkpt><trkpt lat="55.7473849" lon="49.1435411"><time>2022-10-29T10:09:52.263</time></trkpt><trkpt lat="55.7473950" lon="49.1436619"><time>2022-10-29T10:09:54.280</time></trkpt><trkpt lat="55.7474141" lon="49.1437473"><time>2022-10-29T10:09:56.253</time></trkpt><trkpt lat="55.7474225" lon="49.1438489"><time>2022-10-29T10:10:19.267</time></trkpt><trkpt lat="55.7473817" lon="49.1438957"><time>2022-10-29T10:10:22.300</time></trkpt><trkpt lat="55.7473743" lon="49.1439025"><time>2022-10-29T10:10:23.260</time></trkpt><trkpt lat="55.7473244" lon="49.1439334"><time>2022-10-29T10:10:27.267</time></trkpt><trkpt lat="55.7472572" lon="49.1439690"><time>2022-10-29T10:10:29.267</time></trkpt><trkpt lat="55.7472128" lon="49.1439918"><time>2022-10-29T10:10:30.277</time></trkpt><trkpt lat="55.7471670" lon="49.1440067"><time>2022-10-29T10:10:31.260</time></trkpt><trkpt lat="55.7471209" lon="49.1440186"><time>2022-10-29T10:10:32.283</time></trkpt><trkpt lat="55.7471209" lon="49.1440186"><time>2022-10-29T10:10:32.317</time></trkpt><trkpt lat="55.7470752" lon="49.1440319"><time>2022-10-29T10:10:33.297</time></trkpt><trkpt lat="55.7470316" lon="49.1440443"><time>2022-10-29T10:10:34.257</time></trkpt><trkpt lat="55.7469520" lon="49.1440570"><time>2022-10-29T10:10:36.257</time></trkpt><trkpt lat="55.7469394" lon="49.1439436"><time>2022-10-29T10:10:39.280</time></trkpt><trkpt lat="55.7468868" lon="49.1439522"><time>2022-10-29T10:10:43.270</time></trkpt><trkpt lat="55.7468268" lon="49.1439855"><time>2022-10-29T10:10:46.263</time></trkpt><trkpt lat="55.7467715" lon="49.1440077"><time>2022-10-29T10:10:48.250</time></trkpt><trkpt lat="55.7467059" lon="49.1440233"><time>2022-10-29T10:10:50.253</time></trkpt><trkpt lat="55.7466319" lon="49.1440221"><time>2022-10-29T10:10:52.267</time></trkpt><trkpt lat="55.7465562" lon="49.1440135"><time>2022-10-29T10:10:54.273</time></trkpt><trkpt lat="55.7464783" lon="49.1440162"><time>2022-10-29T10:10:56.267</time></trkpt><trkpt lat="55.7463916" lon="49.1440432"><time>2022-10-29T10:10:58.267</time></trkpt><trkpt lat="55.7463470" lon="49.1440623"><time>2022-10-29T10:10:59.263</time></trkpt><trkpt lat="55.7463009" lon="49.1440865"><time>2022-10-29T10:11:00.263</time></trkpt><trkpt lat="55.7462125" lon="49.1441259"><time>2022-10-29T10:11:02.260</time></trkpt><trkpt lat="55.7461662" lon="49.1441441"><time>2022-10-29T10:11:03.273</time></trkpt><trkpt lat="55.7461196" lon="49.1441587"><time>2022-10-29T10:11:04.273</time></trkpt><trkpt lat="55.7460727" lon="49.1441769"><time>2022-10-29T10:11:05.263</time></trkpt><trkpt lat="55.7460267" lon="49.1442062"><time>2022-10-29T10:11:06.257</time></trkpt><trkpt lat="55.7459585" lon="49.1442549"><time>2022-10-29T10:11:08.270</time></trkpt><trkpt lat="55.7459029" lon="49.1442639"><time>2022-10-29T10:11:10.280</time></trkpt><trkpt lat="55.7458444" lon="49.1442676"><time>2022-10-29T10:11:12.280</time></trkpt><trkpt lat="55.7458182" lon="49.1441615"><time>2022-10-29T10:11:15.247</time></trkpt><trkpt lat="55.7458081" lon="49.1440212"><time>2022-10-29T10:11:17.267</time></trkpt><trkpt lat="55.7458086" lon="49.1439085"><time>2022-10-29T10:11:19.260</time></trkpt><trkpt lat="55.7457907" lon="49.1438236"><time>2022-10-29T10:11:34.270</time></trkpt><trkpt lat="55.7457547" lon="49.1437135"><time>2022-10-29T10:11:38.267</time></trkpt><trkpt lat="55.7456969" lon="49.1436575"><time>2022-10-29T10:11:40.263</time></trkpt><trkpt lat="55.7456046" lon="49.1436621"><time>2022-10-29T10:11:42.280</time></trkpt><trkpt lat="55.7455534" lon="49.1436710"><time>2022-10-29T10:11:43.263</time></trkpt><trkpt lat="55.7455063" lon="49.1436920"><time>2022-10-29T10:11:44.263</time></trkpt><trkpt lat="55.7454612" lon="49.1437165"><time>2022-10-29T10:11:45.257</time></trkpt><trkpt lat="55.7453742" lon="49.1437569"><time>2022-10-29T10:11:47.267</time></trkpt><trkpt lat="55.7453277" lon="49.1437797"><time>2022-10-29T10:11:48.263</time></trkpt><trkpt lat="55.7452799" lon="49.1438055"><time>2022-10-29T10:11:49.280</time></trkpt><trkpt lat="55.7452286" lon="49.1438269"><time>2022-10-29T10:11:50.257</time></trkpt><trkpt lat="55.7451787" lon="49.1438404"><time>2022-10-29T10:11:51.270</time></trkpt><trkpt lat="55.7451302" lon="49.1438587"><time>2022-10-29T10:11:52.277</time></trkpt><trkpt lat="55.7450822" lon="49.1438823"><time>2022-10-29T10:11:53.273</time></trkpt><trkpt lat="55.7450335" lon="49.1439060"><time>2022-10-29T10:11:54.267</time></trkpt><trkpt lat="55.7449851" lon="49.1439122"><time>2022-10-29T10:11:55.273</time></trkpt><trkpt lat="55.7449384" lon="49.1439233"><time>2022-10-29T10:11:56.250</time></trkpt><trkpt lat="55.7448762" lon="49.1440074"><time>2022-10-29T10:11:58.277</time></trkpt><trkpt lat="55.7448888" lon="49.1441545"><time>2022-10-29T10:12:00.273</time></trkpt><trkpt lat="55.7449145" lon="49.1442324"><time>2022-10-29T10:12:01.270</time></trkpt><trkpt lat="55.7449382" lon="49.1443189"><time>2022-10-29T10:12:02.277</time></trkpt><trkpt lat="55.7449582" lon="49.1443977"><time>2022-10-29T10:12:03.280</time></trkpt><trkpt lat="55.7449773" lon="49.1445167"><time>2022-10-29T10:12:05.270</time></trkpt><trkpt lat="55.7449646" lon="49.1446286"><time>2022-10-29T10:12:07.270</time></trkpt><trkpt lat="55.7449362" lon="49.1447170"><time>2022-10-29T10:12:09.270</time></trkpt><trkpt lat="55.7449159" lon="49.1448090"><time>2022-10-29T10:12:11.267</time></trkpt><trkpt lat="55.7449000" lon="49.1449204"><time>2022-10-29T10:12:13.280</time></trkpt><trkpt lat="55.7448844" lon="49.1450243"><time>2022-10-29T10:12:15.263</time></trkpt><trkpt lat="55.7448653" lon="49.1451282"><time>2022-10-29T10:12:17.267</time></trkpt><trkpt lat="55.7448168" lon="49.1452299"><time>2022-10-29T10:12:19.277</time></trkpt><trkpt lat="55.7447426" lon="49.1453138"><time>2022-10-29T10:12:21.270</time></trkpt><trkpt lat="55.7447007" lon="49.1453553"><time>2022-10-29T10:12:22.270</time></trkpt><trkpt lat="55.7446570" lon="49.1453953"><time>2022-10-29T10:12:23.253</time></trkpt><trkpt lat="55.7446162" lon="49.1454361"><time>2022-10-29T10:12:24.273</time></trkpt><trkpt lat="55.7445503" lon="49.1455261"><time>2022-10-29T10:12:26.273</time></trkpt><trkpt lat="55.7444960" lon="49.1456348"><time>2022-10-29T10:12:28.267</time></trkpt><trkpt lat="55.7444487" lon="49.1457615"><time>2022-10-29T10:12:30.270</time></trkpt><trkpt lat="55.7443945" lon="49.1458850"><time>2022-10-29T10:12:32.273</time></trkpt><trkpt lat="55.7443670" lon="49.1459545"><time>2022-10-29T10:12:33.287</time></trkpt><trkpt lat="55.7443202" lon="49.1460861"><time>2022-10-29T10:12:35.267</time></trkpt><trkpt lat="55.7442774" lon="49.1462153"><time>2022-10-29T10:12:37.270</time></trkpt><trkpt lat="55.7442379" lon="49.1463408"><time>2022-10-29T10:12:39.277</time></trkpt><trkpt lat="55.7441927" lon="49.1464382"><time>2022-10-29T10:12:41.273</time></trkpt><trkpt lat="55.7441245" lon="49.1464813"><time>2022-10-29T10:12:43.273</time></trkpt><trkpt lat="55.7440441" lon="49.1465339"><time>2022-10-29T10:12:45.270</time></trkpt><trkpt lat="55.7440024" lon="49.1465723"><time>2022-10-29T10:12:46.257</time></trkpt><trkpt lat="55.7439649" lon="49.1466246"><time>2022-10-29T10:12:47.287</time></trkpt><trkpt lat="55.7439285" lon="49.1466813"><time>2022-10-29T10:12:48.270</time></trkpt><trkpt lat="55.7438869" lon="49.1467291"><time>2022-10-29T10:12:49.273</time></trkpt><trkpt lat="55.7438454" lon="49.1467772"><time>2022-10-29T10:12:50.270</time></trkpt><trkpt lat="55.7438071" lon="49.1468284"><time>2022-10-29T10:12:51.257</time></trkpt><trkpt lat="55.7437720" lon="49.1468803"><time>2022-10-29T10:12:52.280</time></trkpt><trkpt lat="55.7437337" lon="49.1469355"><time>2022-10-29T10:12:53.273</time></trkpt><trkpt lat="55.7436940" lon="49.1469831"><time>2022-10-29T10:12:54.270</time></trkpt><trkpt lat="55.7436182" lon="49.1470616"><time>2022-10-29T10:12:56.270</time></trkpt><trkpt lat="55.7435388" lon="49.1471213"><time>2022-10-29T10:12:58.273</time></trkpt><trkpt lat="55.7434733" lon="49.1472036"><time>2022-10-29T10:13:00.270</time></trkpt><trkpt lat="55.7434072" lon="49.1472672"><time>2022-10-29T10:13:02.283</time></trkpt><trkpt lat="55.7433277" lon="49.1473236"><time>2022-10-29T10:13:04.267</time></trkpt><trkpt lat="55.7432562" lon="49.1473760"><time>2022-10-29T10:13:06.277</time></trkpt><trkpt lat="55.7432023" lon="49.1474517"><time>2022-10-29T10:13:08.270</time></trkpt><trkpt lat="55.7431590" lon="49.1475705"><time>2022-10-29T10:13:10.270</time></trkpt><trkpt lat="55.7431336" lon="49.1476397"><time>2022-10-29T10:13:11.267</time></trkpt><trkpt lat="55.7431079" lon="49.1477092"><time>2022-10-29T10:13:12.273</time></trkpt><trkpt lat="55.7430796" lon="49.1477730"><time>2022-10-29T10:13:13.270</time></trkpt><trkpt lat="55.7430196" lon="49.1478725"><time>2022-10-29T10:13:15.273</time></trkpt><trkpt lat="55.7430550" lon="49.1477844"><time>2022-10-29T10:13:26.273</time></trkpt><trkpt lat="55.7431189" lon="49.1476724"><time>2022-10-29T10:13:28.280</time></trkpt><trkpt lat="55.7431494" lon="49.1476038"><time>2022-10-29T10:13:29.267</time></trkpt><trkpt lat="55.7431736" lon="49.1475356"><time>2022-10-29T10:13:30.277</time></trkpt><trkpt lat="55.7432156" lon="49.1474312"><time>2022-10-29T10:13:32.283</time></trkpt><trkpt lat="55.7432818" lon="49.1473551"><time>2022-10-29T10:13:34.263</time></trkpt><trkpt lat="55.7433227" lon="49.1473198"><time>2022-10-29T10:13:35.280</time></trkpt><trkpt lat="55.7434054" lon="49.1472599"><time>2022-10-29T10:13:37.277</time></trkpt><trkpt lat="55.7434465" lon="49.1472245"><time>2022-10-29T10:13:38.270</time></trkpt><trkpt lat="55.7435043" lon="49.1471456"><time>2022-10-29T10:13:40.273</time></trkpt><trkpt lat="55.7435591" lon="49.1470765"><time>2022-10-29T10:13:42.273</time></trkpt><trkpt lat="55.7436240" lon="49.1471103"><time>2022-10-29T10:13:44.280</time></trkpt><trkpt lat="55.7436470" lon="49.1472421"><time>2022-10-29T10:13:46.270</time></trkpt><trkpt lat="55.7436560" lon="49.1473975"><time>2022-10-29T10:13:48.273</time></trkpt><trkpt lat="55.7436569" lon="49.1474790"><time>2022-10-29T10:13:49.277</time></trkpt><trkpt lat="55.7436551" lon="49.1475595"><time>2022-10-29T10:13:50.270</time></trkpt><trkpt lat="55.7436428" lon="49.1477096"><time>2022-10-29T10:13:52.267</time></trkpt><trkpt lat="55.7436312" lon="49.1478587"><time>2022-10-29T10:13:54.277</time></trkpt><trkpt lat="55.7436083" lon="49.1480078"><time>2022-10-29T10:13:56.280</time></trkpt><trkpt lat="55.7435845" lon="49.1481493"><time>2022-10-29T10:13:58.273</time></trkpt><trkpt lat="55.7435596" lon="49.1482989"><time>2022-10-29T10:14:00.277</time></trkpt><trkpt lat="55.7435510" lon="49.1483811"><time>2022-10-29T10:14:01.253</time></trkpt><trkpt lat="55.7435396" lon="49.1484622"><time>2022-10-29T10:14:02.273</time></trkpt><trkpt lat="55.7435235" lon="49.1485420"><time>2022-10-29T10:14:03.263</time></trkpt><trkpt lat="55.7435034" lon="49.1486176"><time>2022-10-29T10:14:04.273</time></trkpt><trkpt lat="55.7434650" lon="49.1487558"><time>2022-10-29T10:14:06.270</time></trkpt><trkpt lat="55.7434210" lon="49.1488888"><time>2022-10-29T10:14:08.280</time></trkpt><trkpt lat="55.7433959" lon="49.1489555"><time>2022-10-29T10:14:09.267</time></trkpt><trkpt lat="55.7433650" lon="49.1490182"><time>2022-10-29T10:14:10.270</time></trkpt><trkpt lat="55.7433349" lon="49.1490829"><time>2022-10-29T10:14:11.267</time></trkpt><trkpt lat="55.7433075" lon="49.1491517"><time>2022-10-29T10:14:12.283</time></trkpt><trkpt lat="55.7432818" lon="49.1492230"><time>2022-10-29T10:14:13.273</time></trkpt><trkpt lat="55.7432569" lon="49.1492951"><time>2022-10-29T10:14:14.273</time></trkpt><trkpt lat="55.7432355" lon="49.1493675"><time>2022-10-29T10:14:15.270</time></trkpt><trkpt lat="55.7432142" lon="49.1494394"><time>2022-10-29T10:14:16.273</time></trkpt><trkpt lat="55.7431911" lon="49.1495087"><time>2022-10-29T10:14:17.273</time></trkpt><trkpt lat="55.7431531" lon="49.1496394"><time>2022-10-29T10:14:19.320</time></trkpt><trkpt lat="55.7431424" lon="49.1497051"><time>2022-10-29T10:14:20.263</time></trkpt><trkpt lat="55.7431412" lon="49.1498539"><time>2022-10-29T10:14:22.247</time></trkpt><trkpt lat="55.7431489" lon="49.1500059"><time>2022-10-29T10:14:24.267</time></trkpt><trkpt lat="55.7431498" lon="49.1501566"><time>2022-10-29T10:14:26.270</time></trkpt><trkpt lat="55.7431428" lon="49.1502968"><time>2022-10-29T10:14:28.267</time></trkpt><trkpt lat="55.7431437" lon="49.1503920"><time>2022-10-29T10:14:31.257</time></trkpt><trkpt lat="55.7431768" lon="49.1504894"><time>2022-10-29T10:14:34.287</time></trkpt><trkpt lat="55.7431965" lon="49.1506058"><time>2022-10-29T10:14:36.280</time></trkpt><trkpt lat="55.7432099" lon="49.1507373"><time>2022-10-29T10:14:38.273</time></trkpt><trkpt lat="55.7432323" lon="49.1508605"><time>2022-10-29T10:14:40.270</time></trkpt><trkpt lat="55.7432684" lon="49.1509707"><time>2022-10-29T10:14:42.263</time></trkpt><trkpt lat="55.7433074" lon="49.1511005"><time>2022-10-29T10:14:44.277</time></trkpt><trkpt lat="55.7433260" lon="49.1512452"><time>2022-10-29T10:14:46.313</time></trkpt><trkpt lat="55.7433267" lon="49.1512931"><time>2022-10-29T10:14:47.277</time></trkpt><trkpt lat="55.7433183" lon="49.1513874"><time>2022-10-29T10:14:49.273</time></trkpt><trkpt lat="55.7432910" lon="49.1515098"><time>2022-10-29T10:15:07.273</time></trkpt><trkpt lat="55.7432800" lon="49.1516207"><time>2022-10-29T10:15:09.277</time></trkpt><trkpt lat="55.7432842" lon="49.1517597"><time>2022-10-29T10:15:11.250</time></trkpt><trkpt lat="55.7432928" lon="49.1518394"><time>2022-10-29T10:15:12.267</time></trkpt><trkpt lat="55.7433077" lon="49.1519861"><time>2022-10-29T10:15:14.320</time></trkpt><trkpt lat="55.7433144" lon="49.1520538"><time>2022-10-29T10:15:15.310</time></trkpt><trkpt lat="55.7433242" lon="49.1521891"><time>2022-10-29T10:15:17.287</time></trkpt><trkpt lat="55.7433212" lon="49.1523325"><time>2022-10-29T10:15:19.280</time></trkpt><trkpt lat="55.7432945" lon="49.1524628"><time>2022-10-29T10:15:21.307</time></trkpt><trkpt lat="55.7432945" lon="49.1524628"><time>2022-10-29T10:15:21.333</time></trkpt><trkpt lat="55.7432656" lon="49.1525577"><time>2022-10-29T10:15:23.313</time></trkpt><trkpt lat="55.7432520" lon="49.1525904"><time>2022-10-29T10:15:24.267</time></trkpt><trkpt lat="55.7432647" lon="49.1525083"><time>2022-10-29T10:15:40.270</time></trkpt><trkpt lat="55.7432866" lon="49.1523815"><time>2022-10-29T10:15:42.273</time></trkpt><trkpt lat="55.7433113" lon="49.1522473"><time>2022-10-29T10:15:44.277</time></trkpt><trkpt lat="55.7433233" lon="49.1521263"><time>2022-10-29T10:15:46.257</time></trkpt><trkpt lat="55.7433178" lon="49.1519867"><time>2022-10-29T10:15:48.267</time></trkpt><trkpt lat="55.7433054" lon="49.1518499"><time>2022-10-29T10:15:50.267</time></trkpt><trkpt lat="55.7432945" lon="49.1517159"><time>2022-10-29T10:15:52.267</time></trkpt><trkpt lat="55.7432693" lon="49.1516159"><time>2022-10-29T10:15:58.280</time></trkpt><trkpt lat="55.7432033" lon="49.1515595"><time>2022-10-29T10:16:00.270</time></trkpt><trkpt lat="55.7431211" lon="49.1515441"><time>2022-10-29T10:16:02.267</time></trkpt><trkpt lat="55.7430436" lon="49.1515368"><time>2022-10-29T10:16:04.280</time></trkpt><trkpt lat="55.7429742" lon="49.1515199"><time>2022-10-29T10:16:06.280</time></trkpt><trkpt lat="55.7429105" lon="49.1514823"><time>2022-10-29T10:16:08.270</time></trkpt><trkpt lat="55.7428403" lon="49.1514368"><time>2022-10-29T10:16:10.273</time></trkpt><trkpt lat="55.7427568" lon="49.1513996"><time>2022-10-29T10:16:12.273</time></trkpt><trkpt lat="55.7427115" lon="49.1513851"><time>2022-10-29T10:16:13.270</time></trkpt><trkpt lat="55.7426633" lon="49.1513776"><time>2022-10-29T10:16:14.283</time></trkpt><trkpt lat="55.7426137" lon="49.1513705"><time>2022-10-29T10:16:15.280</time></trkpt><trkpt lat="55.7425648" lon="49.1513619"><time>2022-10-29T10:16:16.277</time></trkpt><trkpt lat="55.7425196" lon="49.1513488"><time>2022-10-29T10:16:17.283</time></trkpt><trkpt lat="55.7424408" lon="49.1513169"><time>2022-10-29T10:16:19.270</time></trkpt><trkpt lat="55.7423671" lon="49.1512598"><time>2022-10-29T10:16:21.273</time></trkpt><trkpt lat="55.7422903" lon="49.1512049"><time>2022-10-29T10:16:23.287</time></trkpt><trkpt lat="55.7422018" lon="49.1511702"><time>2022-10-29T10:16:25.287</time></trkpt><trkpt lat="55.7421569" lon="49.1511493"><time>2022-10-29T10:16:26.260</time></trkpt><trkpt lat="55.7421124" lon="49.1511271"><time>2022-10-29T10:16:27.280</time></trkpt><trkpt lat="55.7420657" lon="49.1511014"><time>2022-10-29T10:16:28.277</time></trkpt><trkpt lat="55.7420170" lon="49.1510793"><time>2022-10-29T10:16:29.283</time></trkpt><trkpt lat="55.7419702" lon="49.1510596"><time>2022-10-29T10:16:30.280</time></trkpt><trkpt lat="55.7419259" lon="49.1510398"><time>2022-10-29T10:16:31.273</time></trkpt><trkpt lat="55.7418789" lon="49.1510236"><time>2022-10-29T10:16:32.260</time></trkpt><trkpt lat="55.7418305" lon="49.1510180"><time>2022-10-29T10:16:33.270</time></trkpt><trkpt lat="55.7417830" lon="49.1510160"><time>2022-10-29T10:16:34.273</time></trkpt><trkpt lat="55.7417373" lon="49.1510168"><time>2022-10-29T10:16:35.277</time></trkpt><trkpt lat="55.7416458" lon="49.1510186"><time>2022-10-29T10:16:37.273</time></trkpt><trkpt lat="55.7415974" lon="49.1510163"><time>2022-10-29T10:16:38.260</time></trkpt><trkpt lat="55.7415091" lon="49.1510179"><time>2022-10-29T10:16:40.280</time></trkpt><trkpt lat="55.7414208" lon="49.1510091"><time>2022-10-29T10:16:42.277</time></trkpt><trkpt lat="55.7413419" lon="49.1509987"><time>2022-10-29T10:16:44.270</time></trkpt><trkpt lat="55.7412656" lon="49.1509626"><time>2022-10-29T10:16:46.270</time></trkpt><trkpt lat="55.7411929" lon="49.1509441"><time>2022-10-29T10:16:48.273</time></trkpt><trkpt lat="55.7411171" lon="49.1509356"><time>2022-10-29T10:16:50.280</time></trkpt><trkpt lat="55.7410372" lon="49.1509197"><time>2022-10-29T10:16:52.260</time></trkpt><trkpt lat="55.7409568" lon="49.1509212"><time>2022-10-29T10:16:54.293</time></trkpt><trkpt lat="55.7408722" lon="49.1509149"><time>2022-10-29T10:16:56.350</time></trkpt><trkpt lat="55.7407842" lon="49.1509232"><time>2022-10-29T10:16:58.280</time></trkpt><trkpt lat="55.7407392" lon="49.1509342"><time>2022-10-29T10:16:59.273</time></trkpt><trkpt lat="55.7406923" lon="49.1509461"><time>2022-10-29T10:17:00.273</time></trkpt><trkpt lat="55.7406465" lon="49.1509500"><time>2022-10-29T10:17:01.277</time></trkpt><trkpt lat="55.7405622" lon="49.1509561"><time>2022-10-29T10:17:03.277</time></trkpt><trkpt lat="55.7404809" lon="49.1509503"><time>2022-10-29T10:17:05.263</time></trkpt><trkpt lat="55.7404051" lon="49.1509688"><time>2022-10-29T10:17:07.277</time></trkpt><trkpt lat="55.7403415" lon="49.1510215"><time>2022-10-29T10:17:09.277</time></trkpt><trkpt lat="55.7402706" lon="49.1510363"><time>2022-10-29T10:17:11.287</time></trkpt><trkpt lat="55.7402011" lon="49.1510072"><time>2022-10-29T10:17:13.273</time></trkpt><trkpt lat="55.7401259" lon="49.1509662"><time>2022-10-29T10:17:15.257</time></trkpt><trkpt lat="55.7400429" lon="49.1509246"><time>2022-10-29T10:17:17.277</time></trkpt><trkpt lat="55.7399602" lon="49.1508760"><time>2022-10-29T10:17:19.280</time></trkpt><trkpt lat="55.7398834" lon="49.1508103"><time>2022-10-29T10:17:21.267</time></trkpt><trkpt lat="55.7398100" lon="49.1507283"><time>2022-10-29T10:17:23.277</time></trkpt><trkpt lat="55.7397368" lon="49.1506316"><time>2022-10-29T10:17:25.263</time></trkpt><trkpt lat="55.7396979" lon="49.1505891"><time>2022-10-29T10:17:26.277</time></trkpt><trkpt lat="55.7396549" lon="49.1505557"><time>2022-10-29T10:17:27.277</time></trkpt><trkpt lat="55.7395732" lon="49.1505152"><time>2022-10-29T10:17:29.280</time></trkpt><trkpt lat="55.7394939" lon="49.1504852"><time>2022-10-29T10:17:31.270</time></trkpt><trkpt lat="55.7394419" lon="49.1504422"><time>2022-10-29T10:17:50.270</time></trkpt><trkpt lat="55.7393828" lon="49.1503851"><time>2022-10-29T10:17:52.280</time></trkpt><trkpt lat="55.7393128" lon="49.1503257"><time>2022-10-29T10:17:54.273</time></trkpt><trkpt lat="55.7392356" lon="49.1502506"><time>2022-10-29T10:17:56.243</time></trkpt><trkpt lat="55.7391945" lon="49.1502135"><time>2022-10-29T10:17:57.263</time></trkpt><trkpt lat="55.7391491" lon="49.1501793"><time>2022-10-29T10:17:58.267</time></trkpt><trkpt lat="55.7391008" lon="49.1501446"><time>2022-10-29T10:17:59.263</time></trkpt><trkpt lat="55.7390494" lon="49.1501108"><time>2022-10-29T10:18:00.267</time></trkpt><trkpt lat="55.7389990" lon="49.1500737"><time>2022-10-29T10:18:01.250</time></trkpt><trkpt lat="55.7389508" lon="49.1500338"><time>2022-10-29T10:18:02.267</time></trkpt><trkpt lat="55.7388980" lon="49.1499978"><time>2022-10-29T10:18:03.277</time></trkpt><trkpt lat="55.7388470" lon="49.1499635"><time>2022-10-29T10:18:04.277</time></trkpt><trkpt lat="55.7387987" lon="49.1499273"><time>2022-10-29T10:18:05.277</time></trkpt><trkpt lat="55.7387523" lon="49.1498914"><time>2022-10-29T10:18:06.273</time></trkpt><trkpt lat="55.7387064" lon="49.1498543"><time>2022-10-29T10:18:07.273</time></trkpt><trkpt lat="55.7386590" lon="49.1498141"><time>2022-10-29T10:18:08.290</time></trkpt><trkpt lat="55.7386132" lon="49.1497772"><time>2022-10-29T10:18:09.277</time></trkpt><trkpt lat="55.7385675" lon="49.1497431"><time>2022-10-29T10:18:10.283</time></trkpt><trkpt lat="55.7385200" lon="49.1497072"><time>2022-10-29T10:18:11.277</time></trkpt><trkpt lat="55.7384716" lon="49.1496698"><time>2022-10-29T10:18:12.280</time></trkpt><trkpt lat="55.7384255" lon="49.1496353"><time>2022-10-29T10:18:13.280</time></trkpt><trkpt lat="55.7383770" lon="49.1496032"><time>2022-10-29T10:18:14.280</time></trkpt><trkpt lat="55.7383303" lon="49.1495785"><time>2022-10-29T10:18:15.280</time></trkpt><trkpt lat="55.7382813" lon="49.1495548"><time>2022-10-29T10:18:16.280</time></trkpt><trkpt lat="55.7382349" lon="49.1495232"><time>2022-10-29T10:18:17.283</time></trkpt><trkpt lat="55.7381870" lon="49.1494875"><time>2022-10-29T10:18:18.283</time></trkpt><trkpt lat="55.7381369" lon="49.1494544"><time>2022-10-29T10:18:19.283</time></trkpt><trkpt lat="55.7380856" lon="49.1494267"><time>2022-10-29T10:18:20.283</time></trkpt><trkpt lat="55.7380344" lon="49.1494018"><time>2022-10-29T10:18:21.283</time></trkpt><trkpt lat="55.7379882" lon="49.1493742"><time>2022-10-29T10:18:22.283</time></trkpt><trkpt lat="55.7379433" lon="49.1493429"><time>2022-10-29T10:18:23.283</time></trkpt><trkpt lat="55.7378959" lon="49.1493100"><time>2022-10-29T10:18:24.257</time></trkpt><trkpt lat="55.7378485" lon="49.1492821"><time>2022-10-29T10:18:25.280</time></trkpt><trkpt lat="55.7378005" lon="49.1492554"><time>2022-10-29T10:18:26.290</time></trkpt><trkpt lat="55.7377533" lon="49.1492294"><time>2022-10-29T10:18:27.280</time></trkpt><trkpt lat="55.7377069" lon="49.1492030"><time>2022-10-29T10:18:28.280</time></trkpt><trkpt lat="55.7376602" lon="49.1491773"><time>2022-10-29T10:18:29.273</time></trkpt><trkpt lat="55.7376120" lon="49.1491563"><time>2022-10-29T10:18:30.277</time></trkpt><trkpt lat="55.7375665" lon="49.1491341"><time>2022-10-29T10:18:31.277</time></trkpt><trkpt lat="55.7374872" lon="49.1490794"><time>2022-10-29T10:18:33.280</time></trkpt><trkpt lat="55.7374182" lon="49.1490381"><time>2022-10-29T10:18:35.283</time></trkpt><trkpt lat="55.7373489" lon="49.1490037"><time>2022-10-29T10:18:37.287</time></trkpt><trkpt lat="55.7372646" lon="49.1489624"><time>2022-10-29T10:18:39.270</time></trkpt><trkpt lat="55.7372171" lon="49.1489422"><time>2022-10-29T10:18:40.280</time></trkpt><trkpt lat="55.7371707" lon="49.1489211"><time>2022-10-29T10:18:41.277</time></trkpt><trkpt lat="55.7371243" lon="49.1489022"><time>2022-10-29T10:18:42.283</time></trkpt><trkpt lat="55.7370766" lon="49.1488856"><time>2022-10-29T10:18:43.277</time></trkpt><trkpt lat="55.7370293" lon="49.1488729"><time>2022-10-29T10:18:44.273</time></trkpt><trkpt lat="55.7369834" lon="49.1488566"><time>2022-10-29T10:18:45.300</time></trkpt><trkpt lat="55.7369354" lon="49.1488362"><time>2022-10-29T10:18:46.290</time></trkpt><trkpt lat="55.7368858" lon="49.1488176"><time>2022-10-29T10:18:47.313</time></trkpt><trkpt lat="55.7368361" lon="49.1488024"><time>2022-10-29T10:18:48.270</time></trkpt><trkpt lat="55.7367859" lon="49.1487954"><time>2022-10-29T10:18:49.287</time></trkpt><trkpt lat="55.7367358" lon="49.1487919"><time>2022-10-29T10:18:50.280</time></trkpt><trkpt lat="55.7366871" lon="49.1487888"><time>2022-10-29T10:18:51.280</time></trkpt><trkpt lat="55.7366023" lon="49.1488070"><time>2022-10-29T10:18:53.267</time></trkpt><trkpt lat="55.7365414" lon="49.1488709"><time>2022-10-29T10:18:55.277</time></trkpt><trkpt lat="55.7365096" lon="49.1490003"><time>2022-10-29T10:18:57.287</time></trkpt><trkpt lat="55.7365002" lon="49.1490783"><time>2022-10-29T10:18:58.273</time></trkpt><trkpt lat="55.7364826" lon="49.1492341"><time>2022-10-29T10:19:00.290</time></trkpt><trkpt lat="55.7364694" lon="49.1493114"><time>2022-10-29T10:19:01.283</time></trkpt><trkpt lat="55.7364542" lon="49.1493933"><time>2022-10-29T10:19:02.287</time></trkpt><trkpt lat="55.7364357" lon="49.1494798"><time>2022-10-29T10:19:03.287</time></trkpt><trkpt lat="55.7364172" lon="49.1495654"><time>2022-10-29T10:19:04.293</time></trkpt><trkpt lat="55.7363974" lon="49.1496502"><time>2022-10-29T10:19:05.287</time></trkpt><trkpt lat="55.7363802" lon="49.1497302"><time>2022-10-29T10:19:06.287</time></trkpt><trkpt lat="55.7363668" lon="49.1498069"><time>2022-10-29T10:19:07.287</time></trkpt><trkpt lat="55.7363508" lon="49.1498842"><time>2022-10-29T10:19:08.287</time></trkpt><trkpt lat="55.7363195" lon="49.1500326"><time>2022-10-29T10:19:10.273</time></trkpt><trkpt lat="55.7362975" lon="49.1501144"><time>2022-10-29T10:19:11.320</time></trkpt><trkpt lat="55.7362737" lon="49.1501977"><time>2022-10-29T10:19:12.283</time></trkpt><trkpt lat="55.7362501" lon="49.1502764"><time>2022-10-29T10:19:13.263</time></trkpt><trkpt lat="55.7362262" lon="49.1503487"><time>2022-10-29T10:19:14.283</time></trkpt><trkpt lat="55.7362008" lon="49.1504159"><time>2022-10-29T10:19:15.280</time></trkpt><trkpt lat="55.7361560" lon="49.1505530"><time>2022-10-29T10:19:17.277</time></trkpt><trkpt lat="55.7361298" lon="49.1506272"><time>2022-10-29T10:19:18.280</time></trkpt><trkpt lat="55.7361042" lon="49.1507024"><time>2022-10-29T10:19:19.277</time></trkpt><trkpt lat="55.7360809" lon="49.1507755"><time>2022-10-29T10:19:20.320</time></trkpt><trkpt lat="55.7360578" lon="49.1508420"><time>2022-10-29T10:19:21.280</time></trkpt><trkpt lat="55.7360187" lon="49.1509719"><time>2022-10-29T10:19:23.280</time></trkpt><trkpt lat="55.7360016" lon="49.1510902"><time>2022-10-29T10:19:25.283</time></trkpt><trkpt lat="55.7359748" lon="49.1512024"><time>2022-10-29T10:19:27.307</time></trkpt><trkpt lat="55.7359748" lon="49.1512024"><time>2022-10-29T10:19:27.330</time></trkpt><trkpt lat="55.7359336" lon="49.1512861"><time>2022-10-29T10:19:29.317</time></trkpt><trkpt lat="55.7359126" lon="49.1513111"><time>2022-10-29T10:19:30.273</time></trkpt><trkpt lat="55.7358734" lon="49.1513667"><time>2022-10-29T10:19:33.263</time></trkpt><trkpt lat="55.7358560" lon="49.1514473"><time>2022-10-29T10:19:36.277</time></trkpt><trkpt lat="55.7358333" lon="49.1515246"><time>2022-10-29T10:19:38.280</time></trkpt><trkpt lat="55.7357981" lon="49.1515791"><time>2022-10-29T10:19:41.277</time></trkpt><trkpt lat="55.7357615" lon="49.1516283"><time>2022-10-29T10:19:45.283</time></trkpt><trkpt lat="55.7357798" lon="49.1517167"><time>2022-10-29T10:19:50.280</time></trkpt><trkpt lat="55.7357901" lon="49.1517968"><time>2022-10-29T10:19:54.280</time></trkpt><trkpt lat="55.7357507" lon="49.1518454"><time>2022-10-29T10:19:59.273</time></trkpt><trkpt lat="55.7357110" lon="49.1519047"><time>2022-10-29T10:20:06.277</time></trkpt><trkpt lat="55.7356985" lon="49.1519882"><time>2022-10-29T10:20:08.280</time></trkpt><trkpt lat="55.7356772" lon="49.1520753"><time>2022-10-29T10:20:10.283</time></trkpt><trkpt lat="55.7356454" lon="49.1521526"><time>2022-10-29T10:20:12.300</time></trkpt><trkpt lat="55.7355980" lon="49.1522909"><time>2022-10-29T10:20:13.280</time></trkpt><trkpt lat="55.7355551" lon="49.1524281"><time>2022-10-29T10:20:15.287</time></trkpt><trkpt lat="55.7355303" lon="49.1524978"><time>2022-10-29T10:20:16.283</time></trkpt><trkpt lat="55.7355057" lon="49.1525652"><time>2022-10-29T10:20:17.283</time></trkpt><trkpt lat="55.7354805" lon="49.1526315"><time>2022-10-29T10:20:18.287</time></trkpt><trkpt lat="55.7354334" lon="49.1527611"><time>2022-10-29T10:20:20.273</time></trkpt><trkpt lat="55.7353957" lon="49.1528845"><time>2022-10-29T10:20:22.253</time></trkpt><trkpt lat="55.7353579" lon="49.1530016"><time>2022-10-29T10:20:24.277</time></trkpt><trkpt lat="55.7353115" lon="49.1531056"><time>2022-10-29T10:20:26.273</time></trkpt><trkpt lat="55.7352757" lon="49.1532327"><time>2022-10-29T10:20:28.287</time></trkpt><trkpt lat="55.7352441" lon="49.1533572"><time>2022-10-29T10:20:30.283</time></trkpt><trkpt lat="55.7352091" lon="49.1534875"><time>2022-10-29T10:20:32.290</time></trkpt><trkpt lat="55.7351776" lon="49.1536087"><time>2022-10-29T10:20:34.280</time></trkpt><trkpt lat="55.7351445" lon="49.1537113"><time>2022-10-29T10:20:36.277</time></trkpt><trkpt lat="55.7351169" lon="49.1538157"><time>2022-10-29T10:20:38.280</time></trkpt><trkpt lat="55.7350888" lon="49.1539174"><time>2022-10-29T10:20:40.277</time></trkpt><trkpt lat="55.7350672" lon="49.1540110"><time>2022-10-29T10:20:43.270</time></trkpt><trkpt lat="55.7350706" lon="49.1540943"><time>2022-10-29T10:20:47.280</time></trkpt><trkpt lat="55.7350805" lon="49.1542002"><time>2022-10-29T10:20:56.270</time></trkpt><trkpt lat="55.7350553" lon="49.1543006"><time>2022-10-29T10:20:58.283</time></trkpt><trkpt lat="55.7350193" lon="49.1544290"><time>2022-10-29T10:21:00.273</time></trkpt><trkpt lat="55.7349851" lon="49.1545343"><time>2022-10-29T10:21:02.280</time></trkpt><trkpt lat="55.7349492" lon="49.1546515"><time>2022-10-29T10:21:04.260</time></trkpt><trkpt lat="55.7349141" lon="49.1547850"><time>2022-10-29T10:21:06.280</time></trkpt><trkpt lat="55.7348734" lon="49.1549189"><time>2022-10-29T10:21:08.283</time></trkpt><trkpt lat="55.7348357" lon="49.1550592"><time>2022-10-29T10:21:10.273</time></trkpt><trkpt lat="55.7348137" lon="49.1551319"><time>2022-10-29T10:21:11.270</time></trkpt><trkpt lat="55.7347715" lon="49.1552652"><time>2022-10-29T10:21:13.283</time></trkpt><trkpt lat="55.7347291" lon="49.1553957"><time>2022-10-29T10:21:15.280</time></trkpt><trkpt lat="55.7346902" lon="49.1555194"><time>2022-10-29T10:21:17.273</time></trkpt><trkpt lat="55.7346511" lon="49.1556389"><time>2022-10-29T10:21:19.277</time></trkpt><trkpt lat="55.7346160" lon="49.1557481"><time>2022-10-29T10:21:21.280</time></trkpt><trkpt lat="55.7345856" lon="49.1558527"><time>2022-10-29T10:21:23.277</time></trkpt><trkpt lat="55.7345626" lon="49.1559504"><time>2022-10-29T10:21:25.263</time></trkpt><trkpt lat="55.7345514" lon="49.1560530"><time>2022-10-29T10:21:27.280</time></trkpt><trkpt lat="55.7345504" lon="49.1561478"><time>2022-10-29T10:21:29.273</time></trkpt><trkpt lat="55.7345576" lon="49.1562356"><time>2022-10-29T10:21:31.280</time></trkpt><trkpt lat="55.7345722" lon="49.1563185"><time>2022-10-29T10:21:33.273</time></trkpt><trkpt lat="55.7345847" lon="49.1564040"><time>2022-10-29T10:21:35.270</time></trkpt><trkpt lat="55.7345944" lon="49.1564971"><time>2022-10-29T10:21:37.283</time></trkpt><trkpt lat="55.7346130" lon="49.1565909"><time>2022-10-29T10:21:39.270</time></trkpt><trkpt lat="55.7346272" lon="49.1566831"><time>2022-10-29T10:21:41.267</time></trkpt><trkpt lat="55.7346313" lon="49.1567655"><time>2022-10-29T10:21:43.273</time></trkpt><trkpt lat="55.7346392" lon="49.1568516"><time>2022-10-29T10:21:45.277</time></trkpt><trkpt lat="55.7346449" lon="49.1569316"><time>2022-10-29T10:21:47.270</time></trkpt><trkpt lat="55.7346451" lon="49.1570445"><time>2022-10-29T10:21:50.273</time></trkpt><trkpt lat="55.7346467" lon="49.1571576"><time>2022-10-29T10:21:53.267</time></trkpt><trkpt lat="55.7346519" lon="49.1572406"><time>2022-10-29T10:21:55.277</time></trkpt><trkpt lat="55.7346546" lon="49.1573232"><time>2022-10-29T10:21:57.273</time></trkpt><trkpt lat="55.7346533" lon="49.1574066"><time>2022-10-29T10:21:59.283</time></trkpt><trkpt lat="55.7346526" lon="49.1574904"><time>2022-10-29T10:22:01.273</time></trkpt><trkpt lat="55.7346555" lon="49.1575713"><time>2022-10-29T10:22:03.273</time></trkpt><trkpt lat="55.7346526" lon="49.1576513"><time>2022-10-29T10:22:05.280</time></trkpt><trkpt lat="55.7346500" lon="49.1577335"><time>2022-10-29T10:22:07.283</time></trkpt><trkpt lat="55.7346414" lon="49.1578132"><time>2022-10-29T10:22:09.273</time></trkpt><trkpt lat="55.7346355" lon="49.1578939"><time>2022-10-29T10:22:11.273</time></trkpt><trkpt lat="55.7346342" lon="49.1579760"><time>2022-10-29T10:22:13.277</time></trkpt><trkpt lat="55.7346360" lon="49.1580595"><time>2022-10-29T10:22:15.277</time></trkpt><trkpt lat="55.7346351" lon="49.1581474"><time>2022-10-29T10:22:17.280</time></trkpt><trkpt lat="55.7346403" lon="49.1582517"><time>2022-10-29T10:22:20.273</time></trkpt><trkpt lat="55.7346561" lon="49.1583448"><time>2022-10-29T10:22:23.287</time></trkpt><trkpt lat="55.7346829" lon="49.1584512"><time>2022-10-29T10:22:26.273</time></trkpt><trkpt lat="55.7347074" lon="49.1585454"><time>2022-10-29T10:22:28.283</time></trkpt><trkpt lat="55.7347322" lon="49.1586703"><time>2022-10-29T10:22:30.280</time></trkpt><trkpt lat="55.7347485" lon="49.1588180"><time>2022-10-29T10:22:32.287</time></trkpt><trkpt lat="55.7347601" lon="49.1589728"><time>2022-10-29T10:22:34.283</time></trkpt><trkpt lat="55.7347598" lon="49.1590559"><time>2022-10-29T10:22:35.280</time></trkpt><trkpt lat="55.7347516" lon="49.1591365"><time>2022-10-29T10:22:36.287</time></trkpt><trkpt lat="55.7347395" lon="49.1592171"><time>2022-10-29T10:22:37.277</time></trkpt><trkpt lat="55.7347253" lon="49.1593052"><time>2022-10-29T10:22:38.273</time></trkpt><trkpt lat="55.7347121" lon="49.1593987"><time>2022-10-29T10:22:39.277</time></trkpt><trkpt lat="55.7347006" lon="49.1594954"><time>2022-10-29T10:22:40.277</time></trkpt><trkpt lat="55.7346870" lon="49.1595953"><time>2022-10-29T10:22:41.283</time></trkpt><trkpt lat="55.7346755" lon="49.1597016"><time>2022-10-29T10:22:42.287</time></trkpt><trkpt lat="55.7346640" lon="49.1598134"><time>2022-10-29T10:22:43.273</time></trkpt><trkpt lat="55.7346528" lon="49.1599136"><time>2022-10-29T10:22:44.267</time></trkpt><trkpt lat="55.7346360" lon="49.1599990"><time>2022-10-29T10:22:45.283</time></trkpt><trkpt lat="55.7346188" lon="49.1600819"><time>2022-10-29T10:22:46.277</time></trkpt><trkpt lat="55.7346008" lon="49.1601624"><time>2022-10-29T10:22:47.277</time></trkpt><trkpt lat="55.7345839" lon="49.1602396"><time>2022-10-29T10:22:48.280</time></trkpt><trkpt lat="55.7345478" lon="49.1603793"><time>2022-10-29T10:22:50.283</time></trkpt><trkpt lat="55.7345124" lon="49.1605224"><time>2022-10-29T10:22:52.287</time></trkpt><trkpt lat="55.7344981" lon="49.1606008"><time>2022-10-29T10:22:53.280</time></trkpt><trkpt lat="55.7344833" lon="49.1606814"><time>2022-10-29T10:22:54.277</time></trkpt><trkpt lat="55.7344685" lon="49.1607604"><time>2022-10-29T10:22:55.283</time></trkpt><trkpt lat="55.7344463" lon="49.1608988"><time>2022-10-29T10:22:57.277</time></trkpt><trkpt lat="55.7344285" lon="49.1610068"><time>2022-10-29T10:22:59.280</time></trkpt><trkpt lat="55.7343728" lon="49.1610505"><time>2022-10-29T10:23:02.283</time></trkpt><trkpt lat="55.7343174" lon="49.1610446"><time>2022-10-29T10:23:04.273</time></trkpt><trkpt lat="55.7342567" lon="49.1609837"><time>2022-10-29T10:23:06.287</time></trkpt><trkpt lat="55.7341985" lon="49.1609013"><time>2022-10-29T10:23:08.283</time></trkpt><trkpt lat="55.7341338" lon="49.1608403"><time>2022-10-29T10:23:10.267</time></trkpt><trkpt lat="55.7340653" lon="49.1607787"><time>2022-10-29T10:23:12.290</time></trkpt><trkpt lat="55.7339930" lon="49.1607091"><time>2022-10-29T10:23:14.277</time></trkpt><trkpt lat="55.7339190" lon="49.1606552"><time>2022-10-29T10:23:16.273</time></trkpt><trkpt lat="55.7338727" lon="49.1606111"><time>2022-10-29T10:23:18.277</time></trkpt><trkpt lat="55.7338431" lon="49.1606868"><time>2022-10-29T10:23:32.273</time></trkpt><trkpt lat="55.7338144" lon="49.1607977"><time>2022-10-29T10:23:50.283</time></trkpt><trkpt lat="55.7337770" lon="49.1609112"><time>2022-10-29T10:23:52.287</time></trkpt><trkpt lat="55.7337148" lon="49.1609673"><time>2022-10-29T10:23:54.267</time></trkpt><trkpt lat="55.7336430" lon="49.1608797"><time>2022-10-29T10:23:56.273</time></trkpt><trkpt lat="55.7336057" lon="49.1608262"><time>2022-10-29T10:23:57.277</time></trkpt><trkpt lat="55.7335624" lon="49.1607717"><time>2022-10-29T10:23:58.293</time></trkpt><trkpt lat="55.7335149" lon="49.1607206"><time>2022-10-29T10:23:59.277</time></trkpt><trkpt lat="55.7334647" lon="49.1606727"><time>2022-10-29T10:24:00.283</time></trkpt><trkpt lat="55.7334145" lon="49.1606229"><time>2022-10-29T10:24:01.293</time></trkpt><trkpt lat="55.7333636" lon="49.1605652"><time>2022-10-29T10:24:02.287</time></trkpt><trkpt lat="55.7333140" lon="49.1605052"><time>2022-10-29T10:24:03.287</time></trkpt><trkpt lat="55.7332629" lon="49.1604456"><time>2022-10-29T10:24:04.287</time></trkpt><trkpt lat="55.7332100" lon="49.1603843"><time>2022-10-29T10:24:05.280</time></trkpt><trkpt lat="55.7331601" lon="49.1603235"><time>2022-10-29T10:24:06.283</time></trkpt><trkpt lat="55.7331099" lon="49.1602628"><time>2022-10-29T10:24:07.283</time></trkpt><trkpt lat="55.7330551" lon="49.1602021"><time>2022-10-29T10:24:08.273</time></trkpt><trkpt lat="55.7330011" lon="49.1601427"><time>2022-10-29T10:24:09.277</time></trkpt><trkpt lat="55.7329472" lon="49.1600828"><time>2022-10-29T10:24:10.273</time></trkpt><trkpt lat="55.7328919" lon="49.1600185"><time>2022-10-29T10:24:11.277</time></trkpt><trkpt lat="55.7328350" lon="49.1599549"><time>2022-10-29T10:24:12.287</time></trkpt><trkpt lat="55.7327775" lon="49.1598951"><time>2022-10-29T10:24:13.277</time></trkpt><trkpt lat="55.7327197" lon="49.1598384"><time>2022-10-29T10:24:14.270</time></trkpt><trkpt lat="55.7326661" lon="49.1597826"><time>2022-10-29T10:24:15.283</time></trkpt><trkpt lat="55.7326121" lon="49.1597280"><time>2022-10-29T10:24:16.277</time></trkpt><trkpt lat="55.7325559" lon="49.1596745"><time>2022-10-29T10:24:17.273</time></trkpt><trkpt lat="55.7324977" lon="49.1596183"><time>2022-10-29T10:24:18.283</time></trkpt><trkpt lat="55.7324409" lon="49.1595643"><time>2022-10-29T10:24:19.320</time></trkpt><trkpt lat="55.7323842" lon="49.1595161"><time>2022-10-29T10:24:20.283</time></trkpt><trkpt lat="55.7323263" lon="49.1594724"><time>2022-10-29T10:24:21.273</time></trkpt><trkpt lat="55.7322694" lon="49.1594289"><time>2022-10-29T10:24:22.287</time></trkpt><trkpt lat="55.7322122" lon="49.1593864"><time>2022-10-29T10:24:23.273</time></trkpt><trkpt lat="55.7321538" lon="49.1593416"><time>2022-10-29T10:24:24.280</time></trkpt><trkpt lat="55.7320950" lon="49.1592950"><time>2022-10-29T10:24:25.283</time></trkpt><trkpt lat="55.7320373" lon="49.1592497"><time>2022-10-29T10:24:26.270</time></trkpt><trkpt lat="55.7319792" lon="49.1592044"><time>2022-10-29T10:24:27.280</time></trkpt><trkpt lat="55.7319195" lon="49.1591574"><time>2022-10-29T10:24:28.277</time></trkpt><trkpt lat="55.7318607" lon="49.1591112"><time>2022-10-29T10:24:29.270</time></trkpt><trkpt lat="55.7318034" lon="49.1590653"><time>2022-10-29T10:24:30.277</time></trkpt><trkpt lat="55.7317454" lon="49.1590178"><time>2022-10-29T10:24:31.280</time></trkpt><trkpt lat="55.7316875" lon="49.1589694"><time>2022-10-29T10:24:32.287</time></trkpt><trkpt lat="55.7316298" lon="49.1589202"><time>2022-10-29T10:24:33.273</time></trkpt><trkpt lat="55.7315728" lon="49.1588713"><time>2022-10-29T10:24:34.277</time></trkpt><trkpt lat="55.7315168" lon="49.1588266"><time>2022-10-29T10:24:35.287</time></trkpt><trkpt lat="55.7314605" lon="49.1587843"><time>2022-10-29T10:24:36.293</time></trkpt><trkpt lat="55.7314066" lon="49.1587403"><time>2022-10-29T10:24:37.280</time></trkpt><trkpt lat="55.7313602" lon="49.1586897"><time>2022-10-29T10:24:38.293</time></trkpt><trkpt lat="55.7313124" lon="49.1586399"><time>2022-10-29T10:24:39.283</time></trkpt><trkpt lat="55.7312658" lon="49.1585989"><time>2022-10-29T10:24:40.273</time></trkpt><trkpt lat="55.7312150" lon="49.1585624"><time>2022-10-29T10:24:41.273</time></trkpt><trkpt lat="55.7311605" lon="49.1585180"><time>2022-10-29T10:24:42.277</time></trkpt><trkpt lat="55.7311079" lon="49.1584687"><time>2022-10-29T10:24:43.283</time></trkpt><trkpt lat="55.7310556" lon="49.1584197"><time>2022-10-29T10:24:44.263</time></trkpt><trkpt lat="55.7310036" lon="49.1583708"><time>2022-10-29T10:24:45.270</time></trkpt><trkpt lat="55.7309540" lon="49.1583216"><time>2022-10-29T10:24:46.273</time></trkpt><trkpt lat="55.7309040" lon="49.1582763"><time>2022-10-29T10:24:47.277</time></trkpt><trkpt lat="55.7308553" lon="49.1582379"><time>2022-10-29T10:24:48.273</time></trkpt><trkpt lat="55.7308107" lon="49.1582062"><time>2022-10-29T10:24:49.273</time></trkpt><trkpt lat="55.7307643" lon="49.1581863"><time>2022-10-29T10:24:50.273</time></trkpt><trkpt lat="55.7307172" lon="49.1581872"><time>2022-10-29T10:24:51.287</time></trkpt><trkpt lat="55.7306703" lon="49.1582119"><time>2022-10-29T10:24:52.277</time></trkpt><trkpt lat="55.7306264" lon="49.1582542"><time>2022-10-29T10:24:53.270</time></trkpt><trkpt lat="55.7305910" lon="49.1583081"><time>2022-10-29T10:24:54.263</time></trkpt><trkpt lat="55.7305607" lon="49.1584332"><time>2022-10-29T10:24:56.323</time></trkpt><trkpt lat="55.7305625" lon="49.1584765"><time>2022-10-29T10:24:57.283</time></trkpt><trkpt lat="55.7305689" lon="49.1585613"><time>2022-10-29T10:24:59.283</time></trkpt><trkpt lat="55.7305750" lon="49.1586519"><time>2022-10-29T10:25:01.283</time></trkpt><trkpt lat="55.7305852" lon="49.1587452"><time>2022-10-29T10:25:03.280</time></trkpt><trkpt lat="55.7305974" lon="49.1588474"><time>2022-10-29T10:25:05.277</time></trkpt><trkpt lat="55.7305927" lon="49.1589690"><time>2022-10-29T10:25:07.277</time></trkpt><trkpt lat="55.7305886" lon="49.1590899"><time>2022-10-29T10:25:09.283</time></trkpt><trkpt lat="55.7305863" lon="49.1592079"><time>2022-10-29T10:25:11.297</time></trkpt><trkpt lat="55.7305864" lon="49.1592653"><time>2022-10-29T10:25:12.277</time></trkpt><trkpt lat="55.7305826" lon="49.1593899"><time>2022-10-29T10:25:14.280</time></trkpt><trkpt lat="55.7305845" lon="49.1595026"><time>2022-10-29T10:25:16.277</time></trkpt><trkpt lat="55.7305779" lon="49.1595945"><time>2022-10-29T10:25:18.280</time></trkpt><trkpt lat="55.7305554" lon="49.1596887"><time>2022-10-29T10:25:25.280</time></trkpt><trkpt lat="55.7305689" lon="49.1597894"><time>2022-10-29T10:25:28.297</time></trkpt><trkpt lat="55.7305689" lon="49.1597894"><time>2022-10-29T10:25:28.330</time></trkpt><trkpt lat="55.7305403" lon="49.1598611"><time>2022-10-29T10:25:34.313</time></trkpt><trkpt lat="55.7305423" lon="49.1598644"><time>2022-10-29T10:25:35.283</time></trkpt><trkpt lat="55.7305104" lon="49.1599214"><time>2022-10-29T10:25:39.290</time></trkpt><trkpt lat="55.7305093" lon="49.1600104"><time>2022-10-29T10:25:41.277</time></trkpt><trkpt lat="55.7305145" lon="49.1601485"><time>2022-10-29T10:25:43.283</time></trkpt><trkpt lat="55.7305256" lon="49.1602746"><time>2022-10-29T10:25:45.243</time></trkpt><trkpt lat="55.7305359" lon="49.1603799"><time>2022-10-29T10:25:47.243</time></trkpt><trkpt lat="55.7305300" lon="49.1604919"><time>2022-10-29T10:25:49.233</time></trkpt><trkpt lat="55.7305215" lon="49.1605710"><time>2022-10-29T10:26:15.280</time></trkpt><trkpt lat="55.7305167" lon="49.1606586"><time>2022-10-29T10:26:17.280</time></trkpt><trkpt lat="55.7305145" lon="49.1608078"><time>2022-10-29T10:26:19.270</time></trkpt><trkpt lat="55.7305148" lon="49.1608883"><time>2022-10-29T10:26:20.270</time></trkpt><trkpt lat="55.7305102" lon="49.1610261"><time>2022-10-29T10:26:22.277</time></trkpt><trkpt lat="55.7305007" lon="49.1611476"><time>2022-10-29T10:26:24.273</time></trkpt><trkpt lat="55.7304901" lon="49.1612648"><time>2022-10-29T10:26:26.270</time></trkpt><trkpt lat="55.7304891" lon="49.1613857"><time>2022-10-29T10:26:28.263</time></trkpt><trkpt lat="55.7304849" lon="49.1615089"><time>2022-10-29T10:26:30.273</time></trkpt><trkpt lat="55.7304865" lon="49.1616408"><time>2022-10-29T10:26:32.277</time></trkpt><trkpt lat="55.7304880" lon="49.1617757"><time>2022-10-29T10:26:34.273</time></trkpt><trkpt lat="55.7304831" lon="49.1619092"><time>2022-10-29T10:26:36.270</time></trkpt><trkpt lat="55.7304849" lon="49.1620559"><time>2022-10-29T10:26:38.280</time></trkpt><trkpt lat="55.7304814" lon="49.1622000"><time>2022-10-29T10:26:40.273</time></trkpt><trkpt lat="55.7304784" lon="49.1623351"><time>2022-10-29T10:26:42.273</time></trkpt><trkpt lat="55.7304760" lon="49.1624215"><time>2022-10-29T10:26:44.270</time></trkpt><trkpt lat="55.7304717" lon="49.1625340"><time>2022-10-29T10:26:47.270</time></trkpt><trkpt lat="55.7304816" lon="49.1626232"><time>2022-10-29T10:26:49.280</time></trkpt><trkpt lat="55.7304818" lon="49.1627115"><time>2022-10-29T10:26:51.297</time></trkpt><trkpt lat="55.7304766" lon="49.1628099"><time>2022-10-29T10:26:53.270</time></trkpt><trkpt lat="55.7304788" lon="49.1629151"><time>2022-10-29T10:26:55.270</time></trkpt><trkpt lat="55.7304827" lon="49.1630189"><time>2022-10-29T10:26:57.273</time></trkpt><trkpt lat="55.7304753" lon="49.1631261"><time>2022-10-29T10:26:59.273</time></trkpt><trkpt lat="55.7304700" lon="49.1632297"><time>2022-10-29T10:27:01.273</time></trkpt><trkpt lat="55.7304645" lon="49.1633400"><time>2022-10-29T10:27:03.273</time></trkpt><trkpt lat="55.7304650" lon="49.1634499"><time>2022-10-29T10:27:05.277</time></trkpt><trkpt lat="55.7304689" lon="49.1635560"><time>2022-10-29T10:27:07.273</time></trkpt><trkpt lat="55.7304663" lon="49.1636601"><time>2022-10-29T10:27:09.273</time></trkpt><trkpt lat="55.7304542" lon="49.1637639"><time>2022-10-29T10:27:11.277</time></trkpt><trkpt lat="55.7304485" lon="49.1638632"><time>2022-10-29T10:27:13.273</time></trkpt><trkpt lat="55.7304468" lon="49.1639727"><time>2022-10-29T10:27:15.273</time></trkpt><trkpt lat="55.7304409" lon="49.1640894"><time>2022-10-29T10:27:17.273</time></trkpt><trkpt lat="55.7304362" lon="49.1642102"><time>2022-10-29T10:27:19.273</time></trkpt><trkpt lat="55.7304283" lon="49.1643283"><time>2022-10-29T10:27:21.273</time></trkpt><trkpt lat="55.7304174" lon="49.1644500"><time>2022-10-29T10:27:23.273</time></trkpt><trkpt lat="55.7304060" lon="49.1645713"><time>2022-10-29T10:27:25.273</time></trkpt><trkpt lat="55.7303917" lon="49.1646922"><time>2022-10-29T10:27:27.273</time></trkpt><trkpt lat="55.7303754" lon="49.1648081"><time>2022-10-29T10:27:29.270</time></trkpt><trkpt lat="55.7303593" lon="49.1649167"><time>2022-10-29T10:27:31.273</time></trkpt><trkpt lat="55.7303412" lon="49.1650313"><time>2022-10-29T10:27:33.273</time></trkpt><trkpt lat="55.7303320" lon="49.1651505"><time>2022-10-29T10:27:35.277</time></trkpt><trkpt lat="55.7303316" lon="49.1652694"><time>2022-10-29T10:27:37.270</time></trkpt><trkpt lat="55.7303246" lon="49.1653875"><time>2022-10-29T10:27:39.273</time></trkpt><trkpt lat="55.7303213" lon="49.1655099"><time>2022-10-29T10:27:41.270</time></trkpt><trkpt lat="55.7303146" lon="49.1656352"><time>2022-10-29T10:27:43.270</time></trkpt><trkpt lat="55.7303033" lon="49.1657497"><time>2022-10-29T10:27:45.267</time></trkpt><trkpt lat="55.7303080" lon="49.1658659"><time>2022-10-29T10:27:47.253</time></trkpt><trkpt lat="55.7303122" lon="49.1659849"><time>2022-10-29T10:27:49.263</time></trkpt><trkpt lat="55.7303065" lon="49.1660912"><time>2022-10-29T10:27:51.273</time></trkpt><trkpt lat="55.7302971" lon="49.1661844"><time>2022-10-29T10:27:53.280</time></trkpt><trkpt lat="55.7303079" lon="49.1662773"><time>2022-10-29T10:27:56.277</time></trkpt><trkpt lat="55.7303523" lon="49.1663292"><time>2022-10-29T10:28:14.270</time></trkpt><trkpt lat="55.7303914" lon="49.1663872"><time>2022-10-29T10:28:16.263</time></trkpt><trkpt lat="55.7304383" lon="49.1664528"><time>2022-10-29T10:28:18.283</time></trkpt><trkpt lat="55.7304930" lon="49.1665194"><time>2022-10-29T10:28:20.283</time></trkpt><trkpt lat="55.7305581" lon="49.1666060"><time>2022-10-29T10:28:22.263</time></trkpt><trkpt lat="55.7306267" lon="49.1666886"><time>2022-10-29T10:28:24.283</time></trkpt><trkpt lat="55.7306988" lon="49.1667749"><time>2022-10-29T10:28:26.280</time></trkpt><trkpt lat="55.7307368" lon="49.1668287"><time>2022-10-29T10:28:27.260</time></trkpt><trkpt lat="55.7308019" lon="49.1669073"><time>2022-10-29T10:28:29.267</time></trkpt><trkpt lat="55.7308528" lon="49.1669706"><time>2022-10-29T10:28:31.280</time></trkpt><trkpt lat="55.7309172" lon="49.1670580"><time>2022-10-29T10:28:33.280</time></trkpt><trkpt lat="55.7309542" lon="49.1671075"><time>2022-10-29T10:28:34.267</time></trkpt><trkpt lat="55.7309924" lon="49.1671542"><time>2022-10-29T10:28:35.277</time></trkpt><trkpt lat="55.7310627" lon="49.1672449"><time>2022-10-29T10:28:37.277</time></trkpt><trkpt lat="55.7311420" lon="49.1673347"><time>2022-10-29T10:28:39.260</time></trkpt><trkpt lat="55.7311858" lon="49.1673858"><time>2022-10-29T10:28:40.263</time></trkpt><trkpt lat="55.7312275" lon="49.1674384"><time>2022-10-29T10:28:41.270</time></trkpt><trkpt lat="55.7312746" lon="49.1674915"><time>2022-10-29T10:28:42.283</time></trkpt><trkpt lat="55.7313254" lon="49.1675495"><time>2022-10-29T10:28:43.270</time></trkpt><trkpt lat="55.7313768" lon="49.1676091"><time>2022-10-29T10:28:44.270</time></trkpt><trkpt lat="55.7314306" lon="49.1676688"><time>2022-10-29T10:28:45.273</time></trkpt><trkpt lat="55.7314845" lon="49.1677262"><time>2022-10-29T10:28:46.277</time></trkpt><trkpt lat="55.7315347" lon="49.1677856"><time>2022-10-29T10:28:47.270</time></trkpt><trkpt lat="55.7315820" lon="49.1678435"><time>2022-10-29T10:28:48.277</time></trkpt><trkpt lat="55.7316277" lon="49.1678992"><time>2022-10-29T10:28:49.273</time></trkpt><trkpt lat="55.7316718" lon="49.1679552"><time>2022-10-29T10:28:50.277</time></trkpt><trkpt lat="55.7317194" lon="49.1680040"><time>2022-10-29T10:28:51.280</time></trkpt><trkpt lat="55.7317636" lon="49.1680537"><time>2022-10-29T10:28:52.277</time></trkpt><trkpt lat="55.7318083" lon="49.1681066"><time>2022-10-29T10:28:53.270</time></trkpt><trkpt lat="55.7318518" lon="49.1681584"><time>2022-10-29T10:28:54.273</time></trkpt><trkpt lat="55.7318918" lon="49.1682054"><time>2022-10-29T10:28:55.270</time></trkpt><trkpt lat="55.7319586" lon="49.1682978"><time>2022-10-29T10:28:57.273</time></trkpt><trkpt lat="55.7320244" lon="49.1683970"><time>2022-10-29T10:28:59.270</time></trkpt><trkpt lat="55.7320898" lon="49.1684845"><time>2022-10-29T10:29:01.273</time></trkpt><trkpt lat="55.7321484" lon="49.1685562"><time>2022-10-29T10:29:03.277</time></trkpt><trkpt lat="55.7322098" lon="49.1686409"><time>2022-10-29T10:29:05.270</time></trkpt><trkpt lat="55.7322791" lon="49.1687327"><time>2022-10-29T10:29:07.270</time></trkpt><trkpt lat="55.7323142" lon="49.1687827"><time>2022-10-29T10:29:08.260</time></trkpt><trkpt lat="55.7323811" lon="49.1688795"><time>2022-10-29T10:29:10.257</time></trkpt><trkpt lat="55.7324520" lon="49.1689775"><time>2022-10-29T10:29:12.260</time></trkpt><trkpt lat="55.7324933" lon="49.1690311"><time>2022-10-29T10:29:13.270</time></trkpt><trkpt lat="55.7325348" lon="49.1690852"><time>2022-10-29T10:29:14.263</time></trkpt><trkpt lat="55.7325771" lon="49.1691382"><time>2022-10-29T10:29:15.273</time></trkpt><trkpt lat="55.7326203" lon="49.1691911"><time>2022-10-29T10:29:16.273</time></trkpt><trkpt lat="55.7326653" lon="49.1692454"><time>2022-10-29T10:29:17.270</time></trkpt><trkpt lat="55.7327100" lon="49.1693001"><time>2022-10-29T10:29:18.273</time></trkpt><trkpt lat="55.7327481" lon="49.1693587"><time>2022-10-29T10:29:19.273</time></trkpt><trkpt lat="55.7327873" lon="49.1694178"><time>2022-10-29T10:29:20.273</time></trkpt><trkpt lat="55.7328330" lon="49.1694790"><time>2022-10-29T10:29:21.280</time></trkpt><trkpt lat="55.7328810" lon="49.1695405"><time>2022-10-29T10:29:22.270</time></trkpt><trkpt lat="55.7329296" lon="49.1696018"><time>2022-10-29T10:29:23.273</time></trkpt><trkpt lat="55.7329797" lon="49.1696687"><time>2022-10-29T10:29:24.280</time></trkpt><trkpt lat="55.7330311" lon="49.1697321"><time>2022-10-29T10:29:25.283</time></trkpt><trkpt lat="55.7330786" lon="49.1697896"><time>2022-10-29T10:29:26.287</time></trkpt><trkpt lat="55.7331256" lon="49.1698453"><time>2022-10-29T10:29:27.277</time></trkpt><trkpt lat="55.7331695" lon="49.1699002"><time>2022-10-29T10:29:28.267</time></trkpt><trkpt lat="55.7332120" lon="49.1699561"><time>2022-10-29T10:29:29.257</time></trkpt><trkpt lat="55.7332570" lon="49.1700153"><time>2022-10-29T10:29:30.273</time></trkpt><trkpt lat="55.7333010" lon="49.1700733"><time>2022-10-29T10:29:31.283</time></trkpt><trkpt lat="55.7333451" lon="49.1701286"><time>2022-10-29T10:29:32.280</time></trkpt><trkpt lat="55.7333875" lon="49.1701790"><time>2022-10-29T10:29:33.277</time></trkpt><trkpt lat="55.7334344" lon="49.1702345"><time>2022-10-29T10:29:34.270</time></trkpt><trkpt lat="55.7334824" lon="49.1702909"><time>2022-10-29T10:29:35.277</time></trkpt><trkpt lat="55.7335261" lon="49.1703455"><time>2022-10-29T10:29:36.270</time></trkpt><trkpt lat="55.7335719" lon="49.1704026"><time>2022-10-29T10:29:37.273</time></trkpt><trkpt lat="55.7336192" lon="49.1704618"><time>2022-10-29T10:29:38.277</time></trkpt><trkpt lat="55.7336695" lon="49.1705221"><time>2022-10-29T10:29:39.277</time></trkpt><trkpt lat="55.7337156" lon="49.1705799"><time>2022-10-29T10:29:40.287</time></trkpt><trkpt lat="55.7337632" lon="49.1706394"><time>2022-10-29T10:29:41.270</time></trkpt><trkpt lat="55.7338103" lon="49.1707010"><time>2022-10-29T10:29:42.277</time></trkpt><trkpt lat="55.7338534" lon="49.1707630"><time>2022-10-29T10:29:43.273</time></trkpt><trkpt lat="55.7339015" lon="49.1708236"><time>2022-10-29T10:29:44.273</time></trkpt><trkpt lat="55.7339511" lon="49.1708819"><time>2022-10-29T10:29:45.280</time></trkpt><trkpt lat="55.7339991" lon="49.1709409"><time>2022-10-29T10:29:46.270</time></trkpt><trkpt lat="55.7340444" lon="49.1710005"><time>2022-10-29T10:29:47.277</time></trkpt><trkpt lat="55.7340871" lon="49.1710625"><time>2022-10-29T10:29:48.273</time></trkpt><trkpt lat="55.7341302" lon="49.1711210"><time>2022-10-29T10:29:49.260</time></trkpt><trkpt lat="55.7341747" lon="49.1711763"><time>2022-10-29T10:29:50.270</time></trkpt><trkpt lat="55.7342156" lon="49.1712294"><time>2022-10-29T10:29:51.273</time></trkpt><trkpt lat="55.7342595" lon="49.1712810"><time>2022-10-29T10:29:52.277</time></trkpt><trkpt lat="55.7343048" lon="49.1713337"><time>2022-10-29T10:29:53.277</time></trkpt><trkpt lat="55.7343491" lon="49.1713869"><time>2022-10-29T10:29:54.277</time></trkpt><trkpt lat="55.7343927" lon="49.1714396"><time>2022-10-29T10:29:55.280</time></trkpt><trkpt lat="55.7344392" lon="49.1714965"><time>2022-10-29T10:29:56.267</time></trkpt><trkpt lat="55.7344843" lon="49.1715545"><time>2022-10-29T10:29:57.307</time></trkpt><trkpt lat="55.7345260" lon="49.1716126"><time>2022-10-29T10:29:58.280</time></trkpt><trkpt lat="55.7345675" lon="49.1716690"><time>2022-10-29T10:29:59.277</time></trkpt><trkpt lat="55.7346078" lon="49.1717188"><time>2022-10-29T10:30:00.277</time></trkpt><trkpt lat="55.7346528" lon="49.1717632"><time>2022-10-29T10:30:01.283</time></trkpt><trkpt lat="55.7347018" lon="49.1718060"><time>2022-10-29T10:30:02.277</time></trkpt><trkpt lat="55.7347503" lon="49.1718571"><time>2022-10-29T10:30:03.273</time></trkpt><trkpt lat="55.7347988" lon="49.1719186"><time>2022-10-29T10:30:04.280</time></trkpt><trkpt lat="55.7348424" lon="49.1719830"><time>2022-10-29T10:30:05.277</time></trkpt><trkpt lat="55.7348830" lon="49.1720432"><time>2022-10-29T10:30:06.280</time></trkpt><trkpt lat="55.7349205" lon="49.1720986"><time>2022-10-29T10:30:07.273</time></trkpt><trkpt lat="55.7349573" lon="49.1721522"><time>2022-10-29T10:30:08.283</time></trkpt><trkpt lat="55.7349946" lon="49.1722023"><time>2022-10-29T10:30:09.270</time></trkpt><trkpt lat="55.7350630" lon="49.1722939"><time>2022-10-29T10:30:11.280</time></trkpt><trkpt lat="55.7351003" lon="49.1723409"><time>2022-10-29T10:30:12.283</time></trkpt><trkpt lat="55.7351402" lon="49.1723935"><time>2022-10-29T10:30:13.277</time></trkpt><trkpt lat="55.7351821" lon="49.1724520"><time>2022-10-29T10:30:14.273</time></trkpt><trkpt lat="55.7352226" lon="49.1725085"><time>2022-10-29T10:30:15.280</time></trkpt><trkpt lat="55.7352651" lon="49.1725615"><time>2022-10-29T10:30:16.277</time></trkpt><trkpt lat="55.7353083" lon="49.1726096"><time>2022-10-29T10:30:17.267</time></trkpt><trkpt lat="55.7353511" lon="49.1726560"><time>2022-10-29T10:30:18.287</time></trkpt><trkpt lat="55.7353970" lon="49.1726959"><time>2022-10-29T10:30:19.277</time></trkpt><trkpt lat="55.7354430" lon="49.1727392"><time>2022-10-29T10:30:20.280</time></trkpt><trkpt lat="55.7354851" lon="49.1727854"><time>2022-10-29T10:30:21.277</time></trkpt><trkpt lat="55.7355223" lon="49.1728368"><time>2022-10-29T10:30:22.270</time></trkpt><trkpt lat="55.7355762" lon="49.1729200"><time>2022-10-29T10:30:24.267</time></trkpt><trkpt lat="55.7356282" lon="49.1728883"><time>2022-10-29T10:30:26.343</time></trkpt><trkpt lat="55.7356519" lon="49.1728390"><time>2022-10-29T10:30:27.290</time></trkpt><trkpt lat="55.7357036" lon="49.1727157"><time>2022-10-29T10:30:29.283</time></trkpt><trkpt lat="55.7357308" lon="49.1726519"><time>2022-10-29T10:30:30.287</time></trkpt><trkpt lat="55.7357616" lon="49.1725910"><time>2022-10-29T10:30:31.290</time></trkpt><trkpt lat="55.7357954" lon="49.1725307"><time>2022-10-29T10:30:32.283</time></trkpt><trkpt lat="55.7358307" lon="49.1724684"><time>2022-10-29T10:30:33.277</time></trkpt><trkpt lat="55.7358681" lon="49.1724022"><time>2022-10-29T10:30:34.280</time></trkpt><trkpt lat="55.7359064" lon="49.1723327"><time>2022-10-29T10:30:35.297</time></trkpt><trkpt lat="55.7359461" lon="49.1722602"><time>2022-10-29T10:30:36.323</time></trkpt><trkpt lat="55.7359847" lon="49.1721881"><time>2022-10-29T10:30:37.277</time></trkpt><trkpt lat="55.7360224" lon="49.1721185"><time>2022-10-29T10:30:38.273</time></trkpt><trkpt lat="55.7360586" lon="49.1720546"><time>2022-10-29T10:30:39.277</time></trkpt><trkpt lat="55.7360930" lon="49.1719926"><time>2022-10-29T10:30:40.283</time></trkpt><trkpt lat="55.7361284" lon="49.1719294"><time>2022-10-29T10:30:41.307</time></trkpt><trkpt lat="55.7361284" lon="49.1719294"><time>2022-10-29T10:30:41.350</time></trkpt><trkpt lat="55.7361638" lon="49.1718603"><time>2022-10-29T10:30:42.327</time></trkpt><trkpt lat="55.7361973" lon="49.1717942"><time>2022-10-29T10:30:43.280</time></trkpt><trkpt lat="55.7362276" lon="49.1717312"><time>2022-10-29T10:30:44.283</time></trkpt><trkpt lat="55.7362600" lon="49.1716666"><time>2022-10-29T10:30:45.290</time></trkpt><trkpt lat="55.7362932" lon="49.1715974"><time>2022-10-29T10:30:46.287</time></trkpt><trkpt lat="55.7363200" lon="49.1715273"><time>2022-10-29T10:30:47.277</time></trkpt><trkpt lat="55.7363441" lon="49.1714512"><time>2022-10-29T10:30:48.280</time></trkpt><trkpt lat="55.7363719" lon="49.1713781"><time>2022-10-29T10:30:49.283</time></trkpt><trkpt lat="55.7364042" lon="49.1713149"><time>2022-10-29T10:30:50.277</time></trkpt><trkpt lat="55.7364710" lon="49.1712097"><time>2022-10-29T10:30:52.293</time></trkpt><trkpt lat="55.7365371" lon="49.1711234"><time>2022-10-29T10:30:54.277</time></trkpt><trkpt lat="55.7366005" lon="49.1710138"><time>2022-10-29T10:30:56.283</time></trkpt><trkpt lat="55.7366335" lon="49.1709428"><time>2022-10-29T10:30:57.290</time></trkpt><trkpt lat="55.7366653" lon="49.1708700"><time>2022-10-29T10:30:58.280</time></trkpt><trkpt lat="55.7366996" lon="49.1708044"><time>2022-10-29T10:30:59.277</time></trkpt><trkpt lat="55.7367338" lon="49.1707410"><time>2022-10-29T10:31:00.290</time></trkpt><trkpt lat="55.7367686" lon="49.1706791"><time>2022-10-29T10:31:01.270</time></trkpt><trkpt lat="55.7368033" lon="49.1706209"><time>2022-10-29T10:31:02.283</time></trkpt><trkpt lat="55.7368674" lon="49.1705117"><time>2022-10-29T10:31:04.280</time></trkpt><trkpt lat="55.7369017" lon="49.1704594"><time>2022-10-29T10:31:05.287</time></trkpt><trkpt lat="55.7369331" lon="49.1704023"><time>2022-10-29T10:31:06.290</time></trkpt><trkpt lat="55.7369673" lon="49.1703393"><time>2022-10-29T10:31:07.270</time></trkpt><trkpt lat="55.7370021" lon="49.1702770"><time>2022-10-29T10:31:08.273</time></trkpt><trkpt lat="55.7370396" lon="49.1702174"><time>2022-10-29T10:31:09.273</time></trkpt><trkpt lat="55.7370795" lon="49.1701575"><time>2022-10-29T10:31:10.263</time></trkpt><trkpt lat="55.7371172" lon="49.1700972"><time>2022-10-29T10:31:11.263</time></trkpt><trkpt lat="55.7371542" lon="49.1700312"><time>2022-10-29T10:31:12.283</time></trkpt><trkpt lat="55.7371929" lon="49.1699504"><time>2022-10-29T10:31:13.297</time></trkpt><trkpt lat="55.7372283" lon="49.1698623"><time>2022-10-29T10:31:14.287</time></trkpt><trkpt lat="55.7372603" lon="49.1697699"><time>2022-10-29T10:31:15.277</time></trkpt><trkpt lat="55.7372929" lon="49.1696738"><time>2022-10-29T10:31:16.283</time></trkpt><trkpt lat="55.7373254" lon="49.1695778"><time>2022-10-29T10:31:17.283</time></trkpt><trkpt lat="55.7373608" lon="49.1694860"><time>2022-10-29T10:31:18.267</time></trkpt><trkpt lat="55.7374019" lon="49.1694022"><time>2022-10-29T10:31:19.280</time></trkpt><trkpt lat="55.7374488" lon="49.1693194"><time>2022-10-29T10:31:20.277</time></trkpt><trkpt lat="55.7374963" lon="49.1692369"><time>2022-10-29T10:31:21.263</time></trkpt><trkpt lat="55.7375435" lon="49.1691566"><time>2022-10-29T10:31:22.287</time></trkpt><trkpt lat="55.7375923" lon="49.1690773"><time>2022-10-29T10:31:23.277</time></trkpt><trkpt lat="55.7376402" lon="49.1689978"><time>2022-10-29T10:31:24.280</time></trkpt><trkpt lat="55.7376899" lon="49.1689190"><time>2022-10-29T10:31:25.280</time></trkpt><trkpt lat="55.7377397" lon="49.1688416"><time>2022-10-29T10:31:26.280</time></trkpt><trkpt lat="55.7377888" lon="49.1687631"><time>2022-10-29T10:31:27.280</time></trkpt><trkpt lat="55.7378356" lon="49.1686812"><time>2022-10-29T10:31:28.280</time></trkpt><trkpt lat="55.7378823" lon="49.1685971"><time>2022-10-29T10:31:29.277</time></trkpt><trkpt lat="55.7379314" lon="49.1685110"><time>2022-10-29T10:31:30.283</time></trkpt><trkpt lat="55.7379806" lon="49.1684237"><time>2022-10-29T10:31:31.287</time></trkpt><trkpt lat="55.7380316" lon="49.1683385"><time>2022-10-29T10:31:32.283</time></trkpt><trkpt lat="55.7380819" lon="49.1682536"><time>2022-10-29T10:31:33.267</time></trkpt><trkpt lat="55.7381278" lon="49.1681635"><time>2022-10-29T10:31:34.280</time></trkpt><trkpt lat="55.7381735" lon="49.1680647"><time>2022-10-29T10:31:35.273</time></trkpt><trkpt lat="55.7382214" lon="49.1679601"><time>2022-10-29T10:31:36.283</time></trkpt><trkpt lat="55.7382713" lon="49.1678605"><time>2022-10-29T10:31:37.270</time></trkpt><trkpt lat="55.7383204" lon="49.1677513"><time>2022-10-29T10:31:38.277</time></trkpt><trkpt lat="55.7383655" lon="49.1676333"><time>2022-10-29T10:31:39.277</time></trkpt><trkpt lat="55.7384063" lon="49.1675173"><time>2022-10-29T10:31:40.283</time></trkpt><trkpt lat="55.7384333" lon="49.1673976"><time>2022-10-29T10:31:41.273</time></trkpt><trkpt lat="55.7384423" lon="49.1672783"><time>2022-10-29T10:31:42.290</time></trkpt><trkpt lat="55.7384329" lon="49.1671649"><time>2022-10-29T10:31:43.280</time></trkpt><trkpt lat="55.7384094" lon="49.1670635"><time>2022-10-29T10:31:44.277</time></trkpt><trkpt lat="55.7383800" lon="49.1669700"><time>2022-10-29T10:31:45.277</time></trkpt><trkpt lat="55.7383501" lon="49.1668826"><time>2022-10-29T10:31:46.287</time></trkpt><trkpt lat="55.7383127" lon="49.1667967"><time>2022-10-29T10:31:47.283</time></trkpt><trkpt lat="55.7382699" lon="49.1667055"><time>2022-10-29T10:31:48.277</time></trkpt><trkpt lat="55.7382307" lon="49.1666129"><time>2022-10-29T10:31:49.277</time></trkpt><trkpt lat="55.7381962" lon="49.1665235"><time>2022-10-29T10:31:50.280</time></trkpt><trkpt lat="55.7381662" lon="49.1664360"><time>2022-10-29T10:31:51.280</time></trkpt><trkpt lat="55.7381319" lon="49.1663464"><time>2022-10-29T10:31:52.277</time></trkpt><trkpt lat="55.7380960" lon="49.1662586"><time>2022-10-29T10:31:53.277</time></trkpt><trkpt lat="55.7380581" lon="49.1661710"><time>2022-10-29T10:31:54.287</time></trkpt><trkpt lat="55.7380229" lon="49.1660842"><time>2022-10-29T10:31:55.283</time></trkpt><trkpt lat="55.7379895" lon="49.1660003"><time>2022-10-29T10:31:56.260</time></trkpt><trkpt lat="55.7379563" lon="49.1659171"><time>2022-10-29T10:31:57.287</time></trkpt><trkpt lat="55.7379211" lon="49.1658328"><time>2022-10-29T10:31:58.287</time></trkpt><trkpt lat="55.7378874" lon="49.1657458"><time>2022-10-29T10:31:59.293</time></trkpt><trkpt lat="55.7378530" lon="49.1656590"><time>2022-10-29T10:32:00.273</time></trkpt><trkpt lat="55.7378154" lon="49.1655720"><time>2022-10-29T10:32:01.280</time></trkpt><trkpt lat="55.7377772" lon="49.1654821"><time>2022-10-29T10:32:02.290</time></trkpt><trkpt lat="55.7377404" lon="49.1653885"><time>2022-10-29T10:32:03.280</time></trkpt><trkpt lat="55.7377070" lon="49.1652883"><time>2022-10-29T10:32:04.280</time></trkpt><trkpt lat="55.7376724" lon="49.1651838"><time>2022-10-29T10:32:05.283</time></trkpt><trkpt lat="55.7376379" lon="49.1650765"><time>2022-10-29T10:32:06.283</time></trkpt><trkpt lat="55.7376023" lon="49.1649671"><time>2022-10-29T10:32:07.283</time></trkpt><trkpt lat="55.7375661" lon="49.1648532"><time>2022-10-29T10:32:08.277</time></trkpt><trkpt lat="55.7375292" lon="49.1647348"><time>2022-10-29T10:32:09.273</time></trkpt><trkpt lat="55.7374898" lon="49.1646147"><time>2022-10-29T10:32:10.287</time></trkpt><trkpt lat="55.7374535" lon="49.1644875"><time>2022-10-29T10:32:11.293</time></trkpt><trkpt lat="55.7374180" lon="49.1643547"><time>2022-10-29T10:32:12.280</time></trkpt><trkpt lat="55.7373844" lon="49.1642253"><time>2022-10-29T10:32:13.273</time></trkpt><trkpt lat="55.7373611" lon="49.1641016"><time>2022-10-29T10:32:14.287</time></trkpt><trkpt lat="55.7373498" lon="49.1639921"><time>2022-10-29T10:32:15.283</time></trkpt><trkpt lat="55.7373481" lon="49.1638985"><time>2022-10-29T10:32:16.277</time></trkpt><trkpt lat="55.7373656" lon="49.1637665"><time>2022-10-29T10:32:18.277</time></trkpt><trkpt lat="55.7374127" lon="49.1636541"><time>2022-10-29T10:32:20.287</time></trkpt><trkpt lat="55.7374455" lon="49.1635905"><time>2022-10-29T10:32:21.287</time></trkpt><trkpt lat="55.7374794" lon="49.1635262"><time>2022-10-29T10:32:22.293</time></trkpt><trkpt lat="55.7375087" lon="49.1634648"><time>2022-10-29T10:32:23.267</time></trkpt><trkpt lat="55.7375545" lon="49.1633536"><time>2022-10-29T10:32:25.273</time></trkpt><trkpt lat="55.7376011" lon="49.1632402"><time>2022-10-29T10:32:27.283</time></trkpt><trkpt lat="55.7376464" lon="49.1631178"><time>2022-10-29T10:32:29.247</time></trkpt><trkpt lat="55.7376644" lon="49.1630122"><time>2022-10-29T10:32:31.277</time></trkpt><trkpt lat="55.7376711" lon="49.1629056"><time>2022-10-29T10:32:33.277</time></trkpt><trkpt lat="55.7376430" lon="49.1628433"><time>2022-10-29T10:32:35.277</time></trkpt><trkpt lat="55.7375807" lon="49.1628127"><time>2022-10-29T10:32:37.253</time></trkpt><trkpt lat="55.7374949" lon="49.1627561"><time>2022-10-29T10:32:39.263</time></trkpt><trkpt lat="55.7374258" lon="49.1627041"><time>2022-10-29T10:32:41.283</time></trkpt><trkpt lat="55.7375044" lon="49.1626952"><time>2022-10-29T10:32:47.283</time></trkpt><trkpt lat="55.7375811" lon="49.1626391"><time>2022-10-29T10:32:49.263</time></trkpt><trkpt lat="55.7376156" lon="49.1625772"><time>2022-10-29T10:32:50.277</time></trkpt><trkpt lat="55.7376533" lon="49.1625016"><time>2022-10-29T10:32:51.270</time></trkpt><trkpt lat="55.7376895" lon="49.1624305"><time>2022-10-29T10:32:52.290</time></trkpt><trkpt lat="55.7377252" lon="49.1623616"><time>2022-10-29T10:32:53.257</time></trkpt><trkpt lat="55.7377591" lon="49.1622931"><time>2022-10-29T10:32:54.280</time></trkpt><trkpt lat="55.7377885" lon="49.1622207"><time>2022-10-29T10:32:55.267</time></trkpt><trkpt lat="55.7378128" lon="49.1621396"><time>2022-10-29T10:32:56.267</time></trkpt><trkpt lat="55.7378313" lon="49.1620589"><time>2022-10-29T10:32:57.287</time></trkpt><trkpt lat="55.7378533" lon="49.1619151"><time>2022-10-29T10:32:59.280</time></trkpt><trkpt lat="55.7378788" lon="49.1618044"><time>2022-10-29T10:33:01.287</time></trkpt><trkpt lat="55.7378963" lon="49.1616757"><time>2022-10-29T10:33:03.283</time></trkpt><trkpt lat="55.7379431" lon="49.1615880"><time>2022-10-29T10:33:05.297</time></trkpt><trkpt lat="55.7380040" lon="49.1615184"><time>2022-10-29T10:33:07.270</time></trkpt><trkpt lat="55.7380575" lon="49.1614538"><time>2022-10-29T10:33:09.273</time></trkpt><trkpt lat="55.7381053" lon="49.1614002"><time>2022-10-29T10:33:11.280</time></trkpt><trkpt lat="55.7381566" lon="49.1613496"><time>2022-10-29T10:33:13.273</time></trkpt><trkpt lat="55.7381903" lon="49.1612936"><time>2022-10-29T10:33:15.287</time></trkpt><trkpt lat="55.7382229" lon="49.1612173"><time>2022-10-29T10:33:35.287</time></trkpt><trkpt lat="55.7382560" lon="49.1611439"><time>2022-10-29T10:33:37.290</time></trkpt><trkpt lat="55.7383077" lon="49.1610151"><time>2022-10-29T10:33:39.277</time></trkpt><trkpt lat="55.7383358" lon="49.1609470"><time>2022-10-29T10:33:40.283</time></trkpt><trkpt lat="55.7383694" lon="49.1608859"><time>2022-10-29T10:33:41.277</time></trkpt><trkpt lat="55.7384076" lon="49.1608397"><time>2022-10-29T10:33:42.307</time></trkpt><trkpt lat="55.7384864" lon="49.1607691"><time>2022-10-29T10:33:44.283</time></trkpt><trkpt lat="55.7385340" lon="49.1607438"><time>2022-10-29T10:33:45.287</time></trkpt><trkpt lat="55.7385821" lon="49.1607235"><time>2022-10-29T10:33:46.303</time></trkpt><trkpt lat="55.7386350" lon="49.1606978"><time>2022-10-29T10:33:47.297</time></trkpt><trkpt lat="55.7386918" lon="49.1606655"><time>2022-10-29T10:33:48.293</time></trkpt><trkpt lat="55.7387493" lon="49.1606317"><time>2022-10-29T10:33:49.307</time></trkpt><trkpt lat="55.7388053" lon="49.1605954"><time>2022-10-29T10:33:50.287</time></trkpt><trkpt lat="55.7388636" lon="49.1605532"><time>2022-10-29T10:33:51.287</time></trkpt><trkpt lat="55.7389217" lon="49.1605033"><time>2022-10-29T10:33:52.283</time></trkpt><trkpt lat="55.7389747" lon="49.1604449"><time>2022-10-29T10:33:53.287</time></trkpt><trkpt lat="55.7390257" lon="49.1603728"><time>2022-10-29T10:33:54.280</time></trkpt><trkpt lat="55.7390696" lon="49.1602911"><time>2022-10-29T10:33:55.290</time></trkpt><trkpt lat="55.7390970" lon="49.1601994"><time>2022-10-29T10:33:56.287</time></trkpt><trkpt lat="55.7391024" lon="49.1600998"><time>2022-10-29T10:33:57.287</time></trkpt><trkpt lat="55.7390856" lon="49.1600041"><time>2022-10-29T10:33:58.290</time></trkpt><trkpt lat="55.7390580" lon="49.1599118"><time>2022-10-29T10:33:59.283</time></trkpt><trkpt lat="55.7390258" lon="49.1598244"><time>2022-10-29T10:34:00.270</time></trkpt><trkpt lat="55.7390035" lon="49.1597359"><time>2022-10-29T10:34:01.293</time></trkpt><trkpt lat="55.7389870" lon="49.1596606"><time>2022-10-29T10:34:02.277</time></trkpt><trkpt lat="55.7390017" lon="49.1595838"><time>2022-10-29T10:34:06.300</time></trkpt><trkpt lat="55.7390460" lon="49.1595278"><time>2022-10-29T10:34:10.300</time></trkpt><trkpt lat="55.7390876" lon="49.1594789"><time>2022-10-29T10:34:18.297</time></trkpt><trkpt lat="55.7391228" lon="49.1594258"><time>2022-10-29T10:34:23.267</time></trkpt><trkpt lat="55.7391195" lon="49.1593328"><time>2022-10-29T10:34:27.277</time></trkpt><trkpt lat="55.7391463" lon="49.1592435"><time>2022-10-29T10:34:32.267</time></trkpt><trkpt lat="55.7391882" lon="49.1591950"><time>2022-10-29T10:34:37.283</time></trkpt><trkpt lat="55.7392418" lon="49.1592054"><time>2022-10-29T10:34:45.273</time></trkpt><trkpt lat="55.7393036" lon="49.1592686"><time>2022-10-29T10:34:47.277</time></trkpt><trkpt lat="55.7393669" lon="49.1593238"><time>2022-10-29T10:34:49.287</time></trkpt><trkpt lat="55.7394324" lon="49.1593514"><time>2022-10-29T10:34:51.263</time></trkpt><trkpt lat="55.7394760" lon="49.1593903"><time>2022-10-29T10:34:53.283</time></trkpt><trkpt lat="55.7395232" lon="49.1594146"><time>2022-10-29T10:34:57.280</time></trkpt><trkpt lat="55.7395749" lon="49.1594484"><time>2022-10-29T10:35:02.303</time></trkpt><trkpt lat="55.7395853" lon="49.1594559"><time>2022-10-29T10:35:03.287</time></trkpt><trkpt lat="55.7396300" lon="49.1595014"><time>2022-10-29T10:35:06.283</time></trkpt><trkpt lat="55.7396873" lon="49.1595379"><time>2022-10-29T10:35:07.287</time></trkpt><trkpt lat="55.7397394" lon="49.1595868"><time>2022-10-29T10:35:09.270</time></trkpt><trkpt lat="55.7397874" lon="49.1596301"><time>2022-10-29T10:35:11.277</time></trkpt><trkpt lat="55.7398933" lon="49.1597284"><time>2022-10-29T10:35:13.287</time></trkpt><trkpt lat="55.7399726" lon="49.1597841"><time>2022-10-29T10:35:15.320</time></trkpt><trkpt lat="55.7400071" lon="49.1598142"><time>2022-10-29T10:35:16.290</time></trkpt><trkpt lat="55.7400715" lon="49.1598486"><time>2022-10-29T10:35:18.280</time></trkpt><trkpt lat="55.7401417" lon="49.1598828"><time>2022-10-29T10:35:20.280</time></trkpt><trkpt lat="55.7402083" lon="49.1599424"><time>2022-10-29T10:35:22.290</time></trkpt><trkpt lat="55.7402528" lon="49.1599789"><time>2022-10-29T10:35:24.277</time></trkpt><trkpt lat="55.7402968" lon="49.1600245"><time>2022-10-29T10:35:32.267</time></trkpt><trkpt lat="55.7403389" lon="49.1600631"><time>2022-10-29T10:35:34.283</time></trkpt><trkpt lat="55.7403875" lon="49.1600826"><time>2022-10-29T10:35:36.267</time></trkpt><trkpt lat="55.7404233" lon="49.1600304"><time>2022-10-29T10:35:39.293</time></trkpt><trkpt lat="55.7404233" lon="49.1600304"><time>2022-10-29T10:35:39.337</time></trkpt><trkpt lat="55.7404163" lon="49.1599479"><time>2022-10-29T10:35:42.330</time></trkpt><trkpt lat="55.7404131" lon="49.1599608"><time>2022-10-29T10:35:43.247</time></trkpt><trkpt lat="55.7404057" lon="49.1600645"><time>2022-10-29T10:35:47.277</time></trkpt><trkpt lat="55.7404635" lon="49.1601055"><time>2022-10-29T10:37:54.283</time></trkpt><trkpt lat="55.7405131" lon="49.1601379"><time>2022-10-29T10:37:57.273</time></trkpt><trkpt lat="55.7405813" lon="49.1601863"><time>2022-10-29T10:38:08.277</time></trkpt><trkpt lat="55.7406196" lon="49.1602560"><time>2022-10-29T10:38:10.260</time></trkpt><trkpt lat="55.7405868" lon="49.1603471"><time>2022-10-29T10:38:15.280</time></trkpt><trkpt lat="55.7405791" lon="49.1604378"><time>2022-10-29T10:38:19.283</time></trkpt><trkpt lat="55.7406173" lon="49.1605133"><time>2022-10-29T10:38:23.283</time></trkpt><trkpt lat="55.7406666" lon="49.1605907"><time>2022-10-29T10:38:25.280</time></trkpt><trkpt lat="55.7407388" lon="49.1606433"><time>2022-10-29T10:38:27.283</time></trkpt><trkpt lat="55.7408274" lon="49.1606888"><time>2022-10-29T10:38:29.273</time></trkpt><trkpt lat="55.7408753" lon="49.1607129"><time>2022-10-29T10:38:30.277</time></trkpt><trkpt lat="55.7409268" lon="49.1607374"><time>2022-10-29T10:38:31.273</time></trkpt><trkpt lat="55.7409766" lon="49.1607671"><time>2022-10-29T10:38:32.277</time></trkpt><trkpt lat="55.7410294" lon="49.1608011"><time>2022-10-29T10:38:33.277</time></trkpt><trkpt lat="55.7410823" lon="49.1608353"><time>2022-10-29T10:38:34.273</time></trkpt><trkpt lat="55.7411343" lon="49.1608676"><time>2022-10-29T10:38:35.273</time></trkpt><trkpt lat="55.7411854" lon="49.1608932"><time>2022-10-29T10:38:36.277</time></trkpt><trkpt lat="55.7412366" lon="49.1609191"><time>2022-10-29T10:38:37.273</time></trkpt><trkpt lat="55.7412879" lon="49.1609490"><time>2022-10-29T10:38:38.273</time></trkpt><trkpt lat="55.7413410" lon="49.1609788"><time>2022-10-29T10:38:39.273</time></trkpt><trkpt lat="55.7413950" lon="49.1610115"><time>2022-10-29T10:38:40.273</time></trkpt><trkpt lat="55.7414503" lon="49.1610431"><time>2022-10-29T10:38:41.280</time></trkpt><trkpt lat="55.7415050" lon="49.1610753"><time>2022-10-29T10:38:42.280</time></trkpt><trkpt lat="55.7415595" lon="49.1611117"><time>2022-10-29T10:38:43.273</time></trkpt><trkpt lat="55.7416181" lon="49.1611500"><time>2022-10-29T10:38:44.273</time></trkpt><trkpt lat="55.7416770" lon="49.1611881"><time>2022-10-29T10:38:45.277</time></trkpt><trkpt lat="55.7417334" lon="49.1612245"><time>2022-10-29T10:38:46.277</time></trkpt><trkpt lat="55.7417920" lon="49.1612607"><time>2022-10-29T10:38:47.277</time></trkpt><trkpt lat="55.7418520" lon="49.1612955"><time>2022-10-29T10:38:48.277</time></trkpt><trkpt lat="55.7419108" lon="49.1613294"><time>2022-10-29T10:38:49.277</time></trkpt><trkpt lat="55.7419669" lon="49.1613631"><time>2022-10-29T10:38:50.277</time></trkpt><trkpt lat="55.7420214" lon="49.1613975"><time>2022-10-29T10:38:51.257</time></trkpt><trkpt lat="55.7420714" lon="49.1614270"><time>2022-10-29T10:38:52.270</time></trkpt><trkpt lat="55.7421203" lon="49.1614545"><time>2022-10-29T10:38:53.247</time></trkpt><trkpt lat="55.7421685" lon="49.1614819"><time>2022-10-29T10:38:54.277</time></trkpt><trkpt lat="55.7422187" lon="49.1615090"><time>2022-10-29T10:38:55.250</time></trkpt><trkpt lat="55.7422697" lon="49.1615362"><time>2022-10-29T10:38:56.277</time></trkpt><trkpt lat="55.7423184" lon="49.1615637"><time>2022-10-29T10:38:57.277</time></trkpt><trkpt lat="55.7423623" lon="49.1615921"><time>2022-10-29T10:38:58.247</time></trkpt><trkpt lat="55.7424084" lon="49.1616178"><time>2022-10-29T10:38:59.257</time></trkpt><trkpt lat="55.7424603" lon="49.1616405"><time>2022-10-29T10:39:00.257</time></trkpt><trkpt lat="55.7425124" lon="49.1616655"><time>2022-10-29T10:39:01.280</time></trkpt><trkpt lat="55.7425650" lon="49.1616980"><time>2022-10-29T10:39:02.277</time></trkpt><trkpt lat="55.7426148" lon="49.1617320"><time>2022-10-29T10:39:03.283</time></trkpt><trkpt lat="55.7426655" lon="49.1617620"><time>2022-10-29T10:39:04.257</time></trkpt><trkpt lat="55.7427164" lon="49.1617899"><time>2022-10-29T10:39:05.250</time></trkpt><trkpt lat="55.7427657" lon="49.1618151"><time>2022-10-29T10:39:06.267</time></trkpt><trkpt lat="55.7428145" lon="49.1618408"><time>2022-10-29T10:39:07.280</time></trkpt><trkpt lat="55.7428638" lon="49.1618660"><time>2022-10-29T10:39:08.287</time></trkpt><trkpt lat="55.7429130" lon="49.1618905"><time>2022-10-29T10:39:09.257</time></trkpt><trkpt lat="55.7429598" lon="49.1619141"><time>2022-10-29T10:39:10.257</time></trkpt><trkpt lat="55.7430038" lon="49.1619356"><time>2022-10-29T10:39:11.260</time></trkpt><trkpt lat="55.7430890" lon="49.1619797"><time>2022-10-29T10:39:13.267</time></trkpt><trkpt lat="55.7431347" lon="49.1620006"><time>2022-10-29T10:39:14.287</time></trkpt><trkpt lat="55.7431843" lon="49.1620200"><time>2022-10-29T10:39:15.273</time></trkpt><trkpt lat="55.7432361" lon="49.1620397"><time>2022-10-29T10:39:16.277</time></trkpt><trkpt lat="55.7432896" lon="49.1620632"><time>2022-10-29T10:39:17.277</time></trkpt><trkpt lat="55.7433468" lon="49.1620872"><time>2022-10-29T10:39:18.287</time></trkpt><trkpt lat="55.7434072" lon="49.1621099"><time>2022-10-29T10:39:19.277</time></trkpt><trkpt lat="55.7434683" lon="49.1621323"><time>2022-10-29T10:39:20.280</time></trkpt><trkpt lat="55.7435323" lon="49.1621509"><time>2022-10-29T10:39:21.247</time></trkpt><trkpt lat="55.7435971" lon="49.1621672"><time>2022-10-29T10:39:22.277</time></trkpt><trkpt lat="55.7436590" lon="49.1621819"><time>2022-10-29T10:39:23.277</time></trkpt><trkpt lat="55.7437223" lon="49.1621991"><time>2022-10-29T10:39:24.280</time></trkpt><trkpt lat="55.7437848" lon="49.1622185"><time>2022-10-29T10:39:25.273</time></trkpt><trkpt lat="55.7438475" lon="49.1622398"><time>2022-10-29T10:39:26.277</time></trkpt><trkpt lat="55.7439107" lon="49.1622576"><time>2022-10-29T10:39:27.280</time></trkpt><trkpt lat="55.7439716" lon="49.1622770"><time>2022-10-29T10:39:28.277</time></trkpt><trkpt lat="55.7440340" lon="49.1622988"><time>2022-10-29T10:39:29.317</time></trkpt><trkpt lat="55.7440975" lon="49.1623194"><time>2022-10-29T10:39:30.280</time></trkpt><trkpt lat="55.7441590" lon="49.1623404"><time>2022-10-29T10:39:31.287</time></trkpt><trkpt lat="55.7442202" lon="49.1623606"><time>2022-10-29T10:39:32.297</time></trkpt><trkpt lat="55.7442782" lon="49.1623773"><time>2022-10-29T10:39:33.270</time></trkpt><trkpt lat="55.7443321" lon="49.1623920"><time>2022-10-29T10:39:34.260</time></trkpt><trkpt lat="55.7443826" lon="49.1624055"><time>2022-10-29T10:39:35.273</time></trkpt><trkpt lat="55.7444317" lon="49.1624098"><time>2022-10-29T10:39:36.283</time></trkpt><trkpt lat="55.7444804" lon="49.1623838"><time>2022-10-29T10:39:37.273</time></trkpt><trkpt lat="55.7445299" lon="49.1623389"><time>2022-10-29T10:39:38.293</time></trkpt><trkpt lat="55.7445844" lon="49.1623148"><time>2022-10-29T10:39:39.277</time></trkpt><trkpt lat="55.7446422" lon="49.1623150"><time>2022-10-29T10:39:40.280</time></trkpt><trkpt lat="55.7447014" lon="49.1623267"><time>2022-10-29T10:39:41.280</time></trkpt><trkpt lat="55.7447607" lon="49.1623379"><time>2022-10-29T10:39:42.283</time></trkpt><trkpt lat="55.7448207" lon="49.1623499"><time>2022-10-29T10:39:43.280</time></trkpt><trkpt lat="55.7448819" lon="49.1623661"><time>2022-10-29T10:39:44.280</time></trkpt><trkpt lat="55.7449449" lon="49.1623812"><time>2022-10-29T10:39:45.287</time></trkpt><trkpt lat="55.7450093" lon="49.1623859"><time>2022-10-29T10:39:46.277</time></trkpt><trkpt lat="55.7450765" lon="49.1623858"><time>2022-10-29T10:39:47.280</time></trkpt><trkpt lat="55.7451459" lon="49.1623864"><time>2022-10-29T10:39:48.280</time></trkpt><trkpt lat="55.7452126" lon="49.1623844"><time>2022-10-29T10:39:49.280</time></trkpt><trkpt lat="55.7452774" lon="49.1623858"><time>2022-10-29T10:39:50.277</time></trkpt><trkpt lat="55.7453445" lon="49.1623993"><time>2022-10-29T10:39:51.273</time></trkpt><trkpt lat="55.7454105" lon="49.1624183"><time>2022-10-29T10:39:52.283</time></trkpt><trkpt lat="55.7454751" lon="49.1624370"><time>2022-10-29T10:39:53.287</time></trkpt><trkpt lat="55.7455402" lon="49.1624558"><time>2022-10-29T10:39:54.287</time></trkpt><trkpt lat="55.7456061" lon="49.1624788"><time>2022-10-29T10:39:55.280</time></trkpt><trkpt lat="55.7456717" lon="49.1625051"><time>2022-10-29T10:39:56.283</time></trkpt><trkpt lat="55.7457345" lon="49.1625305"><time>2022-10-29T10:39:57.277</time></trkpt><trkpt lat="55.7457933" lon="49.1625470"><time>2022-10-29T10:39:58.277</time></trkpt><trkpt lat="55.7458481" lon="49.1625583"><time>2022-10-29T10:39:59.257</time></trkpt><trkpt lat="55.7459030" lon="49.1625694"><time>2022-10-29T10:40:00.270</time></trkpt><trkpt lat="55.7459578" lon="49.1625808"><time>2022-10-29T10:40:01.280</time></trkpt><trkpt lat="55.7460108" lon="49.1625921"><time>2022-10-29T10:40:02.287</time></trkpt><trkpt lat="55.7460646" lon="49.1626029"><time>2022-10-29T10:40:03.277</time></trkpt><trkpt lat="55.7461175" lon="49.1626136"><time>2022-10-29T10:40:04.277</time></trkpt><trkpt lat="55.7461697" lon="49.1626240"><time>2022-10-29T10:40:05.280</time></trkpt><trkpt lat="55.7462258" lon="49.1626368"><time>2022-10-29T10:40:06.287</time></trkpt><trkpt lat="55.7462843" lon="49.1626492"><time>2022-10-29T10:40:07.283</time></trkpt><trkpt lat="55.7463415" lon="49.1626587"><time>2022-10-29T10:40:08.283</time></trkpt><trkpt lat="55.7463996" lon="49.1626651"><time>2022-10-29T10:40:09.283</time></trkpt><trkpt lat="55.7464582" lon="49.1626709"><time>2022-10-29T10:40:10.280</time></trkpt><trkpt lat="55.7465159" lon="49.1626782"><time>2022-10-29T10:40:11.283</time></trkpt><trkpt lat="55.7465750" lon="49.1626855"><time>2022-10-29T10:40:12.327</time></trkpt><trkpt lat="55.7466348" lon="49.1626919"><time>2022-10-29T10:40:13.287</time></trkpt><trkpt lat="55.7466944" lon="49.1626929"><time>2022-10-29T10:40:14.287</time></trkpt><trkpt lat="55.7467544" lon="49.1626949"><time>2022-10-29T10:40:15.283</time></trkpt><trkpt lat="55.7468109" lon="49.1626970"><time>2022-10-29T10:40:16.277</time></trkpt><trkpt lat="55.7468636" lon="49.1626985"><time>2022-10-29T10:40:17.280</time></trkpt><trkpt lat="55.7469152" lon="49.1626981"><time>2022-10-29T10:40:18.283</time></trkpt><trkpt lat="55.7469684" lon="49.1626982"><time>2022-10-29T10:40:19.277</time></trkpt><trkpt lat="55.7470273" lon="49.1627011"><time>2022-10-29T10:40:20.290</time></trkpt><trkpt lat="55.7470906" lon="49.1627049"><time>2022-10-29T10:40:21.283</time></trkpt><trkpt lat="55.7471558" lon="49.1627100"><time>2022-10-29T10:40:22.287</time></trkpt><trkpt lat="55.7472234" lon="49.1627196"><time>2022-10-29T10:40:23.277</time></trkpt><trkpt lat="55.7472922" lon="49.1627338"><time>2022-10-29T10:40:24.263</time></trkpt><trkpt lat="55.7473621" lon="49.1627505"><time>2022-10-29T10:40:25.283</time></trkpt><trkpt lat="55.7474316" lon="49.1627692"><time>2022-10-29T10:40:26.283</time></trkpt><trkpt lat="55.7475012" lon="49.1627882"><time>2022-10-29T10:40:27.280</time></trkpt><trkpt lat="55.7475711" lon="49.1628022"><time>2022-10-29T10:40:28.280</time></trkpt><trkpt lat="55.7476419" lon="49.1628119"><time>2022-10-29T10:40:29.287</time></trkpt><trkpt lat="55.7477108" lon="49.1628190"><time>2022-10-29T10:40:30.290</time></trkpt><trkpt lat="55.7477792" lon="49.1628218"><time>2022-10-29T10:40:31.290</time></trkpt><trkpt lat="55.7478487" lon="49.1628232"><time>2022-10-29T10:40:32.290</time></trkpt><trkpt lat="55.7479214" lon="49.1628302"><time>2022-10-29T10:40:33.297</time></trkpt><trkpt lat="55.7479945" lon="49.1628374"><time>2022-10-29T10:40:34.280</time></trkpt><trkpt lat="55.7480659" lon="49.1628388"><time>2022-10-29T10:40:35.280</time></trkpt><trkpt lat="55.7481354" lon="49.1628398"><time>2022-10-29T10:40:36.283</time></trkpt><trkpt lat="55.7482033" lon="49.1628410"><time>2022-10-29T10:40:37.283</time></trkpt><trkpt lat="55.7482699" lon="49.1628442"><time>2022-10-29T10:40:38.283</time></trkpt><trkpt lat="55.7483374" lon="49.1628544"><time>2022-10-29T10:40:39.280</time></trkpt><trkpt lat="55.7484032" lon="49.1628686"><time>2022-10-29T10:40:40.307</time></trkpt><trkpt lat="55.7484689" lon="49.1628805"><time>2022-10-29T10:40:41.290</time></trkpt><trkpt lat="55.7485345" lon="49.1628905"><time>2022-10-29T10:40:42.297</time></trkpt><trkpt lat="55.7486008" lon="49.1629028"><time>2022-10-29T10:40:43.277</time></trkpt><trkpt lat="55.7486644" lon="49.1629197"><time>2022-10-29T10:40:44.280</time></trkpt><trkpt lat="55.7487283" lon="49.1629346"><time>2022-10-29T10:40:45.287</time></trkpt><trkpt lat="55.7487934" lon="49.1629517"><time>2022-10-29T10:40:46.277</time></trkpt><trkpt lat="55.7488573" lon="49.1629694"><time>2022-10-29T10:40:47.280</time></trkpt><trkpt lat="55.7489227" lon="49.1629836"><time>2022-10-29T10:40:48.293</time></trkpt><trkpt lat="55.7489916" lon="49.1629882"><time>2022-10-29T10:40:49.287</time></trkpt><trkpt lat="55.7490609" lon="49.1629835"><time>2022-10-29T10:40:50.287</time></trkpt><trkpt lat="55.7491271" lon="49.1629752"><time>2022-10-29T10:40:51.290</time></trkpt><trkpt lat="55.7491939" lon="49.1629668"><time>2022-10-29T10:40:52.297</time></trkpt><trkpt lat="55.7492598" lon="49.1629606"><time>2022-10-29T10:40:53.267</time></trkpt><trkpt lat="55.7493291" lon="49.1629569"><time>2022-10-29T10:40:54.287</time></trkpt><trkpt lat="55.7494011" lon="49.1629558"><time>2022-10-29T10:40:55.287</time></trkpt><trkpt lat="55.7494701" lon="49.1629539"><time>2022-10-29T10:40:56.287</time></trkpt><trkpt lat="55.7495389" lon="49.1629538"><time>2022-10-29T10:40:57.283</time></trkpt><trkpt lat="55.7496047" lon="49.1629556"><time>2022-10-29T10:40:58.280</time></trkpt><trkpt lat="55.7496707" lon="49.1629548"><time>2022-10-29T10:40:59.283</time></trkpt><trkpt lat="55.7497373" lon="49.1629557"><time>2022-10-29T10:41:00.290</time></trkpt><trkpt lat="55.7497995" lon="49.1629594"><time>2022-10-29T10:41:01.287</time></trkpt><trkpt lat="55.7498460" lon="49.1629514"><time>2022-10-29T10:41:02.290</time></trkpt><trkpt lat="55.7498812" lon="49.1628790"><time>2022-10-29T10:41:04.287</time></trkpt><trkpt lat="55.7498746" lon="49.1627563"><time>2022-10-29T10:41:06.287</time></trkpt><trkpt lat="55.7498718" lon="49.1626130"><time>2022-10-29T10:41:08.283</time></trkpt><trkpt lat="55.7498740" lon="49.1624654"><time>2022-10-29T10:41:10.287</time></trkpt><trkpt lat="55.7498844" lon="49.1623169"><time>2022-10-29T10:41:12.290</time></trkpt><trkpt lat="55.7498992" lon="49.1621848"><time>2022-10-29T10:41:14.277</time></trkpt><trkpt lat="55.7499031" lon="49.1620705"><time>2022-10-29T10:41:16.280</time></trkpt><trkpt lat="55.7499029" lon="49.1619547"><time>2022-10-29T10:41:18.277</time></trkpt><trkpt lat="55.7499036" lon="49.1618169"><time>2022-10-29T10:41:20.277</time></trkpt><trkpt lat="55.7499067" lon="49.1616773"><time>2022-10-29T10:41:22.283</time></trkpt><trkpt lat="55.7499076" lon="49.1615279"><time>2022-10-29T10:41:24.290</time></trkpt><trkpt lat="55.7499065" lon="49.1613812"><time>2022-10-29T10:41:26.277</time></trkpt><trkpt lat="55.7498957" lon="49.1612313"><time>2022-10-29T10:41:28.290</time></trkpt><trkpt lat="55.7498876" lon="49.1610870"><time>2022-10-29T10:41:30.293</time></trkpt><trkpt lat="55.7498852" lon="49.1609614"><time>2022-10-29T10:41:32.283</time></trkpt><trkpt lat="55.7498929" lon="49.1608392"><time>2022-10-29T10:41:34.280</time></trkpt><trkpt lat="55.7498933" lon="49.1607129"><time>2022-10-29T10:41:36.287</time></trkpt><trkpt lat="55.7498945" lon="49.1605747"><time>2022-10-29T10:41:38.277</time></trkpt><trkpt lat="55.7498936" lon="49.1604311"><time>2022-10-29T10:41:40.283</time></trkpt><trkpt lat="55.7498993" lon="49.1602795"><time>2022-10-29T10:41:42.293</time></trkpt><trkpt lat="55.7499053" lon="49.1601249"><time>2022-10-29T10:41:44.283</time></trkpt><trkpt lat="55.7499024" lon="49.1599869"><time>2022-10-29T10:41:46.297</time></trkpt><trkpt lat="55.7498861" lon="49.1598685"><time>2022-10-29T10:41:48.287</time></trkpt><trkpt lat="55.7498872" lon="49.1597398"><time>2022-10-29T10:41:50.287</time></trkpt><trkpt lat="55.7498827" lon="49.1596040"><time>2022-10-29T10:41:52.283</time></trkpt><trkpt lat="55.7498779" lon="49.1594582"><time>2022-10-29T10:41:54.283</time></trkpt><trkpt lat="55.7498761" lon="49.1593061"><time>2022-10-29T10:41:56.287</time></trkpt><trkpt lat="55.7498793" lon="49.1591506"><time>2022-10-29T10:41:58.293</time></trkpt><trkpt lat="55.7498842" lon="49.1590130"><time>2022-10-29T10:42:00.300</time></trkpt><trkpt lat="55.7498954" lon="49.1588819"><time>2022-10-29T10:42:02.277</time></trkpt><trkpt lat="55.7499056" lon="49.1587519"><time>2022-10-29T10:42:04.280</time></trkpt><trkpt lat="55.7499276" lon="49.1586381"><time>2022-10-29T10:42:06.290</time></trkpt><trkpt lat="55.7499352" lon="49.1585568"><time>2022-10-29T10:42:08.290</time></trkpt><trkpt lat="55.7499401" lon="49.1584636"><time>2022-10-29T10:42:10.290</time></trkpt><trkpt lat="55.7499514" lon="49.1583317"><time>2022-10-29T10:42:12.300</time></trkpt><trkpt lat="55.7499589" lon="49.1581949"><time>2022-10-29T10:42:14.290</time></trkpt><trkpt lat="55.7499663" lon="49.1580997"><time>2022-10-29T10:42:16.290</time></trkpt><trkpt lat="55.7499766" lon="49.1580181"><time>2022-10-29T10:42:18.283</time></trkpt><trkpt lat="55.7499866" lon="49.1579215"><time>2022-10-29T10:42:20.283</time></trkpt><trkpt lat="55.7499926" lon="49.1578264"><time>2022-10-29T10:42:22.293</time></trkpt><trkpt lat="55.7499938" lon="49.1577308"><time>2022-10-29T10:42:24.293</time></trkpt><trkpt lat="55.7500000" lon="49.1575700"><time>2022-10-29T10:42:25.283</time></trkpt><trkpt lat="55.7500052" lon="49.1574542"><time>2022-10-29T10:42:27.287</time></trkpt><trkpt lat="55.7500048" lon="49.1573288"><time>2022-10-29T10:42:29.283</time></trkpt><trkpt lat="55.7500044" lon="49.1572040"><time>2022-10-29T10:42:31.290</time></trkpt><trkpt lat="55.7500102" lon="49.1571065"><time>2022-10-29T10:42:37.287</time></trkpt><trkpt lat="55.7500144" lon="49.1570161"><time>2022-10-29T10:42:39.293</time></trkpt><trkpt lat="55.7499882" lon="49.1569142"><time>2022-10-29T10:42:41.290</time></trkpt><trkpt lat="55.7499211" lon="49.1568970"><time>2022-10-29T10:42:43.290</time></trkpt><trkpt lat="55.7498565" lon="49.1569351"><time>2022-10-29T10:42:45.280</time></trkpt><trkpt lat="55.7497860" lon="49.1569545"><time>2022-10-29T10:42:47.290</time></trkpt><trkpt lat="55.7497056" lon="49.1569543"><time>2022-10-29T10:42:49.287</time></trkpt><trkpt lat="55.7496595" lon="49.1569465"><time>2022-10-29T10:42:50.287</time></trkpt><trkpt lat="55.7495789" lon="49.1569396"><time>2022-10-29T10:42:52.270</time></trkpt><trkpt lat="55.7494971" lon="49.1569387"><time>2022-10-29T10:42:54.280</time></trkpt><trkpt lat="55.7494500" lon="49.1569383"><time>2022-10-29T10:42:55.283</time></trkpt><trkpt lat="55.7493984" lon="49.1569359"><time>2022-10-29T10:42:56.283</time></trkpt><trkpt lat="55.7493475" lon="49.1569324"><time>2022-10-29T10:42:57.287</time></trkpt><trkpt lat="55.7492972" lon="49.1569306"><time>2022-10-29T10:42:58.293</time></trkpt><trkpt lat="55.7492476" lon="49.1569276"><time>2022-10-29T10:42:59.283</time></trkpt><trkpt lat="55.7491992" lon="49.1569197"><time>2022-10-29T10:43:00.273</time></trkpt><trkpt lat="55.7491531" lon="49.1569126"><time>2022-10-29T10:43:01.273</time></trkpt><trkpt lat="55.7490630" lon="49.1569024"><time>2022-10-29T10:43:03.290</time></trkpt><trkpt lat="55.7490134" lon="49.1568969"><time>2022-10-29T10:43:04.280</time></trkpt><trkpt lat="55.7489652" lon="49.1568923"><time>2022-10-29T10:43:05.277</time></trkpt><trkpt lat="55.7489138" lon="49.1568886"><time>2022-10-29T10:43:06.303</time></trkpt><trkpt lat="55.7488622" lon="49.1568871"><time>2022-10-29T10:43:07.283</time></trkpt><trkpt lat="55.7488105" lon="49.1568948"><time>2022-10-29T10:43:08.283</time></trkpt><trkpt lat="55.7487605" lon="49.1569001"><time>2022-10-29T10:43:09.290</time></trkpt><trkpt lat="55.7487101" lon="49.1569021"><time>2022-10-29T10:43:10.293</time></trkpt><trkpt lat="55.7486558" lon="49.1569012"><time>2022-10-29T10:43:11.280</time></trkpt><trkpt lat="55.7485991" lon="49.1568980"><time>2022-10-29T10:43:12.287</time></trkpt><trkpt lat="55.7485395" lon="49.1568920"><time>2022-10-29T10:43:13.287</time></trkpt><trkpt lat="55.7484824" lon="49.1568870"><time>2022-10-29T10:43:14.283</time></trkpt><trkpt lat="55.7484288" lon="49.1568784"><time>2022-10-29T10:43:15.287</time></trkpt><trkpt lat="55.7483751" lon="49.1568661"><time>2022-10-29T10:43:16.287</time></trkpt><trkpt lat="55.7483189" lon="49.1568564"><time>2022-10-29T10:43:17.287</time></trkpt><trkpt lat="55.7482628" lon="49.1568488"><time>2022-10-29T10:43:18.293</time></trkpt><trkpt lat="55.7482060" lon="49.1568432"><time>2022-10-29T10:43:19.283</time></trkpt><trkpt lat="55.7481498" lon="49.1568420"><time>2022-10-29T10:43:20.280</time></trkpt><trkpt lat="55.7480964" lon="49.1568425"><time>2022-10-29T10:43:21.273</time></trkpt><trkpt lat="55.7480422" lon="49.1568388"><time>2022-10-29T10:43:22.283</time></trkpt><trkpt lat="55.7479885" lon="49.1568354"><time>2022-10-29T10:43:23.283</time></trkpt><trkpt lat="55.7479344" lon="49.1568339"><time>2022-10-29T10:43:24.287</time></trkpt><trkpt lat="55.7478800" lon="49.1568316"><time>2022-10-29T10:43:25.290</time></trkpt><trkpt lat="55.7478250" lon="49.1568315"><time>2022-10-29T10:43:26.287</time></trkpt><trkpt lat="55.7477696" lon="49.1568321"><time>2022-10-29T10:43:27.283</time></trkpt><trkpt lat="55.7477108" lon="49.1568327"><time>2022-10-29T10:43:28.280</time></trkpt><trkpt lat="55.7476500" lon="49.1568320"><time>2022-10-29T10:43:29.303</time></trkpt><trkpt lat="55.7475902" lon="49.1568312"><time>2022-10-29T10:43:30.283</time></trkpt><trkpt lat="55.7475318" lon="49.1568338"><time>2022-10-29T10:43:31.287</time></trkpt><trkpt lat="55.7474775" lon="49.1568392"><time>2022-10-29T10:43:32.290</time></trkpt><trkpt lat="55.7474255" lon="49.1568475"><time>2022-10-29T10:43:33.280</time></trkpt><trkpt lat="55.7473724" lon="49.1568593"><time>2022-10-29T10:43:34.283</time></trkpt><trkpt lat="55.7473208" lon="49.1568733"><time>2022-10-29T10:43:35.317</time></trkpt><trkpt lat="55.7472735" lon="49.1568858"><time>2022-10-29T10:43:36.277</time></trkpt><trkpt lat="55.7472276" lon="49.1568982"><time>2022-10-29T10:43:37.283</time></trkpt><trkpt lat="55.7471389" lon="49.1569133"><time>2022-10-29T10:43:39.287</time></trkpt><trkpt lat="55.7470914" lon="49.1569088"><time>2022-10-29T10:43:40.283</time></trkpt><trkpt lat="55.7470016" lon="49.1568879"><time>2022-10-29T10:43:42.297</time></trkpt><trkpt lat="55.7469577" lon="49.1568572"><time>2022-10-29T10:43:43.283</time></trkpt><trkpt lat="55.7468880" lon="49.1567708"><time>2022-10-29T10:43:45.287</time></trkpt><trkpt lat="55.7468275" lon="49.1566565"><time>2022-10-29T10:43:47.290</time></trkpt><trkpt lat="55.7467963" lon="49.1565989"><time>2022-10-29T10:43:48.293</time></trkpt><trkpt lat="55.7467476" lon="49.1564928"><time>2022-10-29T10:43:50.333</time></trkpt><trkpt lat="55.7467207" lon="49.1564394"><time>2022-10-29T10:43:51.293</time></trkpt><trkpt lat="55.7466643" lon="49.1563535"><time>2022-10-29T10:43:53.283</time></trkpt><trkpt lat="55.7465996" lon="49.1563191"><time>2022-10-29T10:43:55.297</time></trkpt><trkpt lat="55.7465338" lon="49.1562746"><time>2022-10-29T10:43:57.270</time></trkpt><trkpt lat="55.7464805" lon="49.1562030"><time>2022-10-29T10:43:59.287</time></trkpt><trkpt lat="55.7464345" lon="49.1561534"><time>2022-10-29T10:44:01.290</time></trkpt><trkpt lat="55.7463909" lon="49.1561789"><time>2022-10-29T10:44:04.283</time></trkpt><trkpt lat="55.7463712" lon="49.1562722"><time>2022-10-29T10:44:07.287</time></trkpt><trkpt lat="55.7463240" lon="49.1562717"><time>2022-10-29T10:44:11.290</time></trkpt><trkpt lat="55.7462707" lon="49.1563196"><time>2022-10-29T10:44:16.320</time></trkpt><trkpt lat="55.7462604" lon="49.1563383"><time>2022-10-29T10:44:17.267</time></trkpt><trkpt lat="55.7462297" lon="49.1563981"><time>2022-10-29T10:44:21.293</time></trkpt><trkpt lat="55.7462216" lon="49.1564865"><time>2022-10-29T10:44:42.337</time></trkpt><trkpt lat="55.7462216" lon="49.1564865"><time>2022-10-29T10:44:43.277</time></trkpt><trkpt lat="55.7461805" lon="49.1564381"><time>2022-10-29T10:45:20.317</time></trkpt><trkpt lat="55.7461567" lon="49.1564116"><time>2022-10-29T10:45:21.307</time></trkpt><trkpt lat="55.7461117" lon="49.1563625"><time>2022-10-29T10:45:23.280</time></trkpt><trkpt lat="55.7460550" lon="49.1563314"><time>2022-10-29T10:45:26.277</time></trkpt><trkpt lat="55.7460125" lon="49.1562948"><time>2022-10-29T10:45:27.277</time></trkpt><trkpt lat="55.7459923" lon="49.1562041"><time>2022-10-29T10:45:31.277</time></trkpt><trkpt lat="55.7459700" lon="49.1561244"><time>2022-10-29T10:45:35.287</time></trkpt><trkpt lat="55.7459700" lon="49.1561244"><time>2022-10-29T10:45:35.347</time></trkpt><trkpt lat="55.7459917" lon="49.1562311"><time>2022-10-29T10:45:41.300</time></trkpt><trkpt lat="55.7460043" lon="49.1562728"><time>2022-10-29T10:45:42.273</time></trkpt><trkpt lat="55.7460466" lon="49.1563224"><time>2022-10-29T10:45:46.280</time></trkpt><trkpt lat="55.7460996" lon="49.1563550"><time>2022-10-29T10:45:50.280</time></trkpt><trkpt lat="55.7461561" lon="49.1564133"><time>2022-10-29T10:45:53.273</time></trkpt><trkpt lat="55.7461901" lon="49.1564838"><time>2022-10-29T10:45:56.277</time></trkpt><trkpt lat="55.7462095" lon="49.1565751"><time>2022-10-29T10:46:00.277</time></trkpt><trkpt lat="55.7462478" lon="49.1566189"><time>2022-10-29T10:46:03.277</time></trkpt><trkpt lat="55.7462907" lon="49.1565922"><time>2022-10-29T10:46:09.277</time></trkpt><trkpt lat="55.7462707" lon="49.1564956"><time>2022-10-29T10:46:13.277</time></trkpt><trkpt lat="55.7462450" lon="49.1564234"><time>2022-10-29T10:46:17.280</time></trkpt><trkpt lat="55.7462769" lon="49.1563482"><time>2022-10-29T10:46:21.277</time></trkpt><trkpt lat="55.7463201" lon="49.1562835"><time>2022-10-29T10:46:24.277</time></trkpt><trkpt lat="55.7463615" lon="49.1562428"><time>2022-10-29T10:46:28.277</time></trkpt><trkpt lat="55.7464080" lon="49.1561801"><time>2022-10-29T10:46:32.260</time></trkpt><trkpt lat="55.7464591" lon="49.1561507"><time>2022-10-29T10:46:36.277</time></trkpt><trkpt lat="55.7464183" lon="49.1561933"><time>2022-10-29T10:47:00.277</time></trkpt><trkpt lat="55.7463903" lon="49.1562640"><time>2022-10-29T10:47:02.277</time></trkpt><trkpt lat="55.7463344" lon="49.1563335"><time>2022-10-29T10:47:04.283</time></trkpt><trkpt lat="55.7462808" lon="49.1563625"><time>2022-10-29T10:47:07.287</time></trkpt><trkpt lat="55.7462329" lon="49.1563590"><time>2022-10-29T10:47:11.280</time></trkpt><trkpt lat="55.7462224" lon="49.1564379"><time>2022-10-29T10:47:16.283</time></trkpt><trkpt lat="55.7462587" lon="49.1564954"><time>2022-10-29T10:47:20.273</time></trkpt><trkpt lat="55.7462474" lon="49.1565973"><time>2022-10-29T10:47:25.280</time></trkpt><trkpt lat="55.7462032" lon="49.1565389"><time>2022-10-29T10:47:28.290</time></trkpt><trkpt lat="55.7461678" lon="49.1564696"><time>2022-10-29T10:47:30.277</time></trkpt><trkpt lat="55.7461499" lon="49.1563913"><time>2022-10-29T10:47:33.277</time></trkpt><trkpt lat="55.7461122" lon="49.1563470"><time>2022-10-29T10:47:36.277</time></trkpt><trkpt lat="55.7460694" lon="49.1563018"><time>2022-10-29T10:47:39.280</time></trkpt><trkpt lat="55.7460431" lon="49.1562029"><time>2022-10-29T10:47:47.277</time></trkpt><trkpt lat="55.7460284" lon="49.1561236"><time>2022-10-29T10:47:49.283</time></trkpt><trkpt lat="55.7459990" lon="49.1560528"><time>2022-10-29T10:47:51.280</time></trkpt><trkpt lat="55.7459885" lon="49.1559666"><time>2022-10-29T10:47:54.280</time></trkpt><trkpt lat="55.7459999" lon="49.1558714"><time>2022-10-29T10:47:58.277</time></trkpt><trkpt lat="55.7460025" lon="49.1557874"><time>2022-10-29T10:48:02.280</time></trkpt><trkpt lat="55.7460159" lon="49.1556931"><time>2022-10-29T10:48:06.277</time></trkpt><trkpt lat="55.7460682" lon="49.1556820"><time>2022-10-29T10:48:11.280</time></trkpt><trkpt lat="55.7461139" lon="49.1557016"><time>2022-10-29T10:48:14.273</time></trkpt><trkpt lat="55.7461531" lon="49.1556561"><time>2022-10-29T10:48:17.277</time></trkpt><trkpt lat="55.7461794" lon="49.1555696"><time>2022-10-29T10:48:20.277</time></trkpt><trkpt lat="55.7462257" lon="49.1555332"><time>2022-10-29T10:48:23.277</time></trkpt><trkpt lat="55.7462648" lon="49.1555936"><time>2022-10-29T10:48:27.283</time></trkpt><trkpt lat="55.7463187" lon="49.1556140"><time>2022-10-29T10:48:33.277</time></trkpt><trkpt lat="55.7463667" lon="49.1556279"><time>2022-10-29T10:48:36.277</time></trkpt><trkpt lat="55.7464319" lon="49.1556373"><time>2022-10-29T10:48:38.277</time></trkpt><trkpt lat="55.7464790" lon="49.1556496"><time>2022-10-29T10:48:39.280</time></trkpt><trkpt lat="55.7465439" lon="49.1556416"><time>2022-10-29T10:48:41.277</time></trkpt><trkpt lat="55.7466144" lon="49.1556559"><time>2022-10-29T10:48:43.277</time></trkpt><trkpt lat="55.7466834" lon="49.1556745"><time>2022-10-29T10:48:45.280</time></trkpt><trkpt lat="55.7467641" lon="49.1556846"><time>2022-10-29T10:48:47.277</time></trkpt><trkpt lat="55.7468126" lon="49.1556834"><time>2022-10-29T10:48:48.273</time></trkpt><trkpt lat="55.7468635" lon="49.1556770"><time>2022-10-29T10:48:49.277</time></trkpt><trkpt lat="55.7469105" lon="49.1556681"><time>2022-10-29T10:48:50.287</time></trkpt><trkpt lat="55.7469579" lon="49.1556564"><time>2022-10-29T10:48:51.277</time></trkpt><trkpt lat="55.7470278" lon="49.1556299"><time>2022-10-29T10:48:53.273</time></trkpt><trkpt lat="55.7470711" lon="49.1555931"><time>2022-10-29T10:49:18.280</time></trkpt><trkpt lat="55.7471229" lon="49.1555745"><time>2022-10-29T10:49:20.280</time></trkpt><trkpt lat="55.7471765" lon="49.1555645"><time>2022-10-29T10:49:22.290</time></trkpt><trkpt lat="55.7472911" lon="49.1555374"><time>2022-10-29T10:49:24.287</time></trkpt><trkpt lat="55.7473681" lon="49.1555138"><time>2022-10-29T10:49:26.277</time></trkpt><trkpt lat="55.7474478" lon="49.1555064"><time>2022-10-29T10:49:28.280</time></trkpt><trkpt lat="55.7475227" lon="49.1555117"><time>2022-10-29T10:49:30.287</time></trkpt><trkpt lat="55.7476115" lon="49.1555229"><time>2022-10-29T10:49:32.287</time></trkpt><trkpt lat="55.7476964" lon="49.1555295"><time>2022-10-29T10:49:34.283</time></trkpt><trkpt lat="55.7477761" lon="49.1555347"><time>2022-10-29T10:49:36.297</time></trkpt><trkpt lat="55.7478481" lon="49.1555343"><time>2022-10-29T10:49:38.280</time></trkpt><trkpt lat="55.7479205" lon="49.1555395"><time>2022-10-29T10:49:40.280</time></trkpt><trkpt lat="55.7479914" lon="49.1555337"><time>2022-10-29T10:49:42.313</time></trkpt><trkpt lat="55.7480711" lon="49.1555298"><time>2022-10-29T10:49:44.283</time></trkpt><trkpt lat="55.7481544" lon="49.1555195"><time>2022-10-29T10:49:46.287</time></trkpt><trkpt lat="55.7482329" lon="49.1555010"><time>2022-10-29T10:49:48.287</time></trkpt><trkpt lat="55.7483155" lon="49.1554818"><time>2022-10-29T10:49:50.283</time></trkpt><trkpt lat="55.7483992" lon="49.1554605"><time>2022-10-29T10:49:52.290</time></trkpt><trkpt lat="55.7484714" lon="49.1554367"><time>2022-10-29T10:49:54.283</time></trkpt><trkpt lat="55.7485329" lon="49.1554168"><time>2022-10-29T10:49:56.280</time></trkpt><trkpt lat="55.7485946" lon="49.1553915"><time>2022-10-29T10:49:58.283</time></trkpt><trkpt lat="55.7486697" lon="49.1553539"><time>2022-10-29T10:50:00.283</time></trkpt><trkpt lat="55.7487410" lon="49.1553037"><time>2022-10-29T10:50:02.290</time></trkpt><trkpt lat="55.7487996" lon="49.1552218"><time>2022-10-29T10:50:04.283</time></trkpt><trkpt lat="55.7488556" lon="49.1551202"><time>2022-10-29T10:50:06.273</time></trkpt><trkpt lat="55.7488976" lon="49.1550376"><time>2022-10-29T10:50:08.323</time></trkpt><trkpt lat="55.7489117" lon="49.1550011"><time>2022-10-29T10:50:09.297</time></trkpt><trkpt lat="55.7489461" lon="49.1549332"><time>2022-10-29T10:50:11.287</time></trkpt><trkpt lat="55.7489867" lon="49.1548593"><time>2022-10-29T10:50:13.287</time></trkpt><trkpt lat="55.7490311" lon="49.1547831"><time>2022-10-29T10:50:15.287</time></trkpt><trkpt lat="55.7490781" lon="49.1547125"><time>2022-10-29T10:50:17.283</time></trkpt><trkpt lat="55.7491176" lon="49.1546642"><time>2022-10-29T10:50:19.287</time></trkpt><trkpt lat="55.7491618" lon="49.1545836"><time>2022-10-29T10:50:21.287</time></trkpt><trkpt lat="55.7491959" lon="49.1544852"><time>2022-10-29T10:50:23.280</time></trkpt><trkpt lat="55.7492227" lon="49.1543874"><time>2022-10-29T10:50:25.287</time></trkpt><trkpt lat="55.7492465" lon="49.1542950"><time>2022-10-29T10:50:27.283</time></trkpt><trkpt lat="55.7492726" lon="49.1541929"><time>2022-10-29T10:50:29.287</time></trkpt><trkpt lat="55.7492948" lon="49.1541086"><time>2022-10-29T10:50:31.287</time></trkpt><trkpt lat="55.7493144" lon="49.1540297"><time>2022-10-29T10:50:33.287</time></trkpt><trkpt lat="55.7493454" lon="49.1539365"><time>2022-10-29T10:50:35.287</time></trkpt><trkpt lat="55.7493722" lon="49.1538351"><time>2022-10-29T10:50:37.287</time></trkpt><trkpt lat="55.7494053" lon="49.1537353"><time>2022-10-29T10:50:39.287</time></trkpt><trkpt lat="55.7494539" lon="49.1536355"><time>2022-10-29T10:50:41.283</time></trkpt><trkpt lat="55.7495191" lon="49.1535669"><time>2022-10-29T10:50:43.283</time></trkpt><trkpt lat="55.7495941" lon="49.1535242"><time>2022-10-29T10:50:45.333</time></trkpt><trkpt lat="55.7496306" lon="49.1535100"><time>2022-10-29T10:50:46.310</time></trkpt><trkpt lat="55.7497094" lon="49.1534854"><time>2022-10-29T10:50:48.287</time></trkpt><trkpt lat="55.7497980" lon="49.1534602"><time>2022-10-29T10:50:50.283</time></trkpt><trkpt lat="55.7498847" lon="49.1534223"><time>2022-10-29T10:50:52.283</time></trkpt><trkpt lat="55.7499675" lon="49.1533879"><time>2022-10-29T10:50:54.283</time></trkpt><trkpt lat="55.7500490" lon="49.1533501"><time>2022-10-29T10:50:56.287</time></trkpt><trkpt lat="55.7500932" lon="49.1533271"><time>2022-10-29T10:50:57.330</time></trkpt><trkpt lat="55.7501403" lon="49.1533020"><time>2022-10-29T10:50:58.297</time></trkpt><trkpt lat="55.7502210" lon="49.1532506"><time>2022-10-29T10:51:00.287</time></trkpt><trkpt lat="55.7502944" lon="49.1531918"><time>2022-10-29T10:51:02.287</time></trkpt><trkpt lat="55.7503632" lon="49.1531274"><time>2022-10-29T10:51:04.287</time></trkpt><trkpt lat="55.7504256" lon="49.1530513"><time>2022-10-29T10:51:06.283</time></trkpt><trkpt lat="55.7504720" lon="49.1529761"><time>2022-10-29T10:51:08.290</time></trkpt><trkpt lat="55.7505128" lon="49.1529072"><time>2022-10-29T10:51:10.323</time></trkpt><trkpt lat="55.7505307" lon="49.1528768"><time>2022-10-29T10:51:11.290</time></trkpt><trkpt lat="55.7505648" lon="49.1528227"><time>2022-10-29T10:51:13.287</time></trkpt><trkpt lat="55.7506002" lon="49.1527697"><time>2022-10-29T10:51:15.283</time></trkpt><trkpt lat="55.7506180" lon="49.1526885"><time>2022-10-29T10:51:19.280</time></trkpt><trkpt lat="55.7505749" lon="49.1527609"><time>2022-10-29T10:51:35.280</time></trkpt><trkpt lat="55.7505828" lon="49.1528479"><time>2022-10-29T10:51:38.283</time></trkpt><trkpt lat="55.7505765" lon="49.1529429"><time>2022-10-29T10:51:44.297</time></trkpt><trkpt lat="55.7505750" lon="49.1529548"><time>2022-10-29T10:51:45.283</time></trkpt><trkpt lat="55.7506286" lon="49.1529631"><time>2022-10-29T10:51:50.267</time></trkpt><trkpt lat="55.7505865" lon="49.1529267"><time>2022-10-29T10:51:58.340</time></trkpt><trkpt lat="55.7505707" lon="49.1529179"><time>2022-10-29T10:51:59.267</time></trkpt><trkpt lat="55.7505318" lon="49.1529762"><time>2022-10-29T10:52:09.303</time></trkpt><trkpt lat="55.7505214" lon="49.1529681"><time>2022-10-29T10:52:10.263</time></trkpt><trkpt lat="55.7505507" lon="49.1528755"><time>2022-10-29T10:52:13.293</time></trkpt><trkpt lat="55.7505610" lon="49.1528274"><time>2022-10-29T10:52:14.280</time></trkpt><trkpt lat="55.7506006" lon="49.1527343"><time>2022-10-29T10:52:16.277</time></trkpt><trkpt lat="55.7506370" lon="49.1526653"><time>2022-10-29T10:52:18.273</time></trkpt><trkpt lat="55.7505880" lon="49.1527051"><time>2022-10-29T10:52:33.267</time></trkpt><trkpt lat="55.7505420" lon="49.1528034"><time>2022-10-29T10:52:36.287</time></trkpt><trkpt lat="55.7505022" lon="49.1528840"><time>2022-10-29T10:52:38.290</time></trkpt><trkpt lat="55.7504605" lon="49.1529649"><time>2022-10-29T10:52:40.320</time></trkpt><trkpt lat="55.7504314" lon="49.1530063"><time>2022-10-29T10:52:41.293</time></trkpt><trkpt lat="55.7503879" lon="49.1530624"><time>2022-10-29T10:52:43.283</time></trkpt><trkpt lat="55.7503527" lon="49.1531159"><time>2022-10-29T10:52:45.283</time></trkpt><trkpt lat="55.7503081" lon="49.1531780"><time>2022-10-29T10:52:47.290</time></trkpt><trkpt lat="55.7502482" lon="49.1532358"><time>2022-10-29T10:52:49.307</time></trkpt><trkpt lat="55.7501873" lon="49.1532853"><time>2022-10-29T10:52:51.283</time></trkpt><trkpt lat="55.7501626" lon="49.1533575"><time>2022-10-29T10:52:54.283</time></trkpt><trkpt lat="55.7501863" lon="49.1534360"><time>2022-10-29T10:53:02.287</time></trkpt><trkpt lat="55.7501999" lon="49.1535172"><time>2022-10-29T10:53:05.287</time></trkpt><trkpt lat="55.7502227" lon="49.1535886"><time>2022-10-29T10:53:08.287</time></trkpt><trkpt lat="55.7502461" lon="49.1536607"><time>2022-10-29T10:53:11.283</time></trkpt><trkpt lat="55.7502729" lon="49.1537451"><time>2022-10-29T10:53:14.287</time></trkpt><trkpt lat="55.7503027" lon="49.1538127"><time>2022-10-29T10:53:17.287</time></trkpt><trkpt lat="55.7503687" lon="49.1537857"><time>2022-10-29T10:53:20.307</time></trkpt><trkpt lat="55.7503687" lon="49.1537857"><time>2022-10-29T10:53:20.327</time></trkpt><trkpt lat="55.7504138" lon="49.1538069"><time>2022-10-29T10:53:23.317</time></trkpt><trkpt lat="55.7504040" lon="49.1538128"><time>2022-10-29T10:53:24.300</time></trkpt><trkpt lat="55.7503477" lon="49.1538238"><time>2022-10-29T10:53:26.287</time></trkpt><trkpt lat="55.7503020" lon="49.1538400"><time>2022-10-29T10:53:31.283</time></trkpt><trkpt lat="55.7502736" lon="49.1537443"><time>2022-10-29T10:53:58.293</time></trkpt><trkpt lat="55.7502456" lon="49.1536184"><time>2022-10-29T10:54:01.290</time></trkpt><trkpt lat="55.7502207" lon="49.1535470"><time>2022-10-29T10:54:03.293</time></trkpt><trkpt lat="55.7501940" lon="49.1534337"><time>2022-10-29T10:54:05.297</time></trkpt><trkpt lat="55.7501795" lon="49.1533299"><time>2022-10-29T10:54:07.290</time></trkpt><trkpt lat="55.7501912" lon="49.1532506"><time>2022-10-29T10:54:09.293</time></trkpt><trkpt lat="55.7502477" lon="49.1531987"><time>2022-10-29T10:54:11.297</time></trkpt><trkpt lat="55.7503272" lon="49.1531536"><time>2022-10-29T10:54:13.290</time></trkpt><trkpt lat="55.7503920" lon="49.1530778"><time>2022-10-29T10:54:15.287</time></trkpt><trkpt lat="55.7504446" lon="49.1529842"><time>2022-10-29T10:54:17.287</time></trkpt><trkpt lat="55.7504895" lon="49.1529366"><time>2022-10-29T10:54:19.293</time></trkpt><trkpt lat="55.7505429" lon="49.1528388"><time>2022-10-29T10:54:21.293</time></trkpt><trkpt lat="55.7505905" lon="49.1527458"><time>2022-10-29T10:54:23.287</time></trkpt><trkpt lat="55.7506385" lon="49.1526422"><time>2022-10-29T10:54:25.297</time></trkpt><trkpt lat="55.7507036" lon="49.1525616"><time>2022-10-29T10:54:27.287</time></trkpt><trkpt lat="55.7507764" lon="49.1525007"><time>2022-10-29T10:54:29.287</time></trkpt><trkpt lat="55.7508470" lon="49.1524516"><time>2022-10-29T10:54:31.297</time></trkpt><trkpt lat="55.7509179" lon="49.1523965"><time>2022-10-29T10:54:33.277</time></trkpt><trkpt lat="55.7509940" lon="49.1523232"><time>2022-10-29T10:54:35.290</time></trkpt><trkpt lat="55.7510701" lon="49.1522379"><time>2022-10-29T10:54:37.290</time></trkpt><trkpt lat="55.7511086" lon="49.1521935"><time>2022-10-29T10:54:38.293</time></trkpt><trkpt lat="55.7511424" lon="49.1521373"><time>2022-10-29T10:54:39.280</time></trkpt><trkpt lat="55.7511972" lon="49.1520259"><time>2022-10-29T10:54:41.280</time></trkpt><trkpt lat="55.7512413" lon="49.1519392"><time>2022-10-29T10:54:43.287</time></trkpt><trkpt lat="55.7512836" lon="49.1518702"><time>2022-10-29T10:54:45.293</time></trkpt><trkpt lat="55.7513348" lon="49.1517993"><time>2022-10-29T10:54:47.293</time></trkpt><trkpt lat="55.7513925" lon="49.1517335"><time>2022-10-29T10:54:49.290</time></trkpt><trkpt lat="55.7514453" lon="49.1516603"><time>2022-10-29T10:54:51.287</time></trkpt><trkpt lat="55.7514928" lon="49.1515804"><time>2022-10-29T10:54:53.290</time></trkpt><trkpt lat="55.7515539" lon="49.1514815"><time>2022-10-29T10:54:55.287</time></trkpt><trkpt lat="55.7516073" lon="49.1513673"><time>2022-10-29T10:54:57.287</time></trkpt><trkpt lat="55.7516604" lon="49.1512548"><time>2022-10-29T10:54:59.283</time></trkpt><trkpt lat="55.7517141" lon="49.1511688"><time>2022-10-29T10:55:01.293</time></trkpt><trkpt lat="55.7517572" lon="49.1511115"><time>2022-10-29T10:55:03.290</time></trkpt><trkpt lat="55.7517969" lon="49.1510469"><time>2022-10-29T10:55:05.300</time></trkpt><trkpt lat="55.7518652" lon="49.1509414"><time>2022-10-29T10:55:06.297</time></trkpt><trkpt lat="55.7519285" lon="49.1508421"><time>2022-10-29T10:55:08.280</time></trkpt><trkpt lat="55.7519873" lon="49.1507505"><time>2022-10-29T10:55:10.300</time></trkpt><trkpt lat="55.7520384" lon="49.1506611"><time>2022-10-29T10:55:12.287</time></trkpt><trkpt lat="55.7520885" lon="49.1505761"><time>2022-10-29T10:55:14.287</time></trkpt><trkpt lat="55.7521419" lon="49.1504991"><time>2022-10-29T10:55:16.290</time></trkpt><trkpt lat="55.7521956" lon="49.1504178"><time>2022-10-29T10:55:18.287</time></trkpt><trkpt lat="55.7522516" lon="49.1503296"><time>2022-10-29T10:55:20.283</time></trkpt><trkpt lat="55.7523004" lon="49.1502444"><time>2022-10-29T10:55:22.303</time></trkpt><trkpt lat="55.7523434" lon="49.1501425"><time>2022-10-29T10:55:24.290</time></trkpt><trkpt lat="55.7523769" lon="49.1500697"><time>2022-10-29T10:55:26.293</time></trkpt><trkpt lat="55.7524165" lon="49.1499884"><time>2022-10-29T10:55:29.293</time></trkpt><trkpt lat="55.7524598" lon="49.1498907"><time>2022-10-29T10:55:31.317</time></trkpt><trkpt lat="55.7524827" lon="49.1498327"><time>2022-10-29T10:55:32.303</time></trkpt><trkpt lat="55.7525228" lon="49.1497068"><time>2022-10-29T10:55:34.293</time></trkpt><trkpt lat="55.7525386" lon="49.1495825"><time>2022-10-29T10:55:36.303</time></trkpt><trkpt lat="55.7525406" lon="49.1494813"><time>2022-10-29T10:55:50.297</time></trkpt><trkpt lat="55.7525374" lon="49.1493838"><time>2022-10-29T10:55:52.307</time></trkpt><trkpt lat="55.7525298" lon="49.1492394"><time>2022-10-29T10:55:54.303</time></trkpt><trkpt lat="55.7525278" lon="49.1491007"><time>2022-10-29T10:55:56.287</time></trkpt><trkpt lat="55.7525256" lon="49.1489621"><time>2022-10-29T10:55:58.303</time></trkpt><trkpt lat="55.7525300" lon="49.1488341"><time>2022-10-29T10:56:00.307</time></trkpt><trkpt lat="55.7525483" lon="49.1487020"><time>2022-10-29T10:56:02.307</time></trkpt><trkpt lat="55.7525883" lon="49.1485589"><time>2022-10-29T10:56:04.293</time></trkpt><trkpt lat="55.7526145" lon="49.1484920"><time>2022-10-29T10:56:05.297</time></trkpt><trkpt lat="55.7526446" lon="49.1484306"><time>2022-10-29T10:56:06.307</time></trkpt><trkpt lat="55.7526954" lon="49.1483169"><time>2022-10-29T10:56:08.307</time></trkpt><trkpt lat="55.7527450" lon="49.1482163"><time>2022-10-29T10:56:10.317</time></trkpt><trkpt lat="55.7527922" lon="49.1481203"><time>2022-10-29T10:56:12.307</time></trkpt><trkpt lat="55.7528402" lon="49.1480207"><time>2022-10-29T10:56:14.307</time></trkpt><trkpt lat="55.7528880" lon="49.1479231"><time>2022-10-29T10:56:16.293</time></trkpt><trkpt lat="55.7529399" lon="49.1478280"><time>2022-10-29T10:56:18.347</time></trkpt><trkpt lat="55.7529584" lon="49.1477908"><time>2022-10-29T10:56:19.297</time></trkpt><trkpt lat="55.7529952" lon="49.1476835"><time>2022-10-29T10:56:22.303</time></trkpt><trkpt lat="55.7530382" lon="49.1475826"><time>2022-10-29T10:56:24.293</time></trkpt><trkpt lat="55.7530786" lon="49.1474856"><time>2022-10-29T10:56:26.303</time></trkpt><trkpt lat="55.7531132" lon="49.1473791"><time>2022-10-29T10:56:28.307</time></trkpt><trkpt lat="55.7531524" lon="49.1472821"><time>2022-10-29T10:56:30.303</time></trkpt><trkpt lat="55.7531774" lon="49.1472148"><time>2022-10-29T10:56:32.307</time></trkpt><trkpt lat="55.7532195" lon="49.1471673"><time>2022-10-29T10:56:44.297</time></trkpt><trkpt lat="55.7532502" lon="49.1472265"><time>2022-10-29T10:56:53.293</time></trkpt><trkpt lat="55.7532781" lon="49.1472972"><time>2022-10-29T10:57:02.283</time></trkpt><trkpt lat="55.7533089" lon="49.1473692"><time>2022-10-29T10:57:11.277</time></trkpt><trkpt lat="55.7533336" lon="49.1474519"><time>2022-10-29T10:57:25.283</time></trkpt><trkpt lat="55.7533745" lon="49.1475149"><time>2022-10-29T10:57:30.283</time></trkpt><trkpt lat="55.7534045" lon="49.1475846"><time>2022-10-29T10:57:37.320</time></trkpt><trkpt lat="55.7534175" lon="49.1475982"><time>2022-10-29T10:57:38.300</time></trkpt><trkpt lat="55.7534747" lon="49.1475972"><time>2022-10-29T10:57:42.287</time></trkpt><trkpt lat="55.7535246" lon="49.1476332"><time>2022-10-29T10:57:46.283</time></trkpt><trkpt lat="55.7535650" lon="49.1477078"><time>2022-10-29T10:57:54.283</time></trkpt><trkpt lat="55.7536122" lon="49.1477709"><time>2022-10-29T10:57:57.283</time></trkpt><trkpt lat="55.7536568" lon="49.1478079"><time>2022-10-29T10:58:00.303</time></trkpt><trkpt lat="55.7536568" lon="49.1478079"><time>2022-10-29T10:58:00.350</time></trkpt><trkpt lat="55.7536268" lon="49.1477372"><time>2022-10-29T10:58:09.317</time></trkpt><trkpt lat="55.7536173" lon="49.1477165"><time>2022-10-29T10:58:10.280</time></trkpt><trkpt lat="55.7535540" lon="49.1476316"><time>2022-10-29T10:58:14.280</time></trkpt><trkpt lat="55.7534984" lon="49.1476031"><time>2022-10-29T10:58:17.283</time></trkpt><trkpt lat="55.7534505" lon="49.1475873"><time>2022-10-29T10:58:21.283</time></trkpt><trkpt lat="55.7533973" lon="49.1475011"><time>2022-10-29T10:58:26.283</time></trkpt><trkpt lat="55.7533602" lon="49.1474515"><time>2022-10-29T10:58:29.283</time></trkpt><trkpt lat="55.7533277" lon="49.1473679"><time>2022-10-29T10:58:33.283</time></trkpt><trkpt lat="55.7532847" lon="49.1473162"><time>2022-10-29T10:58:59.287</time></trkpt><trkpt lat="55.7532667" lon="49.1472242"><time>2022-10-29T10:59:20.287</time></trkpt><trkpt lat="55.7532766" lon="49.1471250"><time>2022-10-29T10:59:23.287</time></trkpt><trkpt lat="55.7532985" lon="49.1470218"><time>2022-10-29T10:59:26.287</time></trkpt><trkpt lat="55.7533287" lon="49.1469350"><time>2022-10-29T10:59:28.287</time></trkpt><trkpt lat="55.7533660" lon="49.1468518"><time>2022-10-29T10:59:30.317</time></trkpt><trkpt lat="55.7534184" lon="49.1467480"><time>2022-10-29T10:59:32.290</time></trkpt><trkpt lat="55.7534745" lon="49.1466461"><time>2022-10-29T10:59:34.287</time></trkpt><trkpt lat="55.7535236" lon="49.1465725"><time>2022-10-29T10:59:36.293</time></trkpt><trkpt lat="55.7535740" lon="49.1465218"><time>2022-10-29T10:59:38.293</time></trkpt><trkpt lat="55.7536246" lon="49.1465247"><time>2022-10-29T10:59:40.287</time></trkpt><trkpt lat="55.7536675" lon="49.1465597"><time>2022-10-29T10:59:42.317</time></trkpt><trkpt lat="55.7537133" lon="49.1465869"><time>2022-10-29T10:59:45.283</time></trkpt><trkpt lat="55.7537846" lon="49.1465701"><time>2022-10-29T10:59:48.290</time></trkpt><trkpt lat="55.7538483" lon="49.1465613"><time>2022-10-29T10:59:50.287</time></trkpt><trkpt lat="55.7539257" lon="49.1465718"><time>2022-10-29T10:59:52.277</time></trkpt><trkpt lat="55.7540037" lon="49.1465719"><time>2022-10-29T10:59:54.290</time></trkpt><trkpt lat="55.7540513" lon="49.1465678"><time>2022-10-29T10:59:55.287</time></trkpt><trkpt lat="55.7541043" lon="49.1465521"><time>2022-10-29T10:59:57.290</time></trkpt><trkpt lat="55.7541570" lon="49.1465320"><time>2022-10-29T10:59:59.293</time></trkpt><trkpt lat="55.7542731" lon="49.1464866"><time>2022-10-29T11:00:00.287</time></trkpt><trkpt lat="55.7543592" lon="49.1464491"><time>2022-10-29T11:00:02.290</time></trkpt><trkpt lat="55.7544426" lon="49.1464093"><time>2022-10-29T11:00:04.310</time></trkpt><trkpt lat="55.7545287" lon="49.1463696"><time>2022-10-29T11:00:06.290</time></trkpt><trkpt lat="55.7545743" lon="49.1463472"><time>2022-10-29T11:00:07.287</time></trkpt><trkpt lat="55.7546182" lon="49.1463246"><time>2022-10-29T11:00:08.300</time></trkpt><trkpt lat="55.7546680" lon="49.1463076"><time>2022-10-29T11:00:09.290</time></trkpt><trkpt lat="55.7547169" lon="49.1462892"><time>2022-10-29T11:00:10.297</time></trkpt><trkpt lat="55.7547652" lon="49.1462727"><time>2022-10-29T11:00:11.287</time></trkpt><trkpt lat="55.7548166" lon="49.1462605"><time>2022-10-29T11:00:12.290</time></trkpt><trkpt lat="55.7548674" lon="49.1462443"><time>2022-10-29T11:00:13.290</time></trkpt><trkpt lat="55.7549153" lon="49.1462233"><time>2022-10-29T11:00:14.290</time></trkpt><trkpt lat="55.7549640" lon="49.1462047"><time>2022-10-29T11:00:15.287</time></trkpt><trkpt lat="55.7550147" lon="49.1461873"><time>2022-10-29T11:00:16.293</time></trkpt><trkpt lat="55.7550590" lon="49.1461664"><time>2022-10-29T11:00:17.287</time></trkpt><trkpt lat="55.7551432" lon="49.1461156"><time>2022-10-29T11:00:19.290</time></trkpt><trkpt lat="55.7552240" lon="49.1460810"><time>2022-10-29T11:00:21.340</time></trkpt><trkpt lat="55.7552672" lon="49.1460621"><time>2022-10-29T11:00:22.313</time></trkpt><trkpt lat="55.7553142" lon="49.1460415"><time>2022-10-29T11:00:23.293</time></trkpt><trkpt lat="55.7553597" lon="49.1460189"><time>2022-10-29T11:00:24.297</time></trkpt><trkpt lat="55.7554029" lon="49.1459965"><time>2022-10-29T11:00:25.287</time></trkpt><trkpt lat="55.7554888" lon="49.1459584"><time>2022-10-29T11:00:27.290</time></trkpt><trkpt lat="55.7555706" lon="49.1459253"><time>2022-10-29T11:00:29.290</time></trkpt><trkpt lat="55.7556600" lon="49.1458935"><time>2022-10-29T11:00:31.293</time></trkpt><trkpt lat="55.7557448" lon="49.1458605"><time>2022-10-29T11:00:33.287</time></trkpt><trkpt lat="55.7558189" lon="49.1458409"><time>2022-10-29T11:00:35.287</time></trkpt><trkpt lat="55.7558665" lon="49.1458258"><time>2022-10-29T11:00:37.287</time></trkpt><trkpt lat="55.7559188" lon="49.1457925"><time>2022-10-29T11:00:41.287</time></trkpt><trkpt lat="55.7558725" lon="49.1458354"><time>2022-10-29T11:00:45.287</time></trkpt><trkpt lat="55.7558135" lon="49.1458582"><time>2022-10-29T11:00:47.287</time></trkpt><trkpt lat="55.7557472" lon="49.1459066"><time>2022-10-29T11:00:49.287</time></trkpt><trkpt lat="55.7556749" lon="49.1459541"><time>2022-10-29T11:00:51.290</time></trkpt><trkpt lat="55.7555979" lon="49.1459802"><time>2022-10-29T11:00:53.290</time></trkpt><trkpt lat="55.7555260" lon="49.1459989"><time>2022-10-29T11:00:55.290</time></trkpt><trkpt lat="55.7554554" lon="49.1460315"><time>2022-10-29T11:00:57.293</time></trkpt><trkpt lat="55.7553939" lon="49.1460491"><time>2022-10-29T11:00:59.290</time></trkpt><trkpt lat="55.7553299" lon="49.1460647"><time>2022-10-29T11:01:01.287</time></trkpt><trkpt lat="55.7552605" lon="49.1460973"><time>2022-10-29T11:01:03.287</time></trkpt><trkpt lat="55.7551845" lon="49.1461373"><time>2022-10-29T11:01:05.323</time></trkpt><trkpt lat="55.7551500" lon="49.1461657"><time>2022-10-29T11:01:06.303</time></trkpt><trkpt lat="55.7550690" lon="49.1462148"><time>2022-10-29T11:01:08.297</time></trkpt><trkpt lat="55.7550222" lon="49.1462389"><time>2022-10-29T11:01:09.290</time></trkpt><trkpt lat="55.7549713" lon="49.1462595"><time>2022-10-29T11:01:10.290</time></trkpt><trkpt lat="55.7549208" lon="49.1462775"><time>2022-10-29T11:01:11.290</time></trkpt><trkpt lat="55.7548701" lon="49.1462952"><time>2022-10-29T11:01:12.293</time></trkpt><trkpt lat="55.7548168" lon="49.1463145"><time>2022-10-29T11:01:13.290</time></trkpt><trkpt lat="55.7547635" lon="49.1463320"><time>2022-10-29T11:01:14.290</time></trkpt><trkpt lat="55.7547119" lon="49.1463457"><time>2022-10-29T11:01:15.287</time></trkpt><trkpt lat="55.7546610" lon="49.1463623"><time>2022-10-29T11:01:16.287</time></trkpt><trkpt lat="55.7546109" lon="49.1463848"><time>2022-10-29T11:01:17.290</time></trkpt><trkpt lat="55.7545612" lon="49.1464048"><time>2022-10-29T11:01:18.290</time></trkpt><trkpt lat="55.7545115" lon="49.1464261"><time>2022-10-29T11:01:19.293</time></trkpt><trkpt lat="55.7544627" lon="49.1464488"><time>2022-10-29T11:01:20.293</time></trkpt><trkpt lat="55.7544141" lon="49.1464696"><time>2022-10-29T11:01:21.290</time></trkpt><trkpt lat="55.7543657" lon="49.1464887"><time>2022-10-29T11:01:22.293</time></trkpt><trkpt lat="55.7543199" lon="49.1465081"><time>2022-10-29T11:01:23.290</time></trkpt><trkpt lat="55.7542725" lon="49.1465277"><time>2022-10-29T11:01:24.290</time></trkpt><trkpt lat="55.7542254" lon="49.1465428"><time>2022-10-29T11:01:25.313</time></trkpt><trkpt lat="55.7541767" lon="49.1465574"><time>2022-10-29T11:01:26.287</time></trkpt><trkpt lat="55.7541292" lon="49.1465708"><time>2022-10-29T11:01:27.287</time></trkpt><trkpt lat="55.7540812" lon="49.1465814"><time>2022-10-29T11:01:28.290</time></trkpt><trkpt lat="55.7539957" lon="49.1465905"><time>2022-10-29T11:01:30.287</time></trkpt><trkpt lat="55.7539090" lon="49.1465988"><time>2022-10-29T11:01:32.290</time></trkpt><trkpt lat="55.7538462" lon="49.1465590"><time>2022-10-29T11:01:34.290</time></trkpt><trkpt lat="55.7538304" lon="49.1464787"><time>2022-10-29T11:01:36.290</time></trkpt><trkpt lat="55.7538263" lon="49.1463847"><time>2022-10-29T11:01:38.290</time></trkpt><trkpt lat="55.7538047" lon="49.1463053"><time>2022-10-29T11:01:40.290</time></trkpt><trkpt lat="55.7537733" lon="49.1462292"><time>2022-10-29T11:01:42.293</time></trkpt><trkpt lat="55.7537510" lon="49.1461218"><time>2022-10-29T11:01:44.290</time></trkpt><trkpt lat="55.7537681" lon="49.1460124"><time>2022-10-29T11:01:46.287</time></trkpt><trkpt lat="55.7538068" lon="49.1459169"><time>2022-10-29T11:01:48.290</time></trkpt><trkpt lat="55.7538590" lon="49.1458006"><time>2022-10-29T11:01:50.287</time></trkpt><trkpt lat="55.7539042" lon="49.1456909"><time>2022-10-29T11:01:52.287</time></trkpt><trkpt lat="55.7539457" lon="49.1455717"><time>2022-10-29T11:01:54.290</time></trkpt><trkpt lat="55.7539904" lon="49.1454417"><time>2022-10-29T11:01:56.290</time></trkpt><trkpt lat="55.7540390" lon="49.1453088"><time>2022-10-29T11:01:58.287</time></trkpt><trkpt lat="55.7540657" lon="49.1452433"><time>2022-10-29T11:01:59.283</time></trkpt><trkpt lat="55.7541251" lon="49.1451247"><time>2022-10-29T11:02:01.287</time></trkpt><trkpt lat="55.7541921" lon="49.1450179"><time>2022-10-29T11:02:03.287</time></trkpt><trkpt lat="55.7542305" lon="49.1449715"><time>2022-10-29T11:02:04.290</time></trkpt><trkpt lat="55.7542701" lon="49.1449310"><time>2022-10-29T11:02:05.287</time></trkpt><trkpt lat="55.7543123" lon="49.1448964"><time>2022-10-29T11:02:06.287</time></trkpt><trkpt lat="55.7543561" lon="49.1448717"><time>2022-10-29T11:02:07.290</time></trkpt><trkpt lat="55.7544405" lon="49.1448385"><time>2022-10-29T11:02:09.287</time></trkpt><trkpt lat="55.7545187" lon="49.1448264"><time>2022-10-29T11:02:11.273</time></trkpt><trkpt lat="55.7546077" lon="49.1448003"><time>2022-10-29T11:02:13.310</time></trkpt><trkpt lat="55.7546514" lon="49.1447806"><time>2022-10-29T11:02:14.287</time></trkpt><trkpt lat="55.7546974" lon="49.1447591"><time>2022-10-29T11:02:15.327</time></trkpt><trkpt lat="55.7547435" lon="49.1447343"><time>2022-10-29T11:02:16.287</time></trkpt><trkpt lat="55.7547876" lon="49.1447024"><time>2022-10-29T11:02:17.287</time></trkpt><trkpt lat="55.7548314" lon="49.1446587"><time>2022-10-29T11:02:18.283</time></trkpt><trkpt lat="55.7548737" lon="49.1446222"><time>2022-10-29T11:02:19.290</time></trkpt><trkpt lat="55.7549175" lon="49.1445994"><time>2022-10-29T11:02:20.287</time></trkpt><trkpt lat="55.7549620" lon="49.1445811"><time>2022-10-29T11:02:21.283</time></trkpt><trkpt lat="55.7550463" lon="49.1445253"><time>2022-10-29T11:02:23.287</time></trkpt><trkpt lat="55.7550902" lon="49.1444977"><time>2022-10-29T11:02:24.287</time></trkpt><trkpt lat="55.7551763" lon="49.1444940"><time>2022-10-29T11:02:26.290</time></trkpt><trkpt lat="55.7552370" lon="49.1445438"><time>2022-10-29T11:02:28.290</time></trkpt><trkpt lat="55.7552855" lon="49.1445833"><time>2022-10-29T11:02:31.290</time></trkpt><trkpt lat="55.7553467" lon="49.1445700"><time>2022-10-29T11:02:33.287</time></trkpt><trkpt lat="55.7554208" lon="49.1445436"><time>2022-10-29T11:02:35.283</time></trkpt><trkpt lat="55.7554866" lon="49.1445194"><time>2022-10-29T11:02:37.287</time></trkpt><trkpt lat="55.7555443" lon="49.1445176"><time>2022-10-29T11:02:39.287</time></trkpt><trkpt lat="55.7556012" lon="49.1445039"><time>2022-10-29T11:02:41.287</time></trkpt><trkpt lat="55.7556634" lon="49.1444744"><time>2022-10-29T11:02:43.333</time></trkpt><trkpt lat="55.7556955" lon="49.1444550"><time>2022-10-29T11:02:44.313</time></trkpt><trkpt lat="55.7557538" lon="49.1444238"><time>2022-10-29T11:02:46.290</time></trkpt><trkpt lat="55.7557984" lon="49.1443983"><time>2022-10-29T11:02:48.287</time></trkpt><trkpt lat="55.7558503" lon="49.1443625"><time>2022-10-29T11:02:50.287</time></trkpt><trkpt lat="55.7559136" lon="49.1443566"><time>2022-10-29T11:02:52.290</time></trkpt><trkpt lat="55.7559888" lon="49.1443703"><time>2022-10-29T11:02:54.293</time></trkpt><trkpt lat="55.7560683" lon="49.1443932"><time>2022-10-29T11:02:56.287</time></trkpt><trkpt lat="55.7561508" lon="49.1444095"><time>2022-10-29T11:02:58.287</time></trkpt><trkpt lat="55.7562225" lon="49.1444766"><time>2022-10-29T11:03:00.313</time></trkpt><trkpt lat="55.7562564" lon="49.1446178"><time>2022-10-29T11:03:02.290</time></trkpt><trkpt lat="55.7562717" lon="49.1447071"><time>2022-10-29T11:03:03.287</time></trkpt><trkpt lat="55.7562844" lon="49.1448068"><time>2022-10-29T11:03:04.287</time></trkpt><trkpt lat="55.7562865" lon="49.1449086"><time>2022-10-29T11:03:05.293</time></trkpt><trkpt lat="55.7562841" lon="49.1450121"><time>2022-10-29T11:03:06.293</time></trkpt><trkpt lat="55.7562831" lon="49.1451143"><time>2022-10-29T11:03:07.287</time></trkpt><trkpt lat="55.7562828" lon="49.1452158"><time>2022-10-29T11:03:08.293</time></trkpt><trkpt lat="55.7562798" lon="49.1453162"><time>2022-10-29T11:03:09.320</time></trkpt><trkpt lat="55.7562804" lon="49.1454163"><time>2022-10-29T11:03:10.297</time></trkpt><trkpt lat="55.7562839" lon="49.1455187"><time>2022-10-29T11:03:11.287</time></trkpt><trkpt lat="55.7562878" lon="49.1456177"><time>2022-10-29T11:03:12.310</time></trkpt><trkpt lat="55.7562926" lon="49.1457128"><time>2022-10-29T11:03:13.277</time></trkpt><trkpt lat="55.7562993" lon="49.1458063"><time>2022-10-29T11:03:14.287</time></trkpt><trkpt lat="55.7563095" lon="49.1459036"><time>2022-10-29T11:03:15.290</time></trkpt><trkpt lat="55.7563212" lon="49.1460022"><time>2022-10-29T11:03:16.290</time></trkpt><trkpt lat="55.7563323" lon="49.1461026"><time>2022-10-29T11:03:17.287</time></trkpt><trkpt lat="55.7563409" lon="49.1462040"><time>2022-10-29T11:03:18.293</time></trkpt><trkpt lat="55.7563417" lon="49.1463014"><time>2022-10-29T11:03:19.287</time></trkpt><trkpt lat="55.7563410" lon="49.1463906"><time>2022-10-29T11:03:20.283</time></trkpt><trkpt lat="55.7563514" lon="49.1464738"><time>2022-10-29T11:03:21.287</time></trkpt><trkpt lat="55.7564093" lon="49.1465819"><time>2022-10-29T11:03:23.287</time></trkpt><trkpt lat="55.7564901" lon="49.1465916"><time>2022-10-29T11:03:25.267</time></trkpt><trkpt lat="55.7565349" lon="49.1465730"><time>2022-10-29T11:03:26.270</time></trkpt><trkpt lat="55.7566071" lon="49.1465366"><time>2022-10-29T11:03:28.287</time></trkpt><trkpt lat="55.7566589" lon="49.1465213"><time>2022-10-29T11:03:30.273</time></trkpt><trkpt lat="55.7567139" lon="49.1465379"><time>2022-10-29T11:03:32.290</time></trkpt><trkpt lat="55.7567822" lon="49.1466047"><time>2022-10-29T11:03:34.290</time></trkpt><trkpt lat="55.7568361" lon="49.1467283"><time>2022-10-29T11:03:36.287</time></trkpt><trkpt lat="55.7568632" lon="49.1467964"><time>2022-10-29T11:03:37.273</time></trkpt><trkpt lat="55.7568845" lon="49.1468719"><time>2022-10-29T11:03:38.297</time></trkpt><trkpt lat="55.7569018" lon="49.1469492"><time>2022-10-29T11:03:39.287</time></trkpt><trkpt lat="55.7569148" lon="49.1470290"><time>2022-10-29T11:03:40.270</time></trkpt><trkpt lat="55.7569291" lon="49.1471070"><time>2022-10-29T11:03:41.280</time></trkpt><trkpt lat="55.7569491" lon="49.1471803"><time>2022-10-29T11:03:42.290</time></trkpt><trkpt lat="55.7569703" lon="49.1472524"><time>2022-10-29T11:03:43.287</time></trkpt><trkpt lat="55.7570065" lon="49.1473907"><time>2022-10-29T11:03:45.287</time></trkpt><trkpt lat="55.7570364" lon="49.1475196"><time>2022-10-29T11:03:47.290</time></trkpt><trkpt lat="55.7570848" lon="49.1475518"><time>2022-10-29T11:03:52.280</time></trkpt><trkpt lat="55.7571283" lon="49.1475072"><time>2022-10-29T11:03:56.293</time></trkpt><trkpt lat="55.7571701" lon="49.1474524"><time>2022-10-29T11:04:09.290</time></trkpt><trkpt lat="55.7572152" lon="49.1473871"><time>2022-10-29T11:04:13.287</time></trkpt><trkpt lat="55.7572208" lon="49.1472785"><time>2022-10-29T11:04:17.290</time></trkpt><trkpt lat="55.7572121" lon="49.1471753"><time>2022-10-29T11:04:19.290</time></trkpt><trkpt lat="55.7571900" lon="49.1470345"><time>2022-10-29T11:04:21.293</time></trkpt><trkpt lat="55.7571637" lon="49.1468921"><time>2022-10-29T11:04:23.290</time></trkpt><trkpt lat="55.7571492" lon="49.1468145"><time>2022-10-29T11:04:24.300</time></trkpt><trkpt lat="55.7571372" lon="49.1467372"><time>2022-10-29T11:04:25.290</time></trkpt><trkpt lat="55.7571279" lon="49.1466576"><time>2022-10-29T11:04:26.287</time></trkpt><trkpt lat="55.7571230" lon="49.1465022"><time>2022-10-29T11:04:28.287</time></trkpt><trkpt lat="55.7571159" lon="49.1463660"><time>2022-10-29T11:04:30.297</time></trkpt><trkpt lat="55.7571206" lon="49.1462728"><time>2022-10-29T11:04:32.300</time></trkpt><trkpt lat="55.7571648" lon="49.1462377"><time>2022-10-29T11:04:37.293</time></trkpt><trkpt lat="55.7571984" lon="49.1461780"><time>2022-10-29T11:04:41.297</time></trkpt><trkpt lat="55.7572514" lon="49.1461714"><time>2022-10-29T11:04:48.267</time></trkpt><trkpt lat="55.7572957" lon="49.1461160"><time>2022-10-29T11:04:53.307</time></trkpt><trkpt lat="55.7573052" lon="49.1461010"><time>2022-10-29T11:04:54.327</time></trkpt><trkpt lat="55.7572815" lon="49.1461746"><time>2022-10-29T11:05:04.290</time></trkpt><trkpt lat="55.7573109" lon="49.1461010"><time>2022-10-29T11:05:19.290</time></trkpt><trkpt lat="55.7573576" lon="49.1460573"><time>2022-10-29T11:05:29.290</time></trkpt><trkpt lat="55.7574138" lon="49.1460266"><time>2022-10-29T11:05:32.290</time></trkpt><trkpt lat="55.7574646" lon="49.1460124"><time>2022-10-29T11:05:35.297</time></trkpt><trkpt lat="55.7575173" lon="49.1459910"><time>2022-10-29T11:05:39.290</time></trkpt><trkpt lat="55.7574661" lon="49.1460024"><time>2022-10-29T11:05:48.287</time></trkpt><trkpt lat="55.7574098" lon="49.1460457"><time>2022-10-29T11:05:50.283</time></trkpt><trkpt lat="55.7573541" lon="49.1460708"><time>2022-10-29T11:05:52.287</time></trkpt><trkpt lat="55.7572983" lon="49.1460999"><time>2022-10-29T11:05:55.290</time></trkpt><trkpt lat="55.7573622" lon="49.1460554"><time>2022-10-29T11:06:22.293</time></trkpt><trkpt lat="55.7574208" lon="49.1460418"><time>2022-10-29T11:06:24.293</time></trkpt><trkpt lat="55.7574806" lon="49.1459995"><time>2022-10-29T11:06:27.290</time></trkpt><trkpt lat="55.7575349" lon="49.1460006"><time>2022-10-29T11:06:30.290</time></trkpt><trkpt lat="55.7575803" lon="49.1460007"><time>2022-10-29T11:06:34.290</time></trkpt><trkpt lat="55.7576350" lon="49.1459554"><time>2022-10-29T11:06:40.287</time></trkpt><trkpt lat="55.7576832" lon="49.1459056"><time>2022-10-29T11:06:46.323</time></trkpt><trkpt lat="55.7577050" lon="49.1458866"><time>2022-10-29T11:06:47.290</time></trkpt><trkpt lat="55.7577619" lon="49.1458394"><time>2022-10-29T11:06:50.300</time></trkpt><trkpt lat="55.7578123" lon="49.1458044"><time>2022-10-29T11:06:53.293</time></trkpt><trkpt lat="55.7578632" lon="49.1457804"><time>2022-10-29T11:06:55.283</time></trkpt><trkpt lat="55.7579163" lon="49.1457420"><time>2022-10-29T11:06:57.297</time></trkpt><trkpt lat="55.7579590" lon="49.1457088"><time>2022-10-29T11:06:59.330</time></trkpt><trkpt lat="55.7579590" lon="49.1457088"><time>2022-10-29T11:06:59.367</time></trkpt><trkpt lat="55.7580020" lon="49.1456769"><time>2022-10-29T11:07:01.330</time></trkpt><trkpt lat="55.7580058" lon="49.1456733"><time>2022-10-29T11:07:02.287</time></trkpt><trkpt lat="55.7579421" lon="49.1457089"><time>2022-10-29T11:07:05.283</time></trkpt><trkpt lat="55.7578748" lon="49.1457469"><time>2022-10-29T11:07:07.300</time></trkpt><trkpt lat="55.7578202" lon="49.1457860"><time>2022-10-29T11:07:09.287</time></trkpt><trkpt lat="55.7577737" lon="49.1458247"><time>2022-10-29T11:07:11.290</time></trkpt><trkpt lat="55.7577296" lon="49.1458580"><time>2022-10-29T11:07:14.293</time></trkpt><trkpt lat="55.7576649" lon="49.1459203"><time>2022-10-29T11:07:18.277</time></trkpt><trkpt lat="55.7576304" lon="49.1459835"><time>2022-10-29T11:07:23.297</time></trkpt><trkpt lat="55.7575768" lon="49.1459970"><time>2022-10-29T11:07:25.310</time></trkpt><trkpt lat="55.7575586" lon="49.1459946"><time>2022-10-29T11:07:26.290</time></trkpt><trkpt lat="55.7575060" lon="49.1459768"><time>2022-10-29T11:07:28.297</time></trkpt><trkpt lat="55.7574458" lon="49.1460011"><time>2022-10-29T11:07:31.290</time></trkpt><trkpt lat="55.7574077" lon="49.1460675"><time>2022-10-29T11:07:37.297</time></trkpt><trkpt lat="55.7573376" lon="49.1461052"><time>2022-10-29T11:07:41.287</time></trkpt><trkpt lat="55.7572856" lon="49.1461208"><time>2022-10-29T11:07:43.290</time></trkpt><trkpt lat="55.7572415" lon="49.1461773"><time>2022-10-29T11:07:48.290</time></trkpt><trkpt lat="55.7571999" lon="49.1462196"><time>2022-10-29T11:08:26.293</time></trkpt><trkpt lat="55.7571468" lon="49.1461563"><time>2022-10-29T11:08:29.290</time></trkpt><trkpt lat="55.7571426" lon="49.1460615"><time>2022-10-29T11:08:32.293</time></trkpt><trkpt lat="55.7571261" lon="49.1459659"><time>2022-10-29T11:08:34.293</time></trkpt><trkpt lat="55.7571161" lon="49.1458700"><time>2022-10-29T11:08:36.323</time></trkpt><trkpt lat="55.7571191" lon="49.1457606"><time>2022-10-29T11:08:38.297</time></trkpt><trkpt lat="55.7571247" lon="49.1455939"><time>2022-10-29T11:08:42.297</time></trkpt><trkpt lat="55.7571216" lon="49.1454531"><time>2022-10-29T11:08:43.293</time></trkpt><trkpt lat="55.7571237" lon="49.1453733"><time>2022-10-29T11:08:44.293</time></trkpt><trkpt lat="55.7571236" lon="49.1452930"><time>2022-10-29T11:08:45.293</time></trkpt><trkpt lat="55.7571228" lon="49.1451546"><time>2022-10-29T11:08:47.297</time></trkpt><trkpt lat="55.7571276" lon="49.1450239"><time>2022-10-29T11:08:49.293</time></trkpt><trkpt lat="55.7571365" lon="49.1449141"><time>2022-10-29T11:08:51.290</time></trkpt><trkpt lat="55.7571383" lon="49.1448152"><time>2022-10-29T11:08:53.290</time></trkpt><trkpt lat="55.7571505" lon="49.1447143"><time>2022-10-29T11:09:13.290</time></trkpt><trkpt lat="55.7571627" lon="49.1446100"><time>2022-10-29T11:09:15.290</time></trkpt><trkpt lat="55.7571603" lon="49.1444779"><time>2022-10-29T11:09:17.293</time></trkpt><trkpt lat="55.7571708" lon="49.1443392"><time>2022-10-29T11:09:19.327</time></trkpt><trkpt lat="55.7571792" lon="49.1442666"><time>2022-10-29T11:09:20.290</time></trkpt><trkpt lat="55.7571917" lon="49.1441241"><time>2022-10-29T11:09:22.300</time></trkpt><trkpt lat="55.7571946" lon="49.1439918"><time>2022-10-29T11:09:24.323</time></trkpt><trkpt lat="55.7571867" lon="49.1438997"><time>2022-10-29T11:09:26.293</time></trkpt><trkpt lat="55.7571473" lon="49.1438557"><time>2022-10-29T11:09:29.293</time></trkpt><trkpt lat="55.7571114" lon="49.1437830"><time>2022-10-29T11:09:32.297</time></trkpt><trkpt lat="55.7570797" lon="49.1436787"><time>2022-10-29T11:09:34.293</time></trkpt><trkpt lat="55.7570258" lon="49.1435737"><time>2022-10-29T11:09:36.317</time></trkpt><trkpt lat="55.7569569" lon="49.1434999"><time>2022-10-29T11:09:38.297</time></trkpt><trkpt lat="55.7568756" lon="49.1434722"><time>2022-10-29T11:09:40.290</time></trkpt><trkpt lat="55.7568296" lon="49.1434717"><time>2022-10-29T11:09:41.290</time></trkpt><trkpt lat="55.7567436" lon="49.1434632"><time>2022-10-29T11:09:43.327</time></trkpt><trkpt lat="55.7567115" lon="49.1434298"><time>2022-10-29T11:09:44.310</time></trkpt><trkpt lat="55.7566961" lon="49.1432988"><time>2022-10-29T11:09:46.297</time></trkpt><trkpt lat="55.7567241" lon="49.1431445"><time>2022-10-29T11:09:48.357</time></trkpt><trkpt lat="55.7567394" lon="49.1430678"><time>2022-10-29T11:09:49.307</time></trkpt><trkpt lat="55.7567618" lon="49.1429329"><time>2022-10-29T11:09:51.293</time></trkpt><trkpt lat="55.7567482" lon="49.1428447"><time>2022-10-29T11:09:53.290</time></trkpt><trkpt lat="55.7566955" lon="49.1428811"><time>2022-10-29T11:09:56.290</time></trkpt><trkpt lat="55.7566756" lon="49.1430078"><time>2022-10-29T11:09:58.293</time></trkpt><trkpt lat="55.7566542" lon="49.1430969"><time>2022-10-29T11:10:00.337</time></trkpt><trkpt lat="55.7566467" lon="49.1431331"><time>2022-10-29T11:10:01.303</time></trkpt><trkpt lat="55.7566243" lon="49.1432043"><time>2022-10-29T11:10:03.293</time></trkpt><trkpt lat="55.7565795" lon="49.1432795"><time>2022-10-29T11:10:05.297</time></trkpt><trkpt lat="55.7565165" lon="49.1433392"><time>2022-10-29T11:10:07.290</time></trkpt><trkpt lat="55.7564608" lon="49.1434233"><time>2022-10-29T11:10:09.323</time></trkpt><trkpt lat="55.7564608" lon="49.1434233"><time>2022-10-29T11:10:09.353</time></trkpt><trkpt lat="55.7564238" lon="49.1435399"><time>2022-10-29T11:10:11.367</time></trkpt><trkpt lat="55.7564078" lon="49.1435952"><time>2022-10-29T11:10:12.303</time></trkpt><trkpt lat="55.7563719" lon="49.1436938"><time>2022-10-29T11:10:14.297</time></trkpt><trkpt lat="55.7563139" lon="49.1437004"><time>2022-10-29T11:10:16.297</time></trkpt><trkpt lat="55.7562519" lon="49.1436263"><time>2022-10-29T11:10:18.293</time></trkpt><trkpt lat="55.7561917" lon="49.1435261"><time>2022-10-29T11:10:20.300</time></trkpt><trkpt lat="55.7561666" lon="49.1434175"><time>2022-10-29T11:10:22.320</time></trkpt><trkpt lat="55.7561858" lon="49.1433075"><time>2022-10-29T11:10:30.293</time></trkpt><trkpt lat="55.7562408" lon="49.1432212"><time>2022-10-29T11:10:32.300</time></trkpt><trkpt lat="55.7563057" lon="49.1431286"><time>2022-10-29T11:10:34.317</time></trkpt><trkpt lat="55.7563680" lon="49.1431094"><time>2022-10-29T11:10:36.297</time></trkpt><trkpt lat="55.7564242" lon="49.1432081"><time>2022-10-29T11:10:38.317</time></trkpt><trkpt lat="55.7564725" lon="49.1432952"><time>2022-10-29T11:10:40.293</time></trkpt><trkpt lat="55.7565296" lon="49.1433318"><time>2022-10-29T11:10:42.293</time></trkpt><trkpt lat="55.7565911" lon="49.1433336"><time>2022-10-29T11:10:44.297</time></trkpt><trkpt lat="55.7566431" lon="49.1432657"><time>2022-10-29T11:10:46.297</time></trkpt><trkpt lat="55.7566646" lon="49.1431507"><time>2022-10-29T11:10:48.297</time></trkpt><trkpt lat="55.7566944" lon="49.1430119"><time>2022-10-29T11:10:50.293</time></trkpt><trkpt lat="55.7567150" lon="49.1429410"><time>2022-10-29T11:10:51.300</time></trkpt><trkpt lat="55.7567616" lon="49.1428182"><time>2022-10-29T11:10:53.293</time></trkpt><trkpt lat="55.7568148" lon="49.1427130"><time>2022-10-29T11:10:55.293</time></trkpt><trkpt lat="55.7568551" lon="49.1425797"><time>2022-10-29T11:10:57.320</time></trkpt><trkpt lat="55.7568772" lon="49.1425060"><time>2022-10-29T11:10:58.307</time></trkpt><trkpt lat="55.7569009" lon="49.1424307"><time>2022-10-29T11:10:59.300</time></trkpt><trkpt lat="55.7569258" lon="49.1423521"><time>2022-10-29T11:11:00.293</time></trkpt><trkpt lat="55.7569531" lon="49.1422693"><time>2022-10-29T11:11:01.293</time></trkpt><trkpt lat="55.7569823" lon="49.1421864"><time>2022-10-29T11:11:02.300</time></trkpt><trkpt lat="55.7570147" lon="49.1421068"><time>2022-10-29T11:11:03.297</time></trkpt><trkpt lat="55.7570492" lon="49.1420241"><time>2022-10-29T11:11:04.293</time></trkpt><trkpt lat="55.7570854" lon="49.1419449"><time>2022-10-29T11:11:05.293</time></trkpt><trkpt lat="55.7571211" lon="49.1418663"><time>2022-10-29T11:11:06.293</time></trkpt><trkpt lat="55.7571546" lon="49.1417923"><time>2022-10-29T11:11:07.293</time></trkpt><trkpt lat="55.7571869" lon="49.1417227"><time>2022-10-29T11:11:08.317</time></trkpt><trkpt lat="55.7572202" lon="49.1416557"><time>2022-10-29T11:11:09.293</time></trkpt><trkpt lat="55.7572551" lon="49.1415929"><time>2022-10-29T11:11:10.333</time></trkpt><trkpt lat="55.7572937" lon="49.1415324"><time>2022-10-29T11:11:11.300</time></trkpt><trkpt lat="55.7573327" lon="49.1414719"><time>2022-10-29T11:11:12.300</time></trkpt><trkpt lat="55.7573721" lon="49.1414116"><time>2022-10-29T11:11:13.293</time></trkpt><trkpt lat="55.7574135" lon="49.1413524"><time>2022-10-29T11:11:14.290</time></trkpt><trkpt lat="55.7574545" lon="49.1412932"><time>2022-10-29T11:11:15.300</time></trkpt><trkpt lat="55.7574929" lon="49.1412331"><time>2022-10-29T11:11:16.293</time></trkpt><trkpt lat="55.7575280" lon="49.1411718"><time>2022-10-29T11:11:17.293</time></trkpt><trkpt lat="55.7575654" lon="49.1410474"><time>2022-10-29T11:11:19.297</time></trkpt><trkpt lat="55.7576046" lon="49.1409850"><time>2022-10-29T11:11:21.293</time></trkpt><trkpt lat="55.7576333" lon="49.1410654"><time>2022-10-29T11:11:24.297</time></trkpt><trkpt lat="55.7575825" lon="49.1411578"><time>2022-10-29T11:11:26.297</time></trkpt><trkpt lat="55.7574944" lon="49.1411175"><time>2022-10-29T11:11:28.293</time></trkpt><trkpt lat="55.7574544" lon="49.1410570"><time>2022-10-29T11:11:29.293</time></trkpt><trkpt lat="55.7574206" lon="49.1409870"><time>2022-10-29T11:11:30.303</time></trkpt><trkpt lat="55.7573899" lon="49.1409146"><time>2022-10-29T11:11:31.290</time></trkpt><trkpt lat="55.7573566" lon="49.1408396"><time>2022-10-29T11:11:32.293</time></trkpt><trkpt lat="55.7573222" lon="49.1407653"><time>2022-10-29T11:11:33.293</time></trkpt><trkpt lat="55.7572825" lon="49.1406918"><time>2022-10-29T11:11:34.307</time></trkpt><trkpt lat="55.7572424" lon="49.1406194"><time>2022-10-29T11:11:35.297</time></trkpt><trkpt lat="55.7572007" lon="49.1405479"><time>2022-10-29T11:11:36.293</time></trkpt><trkpt lat="55.7571553" lon="49.1404753"><time>2022-10-29T11:11:37.293</time></trkpt><trkpt lat="55.7571118" lon="49.1404007"><time>2022-10-29T11:11:38.307</time></trkpt><trkpt lat="55.7570696" lon="49.1403255"><time>2022-10-29T11:11:39.297</time></trkpt><trkpt lat="55.7570282" lon="49.1402515"><time>2022-10-29T11:11:40.293</time></trkpt><trkpt lat="55.7569876" lon="49.1401799"><time>2022-10-29T11:11:41.290</time></trkpt><trkpt lat="55.7569526" lon="49.1401117"><time>2022-10-29T11:11:42.293</time></trkpt><trkpt lat="55.7569234" lon="49.1400411"><time>2022-10-29T11:11:43.353</time></trkpt><trkpt lat="55.7568948" lon="49.1399716"><time>2022-10-29T11:11:44.303</time></trkpt><trkpt lat="55.7568650" lon="49.1399075"><time>2022-10-29T11:11:45.297</time></trkpt><trkpt lat="55.7568356" lon="49.1398467"><time>2022-10-29T11:11:46.297</time></trkpt><trkpt lat="55.7567804" lon="49.1397207"><time>2022-10-29T11:11:48.293</time></trkpt><trkpt lat="55.7567504" lon="49.1396551"><time>2022-10-29T11:11:49.293</time></trkpt><trkpt lat="55.7567217" lon="49.1395844"><time>2022-10-29T11:11:50.283</time></trkpt><trkpt lat="55.7566944" lon="49.1395140"><time>2022-10-29T11:11:51.297</time></trkpt><trkpt lat="55.7566631" lon="49.1394487"><time>2022-10-29T11:11:52.300</time></trkpt><trkpt lat="55.7566279" lon="49.1393874"><time>2022-10-29T11:11:53.337</time></trkpt><trkpt lat="55.7565933" lon="49.1393298"><time>2022-10-29T11:11:54.330</time></trkpt><trkpt lat="55.7565199" lon="49.1392709"><time>2022-10-29T11:11:56.293</time></trkpt><trkpt lat="55.7564444" lon="49.1393573"><time>2022-10-29T11:11:58.293</time></trkpt><trkpt lat="55.7564117" lon="49.1394193"><time>2022-10-29T11:11:59.297</time></trkpt><trkpt lat="55.7563803" lon="49.1394829"><time>2022-10-29T11:12:00.303</time></trkpt><trkpt lat="55.7563496" lon="49.1395429"><time>2022-10-29T11:12:01.297</time></trkpt><trkpt lat="55.7563006" lon="49.1396441"><time>2022-10-29T11:12:03.330</time></trkpt><trkpt lat="55.7562884" lon="49.1396670"><time>2022-10-29T11:12:04.303</time></trkpt><trkpt lat="55.7563406" lon="49.1396409"><time>2022-10-29T11:12:24.343</time></trkpt><trkpt lat="55.7563503" lon="49.1395961"><time>2022-10-29T11:12:25.307</time></trkpt><trkpt lat="55.7563763" lon="49.1394724"><time>2022-10-29T11:12:27.293</time></trkpt><trkpt lat="55.7563832" lon="49.1393911"><time>2022-10-29T11:12:28.297</time></trkpt><trkpt lat="55.7563617" lon="49.1392479"><time>2022-10-29T11:12:30.297</time></trkpt><trkpt lat="55.7563442" lon="49.1390947"><time>2022-10-29T11:12:32.317</time></trkpt><trkpt lat="55.7563442" lon="49.1390947"><time>2022-10-29T11:12:32.337</time></trkpt><trkpt lat="55.7563530" lon="49.1390156"><time>2022-10-29T11:12:33.333</time></trkpt><trkpt lat="55.7563783" lon="49.1389436"><time>2022-10-29T11:12:34.300</time></trkpt><trkpt lat="55.7564120" lon="49.1388819"><time>2022-10-29T11:12:35.290</time></trkpt><trkpt lat="55.7564442" lon="49.1388224"><time>2022-10-29T11:12:36.293</time></trkpt><trkpt lat="55.7564790" lon="49.1387642"><time>2022-10-29T11:12:37.290</time></trkpt><trkpt lat="55.7565135" lon="49.1387026"><time>2022-10-29T11:12:38.297</time></trkpt><trkpt lat="55.7565460" lon="49.1386398"><time>2022-10-29T11:12:39.297</time></trkpt><trkpt lat="55.7565791" lon="49.1385734"><time>2022-10-29T11:12:40.297</time></trkpt><trkpt lat="55.7566121" lon="49.1385028"><time>2022-10-29T11:12:41.320</time></trkpt><trkpt lat="55.7566455" lon="49.1384302"><time>2022-10-29T11:12:42.297</time></trkpt><trkpt lat="55.7566807" lon="49.1383532"><time>2022-10-29T11:12:43.297</time></trkpt><trkpt lat="55.7567173" lon="49.1382764"><time>2022-10-29T11:12:44.293</time></trkpt><trkpt lat="55.7567549" lon="49.1381983"><time>2022-10-29T11:12:45.330</time></trkpt><trkpt lat="55.7567945" lon="49.1381192"><time>2022-10-29T11:12:46.300</time></trkpt><trkpt lat="55.7568362" lon="49.1380379"><time>2022-10-29T11:12:47.303</time></trkpt><trkpt lat="55.7568756" lon="49.1379554"><time>2022-10-29T11:12:48.297</time></trkpt><trkpt lat="55.7569167" lon="49.1378736"><time>2022-10-29T11:12:49.283</time></trkpt><trkpt lat="55.7569558" lon="49.1377927"><time>2022-10-29T11:12:50.300</time></trkpt><trkpt lat="55.7569944" lon="49.1377095"><time>2022-10-29T11:12:51.297</time></trkpt><trkpt lat="55.7570331" lon="49.1376257"><time>2022-10-29T11:12:52.300</time></trkpt><trkpt lat="55.7570719" lon="49.1375418"><time>2022-10-29T11:12:53.290</time></trkpt><trkpt lat="55.7571095" lon="49.1374593"><time>2022-10-29T11:12:54.293</time></trkpt><trkpt lat="55.7571458" lon="49.1373779"><time>2022-10-29T11:12:55.293</time></trkpt><trkpt lat="55.7571830" lon="49.1372958"><time>2022-10-29T11:12:56.293</time></trkpt><trkpt lat="55.7572191" lon="49.1372144"><time>2022-10-29T11:12:57.293</time></trkpt><trkpt lat="55.7572563" lon="49.1371354"><time>2022-10-29T11:12:58.290</time></trkpt><trkpt lat="55.7572980" lon="49.1370692"><time>2022-10-29T11:12:59.290</time></trkpt><trkpt lat="55.7573449" lon="49.1370344"><time>2022-10-29T11:13:00.290</time></trkpt><trkpt lat="55.7573878" lon="49.1370604"><time>2022-10-29T11:13:01.293</time></trkpt><trkpt lat="55.7574288" lon="49.1371367"><time>2022-10-29T11:13:02.297</time></trkpt><trkpt lat="55.7574687" lon="49.1372221"><time>2022-10-29T11:13:03.297</time></trkpt><trkpt lat="55.7575025" lon="49.1372985"><time>2022-10-29T11:13:04.297</time></trkpt><trkpt lat="55.7575348" lon="49.1373715"><time>2022-10-29T11:13:05.320</time></trkpt><trkpt lat="55.7575670" lon="49.1374395"><time>2022-10-29T11:13:06.293</time></trkpt><trkpt lat="55.7575983" lon="49.1375029"><time>2022-10-29T11:13:07.293</time></trkpt><trkpt lat="55.7576279" lon="49.1375630"><time>2022-10-29T11:13:08.307</time></trkpt><trkpt lat="55.7576819" lon="49.1376712"><time>2022-10-29T11:13:10.297</time></trkpt><trkpt lat="55.7577377" lon="49.1377777"><time>2022-10-29T11:13:12.307</time></trkpt><trkpt lat="55.7577985" lon="49.1378847"><time>2022-10-29T11:13:14.293</time></trkpt><trkpt lat="55.7578276" lon="49.1379484"><time>2022-10-29T11:13:15.297</time></trkpt><trkpt lat="55.7578568" lon="49.1380133"><time>2022-10-29T11:13:16.293</time></trkpt><trkpt lat="55.7578844" lon="49.1380775"><time>2022-10-29T11:13:17.290</time></trkpt><trkpt lat="55.7579170" lon="49.1381449"><time>2022-10-29T11:13:18.297</time></trkpt><trkpt lat="55.7579547" lon="49.1382196"><time>2022-10-29T11:13:19.297</time></trkpt><trkpt lat="55.7579984" lon="49.1382979"><time>2022-10-29T11:13:20.293</time></trkpt><trkpt lat="55.7580443" lon="49.1383843"><time>2022-10-29T11:13:21.293</time></trkpt><trkpt lat="55.7580903" lon="49.1384743"><time>2022-10-29T11:13:22.297</time></trkpt><trkpt lat="55.7581300" lon="49.1385653"><time>2022-10-29T11:13:23.303</time></trkpt><trkpt lat="55.7581630" lon="49.1386481"><time>2022-10-29T11:13:24.293</time></trkpt><trkpt lat="55.7581950" lon="49.1387247"><time>2022-10-29T11:13:25.290</time></trkpt><trkpt lat="55.7582244" lon="49.1388011"><time>2022-10-29T11:13:26.297</time></trkpt><trkpt lat="55.7582554" lon="49.1388817"><time>2022-10-29T11:13:27.303</time></trkpt><trkpt lat="55.7582889" lon="49.1389633"><time>2022-10-29T11:13:28.300</time></trkpt><trkpt lat="55.7583268" lon="49.1390449"><time>2022-10-29T11:13:29.293</time></trkpt><trkpt lat="55.7583627" lon="49.1391231"><time>2022-10-29T11:13:30.300</time></trkpt><trkpt lat="55.7583967" lon="49.1391978"><time>2022-10-29T11:13:31.293</time></trkpt><trkpt lat="55.7584332" lon="49.1392663"><time>2022-10-29T11:13:32.297</time></trkpt><trkpt lat="55.7584653" lon="49.1393368"><time>2022-10-29T11:13:33.293</time></trkpt><trkpt lat="55.7584954" lon="49.1394433"><time>2022-10-29T11:13:35.300</time></trkpt><trkpt lat="55.7584623" lon="49.1395395"><time>2022-10-29T11:13:39.293</time></trkpt><trkpt lat="55.7584288" lon="49.1396375"><time>2022-10-29T11:13:42.303</time></trkpt><trkpt lat="55.7584141" lon="49.1397256"><time>2022-10-29T11:13:46.300</time></trkpt><trkpt lat="55.7584670" lon="49.1398013"><time>2022-10-29T11:13:49.290</time></trkpt><trkpt lat="55.7585507" lon="49.1398487"><time>2022-10-29T11:13:51.293</time></trkpt><trkpt lat="55.7586000" lon="49.1398495"><time>2022-10-29T11:13:52.293</time></trkpt><trkpt lat="55.7586478" lon="49.1398378"><time>2022-10-29T11:13:53.297</time></trkpt><trkpt lat="55.7586926" lon="49.1398165"><time>2022-10-29T11:13:54.300</time></trkpt><trkpt lat="55.7587453" lon="49.1397968"><time>2022-10-29T11:13:56.290</time></trkpt><trkpt lat="55.7587952" lon="49.1397649"><time>2022-10-29T11:13:58.307</time></trkpt><trkpt lat="55.7587993" lon="49.1396761"><time>2022-10-29T11:14:01.293</time></trkpt><trkpt lat="55.7587536" lon="49.1397144"><time>2022-10-29T11:14:39.290</time></trkpt><trkpt lat="55.7587085" lon="49.1397769"><time>2022-10-29T11:14:41.290</time></trkpt><trkpt lat="55.7586764" lon="49.1398635"><time>2022-10-29T11:14:43.293</time></trkpt><trkpt lat="55.7586404" lon="49.1399568"><time>2022-10-29T11:14:45.297</time></trkpt><trkpt lat="55.7586521" lon="49.1400700"><time>2022-10-29T11:14:47.293</time></trkpt><trkpt lat="55.7587332" lon="49.1401426"><time>2022-10-29T11:14:49.287</time></trkpt><trkpt lat="55.7587907" lon="49.1401409"><time>2022-10-29T11:14:50.277</time></trkpt><trkpt lat="55.7588462" lon="49.1401200"><time>2022-10-29T11:14:51.303</time></trkpt><trkpt lat="55.7588961" lon="49.1400825"><time>2022-10-29T11:14:52.280</time></trkpt><trkpt lat="55.7589442" lon="49.1400364"><time>2022-10-29T11:14:53.300</time></trkpt><trkpt lat="55.7589899" lon="49.1399872"><time>2022-10-29T11:14:54.293</time></trkpt><trkpt lat="55.7590299" lon="49.1399427"><time>2022-10-29T11:14:55.297</time></trkpt><trkpt lat="55.7590706" lon="49.1399008"><time>2022-10-29T11:14:56.300</time></trkpt><trkpt lat="55.7591134" lon="49.1398622"><time>2022-10-29T11:14:57.290</time></trkpt><trkpt lat="55.7591537" lon="49.1398228"><time>2022-10-29T11:14:58.300</time></trkpt><trkpt lat="55.7591918" lon="49.1397797"><time>2022-10-29T11:14:59.297</time></trkpt><trkpt lat="55.7592644" lon="49.1397150"><time>2022-10-29T11:15:01.303</time></trkpt><trkpt lat="55.7593512" lon="49.1396396"><time>2022-10-29T11:15:03.303</time></trkpt><trkpt lat="55.7594049" lon="49.1395918"><time>2022-10-29T11:15:04.297</time></trkpt><trkpt lat="55.7594660" lon="49.1395438"><time>2022-10-29T11:15:05.300</time></trkpt><trkpt lat="55.7595276" lon="49.1395023"><time>2022-10-29T11:15:06.300</time></trkpt><trkpt lat="55.7595898" lon="49.1394696"><time>2022-10-29T11:15:07.293</time></trkpt><trkpt lat="55.7596512" lon="49.1394325"><time>2022-10-29T11:15:08.293</time></trkpt><trkpt lat="55.7597143" lon="49.1393872"><time>2022-10-29T11:15:09.343</time></trkpt><trkpt lat="55.7597764" lon="49.1393328"><time>2022-10-29T11:15:10.287</time></trkpt><trkpt lat="55.7598374" lon="49.1392777"><time>2022-10-29T11:15:11.297</time></trkpt><trkpt lat="55.7598971" lon="49.1392215"><time>2022-10-29T11:15:12.303</time></trkpt><trkpt lat="55.7599584" lon="49.1391643"><time>2022-10-29T11:15:13.300</time></trkpt><trkpt lat="55.7600215" lon="49.1391053"><time>2022-10-29T11:15:14.307</time></trkpt><trkpt lat="55.7600861" lon="49.1390492"><time>2022-10-29T11:15:15.300</time></trkpt><trkpt lat="55.7601499" lon="49.1389924"><time>2022-10-29T11:15:16.300</time></trkpt><trkpt lat="55.7602147" lon="49.1389376"><time>2022-10-29T11:15:17.300</time></trkpt><trkpt lat="55.7602775" lon="49.1388851"><time>2022-10-29T11:15:18.307</time></trkpt><trkpt lat="55.7603386" lon="49.1388324"><time>2022-10-29T11:15:19.307</time></trkpt><trkpt lat="55.7603997" lon="49.1387804"><time>2022-10-29T11:15:20.287</time></trkpt><trkpt lat="55.7604616" lon="49.1387320"><time>2022-10-29T11:15:21.307</time></trkpt><trkpt lat="55.7605222" lon="49.1386814"><time>2022-10-29T11:15:22.300</time></trkpt><trkpt lat="55.7605834" lon="49.1386307"><time>2022-10-29T11:15:23.343</time></trkpt><trkpt lat="55.7606449" lon="49.1385815"><time>2022-10-29T11:15:24.307</time></trkpt><trkpt lat="55.7607033" lon="49.1385305"><time>2022-10-29T11:15:25.300</time></trkpt><trkpt lat="55.7607606" lon="49.1384801"><time>2022-10-29T11:15:26.303</time></trkpt><trkpt lat="55.7608189" lon="49.1384324"><time>2022-10-29T11:15:27.297</time></trkpt><trkpt lat="55.7608809" lon="49.1383839"><time>2022-10-29T11:15:28.297</time></trkpt><trkpt lat="55.7609408" lon="49.1383317"><time>2022-10-29T11:15:29.307</time></trkpt><trkpt lat="55.7609998" lon="49.1382762"><time>2022-10-29T11:15:30.317</time></trkpt><trkpt lat="55.7610572" lon="49.1382221"><time>2022-10-29T11:15:31.307</time></trkpt><trkpt lat="55.7611133" lon="49.1381676"><time>2022-10-29T11:15:32.300</time></trkpt><trkpt lat="55.7611680" lon="49.1381136"><time>2022-10-29T11:15:33.277</time></trkpt><trkpt lat="55.7612231" lon="49.1380600"><time>2022-10-29T11:15:34.307</time></trkpt><trkpt lat="55.7612765" lon="49.1380092"><time>2022-10-29T11:15:35.327</time></trkpt><trkpt lat="55.7613287" lon="49.1379567"><time>2022-10-29T11:15:36.303</time></trkpt><trkpt lat="55.7613801" lon="49.1379082"><time>2022-10-29T11:15:37.300</time></trkpt><trkpt lat="55.7614233" lon="49.1378776"><time>2022-10-29T11:15:38.303</time></trkpt><trkpt lat="55.7614763" lon="49.1378362"><time>2022-10-29T11:15:59.293</time></trkpt><trkpt lat="55.7615190" lon="49.1377949"><time>2022-10-29T11:16:01.297</time></trkpt><trkpt lat="55.7615734" lon="49.1377544"><time>2022-10-29T11:16:03.300</time></trkpt><trkpt lat="55.7616328" lon="49.1376657"><time>2022-10-29T11:16:05.293</time></trkpt><trkpt lat="55.7616548" lon="49.1375946"><time>2022-10-29T11:16:06.300</time></trkpt><trkpt lat="55.7617074" lon="49.1374747"><time>2022-10-29T11:16:08.323</time></trkpt><trkpt lat="55.7617428" lon="49.1374300"><time>2022-10-29T11:16:09.310</time></trkpt><trkpt lat="55.7618161" lon="49.1373489"><time>2022-10-29T11:16:11.300</time></trkpt><trkpt lat="55.7618585" lon="49.1373115"><time>2022-10-29T11:16:12.280</time></trkpt><trkpt lat="55.7619035" lon="49.1372764"><time>2022-10-29T11:16:13.297</time></trkpt><trkpt lat="55.7619488" lon="49.1372383"><time>2022-10-29T11:16:14.297</time></trkpt><trkpt lat="55.7619946" lon="49.1371949"><time>2022-10-29T11:16:15.300</time></trkpt><trkpt lat="55.7620410" lon="49.1371545"><time>2022-10-29T11:16:16.303</time></trkpt><trkpt lat="55.7620856" lon="49.1371176"><time>2022-10-29T11:16:17.330</time></trkpt><trkpt lat="55.7621309" lon="49.1370811"><time>2022-10-29T11:16:18.313</time></trkpt><trkpt lat="55.7621758" lon="49.1370539"><time>2022-10-29T11:16:19.303</time></trkpt><trkpt lat="55.7622202" lon="49.1370329"><time>2022-10-29T11:16:20.300</time></trkpt><trkpt lat="55.7622642" lon="49.1370091"><time>2022-10-29T11:16:21.300</time></trkpt><trkpt lat="55.7623385" lon="49.1369392"><time>2022-10-29T11:16:23.303</time></trkpt><trkpt lat="55.7624178" lon="49.1368664"><time>2022-10-29T11:16:25.300</time></trkpt><trkpt lat="55.7624987" lon="49.1367982"><time>2022-10-29T11:16:27.300</time></trkpt><trkpt lat="55.7625408" lon="49.1367617"><time>2022-10-29T11:16:28.297</time></trkpt><trkpt lat="55.7625825" lon="49.1367224"><time>2022-10-29T11:16:29.300</time></trkpt><trkpt lat="55.7626272" lon="49.1366831"><time>2022-10-29T11:16:30.300</time></trkpt><trkpt lat="55.7626722" lon="49.1366434"><time>2022-10-29T11:16:31.297</time></trkpt><trkpt lat="55.7627169" lon="49.1366034"><time>2022-10-29T11:16:32.310</time></trkpt><trkpt lat="55.7627637" lon="49.1365634"><time>2022-10-29T11:16:33.300</time></trkpt><trkpt lat="55.7628101" lon="49.1365204"><time>2022-10-29T11:16:34.300</time></trkpt><trkpt lat="55.7628576" lon="49.1364768"><time>2022-10-29T11:16:35.297</time></trkpt><trkpt lat="55.7629048" lon="49.1364371"><time>2022-10-29T11:16:36.330</time></trkpt><trkpt lat="55.7629457" lon="49.1364031"><time>2022-10-29T11:16:37.297</time></trkpt><trkpt lat="55.7630053" lon="49.1364127"><time>2022-10-29T11:16:40.293</time></trkpt><trkpt lat="55.7630609" lon="49.1363916"><time>2022-10-29T11:16:42.307</time></trkpt><trkpt lat="55.7631106" lon="49.1363038"><time>2022-10-29T11:16:44.297</time></trkpt><trkpt lat="55.7631363" lon="49.1361855"><time>2022-10-29T11:16:46.300</time></trkpt><trkpt lat="55.7631337" lon="49.1360720"><time>2022-10-29T11:16:48.303</time></trkpt><trkpt lat="55.7631421" lon="49.1359473"><time>2022-10-29T11:16:50.300</time></trkpt><trkpt lat="55.7631461" lon="49.1358292"><time>2022-10-29T11:16:52.307</time></trkpt><trkpt lat="55.7631461" lon="49.1357008"><time>2022-10-29T11:16:54.293</time></trkpt><trkpt lat="55.7631461" lon="49.1355545"><time>2022-10-29T11:16:56.303</time></trkpt><trkpt lat="55.7631516" lon="49.1353951"><time>2022-10-29T11:16:58.307</time></trkpt><trkpt lat="55.7631508" lon="49.1353101"><time>2022-10-29T11:16:59.300</time></trkpt><trkpt lat="55.7631484" lon="49.1352217"><time>2022-10-29T11:17:00.287</time></trkpt><trkpt lat="55.7631438" lon="49.1351308"><time>2022-10-29T11:17:01.297</time></trkpt><trkpt lat="55.7631402" lon="49.1350428"><time>2022-10-29T11:17:02.300</time></trkpt><trkpt lat="55.7631408" lon="49.1349541"><time>2022-10-29T11:17:03.300</time></trkpt><trkpt lat="55.7631451" lon="49.1348619"><time>2022-10-29T11:17:04.297</time></trkpt><trkpt lat="55.7631489" lon="49.1347676"><time>2022-10-29T11:17:05.297</time></trkpt><trkpt lat="55.7631515" lon="49.1346747"><time>2022-10-29T11:17:06.287</time></trkpt><trkpt lat="55.7631526" lon="49.1345798"><time>2022-10-29T11:17:07.303</time></trkpt><trkpt lat="55.7631544" lon="49.1344836"><time>2022-10-29T11:17:08.267</time></trkpt><trkpt lat="55.7631562" lon="49.1343893"><time>2022-10-29T11:17:09.297</time></trkpt><trkpt lat="55.7631608" lon="49.1342961"><time>2022-10-29T11:17:10.297</time></trkpt><trkpt lat="55.7631659" lon="49.1342091"><time>2022-10-29T11:17:11.303</time></trkpt><trkpt lat="55.7631662" lon="49.1340490"><time>2022-10-29T11:17:13.300</time></trkpt><trkpt lat="55.7631712" lon="49.1339671"><time>2022-10-29T11:17:14.300</time></trkpt><trkpt lat="55.7631872" lon="49.1338303"><time>2022-10-29T11:17:16.300</time></trkpt><trkpt lat="55.7632038" lon="49.1337428"><time>2022-10-29T11:17:18.300</time></trkpt><trkpt lat="55.7632329" lon="49.1336750"><time>2022-10-29T11:17:23.300</time></trkpt><trkpt lat="55.7632644" lon="49.1336031"><time>2022-10-29T11:17:26.297</time></trkpt><trkpt lat="55.7632858" lon="49.1335172"><time>2022-10-29T11:17:29.297</time></trkpt><trkpt lat="55.7632907" lon="49.1334349"><time>2022-10-29T11:17:33.283</time></trkpt><trkpt lat="55.7633407" lon="49.1334732"><time>2022-10-29T11:18:12.293</time></trkpt><trkpt lat="55.7633843" lon="49.1334251"><time>2022-10-29T11:18:17.287</time></trkpt><trkpt lat="55.7633457" lon="49.1333773"><time>2022-10-29T11:18:26.283</time></trkpt><trkpt lat="55.7633979" lon="49.1333611"><time>2022-10-29T11:18:43.297</time></trkpt><trkpt lat="55.7634490" lon="49.1333830"><time>2022-10-29T11:18:46.293</time></trkpt><trkpt lat="55.7634036" lon="49.1334139"><time>2022-10-29T11:19:10.287</time></trkpt><trkpt lat="55.7633722" lon="49.1334721"><time>2022-10-29T11:19:28.303</time></trkpt><trkpt lat="55.7633261" lon="49.1334879"><time>2022-10-29T11:19:31.297</time></trkpt><trkpt lat="55.7632801" lon="49.1334704"><time>2022-10-29T11:19:34.300</time></trkpt><trkpt lat="55.7632865" lon="49.1333814"><time>2022-10-29T11:19:39.283</time></trkpt><trkpt lat="55.7632706" lon="49.1332997"><time>2022-10-29T11:19:43.297</time></trkpt><trkpt lat="55.7632903" lon="49.1333799"><time>2022-10-29T11:20:15.293</time></trkpt><trkpt lat="55.7632826" lon="49.1334606"><time>2022-10-29T11:20:26.297</time></trkpt><trkpt lat="55.7632308" lon="49.1334284"><time>2022-10-29T11:20:38.297</time></trkpt><trkpt lat="55.7631747" lon="49.1334008"><time>2022-10-29T11:20:40.300</time></trkpt><trkpt lat="55.7631131" lon="49.1334158"><time>2022-10-29T11:20:43.303</time></trkpt><trkpt lat="55.7630905" lon="49.1335104"><time>2022-10-29T11:20:46.303</time></trkpt><trkpt lat="55.7630975" lon="49.1336032"><time>2022-10-29T11:20:49.293</time></trkpt><trkpt lat="55.7630935" lon="49.1337067"><time>2022-10-29T11:20:52.303</time></trkpt><trkpt lat="55.7630971" lon="49.1338237"><time>2022-10-29T11:20:54.300</time></trkpt><trkpt lat="55.7630983" lon="49.1339362"><time>2022-10-29T11:20:56.303</time></trkpt><trkpt lat="55.7631152" lon="49.1340640"><time>2022-10-29T11:20:58.307</time></trkpt><trkpt lat="55.7631445" lon="49.1341893"><time>2022-10-29T11:21:00.307</time></trkpt><trkpt lat="55.7631485" lon="49.1342770"><time>2022-10-29T11:21:02.310</time></trkpt><trkpt lat="55.7631497" lon="49.1343914"><time>2022-10-29T11:21:04.300</time></trkpt><trkpt lat="55.7631512" lon="49.1345083"><time>2022-10-29T11:21:06.297</time></trkpt><trkpt lat="55.7631596" lon="49.1346339"><time>2022-10-29T11:21:08.307</time></trkpt><trkpt lat="55.7631671" lon="49.1347713"><time>2022-10-29T11:21:10.297</time></trkpt><trkpt lat="55.7631657" lon="49.1349046"><time>2022-10-29T11:21:12.333</time></trkpt><trkpt lat="55.7631645" lon="49.1350336"><time>2022-10-29T11:21:14.300</time></trkpt><trkpt lat="55.7631600" lon="49.1351648"><time>2022-10-29T11:21:16.300</time></trkpt><trkpt lat="55.7631636" lon="49.1352877"><time>2022-10-29T11:21:18.307</time></trkpt><trkpt lat="55.7631637" lon="49.1354123"><time>2022-10-29T11:21:20.307</time></trkpt><trkpt lat="55.7631636" lon="49.1355351"><time>2022-10-29T11:21:22.307</time></trkpt><trkpt lat="55.7631633" lon="49.1356437"><time>2022-10-29T11:21:24.333</time></trkpt><trkpt lat="55.7631609" lon="49.1357823"><time>2022-10-29T11:21:26.303</time></trkpt><trkpt lat="55.7631581" lon="49.1358998"><time>2022-10-29T11:21:28.303</time></trkpt><trkpt lat="55.7631554" lon="49.1360270"><time>2022-10-29T11:21:30.303</time></trkpt><trkpt lat="55.7631522" lon="49.1361495"><time>2022-10-29T11:21:32.297</time></trkpt><trkpt lat="55.7631448" lon="49.1362790"><time>2022-10-29T11:21:34.300</time></trkpt><trkpt lat="55.7631444" lon="49.1364097"><time>2022-10-29T11:21:36.323</time></trkpt><trkpt lat="55.7631725" lon="49.1365219"><time>2022-10-29T11:21:38.300</time></trkpt><trkpt lat="55.7632172" lon="49.1366393"><time>2022-10-29T11:21:40.300</time></trkpt><trkpt lat="55.7632631" lon="49.1367570"><time>2022-10-29T11:21:42.310</time></trkpt><trkpt lat="55.7632869" lon="49.1368260"><time>2022-10-29T11:21:43.300</time></trkpt><trkpt lat="55.7633097" lon="49.1368966"><time>2022-10-29T11:21:44.300</time></trkpt><trkpt lat="55.7633539" lon="49.1370306"><time>2022-10-29T11:21:46.303</time></trkpt><trkpt lat="55.7634037" lon="49.1371661"><time>2022-10-29T11:21:48.327</time></trkpt><trkpt lat="55.7634379" lon="49.1372239"><time>2022-10-29T11:21:49.297</time></trkpt><trkpt lat="55.7634879" lon="49.1372573"><time>2022-10-29T11:21:51.307</time></trkpt><trkpt lat="55.7635415" lon="49.1372488"><time>2022-10-29T11:21:53.303</time></trkpt><trkpt lat="55.7636548" lon="49.1372565"><time>2022-10-29T11:21:54.307</time></trkpt><trkpt lat="55.7637025" lon="49.1372312"><time>2022-10-29T11:21:55.307</time></trkpt><trkpt lat="55.7637518" lon="49.1372127"><time>2022-10-29T11:21:56.300</time></trkpt><trkpt lat="55.7638003" lon="49.1371893"><time>2022-10-29T11:21:57.300</time></trkpt><trkpt lat="55.7638469" lon="49.1371566"><time>2022-10-29T11:21:58.303</time></trkpt><trkpt lat="55.7638902" lon="49.1371195"><time>2022-10-29T11:21:59.307</time></trkpt><trkpt lat="55.7639349" lon="49.1370817"><time>2022-10-29T11:22:00.303</time></trkpt><trkpt lat="55.7639801" lon="49.1370417"><time>2022-10-29T11:22:01.340</time></trkpt><trkpt lat="55.7640253" lon="49.1370012"><time>2022-10-29T11:22:02.307</time></trkpt><trkpt lat="55.7640707" lon="49.1369581"><time>2022-10-29T11:22:03.303</time></trkpt><trkpt lat="55.7641173" lon="49.1369144"><time>2022-10-29T11:22:04.307</time></trkpt><trkpt lat="55.7641650" lon="49.1368708"><time>2022-10-29T11:22:05.310</time></trkpt><trkpt lat="55.7642144" lon="49.1368295"><time>2022-10-29T11:22:06.300</time></trkpt><trkpt lat="55.7642596" lon="49.1367864"><time>2022-10-29T11:22:07.303</time></trkpt><trkpt lat="55.7643051" lon="49.1367455"><time>2022-10-29T11:22:08.297</time></trkpt><trkpt lat="55.7643527" lon="49.1367052"><time>2022-10-29T11:22:09.293</time></trkpt><trkpt lat="55.7644021" lon="49.1366609"><time>2022-10-29T11:22:10.290</time></trkpt><trkpt lat="55.7644511" lon="49.1366195"><time>2022-10-29T11:22:11.297</time></trkpt><trkpt lat="55.7644983" lon="49.1365816"><time>2022-10-29T11:22:12.303</time></trkpt><trkpt lat="55.7645427" lon="49.1365442"><time>2022-10-29T11:22:13.303</time></trkpt><trkpt lat="55.7645847" lon="49.1365092"><time>2022-10-29T11:22:14.303</time></trkpt><trkpt lat="55.7646282" lon="49.1364738"><time>2022-10-29T11:22:15.287</time></trkpt><trkpt lat="55.7646774" lon="49.1364346"><time>2022-10-29T11:22:17.277</time></trkpt><trkpt lat="55.7647266" lon="49.1363957"><time>2022-10-29T11:22:19.277</time></trkpt><trkpt lat="55.7648512" lon="49.1362981"><time>2022-10-29T11:22:20.287</time></trkpt><trkpt lat="55.7648977" lon="49.1362648"><time>2022-10-29T11:22:21.317</time></trkpt><trkpt lat="55.7649449" lon="49.1362335"><time>2022-10-29T11:22:22.283</time></trkpt><trkpt lat="55.7649925" lon="49.1361988"><time>2022-10-29T11:22:23.303</time></trkpt><trkpt lat="55.7650383" lon="49.1361565"><time>2022-10-29T11:22:24.300</time></trkpt><trkpt lat="55.7650847" lon="49.1361182"><time>2022-10-29T11:22:25.300</time></trkpt><trkpt lat="55.7651315" lon="49.1360838"><time>2022-10-29T11:22:26.297</time></trkpt><trkpt lat="55.7651798" lon="49.1360517"><time>2022-10-29T11:22:27.287</time></trkpt><trkpt lat="55.7652244" lon="49.1360207"><time>2022-10-29T11:22:28.330</time></trkpt><trkpt lat="55.7652666" lon="49.1359871"><time>2022-10-29T11:22:29.313</time></trkpt><trkpt lat="55.7653102" lon="49.1359538"><time>2022-10-29T11:22:30.303</time></trkpt><trkpt lat="55.7653524" lon="49.1359227"><time>2022-10-29T11:22:31.283</time></trkpt><trkpt lat="55.7654307" lon="49.1358497"><time>2022-10-29T11:22:33.300</time></trkpt><trkpt lat="55.7654714" lon="49.1358152"><time>2022-10-29T11:22:34.300</time></trkpt><trkpt lat="55.7655293" lon="49.1358473"><time>2022-10-29T11:22:36.333</time></trkpt><trkpt lat="55.7655293" lon="49.1358473"><time>2022-10-29T11:22:36.363</time></trkpt><trkpt lat="55.7655745" lon="49.1359356"><time>2022-10-29T11:22:38.337</time></trkpt><trkpt lat="55.7655806" lon="49.1359723"><time>2022-10-29T11:22:39.313</time></trkpt><trkpt lat="55.7655019" lon="49.1359932"><time>2022-10-29T11:22:42.303</time></trkpt><trkpt lat="55.7654279" lon="49.1359610"><time>2022-10-29T11:22:44.300</time></trkpt><trkpt lat="55.7653702" lon="49.1359370"><time>2022-10-29T11:22:49.300</time></trkpt><trkpt lat="55.7653105" lon="49.1359511"><time>2022-10-29T11:22:51.303</time></trkpt><trkpt lat="55.7652424" lon="49.1360091"><time>2022-10-29T11:22:53.277</time></trkpt><trkpt lat="55.7651711" lon="49.1360684"><time>2022-10-29T11:22:55.300</time></trkpt><trkpt lat="55.7650918" lon="49.1361284"><time>2022-10-29T11:22:57.303</time></trkpt><trkpt lat="55.7650434" lon="49.1361372"><time>2022-10-29T11:22:58.303</time></trkpt><trkpt lat="55.7649907" lon="49.1361432"><time>2022-10-29T11:22:59.300</time></trkpt><trkpt lat="55.7649378" lon="49.1361557"><time>2022-10-29T11:23:00.303</time></trkpt><trkpt lat="55.7648879" lon="49.1361758"><time>2022-10-29T11:23:01.300</time></trkpt><trkpt lat="55.7648397" lon="49.1362112"><time>2022-10-29T11:23:02.303</time></trkpt><trkpt lat="55.7647920" lon="49.1362518"><time>2022-10-29T11:23:03.297</time></trkpt><trkpt lat="55.7647448" lon="49.1362946"><time>2022-10-29T11:23:04.297</time></trkpt><trkpt lat="55.7646969" lon="49.1363347"><time>2022-10-29T11:23:05.327</time></trkpt><trkpt lat="55.7646462" lon="49.1363755"><time>2022-10-29T11:23:06.300</time></trkpt><trkpt lat="55.7645942" lon="49.1364170"><time>2022-10-29T11:23:07.300</time></trkpt><trkpt lat="55.7645411" lon="49.1364551"><time>2022-10-29T11:23:08.303</time></trkpt><trkpt lat="55.7644864" lon="49.1364911"><time>2022-10-29T11:23:09.303</time></trkpt><trkpt lat="55.7644309" lon="49.1365295"><time>2022-10-29T11:23:10.297</time></trkpt><trkpt lat="55.7643736" lon="49.1365664"><time>2022-10-29T11:23:11.303</time></trkpt><trkpt lat="55.7643160" lon="49.1366068"><time>2022-10-29T11:23:12.307</time></trkpt><trkpt lat="55.7642583" lon="49.1366483"><time>2022-10-29T11:23:13.300</time></trkpt><trkpt lat="55.7642023" lon="49.1366891"><time>2022-10-29T11:23:14.303</time></trkpt><trkpt lat="55.7641449" lon="49.1367301"><time>2022-10-29T11:23:15.303</time></trkpt><trkpt lat="55.7640882" lon="49.1367716"><time>2022-10-29T11:23:16.303</time></trkpt><trkpt lat="55.7640320" lon="49.1368164"><time>2022-10-29T11:23:17.303</time></trkpt><trkpt lat="55.7639755" lon="49.1368645"><time>2022-10-29T11:23:18.307</time></trkpt><trkpt lat="55.7639203" lon="49.1369142"><time>2022-10-29T11:23:19.300</time></trkpt><trkpt lat="55.7638654" lon="49.1369662"><time>2022-10-29T11:23:20.303</time></trkpt><trkpt lat="55.7638126" lon="49.1370168"><time>2022-10-29T11:23:21.310</time></trkpt><trkpt lat="55.7637624" lon="49.1370714"><time>2022-10-29T11:23:22.307</time></trkpt><trkpt lat="55.7637158" lon="49.1371278"><time>2022-10-29T11:23:23.300</time></trkpt><trkpt lat="55.7636701" lon="49.1371847"><time>2022-10-29T11:23:24.300</time></trkpt><trkpt lat="55.7636225" lon="49.1372314"><time>2022-10-29T11:23:25.303</time></trkpt><trkpt lat="55.7635730" lon="49.1372603"><time>2022-10-29T11:23:26.303</time></trkpt><trkpt lat="55.7635233" lon="49.1372753"><time>2022-10-29T11:23:27.307</time></trkpt><trkpt lat="55.7634699" lon="49.1372672"><time>2022-10-29T11:23:28.307</time></trkpt><trkpt lat="55.7634201" lon="49.1372273"><time>2022-10-29T11:23:29.327</time></trkpt><trkpt lat="55.7633806" lon="49.1371648"><time>2022-10-29T11:23:30.307</time></trkpt><trkpt lat="55.7633443" lon="49.1370873"><time>2022-10-29T11:23:31.307</time></trkpt><trkpt lat="55.7633130" lon="49.1370038"><time>2022-10-29T11:23:32.303</time></trkpt><trkpt lat="55.7632874" lon="49.1369130"><time>2022-10-29T11:23:33.300</time></trkpt><trkpt lat="55.7632633" lon="49.1368197"><time>2022-10-29T11:23:34.300</time></trkpt><trkpt lat="55.7632368" lon="49.1367324"><time>2022-10-29T11:23:35.303</time></trkpt><trkpt lat="55.7632057" lon="49.1366505"><time>2022-10-29T11:23:36.300</time></trkpt><trkpt lat="55.7631626" lon="49.1365754"><time>2022-10-29T11:23:37.300</time></trkpt><trkpt lat="55.7631089" lon="49.1365224"><time>2022-10-29T11:23:38.303</time></trkpt><trkpt lat="55.7630524" lon="49.1365016"><time>2022-10-29T11:23:39.307</time></trkpt><trkpt lat="55.7629917" lon="49.1365005"><time>2022-10-29T11:23:40.300</time></trkpt><trkpt lat="55.7629282" lon="49.1365166"><time>2022-10-29T11:23:41.327</time></trkpt><trkpt lat="55.7628648" lon="49.1365545"><time>2022-10-29T11:23:42.340</time></trkpt><trkpt lat="55.7628050" lon="49.1366076"><time>2022-10-29T11:23:43.317</time></trkpt><trkpt lat="55.7627480" lon="49.1366650"><time>2022-10-29T11:23:44.307</time></trkpt><trkpt lat="55.7626927" lon="49.1367137"><time>2022-10-29T11:23:45.303</time></trkpt><trkpt lat="55.7626381" lon="49.1367611"><time>2022-10-29T11:23:46.303</time></trkpt><trkpt lat="55.7625863" lon="49.1368053"><time>2022-10-29T11:23:47.310</time></trkpt><trkpt lat="55.7625358" lon="49.1368487"><time>2022-10-29T11:23:48.303</time></trkpt><trkpt lat="55.7624845" lon="49.1368911"><time>2022-10-29T11:23:49.303</time></trkpt><trkpt lat="55.7624295" lon="49.1369333"><time>2022-10-29T11:23:50.303</time></trkpt><trkpt lat="55.7623771" lon="49.1369761"><time>2022-10-29T11:23:51.303</time></trkpt><trkpt lat="55.7623237" lon="49.1370209"><time>2022-10-29T11:23:52.307</time></trkpt><trkpt lat="55.7622701" lon="49.1370666"><time>2022-10-29T11:23:53.327</time></trkpt><trkpt lat="55.7622145" lon="49.1371131"><time>2022-10-29T11:23:54.307</time></trkpt><trkpt lat="55.7621602" lon="49.1371560"><time>2022-10-29T11:23:55.310</time></trkpt><trkpt lat="55.7621057" lon="49.1371945"><time>2022-10-29T11:23:56.303</time></trkpt><trkpt lat="55.7620490" lon="49.1372331"><time>2022-10-29T11:23:57.337</time></trkpt><trkpt lat="55.7619927" lon="49.1372759"><time>2022-10-29T11:23:58.320</time></trkpt><trkpt lat="55.7619378" lon="49.1373256"><time>2022-10-29T11:23:59.310</time></trkpt><trkpt lat="55.7618831" lon="49.1373810"><time>2022-10-29T11:24:00.307</time></trkpt><trkpt lat="55.7618278" lon="49.1374346"><time>2022-10-29T11:24:01.303</time></trkpt><trkpt lat="55.7617718" lon="49.1374839"><time>2022-10-29T11:24:02.303</time></trkpt><trkpt lat="55.7617160" lon="49.1375292"><time>2022-10-29T11:24:03.300</time></trkpt><trkpt lat="55.7616606" lon="49.1375590"><time>2022-10-29T11:24:04.337</time></trkpt><trkpt lat="55.7616047" lon="49.1375641"><time>2022-10-29T11:24:05.333</time></trkpt><trkpt lat="55.7615556" lon="49.1375448"><time>2022-10-29T11:24:06.307</time></trkpt><trkpt lat="55.7614904" lon="49.1374396"><time>2022-10-29T11:24:08.303</time></trkpt><trkpt lat="55.7614625" lon="49.1373592"><time>2022-10-29T11:24:09.300</time></trkpt><trkpt lat="55.7614308" lon="49.1372799"><time>2022-10-29T11:24:10.300</time></trkpt><trkpt lat="55.7613876" lon="49.1372209"><time>2022-10-29T11:24:11.307</time></trkpt><trkpt lat="55.7613357" lon="49.1371941"><time>2022-10-29T11:24:12.307</time></trkpt><trkpt lat="55.7612911" lon="49.1372107"><time>2022-10-29T11:24:13.303</time></trkpt><trkpt lat="55.7612516" lon="49.1372565"><time>2022-10-29T11:24:14.307</time></trkpt><trkpt lat="55.7612262" lon="49.1373318"><time>2022-10-29T11:24:15.310</time></trkpt><trkpt lat="55.7612179" lon="49.1374348"><time>2022-10-29T11:24:16.307</time></trkpt><trkpt lat="55.7612187" lon="49.1375280"><time>2022-10-29T11:24:17.310</time></trkpt><trkpt lat="55.7612132" lon="49.1376714"><time>2022-10-29T11:24:19.310</time></trkpt><trkpt lat="55.7612050" lon="49.1377563"><time>2022-10-29T11:24:21.310</time></trkpt></trkseg></trk></gpx>